<?xml version="1.0" encoding="UTF-8" standalone="no" ?>
<gpx xmlns="http://www.topografix.com/GPX/1/1" xmlns:xsi="http://www.w3.org/2001/XMLSchema-instance" xsi:schemaLocation="http://www.topografix.com/GPX/1/1 http://www.topografix.com/GPX/1/1/gpx.xsd" version="1.1" creator="VisuGPX - https://www.visugpx.com">
  <metadata>
    <name>Le Villaret-Dourbies</name>
    <desc><![CDATA[Départ du village "le Villaret" près de Trèves (30); on monte à travers la forêt jusqu'à Comeiras (très beau parcours où on passe à côté de la Baume Saint Firmin), puis montée au col du Suquet, redescente sur Dourbies, et remontée par Roucabié vers le Serre du Cade (bon petit raidillon), avant de redescendre sur le Villaret]]></desc>
  </metadata>
  <trk>
    <name><![CDATA[07-AOU-16 17:38:07]]></name>
    <trkseg>
      <trkpt lat="44.07803" lon="3.39347">
        <ele>634.61</ele>
        <time>2016-08-07T07:44:40Z</time>
      </trkpt>
      <trkpt lat="44.07804" lon="3.39341">
        <ele>631.24</ele>
        <time>2016-08-07T07:44:57Z</time>
      </trkpt>
      <trkpt lat="44.07803" lon="3.39345">
        <ele>626.92</ele>
        <time>2016-08-07T07:45:11Z</time>
      </trkpt>
      <trkpt lat="44.07803" lon="3.39342">
        <ele>629.32</ele>
        <time>2016-08-07T07:45:23Z</time>
      </trkpt>
      <trkpt lat="44.07803" lon="3.39341">
        <ele>631.72</ele>
        <time>2016-08-07T07:45:30Z</time>
      </trkpt>
      <trkpt lat="44.07802" lon="3.3934">
        <ele>632.68</ele>
        <time>2016-08-07T07:45:37Z</time>
      </trkpt>
      <trkpt lat="44.07799" lon="3.39336">
        <ele>635.09</ele>
        <time>2016-08-07T07:45:45Z</time>
      </trkpt>
      <trkpt lat="44.07797" lon="3.39332">
        <ele>634.61</ele>
        <time>2016-08-07T07:45:51Z</time>
      </trkpt>
      <trkpt lat="44.07791" lon="3.39331">
        <ele>634.61</ele>
        <time>2016-08-07T07:45:59Z</time>
      </trkpt>
      <trkpt lat="44.0779" lon="3.39334">
        <ele>634.61</ele>
        <time>2016-08-07T07:46:07Z</time>
      </trkpt>
      <trkpt lat="44.07788" lon="3.39335">
        <ele>635.57</ele>
        <time>2016-08-07T07:46:16Z</time>
      </trkpt>
      <trkpt lat="44.0779" lon="3.39333">
        <ele>635.57</ele>
        <time>2016-08-07T07:46:22Z</time>
      </trkpt>
      <trkpt lat="44.07794" lon="3.3933">
        <ele>635.09</ele>
        <time>2016-08-07T07:46:31Z</time>
      </trkpt>
      <trkpt lat="44.07794" lon="3.39335">
        <ele>634.13</ele>
        <time>2016-08-07T07:46:38Z</time>
      </trkpt>
      <trkpt lat="44.07796" lon="3.39336">
        <ele>633.65</ele>
        <time>2016-08-07T07:46:44Z</time>
      </trkpt>
      <trkpt lat="44.07796" lon="3.39336">
        <ele>633.65</ele>
        <time>2016-08-07T07:46:54Z</time>
      </trkpt>
      <trkpt lat="44.07796" lon="3.39336">
        <ele>633.65</ele>
        <time>2016-08-07T07:47:06Z</time>
      </trkpt>
      <trkpt lat="44.07796" lon="3.39336">
        <ele>633.65</ele>
        <time>2016-08-07T07:47:15Z</time>
      </trkpt>
      <trkpt lat="44.07796" lon="3.39337">
        <ele>633.65</ele>
        <time>2016-08-07T07:47:23Z</time>
      </trkpt>
      <trkpt lat="44.07796" lon="3.39337">
        <ele>633.65</ele>
        <time>2016-08-07T07:47:37Z</time>
      </trkpt>
      <trkpt lat="44.07796" lon="3.39337">
        <ele>633.65</ele>
        <time>2016-08-07T07:47:50Z</time>
      </trkpt>
      <trkpt lat="44.07797" lon="3.39337">
        <ele>633.17</ele>
        <time>2016-08-07T07:48:00Z</time>
      </trkpt>
      <trkpt lat="44.07797" lon="3.39337">
        <ele>632.68</ele>
        <time>2016-08-07T07:48:07Z</time>
      </trkpt>
      <trkpt lat="44.07798" lon="3.39338">
        <ele>632.68</ele>
        <time>2016-08-07T07:48:17Z</time>
      </trkpt>
      <trkpt lat="44.078" lon="3.39338">
        <ele>632.2</ele>
        <time>2016-08-07T07:48:26Z</time>
      </trkpt>
      <trkpt lat="44.078" lon="3.39338">
        <ele>632.2</ele>
        <time>2016-08-07T07:48:40Z</time>
      </trkpt>
      <trkpt lat="44.078" lon="3.39339">
        <ele>631.72</ele>
        <time>2016-08-07T07:48:48Z</time>
      </trkpt>
      <trkpt lat="44.078" lon="3.39339">
        <ele>631.72</ele>
        <time>2016-08-07T07:49:01Z</time>
      </trkpt>
      <trkpt lat="44.078" lon="3.39339">
        <ele>631.72</ele>
        <time>2016-08-07T07:49:12Z</time>
      </trkpt>
      <trkpt lat="44.078" lon="3.39339">
        <ele>631.72</ele>
        <time>2016-08-07T07:49:22Z</time>
      </trkpt>
      <trkpt lat="44.07799" lon="3.39338">
        <ele>629.8</ele>
        <time>2016-08-07T07:49:29Z</time>
      </trkpt>
      <trkpt lat="44.07798" lon="3.39337">
        <ele>629.32</ele>
        <time>2016-08-07T07:49:30Z</time>
      </trkpt>
      <trkpt lat="44.07797" lon="3.39336">
        <ele>628.36</ele>
        <time>2016-08-07T07:49:32Z</time>
      </trkpt>
      <trkpt lat="44.07794" lon="3.39331">
        <ele>625.96</ele>
        <time>2016-08-07T07:49:37Z</time>
      </trkpt>
      <trkpt lat="44.07797" lon="3.39325">
        <ele>624.99</ele>
        <time>2016-08-07T07:49:45Z</time>
      </trkpt>
      <trkpt lat="44.07797" lon="3.39323">
        <ele>624.99</ele>
        <time>2016-08-07T07:49:47Z</time>
      </trkpt>
      <trkpt lat="44.07802" lon="3.39323">
        <ele>624.99</ele>
        <time>2016-08-07T07:49:51Z</time>
      </trkpt>
      <trkpt lat="44.07807" lon="3.39325">
        <ele>625.96</ele>
        <time>2016-08-07T07:49:59Z</time>
      </trkpt>
      <trkpt lat="44.07807" lon="3.39327">
        <ele>625.96</ele>
        <time>2016-08-07T07:50:10Z</time>
      </trkpt>
      <trkpt lat="44.07807" lon="3.39327">
        <ele>625.96</ele>
        <time>2016-08-07T07:50:20Z</time>
      </trkpt>
      <trkpt lat="44.07807" lon="3.39327">
        <ele>625.96</ele>
        <time>2016-08-07T07:50:31Z</time>
      </trkpt>
      <trkpt lat="44.07807" lon="3.39327">
        <ele>625.96</ele>
        <time>2016-08-07T07:50:45Z</time>
      </trkpt>
      <trkpt lat="44.07808" lon="3.39327">
        <ele>625.96</ele>
        <time>2016-08-07T07:50:58Z</time>
      </trkpt>
      <trkpt lat="44.07808" lon="3.39327">
        <ele>625.96</ele>
        <time>2016-08-07T07:51:08Z</time>
      </trkpt>
      <trkpt lat="44.07811" lon="3.39334">
        <ele>626.92</ele>
        <time>2016-08-07T07:51:14Z</time>
      </trkpt>
      <trkpt lat="44.07811" lon="3.39344">
        <ele>626.44</ele>
        <time>2016-08-07T07:51:21Z</time>
      </trkpt>
      <trkpt lat="44.07808" lon="3.39354">
        <ele>625.96</ele>
        <time>2016-08-07T07:51:28Z</time>
      </trkpt>
      <trkpt lat="44.07808" lon="3.39361">
        <ele>625.47</ele>
        <time>2016-08-07T07:51:34Z</time>
      </trkpt>
      <trkpt lat="44.07809" lon="3.39363">
        <ele>625.47</ele>
        <time>2016-08-07T07:51:36Z</time>
      </trkpt>
      <trkpt lat="44.07809" lon="3.39367">
        <ele>624.99</ele>
        <time>2016-08-07T07:51:38Z</time>
      </trkpt>
      <trkpt lat="44.07807" lon="3.39375">
        <ele>624.51</ele>
        <time>2016-08-07T07:51:45Z</time>
      </trkpt>
      <trkpt lat="44.07808" lon="3.39384">
        <ele>624.51</ele>
        <time>2016-08-07T07:51:51Z</time>
      </trkpt>
      <trkpt lat="44.07811" lon="3.39394">
        <ele>624.51</ele>
        <time>2016-08-07T07:51:58Z</time>
      </trkpt>
      <trkpt lat="44.07809" lon="3.39405">
        <ele>624.51</ele>
        <time>2016-08-07T07:52:04Z</time>
      </trkpt>
      <trkpt lat="44.07809" lon="3.39417">
        <ele>625.47</ele>
        <time>2016-08-07T07:52:11Z</time>
      </trkpt>
      <trkpt lat="44.07814" lon="3.39427">
        <ele>626.44</ele>
        <time>2016-08-07T07:52:19Z</time>
      </trkpt>
      <trkpt lat="44.07821" lon="3.39435">
        <ele>626.44</ele>
        <time>2016-08-07T07:52:27Z</time>
      </trkpt>
      <trkpt lat="44.07826" lon="3.39443">
        <ele>625.96</ele>
        <time>2016-08-07T07:52:34Z</time>
      </trkpt>
      <trkpt lat="44.07828" lon="3.39453">
        <ele>625.96</ele>
        <time>2016-08-07T07:52:42Z</time>
      </trkpt>
      <trkpt lat="44.0783" lon="3.39462">
        <ele>625.96</ele>
        <time>2016-08-07T07:52:49Z</time>
      </trkpt>
      <trkpt lat="44.07831" lon="3.39471">
        <ele>625.47</ele>
        <time>2016-08-07T07:52:57Z</time>
      </trkpt>
      <trkpt lat="44.07833" lon="3.39479">
        <ele>624.03</ele>
        <time>2016-08-07T07:53:05Z</time>
      </trkpt>
      <trkpt lat="44.07837" lon="3.39493">
        <ele>623.55</ele>
        <time>2016-08-07T07:53:13Z</time>
      </trkpt>
      <trkpt lat="44.07838" lon="3.395">
        <ele>623.55</ele>
        <time>2016-08-07T07:53:18Z</time>
      </trkpt>
      <trkpt lat="44.07841" lon="3.3951">
        <ele>624.03</ele>
        <time>2016-08-07T07:53:26Z</time>
      </trkpt>
      <trkpt lat="44.07842" lon="3.39517">
        <ele>624.03</ele>
        <time>2016-08-07T07:53:34Z</time>
      </trkpt>
      <trkpt lat="44.07847" lon="3.39527">
        <ele>625.47</ele>
        <time>2016-08-07T07:53:43Z</time>
      </trkpt>
      <trkpt lat="44.0785" lon="3.39537">
        <ele>625.96</ele>
        <time>2016-08-07T07:53:51Z</time>
      </trkpt>
      <trkpt lat="44.07853" lon="3.39541">
        <ele>626.44</ele>
        <time>2016-08-07T07:53:55Z</time>
      </trkpt>
      <trkpt lat="44.07859" lon="3.3955">
        <ele>628.84</ele>
        <time>2016-08-07T07:54:03Z</time>
      </trkpt>
      <trkpt lat="44.07864" lon="3.39559">
        <ele>631.72</ele>
        <time>2016-08-07T07:54:11Z</time>
      </trkpt>
      <trkpt lat="44.07868" lon="3.39563">
        <ele>631.72</ele>
        <time>2016-08-07T07:54:18Z</time>
      </trkpt>
      <trkpt lat="44.07869" lon="3.39565">
        <ele>632.2</ele>
        <time>2016-08-07T07:54:25Z</time>
      </trkpt>
      <trkpt lat="44.07872" lon="3.39568">
        <ele>632.68</ele>
        <time>2016-08-07T07:54:34Z</time>
      </trkpt>
      <trkpt lat="44.07879" lon="3.39575">
        <ele>634.13</ele>
        <time>2016-08-07T07:54:42Z</time>
      </trkpt>
      <trkpt lat="44.07884" lon="3.39579">
        <ele>634.13</ele>
        <time>2016-08-07T07:54:49Z</time>
      </trkpt>
      <trkpt lat="44.07887" lon="3.39584">
        <ele>635.09</ele>
        <time>2016-08-07T07:54:57Z</time>
      </trkpt>
      <trkpt lat="44.07888" lon="3.39587">
        <ele>635.57</ele>
        <time>2016-08-07T07:55:03Z</time>
      </trkpt>
      <trkpt lat="44.07891" lon="3.39591">
        <ele>636.05</ele>
        <time>2016-08-07T07:55:08Z</time>
      </trkpt>
      <trkpt lat="44.07898" lon="3.39599">
        <ele>635.57</ele>
        <time>2016-08-07T07:55:15Z</time>
      </trkpt>
      <trkpt lat="44.07901" lon="3.39601">
        <ele>635.09</ele>
        <time>2016-08-07T07:55:21Z</time>
      </trkpt>
      <trkpt lat="44.07902" lon="3.39602">
        <ele>635.57</ele>
        <time>2016-08-07T07:55:29Z</time>
      </trkpt>
      <trkpt lat="44.07904" lon="3.39606">
        <ele>636.05</ele>
        <time>2016-08-07T07:55:33Z</time>
      </trkpt>
      <trkpt lat="44.07911" lon="3.39611">
        <ele>637.97</ele>
        <time>2016-08-07T07:55:40Z</time>
      </trkpt>
      <trkpt lat="44.07911" lon="3.39611">
        <ele>638.45</ele>
        <time>2016-08-07T07:55:41Z</time>
      </trkpt>
      <trkpt lat="44.07919" lon="3.39615">
        <ele>637.49</ele>
        <time>2016-08-07T07:55:49Z</time>
      </trkpt>
      <trkpt lat="44.0792" lon="3.39615">
        <ele>637.49</ele>
        <time>2016-08-07T07:56:00Z</time>
      </trkpt>
      <trkpt lat="44.0792" lon="3.39615">
        <ele>637.49</ele>
        <time>2016-08-07T07:56:19Z</time>
      </trkpt>
      <trkpt lat="44.07919" lon="3.39616">
        <ele>637.97</ele>
        <time>2016-08-07T07:56:35Z</time>
      </trkpt>
      <trkpt lat="44.07919" lon="3.39616">
        <ele>637.97</ele>
        <time>2016-08-07T07:56:52Z</time>
      </trkpt>
      <trkpt lat="44.07919" lon="3.39616">
        <ele>638.93</ele>
        <time>2016-08-07T07:57:12Z</time>
      </trkpt>
      <trkpt lat="44.07919" lon="3.39616">
        <ele>638.93</ele>
        <time>2016-08-07T07:57:28Z</time>
      </trkpt>
      <trkpt lat="44.07919" lon="3.39616">
        <ele>638.93</ele>
        <time>2016-08-07T07:57:46Z</time>
      </trkpt>
      <trkpt lat="44.07919" lon="3.39616">
        <ele>638.93</ele>
        <time>2016-08-07T07:57:50Z</time>
      </trkpt>
      <trkpt lat="44.07914" lon="3.39615">
        <ele>642.3</ele>
        <time>2016-08-07T07:57:56Z</time>
      </trkpt>
      <trkpt lat="44.07909" lon="3.3961">
        <ele>646.14</ele>
        <time>2016-08-07T07:58:03Z</time>
      </trkpt>
      <trkpt lat="44.07906" lon="3.39608">
        <ele>647.59</ele>
        <time>2016-08-07T07:58:10Z</time>
      </trkpt>
      <trkpt lat="44.07906" lon="3.39609">
        <ele>647.59</ele>
        <time>2016-08-07T07:58:17Z</time>
      </trkpt>
      <trkpt lat="44.07906" lon="3.39613">
        <ele>649.51</ele>
        <time>2016-08-07T07:58:25Z</time>
      </trkpt>
      <trkpt lat="44.07896" lon="3.39614">
        <ele>649.51</ele>
        <time>2016-08-07T07:58:32Z</time>
      </trkpt>
      <trkpt lat="44.07893" lon="3.39619">
        <ele>649.99</ele>
        <time>2016-08-07T07:58:41Z</time>
      </trkpt>
      <trkpt lat="44.07892" lon="3.3962">
        <ele>650.47</ele>
        <time>2016-08-07T07:58:50Z</time>
      </trkpt>
      <trkpt lat="44.07893" lon="3.39625">
        <ele>651.43</ele>
        <time>2016-08-07T07:58:56Z</time>
      </trkpt>
      <trkpt lat="44.07892" lon="3.39628">
        <ele>651.43</ele>
        <time>2016-08-07T07:59:03Z</time>
      </trkpt>
      <trkpt lat="44.07888" lon="3.39631">
        <ele>652.87</ele>
        <time>2016-08-07T07:59:09Z</time>
      </trkpt>
      <trkpt lat="44.07888" lon="3.39634">
        <ele>653.35</ele>
        <time>2016-08-07T07:59:14Z</time>
      </trkpt>
      <trkpt lat="44.0789" lon="3.39639">
        <ele>654.8</ele>
        <time>2016-08-07T07:59:21Z</time>
      </trkpt>
      <trkpt lat="44.0789" lon="3.39641">
        <ele>656.72</ele>
        <time>2016-08-07T07:59:29Z</time>
      </trkpt>
      <trkpt lat="44.07888" lon="3.39647">
        <ele>658.64</ele>
        <time>2016-08-07T07:59:37Z</time>
      </trkpt>
      <trkpt lat="44.07885" lon="3.39653">
        <ele>660.08</ele>
        <time>2016-08-07T07:59:45Z</time>
      </trkpt>
      <trkpt lat="44.07885" lon="3.39656">
        <ele>663.45</ele>
        <time>2016-08-07T07:59:52Z</time>
      </trkpt>
      <trkpt lat="44.07888" lon="3.39659">
        <ele>666.81</ele>
        <time>2016-08-07T08:00:01Z</time>
      </trkpt>
      <trkpt lat="44.07893" lon="3.39665">
        <ele>668.25</ele>
        <time>2016-08-07T08:00:09Z</time>
      </trkpt>
      <trkpt lat="44.07895" lon="3.39671">
        <ele>671.62</ele>
        <time>2016-08-07T08:00:17Z</time>
      </trkpt>
      <trkpt lat="44.07899" lon="3.39674">
        <ele>673.54</ele>
        <time>2016-08-07T08:00:25Z</time>
      </trkpt>
      <trkpt lat="44.07899" lon="3.39675">
        <ele>673.54</ele>
        <time>2016-08-07T08:00:27Z</time>
      </trkpt>
      <trkpt lat="44.07903" lon="3.39683">
        <ele>673.06</ele>
        <time>2016-08-07T08:00:35Z</time>
      </trkpt>
      <trkpt lat="44.07905" lon="3.39692">
        <ele>674.5</ele>
        <time>2016-08-07T08:00:41Z</time>
      </trkpt>
      <trkpt lat="44.07906" lon="3.397">
        <ele>675.46</ele>
        <time>2016-08-07T08:00:49Z</time>
      </trkpt>
      <trkpt lat="44.07909" lon="3.39707">
        <ele>676.91</ele>
        <time>2016-08-07T08:00:55Z</time>
      </trkpt>
      <trkpt lat="44.07907" lon="3.39711">
        <ele>677.39</ele>
        <time>2016-08-07T08:01:05Z</time>
      </trkpt>
      <trkpt lat="44.07903" lon="3.3971">
        <ele>678.35</ele>
        <time>2016-08-07T08:01:11Z</time>
      </trkpt>
      <trkpt lat="44.07897" lon="3.39709">
        <ele>679.79</ele>
        <time>2016-08-07T08:01:18Z</time>
      </trkpt>
      <trkpt lat="44.07895" lon="3.39706">
        <ele>683.15</ele>
        <time>2016-08-07T08:01:23Z</time>
      </trkpt>
      <trkpt lat="44.07892" lon="3.39704">
        <ele>685.56</ele>
        <time>2016-08-07T08:01:27Z</time>
      </trkpt>
      <trkpt lat="44.07888" lon="3.39698">
        <ele>687.96</ele>
        <time>2016-08-07T08:01:33Z</time>
      </trkpt>
      <trkpt lat="44.07884" lon="3.39696">
        <ele>688.44</ele>
        <time>2016-08-07T08:01:40Z</time>
      </trkpt>
      <trkpt lat="44.07882" lon="3.39696">
        <ele>688.44</ele>
        <time>2016-08-07T08:01:46Z</time>
      </trkpt>
      <trkpt lat="44.07883" lon="3.39699">
        <ele>689.88</ele>
        <time>2016-08-07T08:01:53Z</time>
      </trkpt>
      <trkpt lat="44.07884" lon="3.39705">
        <ele>689.88</ele>
        <time>2016-08-07T08:02:00Z</time>
      </trkpt>
      <trkpt lat="44.07878" lon="3.39707">
        <ele>691.33</ele>
        <time>2016-08-07T08:02:06Z</time>
      </trkpt>
      <trkpt lat="44.07874" lon="3.39708">
        <ele>691.81</ele>
        <time>2016-08-07T08:02:11Z</time>
      </trkpt>
      <trkpt lat="44.07869" lon="3.3971">
        <ele>692.29</ele>
        <time>2016-08-07T08:02:18Z</time>
      </trkpt>
      <trkpt lat="44.07866" lon="3.39712">
        <ele>693.25</ele>
        <time>2016-08-07T08:02:24Z</time>
      </trkpt>
      <trkpt lat="44.07869" lon="3.39715">
        <ele>694.69</ele>
        <time>2016-08-07T08:02:31Z</time>
      </trkpt>
      <trkpt lat="44.07871" lon="3.3972">
        <ele>696.13</ele>
        <time>2016-08-07T08:02:37Z</time>
      </trkpt>
      <trkpt lat="44.07874" lon="3.39724">
        <ele>697.09</ele>
        <time>2016-08-07T08:02:46Z</time>
      </trkpt>
      <trkpt lat="44.07877" lon="3.3973">
        <ele>698.53</ele>
        <time>2016-08-07T08:02:55Z</time>
      </trkpt>
      <trkpt lat="44.07879" lon="3.39738">
        <ele>700.46</ele>
        <time>2016-08-07T08:03:03Z</time>
      </trkpt>
      <trkpt lat="44.07874" lon="3.39736">
        <ele>701.9</ele>
        <time>2016-08-07T08:03:10Z</time>
      </trkpt>
      <trkpt lat="44.07868" lon="3.39737">
        <ele>704.3</ele>
        <time>2016-08-07T08:03:18Z</time>
      </trkpt>
      <trkpt lat="44.07868" lon="3.39736">
        <ele>705.26</ele>
        <time>2016-08-07T08:03:25Z</time>
      </trkpt>
      <trkpt lat="44.0787" lon="3.39739">
        <ele>706.71</ele>
        <time>2016-08-07T08:03:32Z</time>
      </trkpt>
      <trkpt lat="44.07874" lon="3.39747">
        <ele>708.63</ele>
        <time>2016-08-07T08:03:40Z</time>
      </trkpt>
      <trkpt lat="44.07876" lon="3.39751">
        <ele>710.55</ele>
        <time>2016-08-07T08:03:49Z</time>
      </trkpt>
      <trkpt lat="44.0788" lon="3.39758">
        <ele>713.44</ele>
        <time>2016-08-07T08:03:56Z</time>
      </trkpt>
      <trkpt lat="44.07881" lon="3.39761">
        <ele>714.88</ele>
        <time>2016-08-07T08:04:03Z</time>
      </trkpt>
      <trkpt lat="44.0788" lon="3.39764">
        <ele>715.84</ele>
        <time>2016-08-07T08:04:10Z</time>
      </trkpt>
      <trkpt lat="44.07877" lon="3.39765">
        <ele>715.84</ele>
        <time>2016-08-07T08:04:16Z</time>
      </trkpt>
      <trkpt lat="44.07874" lon="3.39763">
        <ele>717.28</ele>
        <time>2016-08-07T08:04:23Z</time>
      </trkpt>
      <trkpt lat="44.07873" lon="3.39766">
        <ele>717.76</ele>
        <time>2016-08-07T08:04:28Z</time>
      </trkpt>
      <trkpt lat="44.07875" lon="3.3977">
        <ele>718.72</ele>
        <time>2016-08-07T08:04:36Z</time>
      </trkpt>
      <trkpt lat="44.07879" lon="3.39773">
        <ele>721.61</ele>
        <time>2016-08-07T08:04:43Z</time>
      </trkpt>
      <trkpt lat="44.0788" lon="3.39778">
        <ele>724.01</ele>
        <time>2016-08-07T08:04:52Z</time>
      </trkpt>
      <trkpt lat="44.07883" lon="3.39786">
        <ele>726.89</ele>
        <time>2016-08-07T08:04:59Z</time>
      </trkpt>
      <trkpt lat="44.07885" lon="3.39791">
        <ele>728.82</ele>
        <time>2016-08-07T08:05:07Z</time>
      </trkpt>
      <trkpt lat="44.07887" lon="3.39797">
        <ele>730.26</ele>
        <time>2016-08-07T08:05:15Z</time>
      </trkpt>
      <trkpt lat="44.07889" lon="3.398">
        <ele>731.7</ele>
        <time>2016-08-07T08:05:22Z</time>
      </trkpt>
      <trkpt lat="44.07892" lon="3.39804">
        <ele>733.62</ele>
        <time>2016-08-07T08:05:29Z</time>
      </trkpt>
      <trkpt lat="44.07898" lon="3.39812">
        <ele>738.43</ele>
        <time>2016-08-07T08:05:37Z</time>
      </trkpt>
      <trkpt lat="44.079" lon="3.39817">
        <ele>739.87</ele>
        <time>2016-08-07T08:05:43Z</time>
      </trkpt>
      <trkpt lat="44.07896" lon="3.39822">
        <ele>742.28</ele>
        <time>2016-08-07T08:05:50Z</time>
      </trkpt>
      <trkpt lat="44.07898" lon="3.3983">
        <ele>744.68</ele>
        <time>2016-08-07T08:05:58Z</time>
      </trkpt>
      <trkpt lat="44.07898" lon="3.39837">
        <ele>746.12</ele>
        <time>2016-08-07T08:06:06Z</time>
      </trkpt>
      <trkpt lat="44.07894" lon="3.39836">
        <ele>747.08</ele>
        <time>2016-08-07T08:06:14Z</time>
      </trkpt>
      <trkpt lat="44.07889" lon="3.39834">
        <ele>748.04</ele>
        <time>2016-08-07T08:06:21Z</time>
      </trkpt>
      <trkpt lat="44.07887" lon="3.39832">
        <ele>749.49</ele>
        <time>2016-08-07T08:06:23Z</time>
      </trkpt>
      <trkpt lat="44.07883" lon="3.39828">
        <ele>752.37</ele>
        <time>2016-08-07T08:06:30Z</time>
      </trkpt>
      <trkpt lat="44.07884" lon="3.3983">
        <ele>752.37</ele>
        <time>2016-08-07T08:06:36Z</time>
      </trkpt>
      <trkpt lat="44.07888" lon="3.39842">
        <ele>752.85</ele>
        <time>2016-08-07T08:06:45Z</time>
      </trkpt>
      <trkpt lat="44.0789" lon="3.39847">
        <ele>753.81</ele>
        <time>2016-08-07T08:06:52Z</time>
      </trkpt>
      <trkpt lat="44.07892" lon="3.39853">
        <ele>753.81</ele>
        <time>2016-08-07T08:07:01Z</time>
      </trkpt>
      <trkpt lat="44.07893" lon="3.3986">
        <ele>755.73</ele>
        <time>2016-08-07T08:07:09Z</time>
      </trkpt>
      <trkpt lat="44.07896" lon="3.39867">
        <ele>756.69</ele>
        <time>2016-08-07T08:07:16Z</time>
      </trkpt>
      <trkpt lat="44.07898" lon="3.39874">
        <ele>757.66</ele>
        <time>2016-08-07T08:07:22Z</time>
      </trkpt>
      <trkpt lat="44.07898" lon="3.3988">
        <ele>758.14</ele>
        <time>2016-08-07T08:07:30Z</time>
      </trkpt>
      <trkpt lat="44.07899" lon="3.39883">
        <ele>757.66</ele>
        <time>2016-08-07T08:07:37Z</time>
      </trkpt>
      <trkpt lat="44.07904" lon="3.39894">
        <ele>758.14</ele>
        <time>2016-08-07T08:07:44Z</time>
      </trkpt>
      <trkpt lat="44.07904" lon="3.39903">
        <ele>757.66</ele>
        <time>2016-08-07T08:07:51Z</time>
      </trkpt>
      <trkpt lat="44.07908" lon="3.3991">
        <ele>759.1</ele>
        <time>2016-08-07T08:08:00Z</time>
      </trkpt>
      <trkpt lat="44.07908" lon="3.39915">
        <ele>759.1</ele>
        <time>2016-08-07T08:08:05Z</time>
      </trkpt>
      <trkpt lat="44.07906" lon="3.39919">
        <ele>758.62</ele>
        <time>2016-08-07T08:08:11Z</time>
      </trkpt>
      <trkpt lat="44.07902" lon="3.39919">
        <ele>760.06</ele>
        <time>2016-08-07T08:08:18Z</time>
      </trkpt>
      <trkpt lat="44.07898" lon="3.39915">
        <ele>761.02</ele>
        <time>2016-08-07T08:08:25Z</time>
      </trkpt>
      <trkpt lat="44.07893" lon="3.39911">
        <ele>763.42</ele>
        <time>2016-08-07T08:08:31Z</time>
      </trkpt>
      <trkpt lat="44.0789" lon="3.39909">
        <ele>764.39</ele>
        <time>2016-08-07T08:08:39Z</time>
      </trkpt>
      <trkpt lat="44.07889" lon="3.39909">
        <ele>766.31</ele>
        <time>2016-08-07T08:08:46Z</time>
      </trkpt>
      <trkpt lat="44.0789" lon="3.39913">
        <ele>769.19</ele>
        <time>2016-08-07T08:08:53Z</time>
      </trkpt>
      <trkpt lat="44.07892" lon="3.39919">
        <ele>771.6</ele>
        <time>2016-08-07T08:09:00Z</time>
      </trkpt>
      <trkpt lat="44.07895" lon="3.39926">
        <ele>774.48</ele>
        <time>2016-08-07T08:09:10Z</time>
      </trkpt>
      <trkpt lat="44.07895" lon="3.39931">
        <ele>776.4</ele>
        <time>2016-08-07T08:09:18Z</time>
      </trkpt>
      <trkpt lat="44.07895" lon="3.39934">
        <ele>776.88</ele>
        <time>2016-08-07T08:09:27Z</time>
      </trkpt>
      <trkpt lat="44.0789" lon="3.39933">
        <ele>777.36</ele>
        <time>2016-08-07T08:09:34Z</time>
      </trkpt>
      <trkpt lat="44.07885" lon="3.39931">
        <ele>777.84</ele>
        <time>2016-08-07T08:09:41Z</time>
      </trkpt>
      <trkpt lat="44.07882" lon="3.39927">
        <ele>779.29</ele>
        <time>2016-08-07T08:09:49Z</time>
      </trkpt>
      <trkpt lat="44.07878" lon="3.39928">
        <ele>778.32</ele>
        <time>2016-08-07T08:09:55Z</time>
      </trkpt>
      <trkpt lat="44.07874" lon="3.39927">
        <ele>778.81</ele>
        <time>2016-08-07T08:10:01Z</time>
      </trkpt>
      <trkpt lat="44.07872" lon="3.39929">
        <ele>779.29</ele>
        <time>2016-08-07T08:10:07Z</time>
      </trkpt>
      <trkpt lat="44.07874" lon="3.39932">
        <ele>781.69</ele>
        <time>2016-08-07T08:10:14Z</time>
      </trkpt>
      <trkpt lat="44.07878" lon="3.39938">
        <ele>784.09</ele>
        <time>2016-08-07T08:10:20Z</time>
      </trkpt>
      <trkpt lat="44.07879" lon="3.39943">
        <ele>783.61</ele>
        <time>2016-08-07T08:10:26Z</time>
      </trkpt>
      <trkpt lat="44.07881" lon="3.3995">
        <ele>784.57</ele>
        <time>2016-08-07T08:10:33Z</time>
      </trkpt>
      <trkpt lat="44.07888" lon="3.39957">
        <ele>785.53</ele>
        <time>2016-08-07T08:10:42Z</time>
      </trkpt>
      <trkpt lat="44.0789" lon="3.39964">
        <ele>786.98</ele>
        <time>2016-08-07T08:10:48Z</time>
      </trkpt>
      <trkpt lat="44.07898" lon="3.39972">
        <ele>790.34</ele>
        <time>2016-08-07T08:10:55Z</time>
      </trkpt>
      <trkpt lat="44.07902" lon="3.39977">
        <ele>790.82</ele>
        <time>2016-08-07T08:11:02Z</time>
      </trkpt>
      <trkpt lat="44.07903" lon="3.39978">
        <ele>791.78</ele>
        <time>2016-08-07T08:11:10Z</time>
      </trkpt>
      <trkpt lat="44.07903" lon="3.39985">
        <ele>794.19</ele>
        <time>2016-08-07T08:11:18Z</time>
      </trkpt>
      <trkpt lat="44.07902" lon="3.3999">
        <ele>795.63</ele>
        <time>2016-08-07T08:11:26Z</time>
      </trkpt>
      <trkpt lat="44.07902" lon="3.39994">
        <ele>795.15</ele>
        <time>2016-08-07T08:11:33Z</time>
      </trkpt>
      <trkpt lat="44.07906" lon="3.39999">
        <ele>797.55</ele>
        <time>2016-08-07T08:11:39Z</time>
      </trkpt>
      <trkpt lat="44.07909" lon="3.40003">
        <ele>800.44</ele>
        <time>2016-08-07T08:11:44Z</time>
      </trkpt>
      <trkpt lat="44.07913" lon="3.40008">
        <ele>800.92</ele>
        <time>2016-08-07T08:11:50Z</time>
      </trkpt>
      <trkpt lat="44.07919" lon="3.40015">
        <ele>800.92</ele>
        <time>2016-08-07T08:11:57Z</time>
      </trkpt>
      <trkpt lat="44.07925" lon="3.40018">
        <ele>801.88</ele>
        <time>2016-08-07T08:12:04Z</time>
      </trkpt>
      <trkpt lat="44.07929" lon="3.40021">
        <ele>803.32</ele>
        <time>2016-08-07T08:12:11Z</time>
      </trkpt>
      <trkpt lat="44.07933" lon="3.40025">
        <ele>804.28</ele>
        <time>2016-08-07T08:12:13Z</time>
      </trkpt>
      <trkpt lat="44.07939" lon="3.40029">
        <ele>804.28</ele>
        <time>2016-08-07T08:12:19Z</time>
      </trkpt>
      <trkpt lat="44.07943" lon="3.40032">
        <ele>803.8</ele>
        <time>2016-08-07T08:12:25Z</time>
      </trkpt>
      <trkpt lat="44.07946" lon="3.40037">
        <ele>804.28</ele>
        <time>2016-08-07T08:12:30Z</time>
      </trkpt>
      <trkpt lat="44.07944" lon="3.40041">
        <ele>804.76</ele>
        <time>2016-08-07T08:12:36Z</time>
      </trkpt>
      <trkpt lat="44.07943" lon="3.40044">
        <ele>804.76</ele>
        <time>2016-08-07T08:12:43Z</time>
      </trkpt>
      <trkpt lat="44.07938" lon="3.40048">
        <ele>804.76</ele>
        <time>2016-08-07T08:12:49Z</time>
      </trkpt>
      <trkpt lat="44.07936" lon="3.40051">
        <ele>804.76</ele>
        <time>2016-08-07T08:12:54Z</time>
      </trkpt>
      <trkpt lat="44.07933" lon="3.40051">
        <ele>805.24</ele>
        <time>2016-08-07T08:12:59Z</time>
      </trkpt>
      <trkpt lat="44.07933" lon="3.40052">
        <ele>805.24</ele>
        <time>2016-08-07T08:13:07Z</time>
      </trkpt>
      <trkpt lat="44.0793" lon="3.40055">
        <ele>804.76</ele>
        <time>2016-08-07T08:13:11Z</time>
      </trkpt>
      <trkpt lat="44.07929" lon="3.40054">
        <ele>804.76</ele>
        <time>2016-08-07T08:13:17Z</time>
      </trkpt>
      <trkpt lat="44.07927" lon="3.40056">
        <ele>807.16</ele>
        <time>2016-08-07T08:13:26Z</time>
      </trkpt>
      <trkpt lat="44.07926" lon="3.40058">
        <ele>808.61</ele>
        <time>2016-08-07T08:13:34Z</time>
      </trkpt>
      <trkpt lat="44.07925" lon="3.40059">
        <ele>811.01</ele>
        <time>2016-08-07T08:13:40Z</time>
      </trkpt>
      <trkpt lat="44.07928" lon="3.40063">
        <ele>814.85</ele>
        <time>2016-08-07T08:13:47Z</time>
      </trkpt>
      <trkpt lat="44.07929" lon="3.40064">
        <ele>816.3</ele>
        <time>2016-08-07T08:13:52Z</time>
      </trkpt>
      <trkpt lat="44.07932" lon="3.40065">
        <ele>817.26</ele>
        <time>2016-08-07T08:13:57Z</time>
      </trkpt>
      <trkpt lat="44.07933" lon="3.40065">
        <ele>820.14</ele>
        <time>2016-08-07T08:14:04Z</time>
      </trkpt>
      <trkpt lat="44.07932" lon="3.40066">
        <ele>821.58</ele>
        <time>2016-08-07T08:14:10Z</time>
      </trkpt>
      <trkpt lat="44.07934" lon="3.40066">
        <ele>824.47</ele>
        <time>2016-08-07T08:14:17Z</time>
      </trkpt>
      <trkpt lat="44.07934" lon="3.40067">
        <ele>824.47</ele>
        <time>2016-08-07T08:14:24Z</time>
      </trkpt>
      <trkpt lat="44.07932" lon="3.40071">
        <ele>825.91</ele>
        <time>2016-08-07T08:14:30Z</time>
      </trkpt>
      <trkpt lat="44.0793" lon="3.40072">
        <ele>827.35</ele>
        <time>2016-08-07T08:14:36Z</time>
      </trkpt>
      <trkpt lat="44.07927" lon="3.40076">
        <ele>828.79</ele>
        <time>2016-08-07T08:14:43Z</time>
      </trkpt>
      <trkpt lat="44.07925" lon="3.40078">
        <ele>828.79</ele>
        <time>2016-08-07T08:14:51Z</time>
      </trkpt>
      <trkpt lat="44.07925" lon="3.40079">
        <ele>829.27</ele>
        <time>2016-08-07T08:15:00Z</time>
      </trkpt>
      <trkpt lat="44.07926" lon="3.4008">
        <ele>829.76</ele>
        <time>2016-08-07T08:15:06Z</time>
      </trkpt>
      <trkpt lat="44.07927" lon="3.40081">
        <ele>828.79</ele>
        <time>2016-08-07T08:15:12Z</time>
      </trkpt>
      <trkpt lat="44.07929" lon="3.40081">
        <ele>828.79</ele>
        <time>2016-08-07T08:15:18Z</time>
      </trkpt>
      <trkpt lat="44.07932" lon="3.4008">
        <ele>829.76</ele>
        <time>2016-08-07T08:15:24Z</time>
      </trkpt>
      <trkpt lat="44.07939" lon="3.40078">
        <ele>832.16</ele>
        <time>2016-08-07T08:15:32Z</time>
      </trkpt>
      <trkpt lat="44.07948" lon="3.40075">
        <ele>835.04</ele>
        <time>2016-08-07T08:15:40Z</time>
      </trkpt>
      <trkpt lat="44.07953" lon="3.40073">
        <ele>836</ele>
        <time>2016-08-07T08:15:46Z</time>
      </trkpt>
      <trkpt lat="44.07957" lon="3.40071">
        <ele>839.37</ele>
        <time>2016-08-07T08:15:52Z</time>
      </trkpt>
      <trkpt lat="44.0796" lon="3.40068">
        <ele>841.29</ele>
        <time>2016-08-07T08:15:56Z</time>
      </trkpt>
      <trkpt lat="44.07963" lon="3.40062">
        <ele>844.18</ele>
        <time>2016-08-07T08:16:03Z</time>
      </trkpt>
      <trkpt lat="44.07968" lon="3.4006">
        <ele>846.1</ele>
        <time>2016-08-07T08:16:10Z</time>
      </trkpt>
      <trkpt lat="44.07972" lon="3.40054">
        <ele>848.5</ele>
        <time>2016-08-07T08:16:15Z</time>
      </trkpt>
      <trkpt lat="44.07973" lon="3.40053">
        <ele>848.98</ele>
        <time>2016-08-07T08:16:18Z</time>
      </trkpt>
      <trkpt lat="44.07977" lon="3.40051">
        <ele>850.42</ele>
        <time>2016-08-07T08:16:22Z</time>
      </trkpt>
      <trkpt lat="44.07986" lon="3.4005">
        <ele>850.9</ele>
        <time>2016-08-07T08:16:30Z</time>
      </trkpt>
      <trkpt lat="44.0799" lon="3.40049">
        <ele>850.42</ele>
        <time>2016-08-07T08:16:38Z</time>
      </trkpt>
      <trkpt lat="44.07994" lon="3.40048">
        <ele>850.42</ele>
        <time>2016-08-07T08:16:46Z</time>
      </trkpt>
      <trkpt lat="44.07994" lon="3.40047">
        <ele>850.9</ele>
        <time>2016-08-07T08:16:56Z</time>
      </trkpt>
      <trkpt lat="44.07994" lon="3.40047">
        <ele>850.9</ele>
        <time>2016-08-07T08:17:09Z</time>
      </trkpt>
      <trkpt lat="44.07994" lon="3.40047">
        <ele>850.9</ele>
        <time>2016-08-07T08:17:23Z</time>
      </trkpt>
      <trkpt lat="44.07994" lon="3.40047">
        <ele>850.9</ele>
        <time>2016-08-07T08:17:34Z</time>
      </trkpt>
      <trkpt lat="44.07992" lon="3.40044">
        <ele>852.35</ele>
        <time>2016-08-07T08:17:41Z</time>
      </trkpt>
      <trkpt lat="44.07991" lon="3.40044">
        <ele>852.83</ele>
        <time>2016-08-07T08:17:54Z</time>
      </trkpt>
      <trkpt lat="44.07991" lon="3.40044">
        <ele>852.83</ele>
        <time>2016-08-07T08:18:10Z</time>
      </trkpt>
      <trkpt lat="44.07993" lon="3.40045">
        <ele>853.31</ele>
        <time>2016-08-07T08:18:24Z</time>
      </trkpt>
      <trkpt lat="44.07993" lon="3.40045">
        <ele>853.31</ele>
        <time>2016-08-07T08:18:42Z</time>
      </trkpt>
      <trkpt lat="44.07993" lon="3.40045">
        <ele>853.31</ele>
        <time>2016-08-07T08:18:53Z</time>
      </trkpt>
      <trkpt lat="44.07999" lon="3.40048">
        <ele>852.83</ele>
        <time>2016-08-07T08:19:00Z</time>
      </trkpt>
      <trkpt lat="44.08004" lon="3.40049">
        <ele>852.83</ele>
        <time>2016-08-07T08:19:03Z</time>
      </trkpt>
      <trkpt lat="44.08014" lon="3.40048">
        <ele>852.35</ele>
        <time>2016-08-07T08:19:09Z</time>
      </trkpt>
      <trkpt lat="44.08017" lon="3.4005">
        <ele>852.35</ele>
        <time>2016-08-07T08:19:12Z</time>
      </trkpt>
      <trkpt lat="44.08027" lon="3.40055">
        <ele>852.83</ele>
        <time>2016-08-07T08:19:20Z</time>
      </trkpt>
      <trkpt lat="44.08027" lon="3.40057">
        <ele>851.87</ele>
        <time>2016-08-07T08:19:24Z</time>
      </trkpt>
      <trkpt lat="44.08034" lon="3.40061">
        <ele>852.35</ele>
        <time>2016-08-07T08:19:30Z</time>
      </trkpt>
      <trkpt lat="44.08039" lon="3.40066">
        <ele>851.38</ele>
        <time>2016-08-07T08:19:36Z</time>
      </trkpt>
      <trkpt lat="44.08058" lon="3.40083">
        <ele>851.87</ele>
        <time>2016-08-07T08:19:51Z</time>
      </trkpt>
      <trkpt lat="44.08064" lon="3.40089">
        <ele>851.87</ele>
        <time>2016-08-07T08:19:57Z</time>
      </trkpt>
      <trkpt lat="44.0807" lon="3.40096">
        <ele>848.98</ele>
        <time>2016-08-07T08:20:05Z</time>
      </trkpt>
      <trkpt lat="44.08072" lon="3.40099">
        <ele>847.06</ele>
        <time>2016-08-07T08:20:12Z</time>
      </trkpt>
      <trkpt lat="44.08078" lon="3.40104">
        <ele>845.14</ele>
        <time>2016-08-07T08:20:18Z</time>
      </trkpt>
      <trkpt lat="44.08087" lon="3.40111">
        <ele>842.73</ele>
        <time>2016-08-07T08:20:25Z</time>
      </trkpt>
      <trkpt lat="44.08101" lon="3.40122">
        <ele>842.25</ele>
        <time>2016-08-07T08:20:33Z</time>
      </trkpt>
      <trkpt lat="44.08111" lon="3.4013">
        <ele>842.25</ele>
        <time>2016-08-07T08:20:40Z</time>
      </trkpt>
      <trkpt lat="44.08119" lon="3.40135">
        <ele>843.69</ele>
        <time>2016-08-07T08:20:48Z</time>
      </trkpt>
      <trkpt lat="44.08126" lon="3.40147">
        <ele>839.85</ele>
        <time>2016-08-07T08:20:57Z</time>
      </trkpt>
      <trkpt lat="44.08129" lon="3.40155">
        <ele>836.96</ele>
        <time>2016-08-07T08:21:02Z</time>
      </trkpt>
      <trkpt lat="44.08133" lon="3.40168">
        <ele>836.48</ele>
        <time>2016-08-07T08:21:10Z</time>
      </trkpt>
      <trkpt lat="44.08145" lon="3.40175">
        <ele>836.96</ele>
        <time>2016-08-07T08:21:18Z</time>
      </trkpt>
      <trkpt lat="44.08147" lon="3.40175">
        <ele>836.96</ele>
        <time>2016-08-07T08:21:26Z</time>
      </trkpt>
      <trkpt lat="44.08149" lon="3.40173">
        <ele>835.52</ele>
        <time>2016-08-07T08:21:33Z</time>
      </trkpt>
      <trkpt lat="44.08151" lon="3.40173">
        <ele>835.52</ele>
        <time>2016-08-07T08:21:39Z</time>
      </trkpt>
      <trkpt lat="44.08154" lon="3.4017">
        <ele>833.12</ele>
        <time>2016-08-07T08:21:46Z</time>
      </trkpt>
      <trkpt lat="44.08155" lon="3.40164">
        <ele>828.31</ele>
        <time>2016-08-07T08:21:52Z</time>
      </trkpt>
      <trkpt lat="44.08157" lon="3.40159">
        <ele>826.39</ele>
        <time>2016-08-07T08:22:01Z</time>
      </trkpt>
      <trkpt lat="44.08157" lon="3.40154">
        <ele>826.39</ele>
        <time>2016-08-07T08:22:08Z</time>
      </trkpt>
      <trkpt lat="44.08157" lon="3.40141">
        <ele>824.47</ele>
        <time>2016-08-07T08:22:16Z</time>
      </trkpt>
      <trkpt lat="44.08156" lon="3.40133">
        <ele>822.55</ele>
        <time>2016-08-07T08:22:22Z</time>
      </trkpt>
      <trkpt lat="44.08155" lon="3.40125">
        <ele>821.58</ele>
        <time>2016-08-07T08:22:28Z</time>
      </trkpt>
      <trkpt lat="44.08156" lon="3.40116">
        <ele>819.66</ele>
        <time>2016-08-07T08:22:34Z</time>
      </trkpt>
      <trkpt lat="44.08154" lon="3.40105">
        <ele>819.18</ele>
        <time>2016-08-07T08:22:44Z</time>
      </trkpt>
      <trkpt lat="44.08153" lon="3.401">
        <ele>819.66</ele>
        <time>2016-08-07T08:22:51Z</time>
      </trkpt>
      <trkpt lat="44.08154" lon="3.40097">
        <ele>819.18</ele>
        <time>2016-08-07T08:22:58Z</time>
      </trkpt>
      <trkpt lat="44.08155" lon="3.40094">
        <ele>818.22</ele>
        <time>2016-08-07T08:23:04Z</time>
      </trkpt>
      <trkpt lat="44.08154" lon="3.40091">
        <ele>817.74</ele>
        <time>2016-08-07T08:23:08Z</time>
      </trkpt>
      <trkpt lat="44.08152" lon="3.40087">
        <ele>815.34</ele>
        <time>2016-08-07T08:23:16Z</time>
      </trkpt>
      <trkpt lat="44.08152" lon="3.40086">
        <ele>815.34</ele>
        <time>2016-08-07T08:23:24Z</time>
      </trkpt>
      <trkpt lat="44.08152" lon="3.40086">
        <ele>815.34</ele>
        <time>2016-08-07T08:23:34Z</time>
      </trkpt>
      <trkpt lat="44.08151" lon="3.40085">
        <ele>814.37</ele>
        <time>2016-08-07T08:23:40Z</time>
      </trkpt>
      <trkpt lat="44.08151" lon="3.40084">
        <ele>813.89</ele>
        <time>2016-08-07T08:23:53Z</time>
      </trkpt>
      <trkpt lat="44.08151" lon="3.40085">
        <ele>813.89</ele>
        <time>2016-08-07T08:24:04Z</time>
      </trkpt>
      <trkpt lat="44.08151" lon="3.40085">
        <ele>812.93</ele>
        <time>2016-08-07T08:24:11Z</time>
      </trkpt>
      <trkpt lat="44.08152" lon="3.40087">
        <ele>811.49</ele>
        <time>2016-08-07T08:24:18Z</time>
      </trkpt>
      <trkpt lat="44.08154" lon="3.40094">
        <ele>807.64</ele>
        <time>2016-08-07T08:24:25Z</time>
      </trkpt>
      <trkpt lat="44.08158" lon="3.40097">
        <ele>805.24</ele>
        <time>2016-08-07T08:24:32Z</time>
      </trkpt>
      <trkpt lat="44.08166" lon="3.40105">
        <ele>804.28</ele>
        <time>2016-08-07T08:24:39Z</time>
      </trkpt>
      <trkpt lat="44.0817" lon="3.4011">
        <ele>804.76</ele>
        <time>2016-08-07T08:24:47Z</time>
      </trkpt>
      <trkpt lat="44.08179" lon="3.40114">
        <ele>804.76</ele>
        <time>2016-08-07T08:24:55Z</time>
      </trkpt>
      <trkpt lat="44.0818" lon="3.40114">
        <ele>804.28</ele>
        <time>2016-08-07T08:25:03Z</time>
      </trkpt>
      <trkpt lat="44.08181" lon="3.40114">
        <ele>803.32</ele>
        <time>2016-08-07T08:25:06Z</time>
      </trkpt>
      <trkpt lat="44.08184" lon="3.40115">
        <ele>801.88</ele>
        <time>2016-08-07T08:25:13Z</time>
      </trkpt>
      <trkpt lat="44.08183" lon="3.40115">
        <ele>801.88</ele>
        <time>2016-08-07T08:25:22Z</time>
      </trkpt>
      <trkpt lat="44.08183" lon="3.40115">
        <ele>801.88</ele>
        <time>2016-08-07T08:25:31Z</time>
      </trkpt>
      <trkpt lat="44.08184" lon="3.40115">
        <ele>801.4</ele>
        <time>2016-08-07T08:25:40Z</time>
      </trkpt>
      <trkpt lat="44.08184" lon="3.40115">
        <ele>801.4</ele>
        <time>2016-08-07T08:25:51Z</time>
      </trkpt>
      <trkpt lat="44.08184" lon="3.40115">
        <ele>801.4</ele>
        <time>2016-08-07T08:26:02Z</time>
      </trkpt>
      <trkpt lat="44.08184" lon="3.40115">
        <ele>800.44</ele>
        <time>2016-08-07T08:26:20Z</time>
      </trkpt>
      <trkpt lat="44.08184" lon="3.40115">
        <ele>800.44</ele>
        <time>2016-08-07T08:26:28Z</time>
      </trkpt>
      <trkpt lat="44.08184" lon="3.40114">
        <ele>799.95</ele>
        <time>2016-08-07T08:26:39Z</time>
      </trkpt>
      <trkpt lat="44.08182" lon="3.40114">
        <ele>800.44</ele>
        <time>2016-08-07T08:26:47Z</time>
      </trkpt>
      <trkpt lat="44.08185" lon="3.40114">
        <ele>800.92</ele>
        <time>2016-08-07T08:26:54Z</time>
      </trkpt>
      <trkpt lat="44.08186" lon="3.40117">
        <ele>801.4</ele>
        <time>2016-08-07T08:27:01Z</time>
      </trkpt>
      <trkpt lat="44.0819" lon="3.40117">
        <ele>802.36</ele>
        <time>2016-08-07T08:27:08Z</time>
      </trkpt>
      <trkpt lat="44.08191" lon="3.4012">
        <ele>803.32</ele>
        <time>2016-08-07T08:27:16Z</time>
      </trkpt>
      <trkpt lat="44.08192" lon="3.4012">
        <ele>805.24</ele>
        <time>2016-08-07T08:27:24Z</time>
      </trkpt>
      <trkpt lat="44.08191" lon="3.40117">
        <ele>806.2</ele>
        <time>2016-08-07T08:27:31Z</time>
      </trkpt>
      <trkpt lat="44.08194" lon="3.40109">
        <ele>807.64</ele>
        <time>2016-08-07T08:27:37Z</time>
      </trkpt>
      <trkpt lat="44.08199" lon="3.40104">
        <ele>808.61</ele>
        <time>2016-08-07T08:27:44Z</time>
      </trkpt>
      <trkpt lat="44.08204" lon="3.40103">
        <ele>810.53</ele>
        <time>2016-08-07T08:27:49Z</time>
      </trkpt>
      <trkpt lat="44.08208" lon="3.40105">
        <ele>811.49</ele>
        <time>2016-08-07T08:27:56Z</time>
      </trkpt>
      <trkpt lat="44.08208" lon="3.40105">
        <ele>811.01</ele>
        <time>2016-08-07T08:28:05Z</time>
      </trkpt>
      <trkpt lat="44.08205" lon="3.40102">
        <ele>810.53</ele>
        <time>2016-08-07T08:28:11Z</time>
      </trkpt>
      <trkpt lat="44.08205" lon="3.40097">
        <ele>810.53</ele>
        <time>2016-08-07T08:28:18Z</time>
      </trkpt>
      <trkpt lat="44.08204" lon="3.40097">
        <ele>811.01</ele>
        <time>2016-08-07T08:28:25Z</time>
      </trkpt>
      <trkpt lat="44.08207" lon="3.40086">
        <ele>811.97</ele>
        <time>2016-08-07T08:28:31Z</time>
      </trkpt>
      <trkpt lat="44.08207" lon="3.40077">
        <ele>814.37</ele>
        <time>2016-08-07T08:28:39Z</time>
      </trkpt>
      <trkpt lat="44.08209" lon="3.40075">
        <ele>815.82</ele>
        <time>2016-08-07T08:28:46Z</time>
      </trkpt>
      <trkpt lat="44.08212" lon="3.40071">
        <ele>816.78</ele>
        <time>2016-08-07T08:28:55Z</time>
      </trkpt>
      <trkpt lat="44.08215" lon="3.40064">
        <ele>817.74</ele>
        <time>2016-08-07T08:28:59Z</time>
      </trkpt>
      <trkpt lat="44.08219" lon="3.40055">
        <ele>818.7</ele>
        <time>2016-08-07T08:29:06Z</time>
      </trkpt>
      <trkpt lat="44.08224" lon="3.4005">
        <ele>821.1</ele>
        <time>2016-08-07T08:29:12Z</time>
      </trkpt>
      <trkpt lat="44.08231" lon="3.40047">
        <ele>823.03</ele>
        <time>2016-08-07T08:29:21Z</time>
      </trkpt>
      <trkpt lat="44.08237" lon="3.40045">
        <ele>825.43</ele>
        <time>2016-08-07T08:29:27Z</time>
      </trkpt>
      <trkpt lat="44.08241" lon="3.40044">
        <ele>825.43</ele>
        <time>2016-08-07T08:29:33Z</time>
      </trkpt>
      <trkpt lat="44.08246" lon="3.40043">
        <ele>827.35</ele>
        <time>2016-08-07T08:29:40Z</time>
      </trkpt>
      <trkpt lat="44.08247" lon="3.40042">
        <ele>828.31</ele>
        <time>2016-08-07T08:29:46Z</time>
      </trkpt>
      <trkpt lat="44.08249" lon="3.4005">
        <ele>831.2</ele>
        <time>2016-08-07T08:29:53Z</time>
      </trkpt>
      <trkpt lat="44.08249" lon="3.40056">
        <ele>833.12</ele>
        <time>2016-08-07T08:29:58Z</time>
      </trkpt>
      <trkpt lat="44.08248" lon="3.40068">
        <ele>833.12</ele>
        <time>2016-08-07T08:30:05Z</time>
      </trkpt>
      <trkpt lat="44.08249" lon="3.40078">
        <ele>834.08</ele>
        <time>2016-08-07T08:30:13Z</time>
      </trkpt>
      <trkpt lat="44.0825" lon="3.40074">
        <ele>833.6</ele>
        <time>2016-08-07T08:30:20Z</time>
      </trkpt>
      <trkpt lat="44.08257" lon="3.40066">
        <ele>833.12</ele>
        <time>2016-08-07T08:30:27Z</time>
      </trkpt>
      <trkpt lat="44.08261" lon="3.40061">
        <ele>833.12</ele>
        <time>2016-08-07T08:30:33Z</time>
      </trkpt>
      <trkpt lat="44.08265" lon="3.40054">
        <ele>835.04</ele>
        <time>2016-08-07T08:30:39Z</time>
      </trkpt>
      <trkpt lat="44.08268" lon="3.4005">
        <ele>835.52</ele>
        <time>2016-08-07T08:30:45Z</time>
      </trkpt>
      <trkpt lat="44.08274" lon="3.40043">
        <ele>837.45</ele>
        <time>2016-08-07T08:30:52Z</time>
      </trkpt>
      <trkpt lat="44.08278" lon="3.4004">
        <ele>839.37</ele>
        <time>2016-08-07T08:30:59Z</time>
      </trkpt>
      <trkpt lat="44.08282" lon="3.40037">
        <ele>840.33</ele>
        <time>2016-08-07T08:31:07Z</time>
      </trkpt>
      <trkpt lat="44.08284" lon="3.40035">
        <ele>840.33</ele>
        <time>2016-08-07T08:31:13Z</time>
      </trkpt>
      <trkpt lat="44.08286" lon="3.40033">
        <ele>840.81</ele>
        <time>2016-08-07T08:31:15Z</time>
      </trkpt>
      <trkpt lat="44.08292" lon="3.4003">
        <ele>841.29</ele>
        <time>2016-08-07T08:31:22Z</time>
      </trkpt>
      <trkpt lat="44.08303" lon="3.40024">
        <ele>842.73</ele>
        <time>2016-08-07T08:31:30Z</time>
      </trkpt>
      <trkpt lat="44.0831" lon="3.40021">
        <ele>843.69</ele>
        <time>2016-08-07T08:31:38Z</time>
      </trkpt>
      <trkpt lat="44.08315" lon="3.4002">
        <ele>846.1</ele>
        <time>2016-08-07T08:31:44Z</time>
      </trkpt>
      <trkpt lat="44.08321" lon="3.40021">
        <ele>847.06</ele>
        <time>2016-08-07T08:31:50Z</time>
      </trkpt>
      <trkpt lat="44.08329" lon="3.40019">
        <ele>847.54</ele>
        <time>2016-08-07T08:31:57Z</time>
      </trkpt>
      <trkpt lat="44.08331" lon="3.40018">
        <ele>847.06</ele>
        <time>2016-08-07T08:31:59Z</time>
      </trkpt>
      <trkpt lat="44.08339" lon="3.40017">
        <ele>848.02</ele>
        <time>2016-08-07T08:32:05Z</time>
      </trkpt>
      <trkpt lat="44.08341" lon="3.40019">
        <ele>848.98</ele>
        <time>2016-08-07T08:32:12Z</time>
      </trkpt>
      <trkpt lat="44.0834" lon="3.40021">
        <ele>848.98</ele>
        <time>2016-08-07T08:32:18Z</time>
      </trkpt>
      <trkpt lat="44.0834" lon="3.40023">
        <ele>849.46</ele>
        <time>2016-08-07T08:32:24Z</time>
      </trkpt>
      <trkpt lat="44.08333" lon="3.40029">
        <ele>850.42</ele>
        <time>2016-08-07T08:32:31Z</time>
      </trkpt>
      <trkpt lat="44.08324" lon="3.40037">
        <ele>850.9</ele>
        <time>2016-08-07T08:32:39Z</time>
      </trkpt>
      <trkpt lat="44.08323" lon="3.40038">
        <ele>850.9</ele>
        <time>2016-08-07T08:32:45Z</time>
      </trkpt>
      <trkpt lat="44.08321" lon="3.40044">
        <ele>853.31</ele>
        <time>2016-08-07T08:32:53Z</time>
      </trkpt>
      <trkpt lat="44.08326" lon="3.40042">
        <ele>857.63</ele>
        <time>2016-08-07T08:33:01Z</time>
      </trkpt>
      <trkpt lat="44.08331" lon="3.40042">
        <ele>859.56</ele>
        <time>2016-08-07T08:33:08Z</time>
      </trkpt>
      <trkpt lat="44.08338" lon="3.40043">
        <ele>861.96</ele>
        <time>2016-08-07T08:33:16Z</time>
      </trkpt>
      <trkpt lat="44.08347" lon="3.40048">
        <ele>864.36</ele>
        <time>2016-08-07T08:33:25Z</time>
      </trkpt>
      <trkpt lat="44.08354" lon="3.40053">
        <ele>866.77</ele>
        <time>2016-08-07T08:33:32Z</time>
      </trkpt>
      <trkpt lat="44.08357" lon="3.40056">
        <ele>867.73</ele>
        <time>2016-08-07T08:33:37Z</time>
      </trkpt>
      <trkpt lat="44.08353" lon="3.40061">
        <ele>868.69</ele>
        <time>2016-08-07T08:33:42Z</time>
      </trkpt>
      <trkpt lat="44.08353" lon="3.40067">
        <ele>869.17</ele>
        <time>2016-08-07T08:33:47Z</time>
      </trkpt>
      <trkpt lat="44.08354" lon="3.40069">
        <ele>869.65</ele>
        <time>2016-08-07T08:33:49Z</time>
      </trkpt>
      <trkpt lat="44.08357" lon="3.40079">
        <ele>871.57</ele>
        <time>2016-08-07T08:33:56Z</time>
      </trkpt>
      <trkpt lat="44.0836" lon="3.40089">
        <ele>872.53</ele>
        <time>2016-08-07T08:34:02Z</time>
      </trkpt>
      <trkpt lat="44.08363" lon="3.40093">
        <ele>873.98</ele>
        <time>2016-08-07T08:34:08Z</time>
      </trkpt>
      <trkpt lat="44.0837" lon="3.40106">
        <ele>875.42</ele>
        <time>2016-08-07T08:34:18Z</time>
      </trkpt>
      <trkpt lat="44.08375" lon="3.40113">
        <ele>876.38</ele>
        <time>2016-08-07T08:34:25Z</time>
      </trkpt>
      <trkpt lat="44.08377" lon="3.40125">
        <ele>876.86</ele>
        <time>2016-08-07T08:34:33Z</time>
      </trkpt>
      <trkpt lat="44.08378" lon="3.40127">
        <ele>876.86</ele>
        <time>2016-08-07T08:34:35Z</time>
      </trkpt>
      <trkpt lat="44.08378" lon="3.4013">
        <ele>876.86</ele>
        <time>2016-08-07T08:34:37Z</time>
      </trkpt>
      <trkpt lat="44.08381" lon="3.4014">
        <ele>877.34</ele>
        <time>2016-08-07T08:34:46Z</time>
      </trkpt>
      <trkpt lat="44.08383" lon="3.40142">
        <ele>877.82</ele>
        <time>2016-08-07T08:34:48Z</time>
      </trkpt>
      <trkpt lat="44.08382" lon="3.40154">
        <ele>878.3</ele>
        <time>2016-08-07T08:34:55Z</time>
      </trkpt>
      <trkpt lat="44.08381" lon="3.40157">
        <ele>878.3</ele>
        <time>2016-08-07T08:34:58Z</time>
      </trkpt>
      <trkpt lat="44.08381" lon="3.40167">
        <ele>879.74</ele>
        <time>2016-08-07T08:35:05Z</time>
      </trkpt>
      <trkpt lat="44.08382" lon="3.40169">
        <ele>880.22</ele>
        <time>2016-08-07T08:35:10Z</time>
      </trkpt>
      <trkpt lat="44.08382" lon="3.40174">
        <ele>880.71</ele>
        <time>2016-08-07T08:35:14Z</time>
      </trkpt>
      <trkpt lat="44.08378" lon="3.40181">
        <ele>882.15</ele>
        <time>2016-08-07T08:35:21Z</time>
      </trkpt>
      <trkpt lat="44.08374" lon="3.40187">
        <ele>882.63</ele>
        <time>2016-08-07T08:35:25Z</time>
      </trkpt>
      <trkpt lat="44.08368" lon="3.40197">
        <ele>882.63</ele>
        <time>2016-08-07T08:35:33Z</time>
      </trkpt>
      <trkpt lat="44.08365" lon="3.40206">
        <ele>883.59</ele>
        <time>2016-08-07T08:35:40Z</time>
      </trkpt>
      <trkpt lat="44.08363" lon="3.40212">
        <ele>883.59</ele>
        <time>2016-08-07T08:35:45Z</time>
      </trkpt>
      <trkpt lat="44.0836" lon="3.40222">
        <ele>885.51</ele>
        <time>2016-08-07T08:35:54Z</time>
      </trkpt>
      <trkpt lat="44.08355" lon="3.40231">
        <ele>885.99</ele>
        <time>2016-08-07T08:36:02Z</time>
      </trkpt>
      <trkpt lat="44.08354" lon="3.40234">
        <ele>886.47</ele>
        <time>2016-08-07T08:36:07Z</time>
      </trkpt>
      <trkpt lat="44.08361" lon="3.40225">
        <ele>886.47</ele>
        <time>2016-08-07T08:36:16Z</time>
      </trkpt>
      <trkpt lat="44.08363" lon="3.40223">
        <ele>886.47</ele>
        <time>2016-08-07T08:36:19Z</time>
      </trkpt>
      <trkpt lat="44.08366" lon="3.40216">
        <ele>885.51</ele>
        <time>2016-08-07T08:36:25Z</time>
      </trkpt>
      <trkpt lat="44.08368" lon="3.4021">
        <ele>884.55</ele>
        <time>2016-08-07T08:36:29Z</time>
      </trkpt>
      <trkpt lat="44.08369" lon="3.40206">
        <ele>884.55</ele>
        <time>2016-08-07T08:36:32Z</time>
      </trkpt>
      <trkpt lat="44.08372" lon="3.40193">
        <ele>884.55</ele>
        <time>2016-08-07T08:36:40Z</time>
      </trkpt>
      <trkpt lat="44.08373" lon="3.40185">
        <ele>884.07</ele>
        <time>2016-08-07T08:36:45Z</time>
      </trkpt>
      <trkpt lat="44.08373" lon="3.40181">
        <ele>884.55</ele>
        <time>2016-08-07T08:36:47Z</time>
      </trkpt>
      <trkpt lat="44.08376" lon="3.40167">
        <ele>883.59</ele>
        <time>2016-08-07T08:36:56Z</time>
      </trkpt>
      <trkpt lat="44.08377" lon="3.40163">
        <ele>882.63</ele>
        <time>2016-08-07T08:37:03Z</time>
      </trkpt>
      <trkpt lat="44.08378" lon="3.40162">
        <ele>882.63</ele>
        <time>2016-08-07T08:37:09Z</time>
      </trkpt>
      <trkpt lat="44.08377" lon="3.40158">
        <ele>882.15</ele>
        <time>2016-08-07T08:37:12Z</time>
      </trkpt>
      <trkpt lat="44.08378" lon="3.40152">
        <ele>881.67</ele>
        <time>2016-08-07T08:37:16Z</time>
      </trkpt>
      <trkpt lat="44.08381" lon="3.40139">
        <ele>881.19</ele>
        <time>2016-08-07T08:37:24Z</time>
      </trkpt>
      <trkpt lat="44.08384" lon="3.40132">
        <ele>880.71</ele>
        <time>2016-08-07T08:37:30Z</time>
      </trkpt>
      <trkpt lat="44.08386" lon="3.40124">
        <ele>880.22</ele>
        <time>2016-08-07T08:37:36Z</time>
      </trkpt>
      <trkpt lat="44.08389" lon="3.4012">
        <ele>879.74</ele>
        <time>2016-08-07T08:37:39Z</time>
      </trkpt>
      <trkpt lat="44.08389" lon="3.40115">
        <ele>879.74</ele>
        <time>2016-08-07T08:37:42Z</time>
      </trkpt>
      <trkpt lat="44.08393" lon="3.40105">
        <ele>878.3</ele>
        <time>2016-08-07T08:37:50Z</time>
      </trkpt>
      <trkpt lat="44.08396" lon="3.40097">
        <ele>879.26</ele>
        <time>2016-08-07T08:37:57Z</time>
      </trkpt>
      <trkpt lat="44.08402" lon="3.40081">
        <ele>878.78</ele>
        <time>2016-08-07T08:38:06Z</time>
      </trkpt>
      <trkpt lat="44.08403" lon="3.40076">
        <ele>878.78</ele>
        <time>2016-08-07T08:38:09Z</time>
      </trkpt>
      <trkpt lat="44.08408" lon="3.40064">
        <ele>879.26</ele>
        <time>2016-08-07T08:38:17Z</time>
      </trkpt>
      <trkpt lat="44.08408" lon="3.40063">
        <ele>879.26</ele>
        <time>2016-08-07T08:38:25Z</time>
      </trkpt>
      <trkpt lat="44.08409" lon="3.40063">
        <ele>878.78</ele>
        <time>2016-08-07T08:38:27Z</time>
      </trkpt>
      <trkpt lat="44.08415" lon="3.40056">
        <ele>878.3</ele>
        <time>2016-08-07T08:38:35Z</time>
      </trkpt>
      <trkpt lat="44.08417" lon="3.40054">
        <ele>878.3</ele>
        <time>2016-08-07T08:38:37Z</time>
      </trkpt>
      <trkpt lat="44.08426" lon="3.40045">
        <ele>878.3</ele>
        <time>2016-08-07T08:38:46Z</time>
      </trkpt>
      <trkpt lat="44.08433" lon="3.40037">
        <ele>877.34</ele>
        <time>2016-08-07T08:38:54Z</time>
      </trkpt>
      <trkpt lat="44.08438" lon="3.40035">
        <ele>876.86</ele>
        <time>2016-08-07T08:39:02Z</time>
      </trkpt>
      <trkpt lat="44.08447" lon="3.40037">
        <ele>875.42</ele>
        <time>2016-08-07T08:39:10Z</time>
      </trkpt>
      <trkpt lat="44.08456" lon="3.40042">
        <ele>873.98</ele>
        <time>2016-08-07T08:39:19Z</time>
      </trkpt>
      <trkpt lat="44.08464" lon="3.40054">
        <ele>872.05</ele>
        <time>2016-08-07T08:39:28Z</time>
      </trkpt>
      <trkpt lat="44.0847" lon="3.40063">
        <ele>872.53</ele>
        <time>2016-08-07T08:39:36Z</time>
      </trkpt>
      <trkpt lat="44.08474" lon="3.40072">
        <ele>872.05</ele>
        <time>2016-08-07T08:39:43Z</time>
      </trkpt>
      <trkpt lat="44.08483" lon="3.4008">
        <ele>871.09</ele>
        <time>2016-08-07T08:39:52Z</time>
      </trkpt>
      <trkpt lat="44.08483" lon="3.40089">
        <ele>872.05</ele>
        <time>2016-08-07T08:39:58Z</time>
      </trkpt>
      <trkpt lat="44.08485" lon="3.40093">
        <ele>871.57</ele>
        <time>2016-08-07T08:40:01Z</time>
      </trkpt>
      <trkpt lat="44.08489" lon="3.40103">
        <ele>871.57</ele>
        <time>2016-08-07T08:40:09Z</time>
      </trkpt>
      <trkpt lat="44.0849" lon="3.40106">
        <ele>871.09</ele>
        <time>2016-08-07T08:40:11Z</time>
      </trkpt>
      <trkpt lat="44.08496" lon="3.40111">
        <ele>870.13</ele>
        <time>2016-08-07T08:40:16Z</time>
      </trkpt>
      <trkpt lat="44.085" lon="3.40122">
        <ele>868.69</ele>
        <time>2016-08-07T08:40:23Z</time>
      </trkpt>
      <trkpt lat="44.08505" lon="3.40133">
        <ele>868.21</ele>
        <time>2016-08-07T08:40:31Z</time>
      </trkpt>
      <trkpt lat="44.08508" lon="3.40138">
        <ele>867.73</ele>
        <time>2016-08-07T08:40:35Z</time>
      </trkpt>
      <trkpt lat="44.08511" lon="3.40148">
        <ele>867.25</ele>
        <time>2016-08-07T08:40:43Z</time>
      </trkpt>
      <trkpt lat="44.08513" lon="3.4015">
        <ele>867.73</ele>
        <time>2016-08-07T08:40:45Z</time>
      </trkpt>
      <trkpt lat="44.0852" lon="3.40157">
        <ele>866.77</ele>
        <time>2016-08-07T08:40:50Z</time>
      </trkpt>
      <trkpt lat="44.08526" lon="3.40166">
        <ele>864.84</ele>
        <time>2016-08-07T08:40:56Z</time>
      </trkpt>
      <trkpt lat="44.08527" lon="3.40172">
        <ele>864.36</ele>
        <time>2016-08-07T08:41:01Z</time>
      </trkpt>
      <trkpt lat="44.08534" lon="3.4018">
        <ele>862.92</ele>
        <time>2016-08-07T08:41:07Z</time>
      </trkpt>
      <trkpt lat="44.08535" lon="3.40181">
        <ele>862.92</ele>
        <time>2016-08-07T08:41:08Z</time>
      </trkpt>
      <trkpt lat="44.08539" lon="3.4019">
        <ele>862.92</ele>
        <time>2016-08-07T08:41:14Z</time>
      </trkpt>
      <trkpt lat="44.08541" lon="3.40202">
        <ele>862.92</ele>
        <time>2016-08-07T08:41:21Z</time>
      </trkpt>
      <trkpt lat="44.08543" lon="3.4021">
        <ele>861.96</ele>
        <time>2016-08-07T08:41:28Z</time>
      </trkpt>
      <trkpt lat="44.08548" lon="3.40221">
        <ele>860.04</ele>
        <time>2016-08-07T08:41:36Z</time>
      </trkpt>
      <trkpt lat="44.08553" lon="3.40231">
        <ele>859.56</ele>
        <time>2016-08-07T08:41:44Z</time>
      </trkpt>
      <trkpt lat="44.08555" lon="3.40232">
        <ele>859.08</ele>
        <time>2016-08-07T08:41:45Z</time>
      </trkpt>
      <trkpt lat="44.08558" lon="3.40237">
        <ele>858.59</ele>
        <time>2016-08-07T08:41:49Z</time>
      </trkpt>
      <trkpt lat="44.08567" lon="3.40248">
        <ele>859.08</ele>
        <time>2016-08-07T08:41:59Z</time>
      </trkpt>
      <trkpt lat="44.08572" lon="3.40256">
        <ele>859.08</ele>
        <time>2016-08-07T08:42:06Z</time>
      </trkpt>
      <trkpt lat="44.08577" lon="3.40265">
        <ele>857.15</ele>
        <time>2016-08-07T08:42:14Z</time>
      </trkpt>
      <trkpt lat="44.08582" lon="3.40272">
        <ele>857.63</ele>
        <time>2016-08-07T08:42:20Z</time>
      </trkpt>
      <trkpt lat="44.08586" lon="3.40276">
        <ele>857.63</ele>
        <time>2016-08-07T08:42:25Z</time>
      </trkpt>
      <trkpt lat="44.0859" lon="3.40281">
        <ele>858.11</ele>
        <time>2016-08-07T08:42:30Z</time>
      </trkpt>
      <trkpt lat="44.08592" lon="3.40285">
        <ele>858.59</ele>
        <time>2016-08-07T08:42:34Z</time>
      </trkpt>
      <trkpt lat="44.08596" lon="3.40296">
        <ele>859.56</ele>
        <time>2016-08-07T08:42:43Z</time>
      </trkpt>
      <trkpt lat="44.08598" lon="3.40311">
        <ele>859.08</ele>
        <time>2016-08-07T08:42:53Z</time>
      </trkpt>
      <trkpt lat="44.08601" lon="3.4031">
        <ele>859.08</ele>
        <time>2016-08-07T08:42:59Z</time>
      </trkpt>
      <trkpt lat="44.08602" lon="3.40309">
        <ele>859.08</ele>
        <time>2016-08-07T08:43:00Z</time>
      </trkpt>
      <trkpt lat="44.0861" lon="3.403">
        <ele>858.11</ele>
        <time>2016-08-07T08:43:08Z</time>
      </trkpt>
      <trkpt lat="44.08613" lon="3.40294">
        <ele>857.63</ele>
        <time>2016-08-07T08:43:14Z</time>
      </trkpt>
      <trkpt lat="44.08616" lon="3.40287">
        <ele>856.67</ele>
        <time>2016-08-07T08:43:20Z</time>
      </trkpt>
      <trkpt lat="44.08618" lon="3.40279">
        <ele>856.19</ele>
        <time>2016-08-07T08:43:24Z</time>
      </trkpt>
      <trkpt lat="44.0862" lon="3.40272">
        <ele>855.71</ele>
        <time>2016-08-07T08:43:29Z</time>
      </trkpt>
      <trkpt lat="44.08619" lon="3.40261">
        <ele>855.71</ele>
        <time>2016-08-07T08:43:37Z</time>
      </trkpt>
      <trkpt lat="44.08618" lon="3.40258">
        <ele>855.23</ele>
        <time>2016-08-07T08:43:40Z</time>
      </trkpt>
      <trkpt lat="44.08619" lon="3.40251">
        <ele>854.75</ele>
        <time>2016-08-07T08:43:44Z</time>
      </trkpt>
      <trkpt lat="44.08624" lon="3.40237">
        <ele>854.27</ele>
        <time>2016-08-07T08:43:52Z</time>
      </trkpt>
      <trkpt lat="44.08625" lon="3.40228">
        <ele>853.79</ele>
        <time>2016-08-07T08:43:58Z</time>
      </trkpt>
      <trkpt lat="44.08627" lon="3.40224">
        <ele>853.31</ele>
        <time>2016-08-07T08:44:00Z</time>
      </trkpt>
      <trkpt lat="44.08629" lon="3.40217">
        <ele>852.83</ele>
        <time>2016-08-07T08:44:04Z</time>
      </trkpt>
      <trkpt lat="44.08635" lon="3.40203">
        <ele>853.31</ele>
        <time>2016-08-07T08:44:12Z</time>
      </trkpt>
      <trkpt lat="44.08636" lon="3.40194">
        <ele>853.31</ele>
        <time>2016-08-07T08:44:19Z</time>
      </trkpt>
      <trkpt lat="44.08638" lon="3.40185">
        <ele>852.35</ele>
        <time>2016-08-07T08:44:27Z</time>
      </trkpt>
      <trkpt lat="44.08646" lon="3.40172">
        <ele>850.42</ele>
        <time>2016-08-07T08:44:35Z</time>
      </trkpt>
      <trkpt lat="44.08651" lon="3.40163">
        <ele>849.46</ele>
        <time>2016-08-07T08:44:42Z</time>
      </trkpt>
      <trkpt lat="44.08655" lon="3.4016">
        <ele>848.5</ele>
        <time>2016-08-07T08:44:49Z</time>
      </trkpt>
      <trkpt lat="44.08664" lon="3.40144">
        <ele>847.06</ele>
        <time>2016-08-07T08:44:56Z</time>
      </trkpt>
      <trkpt lat="44.08671" lon="3.40139">
        <ele>845.62</ele>
        <time>2016-08-07T08:45:03Z</time>
      </trkpt>
      <trkpt lat="44.08678" lon="3.40135">
        <ele>842.73</ele>
        <time>2016-08-07T08:45:11Z</time>
      </trkpt>
      <trkpt lat="44.08688" lon="3.40136">
        <ele>840.81</ele>
        <time>2016-08-07T08:45:19Z</time>
      </trkpt>
      <trkpt lat="44.08689" lon="3.40137">
        <ele>840.81</ele>
        <time>2016-08-07T08:45:20Z</time>
      </trkpt>
      <trkpt lat="44.08696" lon="3.40148">
        <ele>834.08</ele>
        <time>2016-08-07T08:45:27Z</time>
      </trkpt>
      <trkpt lat="44.08696" lon="3.40158">
        <ele>830.24</ele>
        <time>2016-08-07T08:45:33Z</time>
      </trkpt>
      <trkpt lat="44.08698" lon="3.40168">
        <ele>829.76</ele>
        <time>2016-08-07T08:45:38Z</time>
      </trkpt>
      <trkpt lat="44.08699" lon="3.40179">
        <ele>828.31</ele>
        <time>2016-08-07T08:45:46Z</time>
      </trkpt>
      <trkpt lat="44.08698" lon="3.40181">
        <ele>828.31</ele>
        <time>2016-08-07T08:45:47Z</time>
      </trkpt>
      <trkpt lat="44.08699" lon="3.40194">
        <ele>826.87</ele>
        <time>2016-08-07T08:45:55Z</time>
      </trkpt>
      <trkpt lat="44.08699" lon="3.40198">
        <ele>826.87</ele>
        <time>2016-08-07T08:45:58Z</time>
      </trkpt>
      <trkpt lat="44.08703" lon="3.40209">
        <ele>826.39</ele>
        <time>2016-08-07T08:46:05Z</time>
      </trkpt>
      <trkpt lat="44.08704" lon="3.40219">
        <ele>825.43</ele>
        <time>2016-08-07T08:46:11Z</time>
      </trkpt>
      <trkpt lat="44.08709" lon="3.4023">
        <ele>824.95</ele>
        <time>2016-08-07T08:46:17Z</time>
      </trkpt>
      <trkpt lat="44.08714" lon="3.40246">
        <ele>825.43</ele>
        <time>2016-08-07T08:46:25Z</time>
      </trkpt>
      <trkpt lat="44.08719" lon="3.40251">
        <ele>824.95</ele>
        <time>2016-08-07T08:46:33Z</time>
      </trkpt>
      <trkpt lat="44.08723" lon="3.40262">
        <ele>824.95</ele>
        <time>2016-08-07T08:46:39Z</time>
      </trkpt>
      <trkpt lat="44.08725" lon="3.40263">
        <ele>824.95</ele>
        <time>2016-08-07T08:46:40Z</time>
      </trkpt>
      <trkpt lat="44.08731" lon="3.40278">
        <ele>824.95</ele>
        <time>2016-08-07T08:46:49Z</time>
      </trkpt>
      <trkpt lat="44.08733" lon="3.40283">
        <ele>824.95</ele>
        <time>2016-08-07T08:46:53Z</time>
      </trkpt>
      <trkpt lat="44.08735" lon="3.40291">
        <ele>824.95</ele>
        <time>2016-08-07T08:46:58Z</time>
      </trkpt>
      <trkpt lat="44.08738" lon="3.403">
        <ele>824.95</ele>
        <time>2016-08-07T08:47:03Z</time>
      </trkpt>
      <trkpt lat="44.08743" lon="3.40313">
        <ele>824.47</ele>
        <time>2016-08-07T08:47:11Z</time>
      </trkpt>
      <trkpt lat="44.08744" lon="3.40317">
        <ele>824.47</ele>
        <time>2016-08-07T08:47:14Z</time>
      </trkpt>
      <trkpt lat="44.08747" lon="3.40327">
        <ele>823.51</ele>
        <time>2016-08-07T08:47:21Z</time>
      </trkpt>
      <trkpt lat="44.08751" lon="3.40336">
        <ele>823.03</ele>
        <time>2016-08-07T08:47:27Z</time>
      </trkpt>
      <trkpt lat="44.08753" lon="3.40346">
        <ele>822.55</ele>
        <time>2016-08-07T08:47:34Z</time>
      </trkpt>
      <trkpt lat="44.08754" lon="3.40357">
        <ele>821.58</ele>
        <time>2016-08-07T08:47:41Z</time>
      </trkpt>
      <trkpt lat="44.08756" lon="3.40369">
        <ele>821.1</ele>
        <time>2016-08-07T08:47:48Z</time>
      </trkpt>
      <trkpt lat="44.08761" lon="3.40382">
        <ele>820.14</ele>
        <time>2016-08-07T08:47:56Z</time>
      </trkpt>
      <trkpt lat="44.08762" lon="3.40386">
        <ele>819.66</ele>
        <time>2016-08-07T08:47:59Z</time>
      </trkpt>
      <trkpt lat="44.08768" lon="3.40396">
        <ele>818.7</ele>
        <time>2016-08-07T08:48:06Z</time>
      </trkpt>
      <trkpt lat="44.0877" lon="3.40406">
        <ele>818.22</ele>
        <time>2016-08-07T08:48:13Z</time>
      </trkpt>
      <trkpt lat="44.08772" lon="3.4041">
        <ele>817.74</ele>
        <time>2016-08-07T08:48:16Z</time>
      </trkpt>
      <trkpt lat="44.08769" lon="3.40421">
        <ele>817.26</ele>
        <time>2016-08-07T08:48:23Z</time>
      </trkpt>
      <trkpt lat="44.0877" lon="3.40429">
        <ele>816.3</ele>
        <time>2016-08-07T08:48:27Z</time>
      </trkpt>
      <trkpt lat="44.0877" lon="3.40436">
        <ele>815.82</ele>
        <time>2016-08-07T08:48:31Z</time>
      </trkpt>
      <trkpt lat="44.08772" lon="3.40451">
        <ele>813.89</ele>
        <time>2016-08-07T08:48:39Z</time>
      </trkpt>
      <trkpt lat="44.08774" lon="3.40456">
        <ele>813.89</ele>
        <time>2016-08-07T08:48:44Z</time>
      </trkpt>
      <trkpt lat="44.08778" lon="3.40472">
        <ele>813.41</ele>
        <time>2016-08-07T08:48:53Z</time>
      </trkpt>
      <trkpt lat="44.0878" lon="3.40477">
        <ele>813.41</ele>
        <time>2016-08-07T08:48:56Z</time>
      </trkpt>
      <trkpt lat="44.08786" lon="3.4049">
        <ele>812.45</ele>
        <time>2016-08-07T08:49:05Z</time>
      </trkpt>
      <trkpt lat="44.0879" lon="3.405">
        <ele>811.97</ele>
        <time>2016-08-07T08:49:12Z</time>
      </trkpt>
      <trkpt lat="44.08796" lon="3.4051">
        <ele>811.97</ele>
        <time>2016-08-07T08:49:19Z</time>
      </trkpt>
      <trkpt lat="44.08799" lon="3.40517">
        <ele>811.97</ele>
        <time>2016-08-07T08:49:25Z</time>
      </trkpt>
      <trkpt lat="44.08805" lon="3.40524">
        <ele>813.41</ele>
        <time>2016-08-07T08:49:31Z</time>
      </trkpt>
      <trkpt lat="44.0881" lon="3.40531">
        <ele>813.41</ele>
        <time>2016-08-07T08:49:37Z</time>
      </trkpt>
      <trkpt lat="44.08813" lon="3.40534">
        <ele>812.93</ele>
        <time>2016-08-07T08:49:43Z</time>
      </trkpt>
      <trkpt lat="44.08824" lon="3.40542">
        <ele>811.49</ele>
        <time>2016-08-07T08:49:51Z</time>
      </trkpt>
      <trkpt lat="44.08829" lon="3.40549">
        <ele>811.01</ele>
        <time>2016-08-07T08:49:57Z</time>
      </trkpt>
      <trkpt lat="44.08836" lon="3.40558">
        <ele>810.05</ele>
        <time>2016-08-07T08:50:04Z</time>
      </trkpt>
      <trkpt lat="44.08841" lon="3.40567">
        <ele>810.05</ele>
        <time>2016-08-07T08:50:12Z</time>
      </trkpt>
      <trkpt lat="44.08847" lon="3.40574">
        <ele>809.09</ele>
        <time>2016-08-07T08:50:18Z</time>
      </trkpt>
      <trkpt lat="44.08852" lon="3.40583">
        <ele>809.09</ele>
        <time>2016-08-07T08:50:24Z</time>
      </trkpt>
      <trkpt lat="44.08857" lon="3.40589">
        <ele>810.05</ele>
        <time>2016-08-07T08:50:28Z</time>
      </trkpt>
      <trkpt lat="44.08867" lon="3.40601">
        <ele>810.53</ele>
        <time>2016-08-07T08:50:37Z</time>
      </trkpt>
      <trkpt lat="44.08872" lon="3.40608">
        <ele>810.53</ele>
        <time>2016-08-07T08:50:44Z</time>
      </trkpt>
      <trkpt lat="44.08876" lon="3.40613">
        <ele>809.57</ele>
        <time>2016-08-07T08:50:50Z</time>
      </trkpt>
      <trkpt lat="44.08883" lon="3.40621">
        <ele>809.09</ele>
        <time>2016-08-07T08:50:55Z</time>
      </trkpt>
      <trkpt lat="44.08888" lon="3.40626">
        <ele>807.16</ele>
        <time>2016-08-07T08:51:01Z</time>
      </trkpt>
      <trkpt lat="44.08892" lon="3.40634">
        <ele>804.76</ele>
        <time>2016-08-07T08:51:08Z</time>
      </trkpt>
      <trkpt lat="44.08896" lon="3.40639">
        <ele>804.76</ele>
        <time>2016-08-07T08:51:12Z</time>
      </trkpt>
      <trkpt lat="44.08899" lon="3.40645">
        <ele>803.8</ele>
        <time>2016-08-07T08:51:18Z</time>
      </trkpt>
      <trkpt lat="44.08904" lon="3.40652">
        <ele>803.8</ele>
        <time>2016-08-07T08:51:23Z</time>
      </trkpt>
      <trkpt lat="44.08909" lon="3.40656">
        <ele>802.84</ele>
        <time>2016-08-07T08:51:29Z</time>
      </trkpt>
      <trkpt lat="44.08914" lon="3.40659">
        <ele>802.84</ele>
        <time>2016-08-07T08:51:35Z</time>
      </trkpt>
      <trkpt lat="44.08918" lon="3.40662">
        <ele>801.88</ele>
        <time>2016-08-07T08:51:41Z</time>
      </trkpt>
      <trkpt lat="44.08924" lon="3.40667">
        <ele>800.92</ele>
        <time>2016-08-07T08:51:46Z</time>
      </trkpt>
      <trkpt lat="44.08926" lon="3.40668">
        <ele>800.92</ele>
        <time>2016-08-07T08:51:47Z</time>
      </trkpt>
      <trkpt lat="44.08933" lon="3.40679">
        <ele>801.4</ele>
        <time>2016-08-07T08:51:55Z</time>
      </trkpt>
      <trkpt lat="44.08938" lon="3.40688">
        <ele>800.92</ele>
        <time>2016-08-07T08:52:01Z</time>
      </trkpt>
      <trkpt lat="44.08938" lon="3.40701">
        <ele>800.44</ele>
        <time>2016-08-07T08:52:08Z</time>
      </trkpt>
      <trkpt lat="44.08939" lon="3.40712">
        <ele>799.47</ele>
        <time>2016-08-07T08:52:15Z</time>
      </trkpt>
      <trkpt lat="44.08941" lon="3.40723">
        <ele>799.47</ele>
        <time>2016-08-07T08:52:21Z</time>
      </trkpt>
      <trkpt lat="44.08941" lon="3.40735">
        <ele>798.99</ele>
        <time>2016-08-07T08:52:28Z</time>
      </trkpt>
      <trkpt lat="44.08942" lon="3.40739">
        <ele>798.99</ele>
        <time>2016-08-07T08:52:30Z</time>
      </trkpt>
      <trkpt lat="44.08942" lon="3.40743">
        <ele>798.51</ele>
        <time>2016-08-07T08:52:32Z</time>
      </trkpt>
      <trkpt lat="44.08945" lon="3.40754">
        <ele>798.03</ele>
        <time>2016-08-07T08:52:39Z</time>
      </trkpt>
      <trkpt lat="44.08946" lon="3.40758">
        <ele>798.03</ele>
        <time>2016-08-07T08:52:42Z</time>
      </trkpt>
      <trkpt lat="44.08947" lon="3.40766">
        <ele>798.03</ele>
        <time>2016-08-07T08:52:48Z</time>
      </trkpt>
      <trkpt lat="44.08947" lon="3.40772">
        <ele>798.51</ele>
        <time>2016-08-07T08:52:52Z</time>
      </trkpt>
      <trkpt lat="44.08948" lon="3.40776">
        <ele>798.03</ele>
        <time>2016-08-07T08:52:54Z</time>
      </trkpt>
      <trkpt lat="44.08947" lon="3.40784">
        <ele>797.07</ele>
        <time>2016-08-07T08:53:01Z</time>
      </trkpt>
      <trkpt lat="44.08946" lon="3.40786">
        <ele>796.11</ele>
        <time>2016-08-07T08:53:06Z</time>
      </trkpt>
      <trkpt lat="44.08947" lon="3.40788">
        <ele>796.11</ele>
        <time>2016-08-07T08:53:12Z</time>
      </trkpt>
      <trkpt lat="44.08949" lon="3.40792">
        <ele>796.11</ele>
        <time>2016-08-07T08:53:19Z</time>
      </trkpt>
      <trkpt lat="44.08946" lon="3.40792">
        <ele>796.11</ele>
        <time>2016-08-07T08:53:25Z</time>
      </trkpt>
      <trkpt lat="44.08946" lon="3.40793">
        <ele>796.11</ele>
        <time>2016-08-07T08:53:35Z</time>
      </trkpt>
      <trkpt lat="44.08947" lon="3.40793">
        <ele>796.11</ele>
        <time>2016-08-07T08:53:45Z</time>
      </trkpt>
      <trkpt lat="44.08947" lon="3.40793">
        <ele>796.11</ele>
        <time>2016-08-07T08:53:55Z</time>
      </trkpt>
      <trkpt lat="44.08947" lon="3.40793">
        <ele>796.11</ele>
        <time>2016-08-07T08:54:07Z</time>
      </trkpt>
      <trkpt lat="44.08947" lon="3.40793">
        <ele>796.11</ele>
        <time>2016-08-07T08:54:20Z</time>
      </trkpt>
      <trkpt lat="44.08946" lon="3.40793">
        <ele>796.59</ele>
        <time>2016-08-07T08:54:28Z</time>
      </trkpt>
      <trkpt lat="44.08946" lon="3.40792">
        <ele>796.59</ele>
        <time>2016-08-07T08:54:42Z</time>
      </trkpt>
      <trkpt lat="44.08946" lon="3.40792">
        <ele>797.07</ele>
        <time>2016-08-07T08:54:54Z</time>
      </trkpt>
      <trkpt lat="44.08947" lon="3.40792">
        <ele>797.07</ele>
        <time>2016-08-07T08:55:04Z</time>
      </trkpt>
      <trkpt lat="44.08947" lon="3.40792">
        <ele>797.07</ele>
        <time>2016-08-07T08:55:15Z</time>
      </trkpt>
      <trkpt lat="44.08947" lon="3.40792">
        <ele>797.07</ele>
        <time>2016-08-07T08:55:28Z</time>
      </trkpt>
      <trkpt lat="44.08946" lon="3.40792">
        <ele>797.07</ele>
        <time>2016-08-07T08:55:41Z</time>
      </trkpt>
      <trkpt lat="44.08946" lon="3.40792">
        <ele>797.07</ele>
        <time>2016-08-07T08:55:55Z</time>
      </trkpt>
      <trkpt lat="44.08946" lon="3.40792">
        <ele>797.07</ele>
        <time>2016-08-07T08:56:13Z</time>
      </trkpt>
      <trkpt lat="44.08946" lon="3.40792">
        <ele>797.07</ele>
        <time>2016-08-07T08:56:28Z</time>
      </trkpt>
      <trkpt lat="44.08946" lon="3.40792">
        <ele>797.07</ele>
        <time>2016-08-07T08:56:51Z</time>
      </trkpt>
      <trkpt lat="44.0895" lon="3.40787">
        <ele>796.59</ele>
        <time>2016-08-07T08:57:10Z</time>
      </trkpt>
      <trkpt lat="44.08953" lon="3.4078">
        <ele>796.59</ele>
        <time>2016-08-07T08:57:27Z</time>
      </trkpt>
      <trkpt lat="44.08953" lon="3.4078">
        <ele>796.59</ele>
        <time>2016-08-07T08:57:48Z</time>
      </trkpt>
      <trkpt lat="44.0895" lon="3.40783">
        <ele>796.11</ele>
        <time>2016-08-07T08:58:14Z</time>
      </trkpt>
      <trkpt lat="44.0895" lon="3.40783">
        <ele>796.11</ele>
        <time>2016-08-07T08:58:40Z</time>
      </trkpt>
      <trkpt lat="44.0895" lon="3.40783">
        <ele>796.59</ele>
        <time>2016-08-07T08:59:03Z</time>
      </trkpt>
      <trkpt lat="44.0895" lon="3.40783">
        <ele>796.59</ele>
        <time>2016-08-07T08:59:25Z</time>
      </trkpt>
      <trkpt lat="44.0895" lon="3.40783">
        <ele>796.59</ele>
        <time>2016-08-07T08:59:45Z</time>
      </trkpt>
      <trkpt lat="44.08946" lon="3.40786">
        <ele>796.59</ele>
        <time>2016-08-07T09:00:00Z</time>
      </trkpt>
      <trkpt lat="44.08946" lon="3.40787">
        <ele>796.59</ele>
        <time>2016-08-07T09:00:13Z</time>
      </trkpt>
      <trkpt lat="44.08935" lon="3.40792">
        <ele>797.07</ele>
        <time>2016-08-07T09:00:27Z</time>
      </trkpt>
      <trkpt lat="44.08933" lon="3.40789">
        <ele>801.4</ele>
        <time>2016-08-07T09:00:43Z</time>
      </trkpt>
      <trkpt lat="44.08932" lon="3.40791">
        <ele>801.4</ele>
        <time>2016-08-07T09:00:57Z</time>
      </trkpt>
      <trkpt lat="44.08931" lon="3.40806">
        <ele>802.84</ele>
        <time>2016-08-07T09:01:15Z</time>
      </trkpt>
      <trkpt lat="44.08937" lon="3.40801">
        <ele>805.24</ele>
        <time>2016-08-07T09:01:27Z</time>
      </trkpt>
      <trkpt lat="44.08937" lon="3.40801">
        <ele>805.24</ele>
        <time>2016-08-07T09:01:42Z</time>
      </trkpt>
      <trkpt lat="44.08937" lon="3.40801">
        <ele>805.72</ele>
        <time>2016-08-07T09:02:02Z</time>
      </trkpt>
      <trkpt lat="44.08942" lon="3.40796">
        <ele>807.16</ele>
        <time>2016-08-07T09:02:17Z</time>
      </trkpt>
      <trkpt lat="44.08944" lon="3.40796">
        <ele>806.68</ele>
        <time>2016-08-07T09:02:19Z</time>
      </trkpt>
      <trkpt lat="44.08955" lon="3.40789">
        <ele>809.09</ele>
        <time>2016-08-07T09:02:34Z</time>
      </trkpt>
      <trkpt lat="44.08956" lon="3.40789">
        <ele>809.09</ele>
        <time>2016-08-07T09:02:48Z</time>
      </trkpt>
      <trkpt lat="44.08956" lon="3.40789">
        <ele>809.09</ele>
        <time>2016-08-07T09:03:07Z</time>
      </trkpt>
      <trkpt lat="44.08956" lon="3.40789">
        <ele>809.09</ele>
        <time>2016-08-07T09:03:24Z</time>
      </trkpt>
      <trkpt lat="44.08956" lon="3.40789">
        <ele>809.09</ele>
        <time>2016-08-07T09:03:44Z</time>
      </trkpt>
      <trkpt lat="44.08957" lon="3.40789">
        <ele>809.09</ele>
        <time>2016-08-07T09:03:59Z</time>
      </trkpt>
      <trkpt lat="44.08957" lon="3.40789">
        <ele>809.09</ele>
        <time>2016-08-07T09:04:10Z</time>
      </trkpt>
      <trkpt lat="44.08957" lon="3.40789">
        <ele>809.09</ele>
        <time>2016-08-07T09:04:25Z</time>
      </trkpt>
      <trkpt lat="44.08957" lon="3.40789">
        <ele>808.61</ele>
        <time>2016-08-07T09:04:38Z</time>
      </trkpt>
      <trkpt lat="44.08957" lon="3.40789">
        <ele>808.61</ele>
        <time>2016-08-07T09:04:53Z</time>
      </trkpt>
      <trkpt lat="44.08957" lon="3.40789">
        <ele>808.61</ele>
        <time>2016-08-07T09:05:11Z</time>
      </trkpt>
      <trkpt lat="44.08956" lon="3.4079">
        <ele>808.61</ele>
        <time>2016-08-07T09:05:36Z</time>
      </trkpt>
      <trkpt lat="44.08955" lon="3.40792">
        <ele>808.61</ele>
        <time>2016-08-07T09:05:55Z</time>
      </trkpt>
      <trkpt lat="44.08955" lon="3.40792">
        <ele>808.61</ele>
        <time>2016-08-07T09:06:07Z</time>
      </trkpt>
      <trkpt lat="44.08953" lon="3.40793">
        <ele>805.24</ele>
        <time>2016-08-07T09:06:16Z</time>
      </trkpt>
      <trkpt lat="44.08949" lon="3.40796">
        <ele>802.36</ele>
        <time>2016-08-07T09:06:25Z</time>
      </trkpt>
      <trkpt lat="44.08949" lon="3.40796">
        <ele>802.36</ele>
        <time>2016-08-07T09:06:35Z</time>
      </trkpt>
      <trkpt lat="44.08949" lon="3.40796">
        <ele>802.36</ele>
        <time>2016-08-07T09:06:46Z</time>
      </trkpt>
      <trkpt lat="44.08949" lon="3.40796">
        <ele>802.36</ele>
        <time>2016-08-07T09:06:55Z</time>
      </trkpt>
      <trkpt lat="44.08948" lon="3.40798">
        <ele>803.32</ele>
        <time>2016-08-07T09:07:03Z</time>
      </trkpt>
      <trkpt lat="44.0895" lon="3.40797">
        <ele>801.4</ele>
        <time>2016-08-07T09:07:11Z</time>
      </trkpt>
      <trkpt lat="44.08949" lon="3.40802">
        <ele>798.51</ele>
        <time>2016-08-07T09:07:15Z</time>
      </trkpt>
      <trkpt lat="44.08947" lon="3.40812">
        <ele>795.15</ele>
        <time>2016-08-07T09:07:21Z</time>
      </trkpt>
      <trkpt lat="44.08947" lon="3.40816">
        <ele>794.19</ele>
        <time>2016-08-07T09:07:24Z</time>
      </trkpt>
      <trkpt lat="44.08947" lon="3.40823">
        <ele>792.26</ele>
        <time>2016-08-07T09:07:30Z</time>
      </trkpt>
      <trkpt lat="44.08946" lon="3.40832">
        <ele>790.82</ele>
        <time>2016-08-07T09:07:36Z</time>
      </trkpt>
      <trkpt lat="44.08946" lon="3.40843">
        <ele>790.82</ele>
        <time>2016-08-07T09:07:45Z</time>
      </trkpt>
      <trkpt lat="44.08945" lon="3.40846">
        <ele>790.34</ele>
        <time>2016-08-07T09:07:47Z</time>
      </trkpt>
      <trkpt lat="44.08941" lon="3.40857">
        <ele>788.9</ele>
        <time>2016-08-07T09:07:54Z</time>
      </trkpt>
      <trkpt lat="44.08939" lon="3.40867">
        <ele>786.5</ele>
        <time>2016-08-07T09:08:01Z</time>
      </trkpt>
      <trkpt lat="44.08939" lon="3.40875">
        <ele>785.05</ele>
        <time>2016-08-07T09:08:07Z</time>
      </trkpt>
      <trkpt lat="44.08938" lon="3.40888">
        <ele>780.25</ele>
        <time>2016-08-07T09:08:17Z</time>
      </trkpt>
      <trkpt lat="44.08938" lon="3.40894">
        <ele>778.81</ele>
        <time>2016-08-07T09:08:24Z</time>
      </trkpt>
      <trkpt lat="44.08937" lon="3.40901">
        <ele>778.81</ele>
        <time>2016-08-07T09:08:29Z</time>
      </trkpt>
      <trkpt lat="44.08935" lon="3.40915">
        <ele>778.32</ele>
        <time>2016-08-07T09:08:38Z</time>
      </trkpt>
      <trkpt lat="44.08936" lon="3.40927">
        <ele>777.36</ele>
        <time>2016-08-07T09:08:45Z</time>
      </trkpt>
      <trkpt lat="44.08935" lon="3.40933">
        <ele>775.92</ele>
        <time>2016-08-07T09:08:50Z</time>
      </trkpt>
      <trkpt lat="44.08938" lon="3.40942">
        <ele>776.4</ele>
        <time>2016-08-07T09:08:57Z</time>
      </trkpt>
      <trkpt lat="44.08939" lon="3.40946">
        <ele>776.88</ele>
        <time>2016-08-07T09:09:02Z</time>
      </trkpt>
      <trkpt lat="44.08938" lon="3.40957">
        <ele>777.84</ele>
        <time>2016-08-07T09:09:08Z</time>
      </trkpt>
      <trkpt lat="44.08939" lon="3.40967">
        <ele>778.81</ele>
        <time>2016-08-07T09:09:15Z</time>
      </trkpt>
      <trkpt lat="44.08936" lon="3.4097">
        <ele>777.84</ele>
        <time>2016-08-07T09:09:21Z</time>
      </trkpt>
      <trkpt lat="44.08933" lon="3.40985">
        <ele>777.84</ele>
        <time>2016-08-07T09:09:28Z</time>
      </trkpt>
      <trkpt lat="44.0893" lon="3.40991">
        <ele>777.36</ele>
        <time>2016-08-07T09:09:35Z</time>
      </trkpt>
      <trkpt lat="44.08924" lon="3.40996">
        <ele>776.88</ele>
        <time>2016-08-07T09:09:42Z</time>
      </trkpt>
      <trkpt lat="44.08916" lon="3.41013">
        <ele>777.36</ele>
        <time>2016-08-07T09:09:50Z</time>
      </trkpt>
      <trkpt lat="44.08917" lon="3.41016">
        <ele>776.88</ele>
        <time>2016-08-07T09:09:53Z</time>
      </trkpt>
      <trkpt lat="44.08916" lon="3.41023">
        <ele>776.88</ele>
        <time>2016-08-07T09:09:57Z</time>
      </trkpt>
      <trkpt lat="44.08912" lon="3.41037">
        <ele>775.44</ele>
        <time>2016-08-07T09:10:04Z</time>
      </trkpt>
      <trkpt lat="44.08911" lon="3.41039">
        <ele>774.96</ele>
        <time>2016-08-07T09:10:05Z</time>
      </trkpt>
      <trkpt lat="44.08907" lon="3.41045">
        <ele>775.44</ele>
        <time>2016-08-07T09:10:10Z</time>
      </trkpt>
      <trkpt lat="44.08904" lon="3.41055">
        <ele>775.44</ele>
        <time>2016-08-07T09:10:17Z</time>
      </trkpt>
      <trkpt lat="44.08905" lon="3.41062">
        <ele>775.44</ele>
        <time>2016-08-07T09:10:22Z</time>
      </trkpt>
      <trkpt lat="44.08908" lon="3.41067">
        <ele>774.96</ele>
        <time>2016-08-07T09:10:24Z</time>
      </trkpt>
      <trkpt lat="44.08913" lon="3.41078">
        <ele>773.04</ele>
        <time>2016-08-07T09:10:31Z</time>
      </trkpt>
      <trkpt lat="44.08915" lon="3.41079">
        <ele>772.08</ele>
        <time>2016-08-07T09:10:33Z</time>
      </trkpt>
      <trkpt lat="44.0892" lon="3.41083">
        <ele>771.6</ele>
        <time>2016-08-07T09:10:40Z</time>
      </trkpt>
      <trkpt lat="44.0892" lon="3.41083">
        <ele>771.6</ele>
        <time>2016-08-07T09:10:54Z</time>
      </trkpt>
      <trkpt lat="44.0892" lon="3.41083">
        <ele>771.6</ele>
        <time>2016-08-07T09:10:56Z</time>
      </trkpt>
      <trkpt lat="44.08924" lon="3.41097">
        <ele>771.6</ele>
        <time>2016-08-07T09:11:04Z</time>
      </trkpt>
      <trkpt lat="44.08923" lon="3.41108">
        <ele>772.56</ele>
        <time>2016-08-07T09:11:12Z</time>
      </trkpt>
      <trkpt lat="44.08924" lon="3.41115">
        <ele>772.08</ele>
        <time>2016-08-07T09:11:18Z</time>
      </trkpt>
      <trkpt lat="44.08925" lon="3.41121">
        <ele>771.6</ele>
        <time>2016-08-07T09:11:26Z</time>
      </trkpt>
      <trkpt lat="44.08928" lon="3.41134">
        <ele>771.11</ele>
        <time>2016-08-07T09:11:34Z</time>
      </trkpt>
      <trkpt lat="44.08929" lon="3.4114">
        <ele>771.6</ele>
        <time>2016-08-07T09:11:40Z</time>
      </trkpt>
      <trkpt lat="44.08931" lon="3.41152">
        <ele>771.11</ele>
        <time>2016-08-07T09:11:48Z</time>
      </trkpt>
      <trkpt lat="44.08928" lon="3.41162">
        <ele>771.11</ele>
        <time>2016-08-07T09:11:55Z</time>
      </trkpt>
      <trkpt lat="44.08926" lon="3.41164">
        <ele>771.11</ele>
        <time>2016-08-07T09:11:56Z</time>
      </trkpt>
      <trkpt lat="44.08932" lon="3.4117">
        <ele>770.15</ele>
        <time>2016-08-07T09:12:04Z</time>
      </trkpt>
      <trkpt lat="44.08931" lon="3.41169">
        <ele>770.15</ele>
        <time>2016-08-07T09:12:16Z</time>
      </trkpt>
      <trkpt lat="44.08931" lon="3.41169">
        <ele>770.15</ele>
        <time>2016-08-07T09:12:27Z</time>
      </trkpt>
      <trkpt lat="44.08931" lon="3.41169">
        <ele>770.15</ele>
        <time>2016-08-07T09:12:40Z</time>
      </trkpt>
      <trkpt lat="44.08932" lon="3.41169">
        <ele>770.15</ele>
        <time>2016-08-07T09:12:47Z</time>
      </trkpt>
      <trkpt lat="44.08929" lon="3.41169">
        <ele>770.63</ele>
        <time>2016-08-07T09:12:53Z</time>
      </trkpt>
      <trkpt lat="44.0893" lon="3.41169">
        <ele>771.11</ele>
        <time>2016-08-07T09:12:59Z</time>
      </trkpt>
      <trkpt lat="44.0893" lon="3.41169">
        <ele>771.11</ele>
        <time>2016-08-07T09:13:10Z</time>
      </trkpt>
      <trkpt lat="44.08932" lon="3.41169">
        <ele>771.11</ele>
        <time>2016-08-07T09:13:18Z</time>
      </trkpt>
      <trkpt lat="44.08933" lon="3.41169">
        <ele>772.56</ele>
        <time>2016-08-07T09:13:30Z</time>
      </trkpt>
      <trkpt lat="44.08933" lon="3.41169">
        <ele>772.56</ele>
        <time>2016-08-07T09:13:42Z</time>
      </trkpt>
      <trkpt lat="44.0894" lon="3.41171">
        <ele>774</ele>
        <time>2016-08-07T09:13:54Z</time>
      </trkpt>
      <trkpt lat="44.08944" lon="3.41174">
        <ele>774</ele>
        <time>2016-08-07T09:14:01Z</time>
      </trkpt>
      <trkpt lat="44.08951" lon="3.41173">
        <ele>774.48</ele>
        <time>2016-08-07T09:14:08Z</time>
      </trkpt>
      <trkpt lat="44.08953" lon="3.41173">
        <ele>773.52</ele>
        <time>2016-08-07T09:14:16Z</time>
      </trkpt>
      <trkpt lat="44.08954" lon="3.41168">
        <ele>773.52</ele>
        <time>2016-08-07T09:14:23Z</time>
      </trkpt>
      <trkpt lat="44.08956" lon="3.41168">
        <ele>774</ele>
        <time>2016-08-07T09:14:25Z</time>
      </trkpt>
      <trkpt lat="44.08965" lon="3.41167">
        <ele>774.96</ele>
        <time>2016-08-07T09:14:32Z</time>
      </trkpt>
      <trkpt lat="44.08969" lon="3.41166">
        <ele>774.96</ele>
        <time>2016-08-07T09:14:34Z</time>
      </trkpt>
      <trkpt lat="44.08971" lon="3.41162">
        <ele>774</ele>
        <time>2016-08-07T09:14:41Z</time>
      </trkpt>
      <trkpt lat="44.08966" lon="3.41158">
        <ele>774</ele>
        <time>2016-08-07T09:14:48Z</time>
      </trkpt>
      <trkpt lat="44.08962" lon="3.41158">
        <ele>774.48</ele>
        <time>2016-08-07T09:14:54Z</time>
      </trkpt>
      <trkpt lat="44.0896" lon="3.4116">
        <ele>774.48</ele>
        <time>2016-08-07T09:15:02Z</time>
      </trkpt>
      <trkpt lat="44.08957" lon="3.41156">
        <ele>775.44</ele>
        <time>2016-08-07T09:15:09Z</time>
      </trkpt>
      <trkpt lat="44.08954" lon="3.41149">
        <ele>774.48</ele>
        <time>2016-08-07T09:15:14Z</time>
      </trkpt>
      <trkpt lat="44.08955" lon="3.41145">
        <ele>774</ele>
        <time>2016-08-07T09:15:20Z</time>
      </trkpt>
      <trkpt lat="44.08955" lon="3.41144">
        <ele>774.48</ele>
        <time>2016-08-07T09:15:26Z</time>
      </trkpt>
      <trkpt lat="44.08957" lon="3.41141">
        <ele>774</ele>
        <time>2016-08-07T09:15:34Z</time>
      </trkpt>
      <trkpt lat="44.08962" lon="3.41137">
        <ele>775.92</ele>
        <time>2016-08-07T09:15:41Z</time>
      </trkpt>
      <trkpt lat="44.08963" lon="3.41129">
        <ele>779.77</ele>
        <time>2016-08-07T09:15:48Z</time>
      </trkpt>
      <trkpt lat="44.08964" lon="3.41122">
        <ele>781.69</ele>
        <time>2016-08-07T09:15:55Z</time>
      </trkpt>
      <trkpt lat="44.08967" lon="3.41115">
        <ele>784.57</ele>
        <time>2016-08-07T09:16:02Z</time>
      </trkpt>
      <trkpt lat="44.08969" lon="3.41111">
        <ele>787.46</ele>
        <time>2016-08-07T09:16:08Z</time>
      </trkpt>
      <trkpt lat="44.08973" lon="3.41104">
        <ele>788.9</ele>
        <time>2016-08-07T09:16:15Z</time>
      </trkpt>
      <trkpt lat="44.08975" lon="3.41102">
        <ele>788.9</ele>
        <time>2016-08-07T09:16:20Z</time>
      </trkpt>
      <trkpt lat="44.08978" lon="3.411">
        <ele>789.38</ele>
        <time>2016-08-07T09:16:27Z</time>
      </trkpt>
      <trkpt lat="44.08986" lon="3.41097">
        <ele>788.42</ele>
        <time>2016-08-07T09:16:37Z</time>
      </trkpt>
      <trkpt lat="44.08993" lon="3.41094">
        <ele>789.86</ele>
        <time>2016-08-07T09:16:43Z</time>
      </trkpt>
      <trkpt lat="44.08999" lon="3.41092">
        <ele>789.86</ele>
        <time>2016-08-07T09:16:51Z</time>
      </trkpt>
      <trkpt lat="44.09004" lon="3.41088">
        <ele>792.26</ele>
        <time>2016-08-07T09:16:57Z</time>
      </trkpt>
      <trkpt lat="44.09006" lon="3.41086">
        <ele>793.71</ele>
        <time>2016-08-07T09:17:02Z</time>
      </trkpt>
      <trkpt lat="44.0901" lon="3.4108">
        <ele>796.11</ele>
        <time>2016-08-07T09:17:09Z</time>
      </trkpt>
      <trkpt lat="44.09016" lon="3.41073">
        <ele>798.03</ele>
        <time>2016-08-07T09:17:16Z</time>
      </trkpt>
      <trkpt lat="44.09016" lon="3.4107">
        <ele>798.51</ele>
        <time>2016-08-07T09:17:18Z</time>
      </trkpt>
      <trkpt lat="44.09022" lon="3.4106">
        <ele>801.4</ele>
        <time>2016-08-07T09:17:25Z</time>
      </trkpt>
      <trkpt lat="44.09026" lon="3.41055">
        <ele>802.36</ele>
        <time>2016-08-07T09:17:30Z</time>
      </trkpt>
      <trkpt lat="44.09029" lon="3.41051">
        <ele>803.32</ele>
        <time>2016-08-07T09:17:34Z</time>
      </trkpt>
      <trkpt lat="44.09037" lon="3.41043">
        <ele>804.76</ele>
        <time>2016-08-07T09:17:41Z</time>
      </trkpt>
      <trkpt lat="44.09041" lon="3.41037">
        <ele>803.8</ele>
        <time>2016-08-07T09:17:47Z</time>
      </trkpt>
      <trkpt lat="44.09047" lon="3.4103">
        <ele>801.88</ele>
        <time>2016-08-07T09:17:52Z</time>
      </trkpt>
      <trkpt lat="44.09057" lon="3.41025">
        <ele>801.88</ele>
        <time>2016-08-07T09:17:59Z</time>
      </trkpt>
      <trkpt lat="44.09062" lon="3.41021">
        <ele>802.84</ele>
        <time>2016-08-07T09:18:05Z</time>
      </trkpt>
      <trkpt lat="44.09063" lon="3.4102">
        <ele>802.84</ele>
        <time>2016-08-07T09:18:06Z</time>
      </trkpt>
      <trkpt lat="44.09069" lon="3.41016">
        <ele>802.84</ele>
        <time>2016-08-07T09:18:12Z</time>
      </trkpt>
      <trkpt lat="44.09075" lon="3.41013">
        <ele>801.4</ele>
        <time>2016-08-07T09:18:20Z</time>
      </trkpt>
      <trkpt lat="44.0908" lon="3.4101">
        <ele>800.92</ele>
        <time>2016-08-07T09:18:27Z</time>
      </trkpt>
      <trkpt lat="44.09087" lon="3.41005">
        <ele>800.44</ele>
        <time>2016-08-07T09:18:33Z</time>
      </trkpt>
      <trkpt lat="44.09094" lon="3.41002">
        <ele>799.47</ele>
        <time>2016-08-07T09:18:40Z</time>
      </trkpt>
      <trkpt lat="44.09094" lon="3.41002">
        <ele>799.47</ele>
        <time>2016-08-07T09:18:41Z</time>
      </trkpt>
      <trkpt lat="44.09103" lon="3.40996">
        <ele>798.99</ele>
        <time>2016-08-07T09:18:50Z</time>
      </trkpt>
      <trkpt lat="44.09108" lon="3.40991">
        <ele>798.51</ele>
        <time>2016-08-07T09:18:58Z</time>
      </trkpt>
      <trkpt lat="44.09111" lon="3.40987">
        <ele>799.47</ele>
        <time>2016-08-07T09:19:05Z</time>
      </trkpt>
      <trkpt lat="44.09116" lon="3.40981">
        <ele>800.92</ele>
        <time>2016-08-07T09:19:12Z</time>
      </trkpt>
      <trkpt lat="44.09123" lon="3.40977">
        <ele>800.92</ele>
        <time>2016-08-07T09:19:18Z</time>
      </trkpt>
      <trkpt lat="44.09137" lon="3.40969">
        <ele>800.44</ele>
        <time>2016-08-07T09:19:27Z</time>
      </trkpt>
      <trkpt lat="44.09142" lon="3.40965">
        <ele>802.36</ele>
        <time>2016-08-07T09:19:33Z</time>
      </trkpt>
      <trkpt lat="44.09146" lon="3.40963">
        <ele>803.32</ele>
        <time>2016-08-07T09:19:40Z</time>
      </trkpt>
      <trkpt lat="44.09153" lon="3.40958">
        <ele>805.24</ele>
        <time>2016-08-07T09:19:47Z</time>
      </trkpt>
      <trkpt lat="44.0916" lon="3.40953">
        <ele>806.68</ele>
        <time>2016-08-07T09:19:55Z</time>
      </trkpt>
      <trkpt lat="44.09163" lon="3.40951">
        <ele>806.2</ele>
        <time>2016-08-07T09:20:02Z</time>
      </trkpt>
      <trkpt lat="44.09169" lon="3.40948">
        <ele>805.72</ele>
        <time>2016-08-07T09:20:09Z</time>
      </trkpt>
      <trkpt lat="44.09175" lon="3.40945">
        <ele>805.24</ele>
        <time>2016-08-07T09:20:16Z</time>
      </trkpt>
      <trkpt lat="44.09177" lon="3.40943">
        <ele>806.2</ele>
        <time>2016-08-07T09:20:21Z</time>
      </trkpt>
      <trkpt lat="44.09179" lon="3.40941">
        <ele>806.68</ele>
        <time>2016-08-07T09:20:23Z</time>
      </trkpt>
      <trkpt lat="44.09185" lon="3.40938">
        <ele>807.16</ele>
        <time>2016-08-07T09:20:30Z</time>
      </trkpt>
      <trkpt lat="44.09191" lon="3.40937">
        <ele>806.2</ele>
        <time>2016-08-07T09:20:36Z</time>
      </trkpt>
      <trkpt lat="44.092" lon="3.40943">
        <ele>805.24</ele>
        <time>2016-08-07T09:20:44Z</time>
      </trkpt>
      <trkpt lat="44.092" lon="3.40947">
        <ele>807.16</ele>
        <time>2016-08-07T09:20:52Z</time>
      </trkpt>
      <trkpt lat="44.09201" lon="3.40952">
        <ele>808.13</ele>
        <time>2016-08-07T09:20:59Z</time>
      </trkpt>
      <trkpt lat="44.09202" lon="3.40956">
        <ele>807.64</ele>
        <time>2016-08-07T09:21:07Z</time>
      </trkpt>
      <trkpt lat="44.09204" lon="3.40961">
        <ele>805.72</ele>
        <time>2016-08-07T09:21:14Z</time>
      </trkpt>
      <trkpt lat="44.09208" lon="3.40974">
        <ele>806.2</ele>
        <time>2016-08-07T09:21:21Z</time>
      </trkpt>
      <trkpt lat="44.09211" lon="3.40989">
        <ele>810.05</ele>
        <time>2016-08-07T09:21:30Z</time>
      </trkpt>
      <trkpt lat="44.09216" lon="3.41002">
        <ele>815.82</ele>
        <time>2016-08-07T09:21:36Z</time>
      </trkpt>
      <trkpt lat="44.09217" lon="3.41013">
        <ele>819.18</ele>
        <time>2016-08-07T09:21:43Z</time>
      </trkpt>
      <trkpt lat="44.09218" lon="3.41016">
        <ele>819.18</ele>
        <time>2016-08-07T09:21:45Z</time>
      </trkpt>
      <trkpt lat="44.09217" lon="3.41023">
        <ele>818.22</ele>
        <time>2016-08-07T09:21:52Z</time>
      </trkpt>
      <trkpt lat="44.09216" lon="3.41028">
        <ele>816.3</ele>
        <time>2016-08-07T09:21:56Z</time>
      </trkpt>
      <trkpt lat="44.09214" lon="3.41035">
        <ele>814.37</ele>
        <time>2016-08-07T09:22:03Z</time>
      </trkpt>
      <trkpt lat="44.09211" lon="3.41046">
        <ele>812.93</ele>
        <time>2016-08-07T09:22:10Z</time>
      </trkpt>
      <trkpt lat="44.09209" lon="3.41054">
        <ele>813.41</ele>
        <time>2016-08-07T09:22:16Z</time>
      </trkpt>
      <trkpt lat="44.09208" lon="3.41055">
        <ele>812.93</ele>
        <time>2016-08-07T09:22:17Z</time>
      </trkpt>
      <trkpt lat="44.09201" lon="3.41064">
        <ele>810.53</ele>
        <time>2016-08-07T09:22:26Z</time>
      </trkpt>
      <trkpt lat="44.09201" lon="3.41067">
        <ele>811.01</ele>
        <time>2016-08-07T09:22:28Z</time>
      </trkpt>
      <trkpt lat="44.09199" lon="3.4108">
        <ele>812.45</ele>
        <time>2016-08-07T09:22:36Z</time>
      </trkpt>
      <trkpt lat="44.09198" lon="3.41081">
        <ele>812.45</ele>
        <time>2016-08-07T09:22:37Z</time>
      </trkpt>
      <trkpt lat="44.09195" lon="3.41091">
        <ele>812.93</ele>
        <time>2016-08-07T09:22:44Z</time>
      </trkpt>
      <trkpt lat="44.09192" lon="3.41102">
        <ele>813.89</ele>
        <time>2016-08-07T09:22:50Z</time>
      </trkpt>
      <trkpt lat="44.0919" lon="3.41116">
        <ele>816.3</ele>
        <time>2016-08-07T09:22:57Z</time>
      </trkpt>
      <trkpt lat="44.0919" lon="3.41122">
        <ele>818.22</ele>
        <time>2016-08-07T09:23:02Z</time>
      </trkpt>
      <trkpt lat="44.0919" lon="3.41131">
        <ele>819.18</ele>
        <time>2016-08-07T09:23:07Z</time>
      </trkpt>
      <trkpt lat="44.0919" lon="3.41142">
        <ele>821.58</ele>
        <time>2016-08-07T09:23:13Z</time>
      </trkpt>
      <trkpt lat="44.09191" lon="3.41152">
        <ele>822.55</ele>
        <time>2016-08-07T09:23:20Z</time>
      </trkpt>
      <trkpt lat="44.0919" lon="3.41163">
        <ele>823.03</ele>
        <time>2016-08-07T09:23:26Z</time>
      </trkpt>
      <trkpt lat="44.09188" lon="3.41171">
        <ele>823.99</ele>
        <time>2016-08-07T09:23:33Z</time>
      </trkpt>
      <trkpt lat="44.09188" lon="3.4118">
        <ele>824.95</ele>
        <time>2016-08-07T09:23:39Z</time>
      </trkpt>
      <trkpt lat="44.09189" lon="3.41194">
        <ele>824.95</ele>
        <time>2016-08-07T09:23:48Z</time>
      </trkpt>
      <trkpt lat="44.09183" lon="3.41202">
        <ele>826.87</ele>
        <time>2016-08-07T09:23:55Z</time>
      </trkpt>
      <trkpt lat="44.09176" lon="3.41212">
        <ele>828.79</ele>
        <time>2016-08-07T09:24:04Z</time>
      </trkpt>
      <trkpt lat="44.09175" lon="3.41223">
        <ele>829.27</ele>
        <time>2016-08-07T09:24:13Z</time>
      </trkpt>
      <trkpt lat="44.09174" lon="3.41232">
        <ele>830.24</ele>
        <time>2016-08-07T09:24:18Z</time>
      </trkpt>
      <trkpt lat="44.09171" lon="3.41239">
        <ele>829.76</ele>
        <time>2016-08-07T09:24:25Z</time>
      </trkpt>
      <trkpt lat="44.09172" lon="3.41246">
        <ele>828.79</ele>
        <time>2016-08-07T09:24:34Z</time>
      </trkpt>
      <trkpt lat="44.09171" lon="3.41255">
        <ele>829.76</ele>
        <time>2016-08-07T09:24:41Z</time>
      </trkpt>
      <trkpt lat="44.09171" lon="3.41267">
        <ele>829.76</ele>
        <time>2016-08-07T09:24:47Z</time>
      </trkpt>
      <trkpt lat="44.0917" lon="3.4127">
        <ele>830.72</ele>
        <time>2016-08-07T09:24:48Z</time>
      </trkpt>
      <trkpt lat="44.09181" lon="3.41285">
        <ele>829.27</ele>
        <time>2016-08-07T09:24:55Z</time>
      </trkpt>
      <trkpt lat="44.09182" lon="3.41294">
        <ele>826.39</ele>
        <time>2016-08-07T09:25:02Z</time>
      </trkpt>
      <trkpt lat="44.09177" lon="3.41302">
        <ele>825.43</ele>
        <time>2016-08-07T09:25:10Z</time>
      </trkpt>
      <trkpt lat="44.09173" lon="3.41309">
        <ele>825.91</ele>
        <time>2016-08-07T09:25:17Z</time>
      </trkpt>
      <trkpt lat="44.09185" lon="3.41327">
        <ele>826.87</ele>
        <time>2016-08-07T09:25:25Z</time>
      </trkpt>
      <trkpt lat="44.0919" lon="3.41331">
        <ele>827.35</ele>
        <time>2016-08-07T09:25:28Z</time>
      </trkpt>
      <trkpt lat="44.09191" lon="3.41345">
        <ele>830.72</ele>
        <time>2016-08-07T09:25:36Z</time>
      </trkpt>
      <trkpt lat="44.09193" lon="3.41354">
        <ele>829.76</ele>
        <time>2016-08-07T09:25:43Z</time>
      </trkpt>
      <trkpt lat="44.09193" lon="3.41365">
        <ele>831.68</ele>
        <time>2016-08-07T09:25:52Z</time>
      </trkpt>
      <trkpt lat="44.09193" lon="3.4137">
        <ele>833.6</ele>
        <time>2016-08-07T09:26:00Z</time>
      </trkpt>
      <trkpt lat="44.09194" lon="3.41369">
        <ele>836</ele>
        <time>2016-08-07T09:26:06Z</time>
      </trkpt>
      <trkpt lat="44.09193" lon="3.41368">
        <ele>836</ele>
        <time>2016-08-07T09:26:07Z</time>
      </trkpt>
      <trkpt lat="44.09194" lon="3.41359">
        <ele>839.85</ele>
        <time>2016-08-07T09:26:14Z</time>
      </trkpt>
      <trkpt lat="44.09195" lon="3.41356">
        <ele>840.81</ele>
        <time>2016-08-07T09:26:16Z</time>
      </trkpt>
      <trkpt lat="44.09196" lon="3.41349">
        <ele>843.21</ele>
        <time>2016-08-07T09:26:23Z</time>
      </trkpt>
      <trkpt lat="44.09197" lon="3.41343">
        <ele>845.14</ele>
        <time>2016-08-07T09:26:28Z</time>
      </trkpt>
      <trkpt lat="44.09201" lon="3.41337">
        <ele>846.58</ele>
        <time>2016-08-07T09:26:36Z</time>
      </trkpt>
      <trkpt lat="44.09206" lon="3.41328">
        <ele>848.02</ele>
        <time>2016-08-07T09:26:43Z</time>
      </trkpt>
      <trkpt lat="44.09208" lon="3.41318">
        <ele>848.02</ele>
        <time>2016-08-07T09:26:48Z</time>
      </trkpt>
      <trkpt lat="44.09213" lon="3.4131">
        <ele>848.02</ele>
        <time>2016-08-07T09:26:53Z</time>
      </trkpt>
      <trkpt lat="44.09218" lon="3.41302">
        <ele>848.5</ele>
        <time>2016-08-07T09:26:59Z</time>
      </trkpt>
      <trkpt lat="44.09222" lon="3.41296">
        <ele>848.5</ele>
        <time>2016-08-07T09:27:06Z</time>
      </trkpt>
      <trkpt lat="44.09227" lon="3.41288">
        <ele>848.98</ele>
        <time>2016-08-07T09:27:14Z</time>
      </trkpt>
      <trkpt lat="44.09227" lon="3.41285">
        <ele>848.98</ele>
        <time>2016-08-07T09:27:16Z</time>
      </trkpt>
      <trkpt lat="44.09231" lon="3.41281">
        <ele>848.5</ele>
        <time>2016-08-07T09:27:21Z</time>
      </trkpt>
      <trkpt lat="44.09237" lon="3.41278">
        <ele>848.02</ele>
        <time>2016-08-07T09:27:27Z</time>
      </trkpt>
      <trkpt lat="44.09244" lon="3.41277">
        <ele>847.54</ele>
        <time>2016-08-07T09:27:35Z</time>
      </trkpt>
      <trkpt lat="44.09253" lon="3.41277">
        <ele>845.62</ele>
        <time>2016-08-07T09:27:42Z</time>
      </trkpt>
      <trkpt lat="44.09261" lon="3.41277">
        <ele>845.14</ele>
        <time>2016-08-07T09:27:48Z</time>
      </trkpt>
      <trkpt lat="44.09268" lon="3.41278">
        <ele>844.18</ele>
        <time>2016-08-07T09:27:54Z</time>
      </trkpt>
      <trkpt lat="44.0927" lon="3.41278">
        <ele>845.14</ele>
        <time>2016-08-07T09:28:01Z</time>
      </trkpt>
      <trkpt lat="44.09271" lon="3.41278">
        <ele>845.62</ele>
        <time>2016-08-07T09:28:09Z</time>
      </trkpt>
      <trkpt lat="44.09273" lon="3.41279">
        <ele>846.58</ele>
        <time>2016-08-07T09:28:17Z</time>
      </trkpt>
      <trkpt lat="44.09279" lon="3.4128">
        <ele>847.54</ele>
        <time>2016-08-07T09:28:25Z</time>
      </trkpt>
      <trkpt lat="44.09308" lon="3.41287">
        <ele>849.94</ele>
        <time>2016-08-07T09:28:31Z</time>
      </trkpt>
      <trkpt lat="44.09321" lon="3.4129">
        <ele>851.38</ele>
        <time>2016-08-07T09:28:39Z</time>
      </trkpt>
      <trkpt lat="44.09322" lon="3.41293">
        <ele>850.9</ele>
        <time>2016-08-07T09:28:47Z</time>
      </trkpt>
      <trkpt lat="44.09325" lon="3.41295">
        <ele>851.38</ele>
        <time>2016-08-07T09:28:54Z</time>
      </trkpt>
      <trkpt lat="44.09326" lon="3.41296">
        <ele>851.38</ele>
        <time>2016-08-07T09:29:01Z</time>
      </trkpt>
      <trkpt lat="44.09339" lon="3.41301">
        <ele>851.38</ele>
        <time>2016-08-07T09:29:09Z</time>
      </trkpt>
      <trkpt lat="44.09348" lon="3.41304">
        <ele>853.31</ele>
        <time>2016-08-07T09:29:16Z</time>
      </trkpt>
      <trkpt lat="44.09349" lon="3.41307">
        <ele>853.79</ele>
        <time>2016-08-07T09:29:23Z</time>
      </trkpt>
      <trkpt lat="44.09353" lon="3.41311">
        <ele>853.31</ele>
        <time>2016-08-07T09:29:29Z</time>
      </trkpt>
      <trkpt lat="44.09353" lon="3.41313">
        <ele>851.87</ele>
        <time>2016-08-07T09:29:36Z</time>
      </trkpt>
      <trkpt lat="44.09357" lon="3.41314">
        <ele>852.35</ele>
        <time>2016-08-07T09:29:44Z</time>
      </trkpt>
      <trkpt lat="44.09363" lon="3.41316">
        <ele>851.87</ele>
        <time>2016-08-07T09:29:50Z</time>
      </trkpt>
      <trkpt lat="44.09362" lon="3.41318">
        <ele>852.35</ele>
        <time>2016-08-07T09:29:55Z</time>
      </trkpt>
      <trkpt lat="44.09392" lon="3.41325">
        <ele>855.71</ele>
        <time>2016-08-07T09:30:01Z</time>
      </trkpt>
      <trkpt lat="44.09401" lon="3.41328">
        <ele>857.15</ele>
        <time>2016-08-07T09:30:10Z</time>
      </trkpt>
      <trkpt lat="44.09403" lon="3.41328">
        <ele>858.11</ele>
        <time>2016-08-07T09:30:16Z</time>
      </trkpt>
      <trkpt lat="44.09411" lon="3.41331">
        <ele>858.11</ele>
        <time>2016-08-07T09:30:23Z</time>
      </trkpt>
      <trkpt lat="44.09416" lon="3.41334">
        <ele>858.59</ele>
        <time>2016-08-07T09:30:29Z</time>
      </trkpt>
      <trkpt lat="44.09423" lon="3.41337">
        <ele>859.56</ele>
        <time>2016-08-07T09:30:36Z</time>
      </trkpt>
      <trkpt lat="44.09435" lon="3.41342">
        <ele>859.08</ele>
        <time>2016-08-07T09:30:42Z</time>
      </trkpt>
      <trkpt lat="44.09442" lon="3.41344">
        <ele>860.52</ele>
        <time>2016-08-07T09:30:48Z</time>
      </trkpt>
      <trkpt lat="44.09445" lon="3.41347">
        <ele>861.96</ele>
        <time>2016-08-07T09:30:56Z</time>
      </trkpt>
      <trkpt lat="44.09452" lon="3.41352">
        <ele>863.88</ele>
        <time>2016-08-07T09:31:03Z</time>
      </trkpt>
      <trkpt lat="44.09451" lon="3.41352">
        <ele>862.44</ele>
        <time>2016-08-07T09:31:09Z</time>
      </trkpt>
      <trkpt lat="44.09457" lon="3.41353">
        <ele>861.96</ele>
        <time>2016-08-07T09:31:15Z</time>
      </trkpt>
      <trkpt lat="44.09469" lon="3.41359">
        <ele>861</ele>
        <time>2016-08-07T09:31:22Z</time>
      </trkpt>
      <trkpt lat="44.09479" lon="3.41362">
        <ele>861</ele>
        <time>2016-08-07T09:31:29Z</time>
      </trkpt>
      <trkpt lat="44.09493" lon="3.41365">
        <ele>862.92</ele>
        <time>2016-08-07T09:31:37Z</time>
      </trkpt>
      <trkpt lat="44.09499" lon="3.41365">
        <ele>865.32</ele>
        <time>2016-08-07T09:31:46Z</time>
      </trkpt>
      <trkpt lat="44.09503" lon="3.41364">
        <ele>866.29</ele>
        <time>2016-08-07T09:31:52Z</time>
      </trkpt>
      <trkpt lat="44.09504" lon="3.41363">
        <ele>867.73</ele>
        <time>2016-08-07T09:31:57Z</time>
      </trkpt>
      <trkpt lat="44.09516" lon="3.41365">
        <ele>868.69</ele>
        <time>2016-08-07T09:32:06Z</time>
      </trkpt>
      <trkpt lat="44.09521" lon="3.41364">
        <ele>868.69</ele>
        <time>2016-08-07T09:32:12Z</time>
      </trkpt>
      <trkpt lat="44.0953" lon="3.41367">
        <ele>871.09</ele>
        <time>2016-08-07T09:32:19Z</time>
      </trkpt>
      <trkpt lat="44.09531" lon="3.41367">
        <ele>871.09</ele>
        <time>2016-08-07T09:32:29Z</time>
      </trkpt>
      <trkpt lat="44.09544" lon="3.41375">
        <ele>873.01</ele>
        <time>2016-08-07T09:32:38Z</time>
      </trkpt>
      <trkpt lat="44.09552" lon="3.41382">
        <ele>874.94</ele>
        <time>2016-08-07T09:32:46Z</time>
      </trkpt>
      <trkpt lat="44.09557" lon="3.41392">
        <ele>873.98</ele>
        <time>2016-08-07T09:32:52Z</time>
      </trkpt>
      <trkpt lat="44.09562" lon="3.41398">
        <ele>873.98</ele>
        <time>2016-08-07T09:32:58Z</time>
      </trkpt>
      <trkpt lat="44.09565" lon="3.41406">
        <ele>871.09</ele>
        <time>2016-08-07T09:33:05Z</time>
      </trkpt>
      <trkpt lat="44.09567" lon="3.41414">
        <ele>870.13</ele>
        <time>2016-08-07T09:33:10Z</time>
      </trkpt>
      <trkpt lat="44.09573" lon="3.41426">
        <ele>871.09</ele>
        <time>2016-08-07T09:33:16Z</time>
      </trkpt>
      <trkpt lat="44.09578" lon="3.41438">
        <ele>873.5</ele>
        <time>2016-08-07T09:33:23Z</time>
      </trkpt>
      <trkpt lat="44.0958" lon="3.41439">
        <ele>873.5</ele>
        <time>2016-08-07T09:33:26Z</time>
      </trkpt>
      <trkpt lat="44.09574" lon="3.41452">
        <ele>874.46</ele>
        <time>2016-08-07T09:33:34Z</time>
      </trkpt>
      <trkpt lat="44.09572" lon="3.41454">
        <ele>874.94</ele>
        <time>2016-08-07T09:33:41Z</time>
      </trkpt>
      <trkpt lat="44.09573" lon="3.41453">
        <ele>873.98</ele>
        <time>2016-08-07T09:33:50Z</time>
      </trkpt>
      <trkpt lat="44.09579" lon="3.41452">
        <ele>874.94</ele>
        <time>2016-08-07T09:33:58Z</time>
      </trkpt>
      <trkpt lat="44.0958" lon="3.41447">
        <ele>877.34</ele>
        <time>2016-08-07T09:34:06Z</time>
      </trkpt>
      <trkpt lat="44.09577" lon="3.41442">
        <ele>878.78</ele>
        <time>2016-08-07T09:34:16Z</time>
      </trkpt>
      <trkpt lat="44.09576" lon="3.4144">
        <ele>879.74</ele>
        <time>2016-08-07T09:34:24Z</time>
      </trkpt>
      <trkpt lat="44.09576" lon="3.41442">
        <ele>880.22</ele>
        <time>2016-08-07T09:34:34Z</time>
      </trkpt>
      <trkpt lat="44.09579" lon="3.41448">
        <ele>879.26</ele>
        <time>2016-08-07T09:34:40Z</time>
      </trkpt>
      <trkpt lat="44.09586" lon="3.41457">
        <ele>878.78</ele>
        <time>2016-08-07T09:34:48Z</time>
      </trkpt>
      <trkpt lat="44.09588" lon="3.41464">
        <ele>879.26</ele>
        <time>2016-08-07T09:34:54Z</time>
      </trkpt>
      <trkpt lat="44.09591" lon="3.41472">
        <ele>879.26</ele>
        <time>2016-08-07T09:35:02Z</time>
      </trkpt>
      <trkpt lat="44.09591" lon="3.41473">
        <ele>879.26</ele>
        <time>2016-08-07T09:35:03Z</time>
      </trkpt>
      <trkpt lat="44.09591" lon="3.4148">
        <ele>878.78</ele>
        <time>2016-08-07T09:35:11Z</time>
      </trkpt>
      <trkpt lat="44.0959" lon="3.41484">
        <ele>878.78</ele>
        <time>2016-08-07T09:35:14Z</time>
      </trkpt>
      <trkpt lat="44.09591" lon="3.41491">
        <ele>878.3</ele>
        <time>2016-08-07T09:35:16Z</time>
      </trkpt>
      <trkpt lat="44.09591" lon="3.415">
        <ele>878.3</ele>
        <time>2016-08-07T09:35:20Z</time>
      </trkpt>
      <trkpt lat="44.09589" lon="3.4151">
        <ele>878.3</ele>
        <time>2016-08-07T09:35:29Z</time>
      </trkpt>
      <trkpt lat="44.09591" lon="3.41522">
        <ele>878.3</ele>
        <time>2016-08-07T09:35:34Z</time>
      </trkpt>
      <trkpt lat="44.0959" lon="3.41543">
        <ele>877.82</ele>
        <time>2016-08-07T09:35:41Z</time>
      </trkpt>
      <trkpt lat="44.09596" lon="3.41555">
        <ele>877.34</ele>
        <time>2016-08-07T09:35:48Z</time>
      </trkpt>
      <trkpt lat="44.09597" lon="3.41568">
        <ele>875.9</ele>
        <time>2016-08-07T09:35:55Z</time>
      </trkpt>
      <trkpt lat="44.09597" lon="3.4157">
        <ele>875.9</ele>
        <time>2016-08-07T09:35:56Z</time>
      </trkpt>
      <trkpt lat="44.09597" lon="3.4158">
        <ele>875.42</ele>
        <time>2016-08-07T09:36:03Z</time>
      </trkpt>
      <trkpt lat="44.09596" lon="3.41585">
        <ele>875.42</ele>
        <time>2016-08-07T09:36:07Z</time>
      </trkpt>
      <trkpt lat="44.09594" lon="3.41597">
        <ele>874.94</ele>
        <time>2016-08-07T09:36:15Z</time>
      </trkpt>
      <trkpt lat="44.09597" lon="3.41602">
        <ele>875.42</ele>
        <time>2016-08-07T09:36:21Z</time>
      </trkpt>
      <trkpt lat="44.09597" lon="3.41602">
        <ele>875.42</ele>
        <time>2016-08-07T09:36:22Z</time>
      </trkpt>
      <trkpt lat="44.09604" lon="3.41616">
        <ele>876.86</ele>
        <time>2016-08-07T09:36:28Z</time>
      </trkpt>
      <trkpt lat="44.0961" lon="3.41624">
        <ele>877.34</ele>
        <time>2016-08-07T09:36:34Z</time>
      </trkpt>
      <trkpt lat="44.09612" lon="3.41629">
        <ele>878.3</ele>
        <time>2016-08-07T09:36:37Z</time>
      </trkpt>
      <trkpt lat="44.09615" lon="3.41636">
        <ele>878.78</ele>
        <time>2016-08-07T09:36:44Z</time>
      </trkpt>
      <trkpt lat="44.09612" lon="3.41646">
        <ele>878.78</ele>
        <time>2016-08-07T09:36:51Z</time>
      </trkpt>
      <trkpt lat="44.09611" lon="3.41654">
        <ele>877.34</ele>
        <time>2016-08-07T09:36:58Z</time>
      </trkpt>
      <trkpt lat="44.0961" lon="3.41667">
        <ele>875.42</ele>
        <time>2016-08-07T09:37:06Z</time>
      </trkpt>
      <trkpt lat="44.09618" lon="3.4168">
        <ele>873.01</ele>
        <time>2016-08-07T09:37:13Z</time>
      </trkpt>
      <trkpt lat="44.09628" lon="3.41693">
        <ele>871.09</ele>
        <time>2016-08-07T09:37:19Z</time>
      </trkpt>
      <trkpt lat="44.09633" lon="3.41705">
        <ele>869.65</ele>
        <time>2016-08-07T09:37:25Z</time>
      </trkpt>
      <trkpt lat="44.09637" lon="3.41712">
        <ele>868.21</ele>
        <time>2016-08-07T09:37:29Z</time>
      </trkpt>
      <trkpt lat="44.09634" lon="3.41715">
        <ele>866.77</ele>
        <time>2016-08-07T09:37:32Z</time>
      </trkpt>
      <trkpt lat="44.09624" lon="3.41722">
        <ele>862.92</ele>
        <time>2016-08-07T09:37:39Z</time>
      </trkpt>
      <trkpt lat="44.09622" lon="3.4173">
        <ele>861.96</ele>
        <time>2016-08-07T09:37:42Z</time>
      </trkpt>
      <trkpt lat="44.09619" lon="3.41733">
        <ele>861</ele>
        <time>2016-08-07T09:37:45Z</time>
      </trkpt>
      <trkpt lat="44.09616" lon="3.41741">
        <ele>857.15</ele>
        <time>2016-08-07T09:37:53Z</time>
      </trkpt>
      <trkpt lat="44.09615" lon="3.41747">
        <ele>855.71</ele>
        <time>2016-08-07T09:37:57Z</time>
      </trkpt>
      <trkpt lat="44.09613" lon="3.41757">
        <ele>852.83</ele>
        <time>2016-08-07T09:38:03Z</time>
      </trkpt>
      <trkpt lat="44.09614" lon="3.4177">
        <ele>850.42</ele>
        <time>2016-08-07T09:38:11Z</time>
      </trkpt>
      <trkpt lat="44.09614" lon="3.4178">
        <ele>850.9</ele>
        <time>2016-08-07T09:38:18Z</time>
      </trkpt>
      <trkpt lat="44.09609" lon="3.41796">
        <ele>854.75</ele>
        <time>2016-08-07T09:38:25Z</time>
      </trkpt>
      <trkpt lat="44.0961" lon="3.41812">
        <ele>859.56</ele>
        <time>2016-08-07T09:38:33Z</time>
      </trkpt>
      <trkpt lat="44.09609" lon="3.41816">
        <ele>860.04</ele>
        <time>2016-08-07T09:38:37Z</time>
      </trkpt>
      <trkpt lat="44.09604" lon="3.4182">
        <ele>860.52</ele>
        <time>2016-08-07T09:38:43Z</time>
      </trkpt>
      <trkpt lat="44.09598" lon="3.41827">
        <ele>858.59</ele>
        <time>2016-08-07T09:38:49Z</time>
      </trkpt>
      <trkpt lat="44.09596" lon="3.41829">
        <ele>858.11</ele>
        <time>2016-08-07T09:38:51Z</time>
      </trkpt>
      <trkpt lat="44.09596" lon="3.41839">
        <ele>855.23</ele>
        <time>2016-08-07T09:38:57Z</time>
      </trkpt>
      <trkpt lat="44.09598" lon="3.41844">
        <ele>853.79</ele>
        <time>2016-08-07T09:39:01Z</time>
      </trkpt>
      <trkpt lat="44.09604" lon="3.41853">
        <ele>851.87</ele>
        <time>2016-08-07T09:39:05Z</time>
      </trkpt>
      <trkpt lat="44.09606" lon="3.41859">
        <ele>849.46</ele>
        <time>2016-08-07T09:39:10Z</time>
      </trkpt>
      <trkpt lat="44.09608" lon="3.4187">
        <ele>845.62</ele>
        <time>2016-08-07T09:39:15Z</time>
      </trkpt>
      <trkpt lat="44.09613" lon="3.4188">
        <ele>842.73</ele>
        <time>2016-08-07T09:39:20Z</time>
      </trkpt>
      <trkpt lat="44.09607" lon="3.41885">
        <ele>838.41</ele>
        <time>2016-08-07T09:39:25Z</time>
      </trkpt>
      <trkpt lat="44.09613" lon="3.41898">
        <ele>833.12</ele>
        <time>2016-08-07T09:39:33Z</time>
      </trkpt>
      <trkpt lat="44.09615" lon="3.41905">
        <ele>830.24</ele>
        <time>2016-08-07T09:39:45Z</time>
      </trkpt>
      <trkpt lat="44.09619" lon="3.41915">
        <ele>825.91</ele>
        <time>2016-08-07T09:39:53Z</time>
      </trkpt>
      <trkpt lat="44.09618" lon="3.41917">
        <ele>824.95</ele>
        <time>2016-08-07T09:40:00Z</time>
      </trkpt>
      <trkpt lat="44.0962" lon="3.41925">
        <ele>823.51</ele>
        <time>2016-08-07T09:40:07Z</time>
      </trkpt>
      <trkpt lat="44.0962" lon="3.41925">
        <ele>823.51</ele>
        <time>2016-08-07T09:40:08Z</time>
      </trkpt>
      <trkpt lat="44.09625" lon="3.41928">
        <ele>825.43</ele>
        <time>2016-08-07T09:40:15Z</time>
      </trkpt>
      <trkpt lat="44.09622" lon="3.41925">
        <ele>830.24</ele>
        <time>2016-08-07T09:40:22Z</time>
      </trkpt>
      <trkpt lat="44.09619" lon="3.41925">
        <ele>833.6</ele>
        <time>2016-08-07T09:40:27Z</time>
      </trkpt>
      <trkpt lat="44.09615" lon="3.41922">
        <ele>837.45</ele>
        <time>2016-08-07T09:40:34Z</time>
      </trkpt>
      <trkpt lat="44.09615" lon="3.4192">
        <ele>837.93</ele>
        <time>2016-08-07T09:40:39Z</time>
      </trkpt>
      <trkpt lat="44.09621" lon="3.4192">
        <ele>838.89</ele>
        <time>2016-08-07T09:40:46Z</time>
      </trkpt>
      <trkpt lat="44.09623" lon="3.41918">
        <ele>839.85</ele>
        <time>2016-08-07T09:40:52Z</time>
      </trkpt>
      <trkpt lat="44.09625" lon="3.41915">
        <ele>842.25</ele>
        <time>2016-08-07T09:40:57Z</time>
      </trkpt>
      <trkpt lat="44.09625" lon="3.41911">
        <ele>844.66</ele>
        <time>2016-08-07T09:41:02Z</time>
      </trkpt>
      <trkpt lat="44.09625" lon="3.41906">
        <ele>847.06</ele>
        <time>2016-08-07T09:41:08Z</time>
      </trkpt>
      <trkpt lat="44.09621" lon="3.41896">
        <ele>850.42</ele>
        <time>2016-08-07T09:41:15Z</time>
      </trkpt>
      <trkpt lat="44.0962" lon="3.41894">
        <ele>850.9</ele>
        <time>2016-08-07T09:41:16Z</time>
      </trkpt>
      <trkpt lat="44.09621" lon="3.41892">
        <ele>851.38</ele>
        <time>2016-08-07T09:41:18Z</time>
      </trkpt>
      <trkpt lat="44.09628" lon="3.41887">
        <ele>855.23</ele>
        <time>2016-08-07T09:41:24Z</time>
      </trkpt>
      <trkpt lat="44.09629" lon="3.41887">
        <ele>856.19</ele>
        <time>2016-08-07T09:41:26Z</time>
      </trkpt>
      <trkpt lat="44.09634" lon="3.41881">
        <ele>859.08</ele>
        <time>2016-08-07T09:41:32Z</time>
      </trkpt>
      <trkpt lat="44.09635" lon="3.41881">
        <ele>859.08</ele>
        <time>2016-08-07T09:41:33Z</time>
      </trkpt>
      <trkpt lat="44.09639" lon="3.41878">
        <ele>860.04</ele>
        <time>2016-08-07T09:41:36Z</time>
      </trkpt>
      <trkpt lat="44.09652" lon="3.41869">
        <ele>866.77</ele>
        <time>2016-08-07T09:41:44Z</time>
      </trkpt>
      <trkpt lat="44.09662" lon="3.41866">
        <ele>869.17</ele>
        <time>2016-08-07T09:41:47Z</time>
      </trkpt>
      <trkpt lat="44.0967" lon="3.41864">
        <ele>872.05</ele>
        <time>2016-08-07T09:41:50Z</time>
      </trkpt>
      <trkpt lat="44.0968" lon="3.41859">
        <ele>876.38</ele>
        <time>2016-08-07T09:41:54Z</time>
      </trkpt>
      <trkpt lat="44.09686" lon="3.41854">
        <ele>877.82</ele>
        <time>2016-08-07T09:42:00Z</time>
      </trkpt>
      <trkpt lat="44.09693" lon="3.41848">
        <ele>879.26</ele>
        <time>2016-08-07T09:42:07Z</time>
      </trkpt>
      <trkpt lat="44.09699" lon="3.41845">
        <ele>879.74</ele>
        <time>2016-08-07T09:42:13Z</time>
      </trkpt>
      <trkpt lat="44.09707" lon="3.41845">
        <ele>878.3</ele>
        <time>2016-08-07T09:42:20Z</time>
      </trkpt>
      <trkpt lat="44.0971" lon="3.41844">
        <ele>878.3</ele>
        <time>2016-08-07T09:42:23Z</time>
      </trkpt>
      <trkpt lat="44.09714" lon="3.41837">
        <ele>878.78</ele>
        <time>2016-08-07T09:42:29Z</time>
      </trkpt>
      <trkpt lat="44.09715" lon="3.41826">
        <ele>880.22</ele>
        <time>2016-08-07T09:42:36Z</time>
      </trkpt>
      <trkpt lat="44.09716" lon="3.41818">
        <ele>880.22</ele>
        <time>2016-08-07T09:42:43Z</time>
      </trkpt>
      <trkpt lat="44.09718" lon="3.41812">
        <ele>882.15</ele>
        <time>2016-08-07T09:42:49Z</time>
      </trkpt>
      <trkpt lat="44.09722" lon="3.41802">
        <ele>884.55</ele>
        <time>2016-08-07T09:42:56Z</time>
      </trkpt>
      <trkpt lat="44.09727" lon="3.41794">
        <ele>885.99</ele>
        <time>2016-08-07T09:43:04Z</time>
      </trkpt>
      <trkpt lat="44.09732" lon="3.41787">
        <ele>886.47</ele>
        <time>2016-08-07T09:43:11Z</time>
      </trkpt>
      <trkpt lat="44.09736" lon="3.41779">
        <ele>887.43</ele>
        <time>2016-08-07T09:43:18Z</time>
      </trkpt>
      <trkpt lat="44.0974" lon="3.4177">
        <ele>888.88</ele>
        <time>2016-08-07T09:43:25Z</time>
      </trkpt>
      <trkpt lat="44.09743" lon="3.41767">
        <ele>889.36</ele>
        <time>2016-08-07T09:43:28Z</time>
      </trkpt>
      <trkpt lat="44.09747" lon="3.41759">
        <ele>890.32</ele>
        <time>2016-08-07T09:43:35Z</time>
      </trkpt>
      <trkpt lat="44.0975" lon="3.41754">
        <ele>891.28</ele>
        <time>2016-08-07T09:43:39Z</time>
      </trkpt>
      <trkpt lat="44.09757" lon="3.41745">
        <ele>892.24</ele>
        <time>2016-08-07T09:43:46Z</time>
      </trkpt>
      <trkpt lat="44.09762" lon="3.41737">
        <ele>892.72</ele>
        <time>2016-08-07T09:43:53Z</time>
      </trkpt>
      <trkpt lat="44.09769" lon="3.4173">
        <ele>894.64</ele>
        <time>2016-08-07T09:44:00Z</time>
      </trkpt>
      <trkpt lat="44.09774" lon="3.41724">
        <ele>895.61</ele>
        <time>2016-08-07T09:44:06Z</time>
      </trkpt>
      <trkpt lat="44.09778" lon="3.41714">
        <ele>895.61</ele>
        <time>2016-08-07T09:44:13Z</time>
      </trkpt>
      <trkpt lat="44.09778" lon="3.41714">
        <ele>895.61</ele>
        <time>2016-08-07T09:44:19Z</time>
      </trkpt>
      <trkpt lat="44.09778" lon="3.41703">
        <ele>895.12</ele>
        <time>2016-08-07T09:44:26Z</time>
      </trkpt>
      <trkpt lat="44.09777" lon="3.417">
        <ele>895.12</ele>
        <time>2016-08-07T09:44:28Z</time>
      </trkpt>
      <trkpt lat="44.09775" lon="3.41696">
        <ele>895.12</ele>
        <time>2016-08-07T09:44:31Z</time>
      </trkpt>
      <trkpt lat="44.09771" lon="3.41684">
        <ele>895.12</ele>
        <time>2016-08-07T09:44:39Z</time>
      </trkpt>
      <trkpt lat="44.09769" lon="3.41672">
        <ele>894.64</ele>
        <time>2016-08-07T09:44:46Z</time>
      </trkpt>
      <trkpt lat="44.09769" lon="3.41667">
        <ele>894.64</ele>
        <time>2016-08-07T09:44:49Z</time>
      </trkpt>
      <trkpt lat="44.09769" lon="3.4166">
        <ele>894.64</ele>
        <time>2016-08-07T09:44:52Z</time>
      </trkpt>
      <trkpt lat="44.09768" lon="3.41652">
        <ele>896.57</ele>
        <time>2016-08-07T09:44:59Z</time>
      </trkpt>
      <trkpt lat="44.09768" lon="3.41643">
        <ele>897.53</ele>
        <time>2016-08-07T09:45:03Z</time>
      </trkpt>
      <trkpt lat="44.09772" lon="3.41634">
        <ele>898.97</ele>
        <time>2016-08-07T09:45:10Z</time>
      </trkpt>
      <trkpt lat="44.09775" lon="3.41632">
        <ele>898.97</ele>
        <time>2016-08-07T09:45:13Z</time>
      </trkpt>
      <trkpt lat="44.09776" lon="3.41629">
        <ele>899.45</ele>
        <time>2016-08-07T09:45:16Z</time>
      </trkpt>
      <trkpt lat="44.09779" lon="3.41622">
        <ele>900.41</ele>
        <time>2016-08-07T09:45:22Z</time>
      </trkpt>
      <trkpt lat="44.09784" lon="3.41615">
        <ele>901.37</ele>
        <time>2016-08-07T09:45:28Z</time>
      </trkpt>
      <trkpt lat="44.09787" lon="3.41601">
        <ele>902.82</ele>
        <time>2016-08-07T09:45:36Z</time>
      </trkpt>
      <trkpt lat="44.09787" lon="3.4159">
        <ele>902.82</ele>
        <time>2016-08-07T09:45:45Z</time>
      </trkpt>
      <trkpt lat="44.09789" lon="3.41578">
        <ele>902.33</ele>
        <time>2016-08-07T09:45:53Z</time>
      </trkpt>
      <trkpt lat="44.09793" lon="3.41562">
        <ele>902.33</ele>
        <time>2016-08-07T09:46:00Z</time>
      </trkpt>
      <trkpt lat="44.09797" lon="3.41548">
        <ele>904.26</ele>
        <time>2016-08-07T09:46:10Z</time>
      </trkpt>
      <trkpt lat="44.09799" lon="3.41541">
        <ele>904.74</ele>
        <time>2016-08-07T09:46:14Z</time>
      </trkpt>
      <trkpt lat="44.09803" lon="3.41527">
        <ele>906.18</ele>
        <time>2016-08-07T09:46:22Z</time>
      </trkpt>
      <trkpt lat="44.09804" lon="3.41521">
        <ele>905.7</ele>
        <time>2016-08-07T09:46:29Z</time>
      </trkpt>
      <trkpt lat="44.09808" lon="3.4151">
        <ele>908.1</ele>
        <time>2016-08-07T09:46:36Z</time>
      </trkpt>
      <trkpt lat="44.0981" lon="3.415">
        <ele>908.58</ele>
        <time>2016-08-07T09:46:43Z</time>
      </trkpt>
      <trkpt lat="44.09813" lon="3.4149">
        <ele>910.99</ele>
        <time>2016-08-07T09:46:51Z</time>
      </trkpt>
      <trkpt lat="44.09817" lon="3.41475">
        <ele>912.43</ele>
        <time>2016-08-07T09:46:59Z</time>
      </trkpt>
      <trkpt lat="44.09819" lon="3.41472">
        <ele>913.39</ele>
        <time>2016-08-07T09:47:01Z</time>
      </trkpt>
      <trkpt lat="44.09818" lon="3.41456">
        <ele>916.27</ele>
        <time>2016-08-07T09:47:10Z</time>
      </trkpt>
      <trkpt lat="44.09817" lon="3.41454">
        <ele>916.27</ele>
        <time>2016-08-07T09:47:11Z</time>
      </trkpt>
      <trkpt lat="44.09815" lon="3.41444">
        <ele>917.24</ele>
        <time>2016-08-07T09:47:17Z</time>
      </trkpt>
      <trkpt lat="44.09811" lon="3.41434">
        <ele>917.72</ele>
        <time>2016-08-07T09:47:24Z</time>
      </trkpt>
      <trkpt lat="44.09813" lon="3.41427">
        <ele>916.27</ele>
        <time>2016-08-07T09:47:28Z</time>
      </trkpt>
      <trkpt lat="44.09815" lon="3.41415">
        <ele>915.79</ele>
        <time>2016-08-07T09:47:35Z</time>
      </trkpt>
      <trkpt lat="44.09815" lon="3.41405">
        <ele>916.27</ele>
        <time>2016-08-07T09:47:41Z</time>
      </trkpt>
      <trkpt lat="44.09814" lon="3.41397">
        <ele>916.75</ele>
        <time>2016-08-07T09:47:46Z</time>
      </trkpt>
      <trkpt lat="44.09813" lon="3.41386">
        <ele>914.35</ele>
        <time>2016-08-07T09:47:53Z</time>
      </trkpt>
      <trkpt lat="44.09813" lon="3.4138">
        <ele>913.39</ele>
        <time>2016-08-07T09:47:57Z</time>
      </trkpt>
      <trkpt lat="44.09809" lon="3.41372">
        <ele>911.95</ele>
        <time>2016-08-07T09:48:03Z</time>
      </trkpt>
      <trkpt lat="44.09808" lon="3.4137">
        <ele>911.47</ele>
        <time>2016-08-07T09:48:05Z</time>
      </trkpt>
      <trkpt lat="44.09807" lon="3.41357">
        <ele>913.39</ele>
        <time>2016-08-07T09:48:13Z</time>
      </trkpt>
      <trkpt lat="44.0981" lon="3.41344">
        <ele>913.87</ele>
        <time>2016-08-07T09:48:21Z</time>
      </trkpt>
      <trkpt lat="44.09813" lon="3.41336">
        <ele>914.35</ele>
        <time>2016-08-07T09:48:28Z</time>
      </trkpt>
      <trkpt lat="44.09813" lon="3.41333">
        <ele>914.35</ele>
        <time>2016-08-07T09:48:30Z</time>
      </trkpt>
      <trkpt lat="44.09811" lon="3.41328">
        <ele>914.83</ele>
        <time>2016-08-07T09:48:34Z</time>
      </trkpt>
      <trkpt lat="44.09806" lon="3.41317">
        <ele>915.31</ele>
        <time>2016-08-07T09:48:43Z</time>
      </trkpt>
      <trkpt lat="44.09807" lon="3.41312">
        <ele>914.83</ele>
        <time>2016-08-07T09:48:47Z</time>
      </trkpt>
      <trkpt lat="44.09811" lon="3.41305">
        <ele>913.87</ele>
        <time>2016-08-07T09:48:54Z</time>
      </trkpt>
      <trkpt lat="44.09814" lon="3.41304">
        <ele>913.39</ele>
        <time>2016-08-07T09:49:01Z</time>
      </trkpt>
      <trkpt lat="44.09814" lon="3.41304">
        <ele>913.39</ele>
        <time>2016-08-07T09:49:13Z</time>
      </trkpt>
      <trkpt lat="44.09814" lon="3.41304">
        <ele>913.39</ele>
        <time>2016-08-07T09:49:34Z</time>
      </trkpt>
      <trkpt lat="44.09815" lon="3.41303">
        <ele>912.91</ele>
        <time>2016-08-07T09:49:47Z</time>
      </trkpt>
      <trkpt lat="44.09823" lon="3.41292">
        <ele>911.47</ele>
        <time>2016-08-07T09:49:56Z</time>
      </trkpt>
      <trkpt lat="44.09827" lon="3.41285">
        <ele>910.51</ele>
        <time>2016-08-07T09:50:03Z</time>
      </trkpt>
      <trkpt lat="44.09832" lon="3.41283">
        <ele>909.54</ele>
        <time>2016-08-07T09:50:10Z</time>
      </trkpt>
      <trkpt lat="44.09834" lon="3.41283">
        <ele>909.06</ele>
        <time>2016-08-07T09:50:12Z</time>
      </trkpt>
      <trkpt lat="44.09839" lon="3.41286">
        <ele>907.62</ele>
        <time>2016-08-07T09:50:17Z</time>
      </trkpt>
      <trkpt lat="44.0984" lon="3.41286">
        <ele>907.14</ele>
        <time>2016-08-07T09:50:18Z</time>
      </trkpt>
      <trkpt lat="44.0985" lon="3.41291">
        <ele>907.14</ele>
        <time>2016-08-07T09:50:26Z</time>
      </trkpt>
      <trkpt lat="44.09853" lon="3.41291">
        <ele>906.66</ele>
        <time>2016-08-07T09:50:32Z</time>
      </trkpt>
      <trkpt lat="44.09857" lon="3.41294">
        <ele>906.66</ele>
        <time>2016-08-07T09:50:38Z</time>
      </trkpt>
      <trkpt lat="44.09864" lon="3.41297">
        <ele>905.22</ele>
        <time>2016-08-07T09:50:45Z</time>
      </trkpt>
      <trkpt lat="44.09865" lon="3.41297">
        <ele>904.74</ele>
        <time>2016-08-07T09:50:46Z</time>
      </trkpt>
      <trkpt lat="44.09875" lon="3.41299">
        <ele>904.26</ele>
        <time>2016-08-07T09:50:52Z</time>
      </trkpt>
      <trkpt lat="44.09883" lon="3.41303">
        <ele>903.78</ele>
        <time>2016-08-07T09:50:58Z</time>
      </trkpt>
      <trkpt lat="44.09893" lon="3.41306">
        <ele>905.7</ele>
        <time>2016-08-07T09:51:05Z</time>
      </trkpt>
      <trkpt lat="44.09905" lon="3.41314">
        <ele>907.14</ele>
        <time>2016-08-07T09:51:11Z</time>
      </trkpt>
      <trkpt lat="44.09916" lon="3.41324">
        <ele>909.06</ele>
        <time>2016-08-07T09:51:18Z</time>
      </trkpt>
      <trkpt lat="44.09921" lon="3.41331">
        <ele>908.58</ele>
        <time>2016-08-07T09:51:24Z</time>
      </trkpt>
      <trkpt lat="44.09926" lon="3.41338">
        <ele>908.58</ele>
        <time>2016-08-07T09:51:32Z</time>
      </trkpt>
      <trkpt lat="44.09935" lon="3.41345">
        <ele>908.58</ele>
        <time>2016-08-07T09:51:38Z</time>
      </trkpt>
      <trkpt lat="44.09935" lon="3.41347">
        <ele>909.06</ele>
        <time>2016-08-07T09:51:39Z</time>
      </trkpt>
      <trkpt lat="44.09939" lon="3.41359">
        <ele>910.51</ele>
        <time>2016-08-07T09:51:45Z</time>
      </trkpt>
      <trkpt lat="44.09945" lon="3.41365">
        <ele>910.51</ele>
        <time>2016-08-07T09:51:50Z</time>
      </trkpt>
      <trkpt lat="44.09945" lon="3.41366">
        <ele>910.51</ele>
        <time>2016-08-07T09:51:51Z</time>
      </trkpt>
      <trkpt lat="44.09943" lon="3.41373">
        <ele>910.99</ele>
        <time>2016-08-07T09:51:57Z</time>
      </trkpt>
      <trkpt lat="44.09944" lon="3.41378">
        <ele>911.47</ele>
        <time>2016-08-07T09:52:00Z</time>
      </trkpt>
      <trkpt lat="44.09947" lon="3.41385">
        <ele>911.47</ele>
        <time>2016-08-07T09:52:03Z</time>
      </trkpt>
      <trkpt lat="44.09948" lon="3.41395">
        <ele>912.91</ele>
        <time>2016-08-07T09:52:07Z</time>
      </trkpt>
      <trkpt lat="44.0995" lon="3.41406">
        <ele>913.39</ele>
        <time>2016-08-07T09:52:13Z</time>
      </trkpt>
      <trkpt lat="44.09954" lon="3.41424">
        <ele>913.39</ele>
        <time>2016-08-07T09:52:22Z</time>
      </trkpt>
      <trkpt lat="44.09953" lon="3.41428">
        <ele>913.87</ele>
        <time>2016-08-07T09:52:25Z</time>
      </trkpt>
      <trkpt lat="44.09956" lon="3.4144">
        <ele>913.87</ele>
        <time>2016-08-07T09:52:33Z</time>
      </trkpt>
      <trkpt lat="44.09959" lon="3.41445">
        <ele>913.87</ele>
        <time>2016-08-07T09:52:36Z</time>
      </trkpt>
      <trkpt lat="44.09959" lon="3.41452">
        <ele>913.39</ele>
        <time>2016-08-07T09:52:39Z</time>
      </trkpt>
      <trkpt lat="44.09961" lon="3.41464">
        <ele>913.87</ele>
        <time>2016-08-07T09:52:46Z</time>
      </trkpt>
      <trkpt lat="44.09963" lon="3.41475">
        <ele>914.83</ele>
        <time>2016-08-07T09:52:53Z</time>
      </trkpt>
      <trkpt lat="44.09967" lon="3.41485">
        <ele>915.31</ele>
        <time>2016-08-07T09:53:00Z</time>
      </trkpt>
      <trkpt lat="44.09973" lon="3.41495">
        <ele>915.31</ele>
        <time>2016-08-07T09:53:07Z</time>
      </trkpt>
      <trkpt lat="44.0998" lon="3.41503">
        <ele>914.83</ele>
        <time>2016-08-07T09:53:16Z</time>
      </trkpt>
      <trkpt lat="44.09983" lon="3.41509">
        <ele>914.83</ele>
        <time>2016-08-07T09:53:22Z</time>
      </trkpt>
      <trkpt lat="44.09985" lon="3.41522">
        <ele>914.83</ele>
        <time>2016-08-07T09:53:28Z</time>
      </trkpt>
      <trkpt lat="44.09987" lon="3.41531">
        <ele>916.27</ele>
        <time>2016-08-07T09:53:34Z</time>
      </trkpt>
      <trkpt lat="44.09986" lon="3.41538">
        <ele>918.2</ele>
        <time>2016-08-07T09:53:40Z</time>
      </trkpt>
      <trkpt lat="44.0999" lon="3.41542">
        <ele>919.64</ele>
        <time>2016-08-07T09:53:45Z</time>
      </trkpt>
      <trkpt lat="44.09995" lon="3.41539">
        <ele>921.08</ele>
        <time>2016-08-07T09:53:51Z</time>
      </trkpt>
      <trkpt lat="44.10001" lon="3.41531">
        <ele>922.52</ele>
        <time>2016-08-07T09:54:00Z</time>
      </trkpt>
      <trkpt lat="44.10002" lon="3.41521">
        <ele>923.96</ele>
        <time>2016-08-07T09:54:08Z</time>
      </trkpt>
      <trkpt lat="44.10006" lon="3.41511">
        <ele>923</ele>
        <time>2016-08-07T09:54:15Z</time>
      </trkpt>
      <trkpt lat="44.10011" lon="3.41502">
        <ele>924.45</ele>
        <time>2016-08-07T09:54:22Z</time>
      </trkpt>
      <trkpt lat="44.10013" lon="3.4149">
        <ele>923</ele>
        <time>2016-08-07T09:54:29Z</time>
      </trkpt>
      <trkpt lat="44.10016" lon="3.41478">
        <ele>923</ele>
        <time>2016-08-07T09:54:35Z</time>
      </trkpt>
      <trkpt lat="44.1002" lon="3.41466">
        <ele>922.52</ele>
        <time>2016-08-07T09:54:43Z</time>
      </trkpt>
      <trkpt lat="44.10023" lon="3.41454">
        <ele>923.48</ele>
        <time>2016-08-07T09:54:49Z</time>
      </trkpt>
      <trkpt lat="44.10029" lon="3.41443">
        <ele>924.93</ele>
        <time>2016-08-07T09:54:57Z</time>
      </trkpt>
      <trkpt lat="44.10033" lon="3.41437">
        <ele>924.45</ele>
        <time>2016-08-07T09:55:02Z</time>
      </trkpt>
      <trkpt lat="44.10036" lon="3.41427">
        <ele>923.48</ele>
        <time>2016-08-07T09:55:10Z</time>
      </trkpt>
      <trkpt lat="44.10037" lon="3.41423">
        <ele>923.48</ele>
        <time>2016-08-07T09:55:12Z</time>
      </trkpt>
      <trkpt lat="44.10033" lon="3.41412">
        <ele>922.04</ele>
        <time>2016-08-07T09:55:20Z</time>
      </trkpt>
      <trkpt lat="44.10033" lon="3.41411">
        <ele>922.04</ele>
        <time>2016-08-07T09:55:21Z</time>
      </trkpt>
      <trkpt lat="44.10024" lon="3.41398">
        <ele>920.6</ele>
        <time>2016-08-07T09:55:30Z</time>
      </trkpt>
      <trkpt lat="44.10022" lon="3.41396">
        <ele>920.6</ele>
        <time>2016-08-07T09:55:32Z</time>
      </trkpt>
      <trkpt lat="44.10022" lon="3.41382">
        <ele>918.68</ele>
        <time>2016-08-07T09:55:40Z</time>
      </trkpt>
      <trkpt lat="44.10023" lon="3.4137">
        <ele>918.68</ele>
        <time>2016-08-07T09:55:47Z</time>
      </trkpt>
      <trkpt lat="44.10027" lon="3.41356">
        <ele>917.72</ele>
        <time>2016-08-07T09:55:56Z</time>
      </trkpt>
      <trkpt lat="44.10029" lon="3.41353">
        <ele>917.72</ele>
        <time>2016-08-07T09:55:58Z</time>
      </trkpt>
      <trkpt lat="44.10032" lon="3.41349">
        <ele>916.75</ele>
        <time>2016-08-07T09:56:02Z</time>
      </trkpt>
      <trkpt lat="44.10037" lon="3.41334">
        <ele>917.24</ele>
        <time>2016-08-07T09:56:10Z</time>
      </trkpt>
      <trkpt lat="44.10041" lon="3.41322">
        <ele>918.2</ele>
        <time>2016-08-07T09:56:17Z</time>
      </trkpt>
      <trkpt lat="44.10042" lon="3.41318">
        <ele>918.2</ele>
        <time>2016-08-07T09:56:19Z</time>
      </trkpt>
      <trkpt lat="44.10042" lon="3.41303">
        <ele>920.12</ele>
        <time>2016-08-07T09:56:27Z</time>
      </trkpt>
      <trkpt lat="44.10041" lon="3.413">
        <ele>920.12</ele>
        <time>2016-08-07T09:56:29Z</time>
      </trkpt>
      <trkpt lat="44.10037" lon="3.41284">
        <ele>919.16</ele>
        <time>2016-08-07T09:56:39Z</time>
      </trkpt>
      <trkpt lat="44.10036" lon="3.4128">
        <ele>918.2</ele>
        <time>2016-08-07T09:56:43Z</time>
      </trkpt>
      <trkpt lat="44.10039" lon="3.41269">
        <ele>917.72</ele>
        <time>2016-08-07T09:56:51Z</time>
      </trkpt>
      <trkpt lat="44.1004" lon="3.41268">
        <ele>917.24</ele>
        <time>2016-08-07T09:56:52Z</time>
      </trkpt>
      <trkpt lat="44.10048" lon="3.41261">
        <ele>916.75</ele>
        <time>2016-08-07T09:57:00Z</time>
      </trkpt>
      <trkpt lat="44.10053" lon="3.41253">
        <ele>918.2</ele>
        <time>2016-08-07T09:57:07Z</time>
      </trkpt>
      <trkpt lat="44.10055" lon="3.41251">
        <ele>918.68</ele>
        <time>2016-08-07T09:57:09Z</time>
      </trkpt>
      <trkpt lat="44.10065" lon="3.41244">
        <ele>919.16</ele>
        <time>2016-08-07T09:57:18Z</time>
      </trkpt>
      <trkpt lat="44.10066" lon="3.41243">
        <ele>919.16</ele>
        <time>2016-08-07T09:57:19Z</time>
      </trkpt>
      <trkpt lat="44.10068" lon="3.41241">
        <ele>919.16</ele>
        <time>2016-08-07T09:57:21Z</time>
      </trkpt>
      <trkpt lat="44.10078" lon="3.41236">
        <ele>919.16</ele>
        <time>2016-08-07T09:57:30Z</time>
      </trkpt>
      <trkpt lat="44.10086" lon="3.41231">
        <ele>918.68</ele>
        <time>2016-08-07T09:57:38Z</time>
      </trkpt>
      <trkpt lat="44.10094" lon="3.41226">
        <ele>918.2</ele>
        <time>2016-08-07T09:57:45Z</time>
      </trkpt>
      <trkpt lat="44.10103" lon="3.41219">
        <ele>917.24</ele>
        <time>2016-08-07T09:57:54Z</time>
      </trkpt>
      <trkpt lat="44.10108" lon="3.41215">
        <ele>917.24</ele>
        <time>2016-08-07T09:58:01Z</time>
      </trkpt>
      <trkpt lat="44.10112" lon="3.41212">
        <ele>917.24</ele>
        <time>2016-08-07T09:58:06Z</time>
      </trkpt>
      <trkpt lat="44.10112" lon="3.41208">
        <ele>916.75</ele>
        <time>2016-08-07T09:58:08Z</time>
      </trkpt>
      <trkpt lat="44.10114" lon="3.41193">
        <ele>918.68</ele>
        <time>2016-08-07T09:58:16Z</time>
      </trkpt>
      <trkpt lat="44.10111" lon="3.41181">
        <ele>922.04</ele>
        <time>2016-08-07T09:58:24Z</time>
      </trkpt>
      <trkpt lat="44.10107" lon="3.41177">
        <ele>923</ele>
        <time>2016-08-07T09:58:28Z</time>
      </trkpt>
      <trkpt lat="44.10105" lon="3.41174">
        <ele>923</ele>
        <time>2016-08-07T09:58:31Z</time>
      </trkpt>
      <trkpt lat="44.10101" lon="3.41169">
        <ele>923</ele>
        <time>2016-08-07T09:58:35Z</time>
      </trkpt>
      <trkpt lat="44.10097" lon="3.41161">
        <ele>923</ele>
        <time>2016-08-07T09:58:43Z</time>
      </trkpt>
      <trkpt lat="44.10096" lon="3.4116">
        <ele>923</ele>
        <time>2016-08-07T09:58:49Z</time>
      </trkpt>
      <trkpt lat="44.10096" lon="3.4116">
        <ele>923</ele>
        <time>2016-08-07T09:58:56Z</time>
      </trkpt>
      <trkpt lat="44.10096" lon="3.4116">
        <ele>923</ele>
        <time>2016-08-07T09:59:06Z</time>
      </trkpt>
      <trkpt lat="44.10089" lon="3.41156">
        <ele>923</ele>
        <time>2016-08-07T09:59:13Z</time>
      </trkpt>
      <trkpt lat="44.10082" lon="3.41151">
        <ele>923</ele>
        <time>2016-08-07T09:59:20Z</time>
      </trkpt>
      <trkpt lat="44.10075" lon="3.41145">
        <ele>923.48</ele>
        <time>2016-08-07T09:59:25Z</time>
      </trkpt>
      <trkpt lat="44.10065" lon="3.41131">
        <ele>922.52</ele>
        <time>2016-08-07T09:59:33Z</time>
      </trkpt>
      <trkpt lat="44.10057" lon="3.41123">
        <ele>922.52</ele>
        <time>2016-08-07T09:59:40Z</time>
      </trkpt>
      <trkpt lat="44.10051" lon="3.41113">
        <ele>922.52</ele>
        <time>2016-08-07T09:59:47Z</time>
      </trkpt>
      <trkpt lat="44.10048" lon="3.41101">
        <ele>922.04</ele>
        <time>2016-08-07T09:59:55Z</time>
      </trkpt>
      <trkpt lat="44.10043" lon="3.41091">
        <ele>923.48</ele>
        <time>2016-08-07T10:00:03Z</time>
      </trkpt>
      <trkpt lat="44.10043" lon="3.4109">
        <ele>923.48</ele>
        <time>2016-08-07T10:00:04Z</time>
      </trkpt>
      <trkpt lat="44.10043" lon="3.41077">
        <ele>924.45</ele>
        <time>2016-08-07T10:00:12Z</time>
      </trkpt>
      <trkpt lat="44.10044" lon="3.41075">
        <ele>924.93</ele>
        <time>2016-08-07T10:00:18Z</time>
      </trkpt>
      <trkpt lat="44.10046" lon="3.41069">
        <ele>925.41</ele>
        <time>2016-08-07T10:00:25Z</time>
      </trkpt>
      <trkpt lat="44.10049" lon="3.41058">
        <ele>925.41</ele>
        <time>2016-08-07T10:00:33Z</time>
      </trkpt>
      <trkpt lat="44.10054" lon="3.4105">
        <ele>925.41</ele>
        <time>2016-08-07T10:00:42Z</time>
      </trkpt>
      <trkpt lat="44.10067" lon="3.41041">
        <ele>923.96</ele>
        <time>2016-08-07T10:00:53Z</time>
      </trkpt>
      <trkpt lat="44.1007" lon="3.41039">
        <ele>924.45</ele>
        <time>2016-08-07T10:00:56Z</time>
      </trkpt>
      <trkpt lat="44.10077" lon="3.41035">
        <ele>923.96</ele>
        <time>2016-08-07T10:01:03Z</time>
      </trkpt>
      <trkpt lat="44.10083" lon="3.41024">
        <ele>923.48</ele>
        <time>2016-08-07T10:01:13Z</time>
      </trkpt>
      <trkpt lat="44.10085" lon="3.41023">
        <ele>924.45</ele>
        <time>2016-08-07T10:01:22Z</time>
      </trkpt>
      <trkpt lat="44.10089" lon="3.41019">
        <ele>925.89</ele>
        <time>2016-08-07T10:01:27Z</time>
      </trkpt>
      <trkpt lat="44.10095" lon="3.41014">
        <ele>925.41</ele>
        <time>2016-08-07T10:01:34Z</time>
      </trkpt>
      <trkpt lat="44.10095" lon="3.41014">
        <ele>925.89</ele>
        <time>2016-08-07T10:01:41Z</time>
      </trkpt>
      <trkpt lat="44.101" lon="3.41009">
        <ele>926.85</ele>
        <time>2016-08-07T10:01:48Z</time>
      </trkpt>
      <trkpt lat="44.10102" lon="3.41006">
        <ele>927.33</ele>
        <time>2016-08-07T10:01:52Z</time>
      </trkpt>
      <trkpt lat="44.10108" lon="3.41">
        <ele>929.25</ele>
        <time>2016-08-07T10:02:00Z</time>
      </trkpt>
      <trkpt lat="44.10109" lon="3.40998">
        <ele>930.21</ele>
        <time>2016-08-07T10:02:02Z</time>
      </trkpt>
      <trkpt lat="44.10114" lon="3.40996">
        <ele>930.69</ele>
        <time>2016-08-07T10:02:06Z</time>
      </trkpt>
      <trkpt lat="44.10122" lon="3.40993">
        <ele>930.69</ele>
        <time>2016-08-07T10:02:14Z</time>
      </trkpt>
      <trkpt lat="44.10128" lon="3.40992">
        <ele>930.69</ele>
        <time>2016-08-07T10:02:21Z</time>
      </trkpt>
      <trkpt lat="44.10132" lon="3.40991">
        <ele>931.65</ele>
        <time>2016-08-07T10:02:27Z</time>
      </trkpt>
      <trkpt lat="44.10135" lon="3.40991">
        <ele>932.62</ele>
        <time>2016-08-07T10:02:34Z</time>
      </trkpt>
      <trkpt lat="44.10141" lon="3.4099">
        <ele>932.14</ele>
        <time>2016-08-07T10:02:43Z</time>
      </trkpt>
      <trkpt lat="44.10146" lon="3.40989">
        <ele>931.65</ele>
        <time>2016-08-07T10:02:49Z</time>
      </trkpt>
      <trkpt lat="44.10155" lon="3.40985">
        <ele>931.65</ele>
        <time>2016-08-07T10:02:58Z</time>
      </trkpt>
      <trkpt lat="44.10157" lon="3.4098">
        <ele>931.65</ele>
        <time>2016-08-07T10:03:03Z</time>
      </trkpt>
      <trkpt lat="44.10165" lon="3.40969">
        <ele>932.14</ele>
        <time>2016-08-07T10:03:12Z</time>
      </trkpt>
      <trkpt lat="44.10166" lon="3.40965">
        <ele>931.65</ele>
        <time>2016-08-07T10:03:14Z</time>
      </trkpt>
      <trkpt lat="44.10169" lon="3.40952">
        <ele>932.62</ele>
        <time>2016-08-07T10:03:23Z</time>
      </trkpt>
      <trkpt lat="44.10171" lon="3.40945">
        <ele>932.62</ele>
        <time>2016-08-07T10:03:29Z</time>
      </trkpt>
      <trkpt lat="44.1017" lon="3.40938">
        <ele>932.14</ele>
        <time>2016-08-07T10:03:34Z</time>
      </trkpt>
      <trkpt lat="44.10169" lon="3.4093">
        <ele>932.62</ele>
        <time>2016-08-07T10:03:41Z</time>
      </trkpt>
      <trkpt lat="44.10167" lon="3.40924">
        <ele>933.58</ele>
        <time>2016-08-07T10:03:47Z</time>
      </trkpt>
      <trkpt lat="44.10165" lon="3.40915">
        <ele>932.62</ele>
        <time>2016-08-07T10:03:53Z</time>
      </trkpt>
      <trkpt lat="44.10164" lon="3.40911">
        <ele>932.62</ele>
        <time>2016-08-07T10:03:55Z</time>
      </trkpt>
      <trkpt lat="44.1016" lon="3.40902">
        <ele>933.1</ele>
        <time>2016-08-07T10:04:02Z</time>
      </trkpt>
      <trkpt lat="44.10157" lon="3.40895">
        <ele>933.1</ele>
        <time>2016-08-07T10:04:08Z</time>
      </trkpt>
      <trkpt lat="44.1015" lon="3.4089">
        <ele>932.14</ele>
        <time>2016-08-07T10:04:16Z</time>
      </trkpt>
      <trkpt lat="44.10148" lon="3.4089">
        <ele>931.65</ele>
        <time>2016-08-07T10:04:18Z</time>
      </trkpt>
      <trkpt lat="44.10145" lon="3.4089">
        <ele>931.17</ele>
        <time>2016-08-07T10:04:21Z</time>
      </trkpt>
      <trkpt lat="44.10139" lon="3.40886">
        <ele>930.69</ele>
        <time>2016-08-07T10:04:29Z</time>
      </trkpt>
      <trkpt lat="44.10133" lon="3.40883">
        <ele>932.62</ele>
        <time>2016-08-07T10:04:37Z</time>
      </trkpt>
      <trkpt lat="44.10132" lon="3.40882">
        <ele>933.58</ele>
        <time>2016-08-07T10:04:44Z</time>
      </trkpt>
      <trkpt lat="44.10132" lon="3.40882">
        <ele>934.54</ele>
        <time>2016-08-07T10:04:51Z</time>
      </trkpt>
      <trkpt lat="44.10132" lon="3.40882">
        <ele>934.54</ele>
        <time>2016-08-07T10:05:06Z</time>
      </trkpt>
      <trkpt lat="44.10132" lon="3.40882">
        <ele>934.54</ele>
        <time>2016-08-07T10:05:21Z</time>
      </trkpt>
      <trkpt lat="44.10131" lon="3.40883">
        <ele>935.5</ele>
        <time>2016-08-07T10:05:31Z</time>
      </trkpt>
      <trkpt lat="44.10131" lon="3.40883">
        <ele>935.5</ele>
        <time>2016-08-07T10:05:40Z</time>
      </trkpt>
      <trkpt lat="44.1013" lon="3.40884">
        <ele>936.46</ele>
        <time>2016-08-07T10:05:47Z</time>
      </trkpt>
      <trkpt lat="44.10129" lon="3.40884">
        <ele>936.46</ele>
        <time>2016-08-07T10:05:57Z</time>
      </trkpt>
      <trkpt lat="44.1013" lon="3.40884">
        <ele>936.46</ele>
        <time>2016-08-07T10:06:06Z</time>
      </trkpt>
      <trkpt lat="44.1013" lon="3.40884">
        <ele>936.46</ele>
        <time>2016-08-07T10:06:16Z</time>
      </trkpt>
      <trkpt lat="44.10129" lon="3.40884">
        <ele>936.94</ele>
        <time>2016-08-07T10:06:24Z</time>
      </trkpt>
      <trkpt lat="44.1013" lon="3.40883">
        <ele>937.42</ele>
        <time>2016-08-07T10:06:30Z</time>
      </trkpt>
      <trkpt lat="44.1013" lon="3.40884">
        <ele>937.9</ele>
        <time>2016-08-07T10:06:40Z</time>
      </trkpt>
      <trkpt lat="44.10129" lon="3.40884">
        <ele>937.9</ele>
        <time>2016-08-07T10:06:47Z</time>
      </trkpt>
      <trkpt lat="44.10129" lon="3.40884">
        <ele>937.9</ele>
        <time>2016-08-07T10:06:56Z</time>
      </trkpt>
      <trkpt lat="44.10129" lon="3.40884">
        <ele>937.9</ele>
        <time>2016-08-07T10:07:06Z</time>
      </trkpt>
      <trkpt lat="44.10129" lon="3.40886">
        <ele>939.35</ele>
        <time>2016-08-07T10:07:11Z</time>
      </trkpt>
      <trkpt lat="44.10132" lon="3.40886">
        <ele>939.83</ele>
        <time>2016-08-07T10:07:15Z</time>
      </trkpt>
      <trkpt lat="44.10137" lon="3.40885">
        <ele>939.35</ele>
        <time>2016-08-07T10:07:21Z</time>
      </trkpt>
      <trkpt lat="44.10143" lon="3.40888">
        <ele>939.83</ele>
        <time>2016-08-07T10:07:30Z</time>
      </trkpt>
      <trkpt lat="44.10144" lon="3.40889">
        <ele>939.83</ele>
        <time>2016-08-07T10:07:39Z</time>
      </trkpt>
      <trkpt lat="44.10144" lon="3.40889">
        <ele>939.83</ele>
        <time>2016-08-07T10:07:56Z</time>
      </trkpt>
      <trkpt lat="44.10148" lon="3.40888">
        <ele>940.31</ele>
        <time>2016-08-07T10:08:11Z</time>
      </trkpt>
      <trkpt lat="44.10151" lon="3.40889">
        <ele>939.83</ele>
        <time>2016-08-07T10:08:13Z</time>
      </trkpt>
      <trkpt lat="44.10156" lon="3.40897">
        <ele>937.9</ele>
        <time>2016-08-07T10:08:20Z</time>
      </trkpt>
      <trkpt lat="44.10157" lon="3.409">
        <ele>937.42</ele>
        <time>2016-08-07T10:08:22Z</time>
      </trkpt>
      <trkpt lat="44.10159" lon="3.40907">
        <ele>937.42</ele>
        <time>2016-08-07T10:08:26Z</time>
      </trkpt>
      <trkpt lat="44.10162" lon="3.40915">
        <ele>935.98</ele>
        <time>2016-08-07T10:08:31Z</time>
      </trkpt>
      <trkpt lat="44.10165" lon="3.40923">
        <ele>935.5</ele>
        <time>2016-08-07T10:08:37Z</time>
      </trkpt>
      <trkpt lat="44.10169" lon="3.40931">
        <ele>934.54</ele>
        <time>2016-08-07T10:08:43Z</time>
      </trkpt>
      <trkpt lat="44.10171" lon="3.40945">
        <ele>933.1</ele>
        <time>2016-08-07T10:08:52Z</time>
      </trkpt>
      <trkpt lat="44.10171" lon="3.40947">
        <ele>932.62</ele>
        <time>2016-08-07T10:08:54Z</time>
      </trkpt>
      <trkpt lat="44.10171" lon="3.40953">
        <ele>932.62</ele>
        <time>2016-08-07T10:08:58Z</time>
      </trkpt>
      <trkpt lat="44.1017" lon="3.40956">
        <ele>932.62</ele>
        <time>2016-08-07T10:09:00Z</time>
      </trkpt>
      <trkpt lat="44.1017" lon="3.40962">
        <ele>932.62</ele>
        <time>2016-08-07T10:09:03Z</time>
      </trkpt>
      <trkpt lat="44.10168" lon="3.40972">
        <ele>933.1</ele>
        <time>2016-08-07T10:09:10Z</time>
      </trkpt>
      <trkpt lat="44.10162" lon="3.4098">
        <ele>931.65</ele>
        <time>2016-08-07T10:09:18Z</time>
      </trkpt>
      <trkpt lat="44.10159" lon="3.40982">
        <ele>931.65</ele>
        <time>2016-08-07T10:09:21Z</time>
      </trkpt>
      <trkpt lat="44.10152" lon="3.40987">
        <ele>931.17</ele>
        <time>2016-08-07T10:09:28Z</time>
      </trkpt>
      <trkpt lat="44.10151" lon="3.40988">
        <ele>931.65</ele>
        <time>2016-08-07T10:09:29Z</time>
      </trkpt>
      <trkpt lat="44.10147" lon="3.40989">
        <ele>932.14</ele>
        <time>2016-08-07T10:09:33Z</time>
      </trkpt>
      <trkpt lat="44.10141" lon="3.40995">
        <ele>931.65</ele>
        <time>2016-08-07T10:09:41Z</time>
      </trkpt>
      <trkpt lat="44.1014" lon="3.40998">
        <ele>931.65</ele>
        <time>2016-08-07T10:09:47Z</time>
      </trkpt>
      <trkpt lat="44.10143" lon="3.41">
        <ele>933.1</ele>
        <time>2016-08-07T10:09:51Z</time>
      </trkpt>
      <trkpt lat="44.10151" lon="3.41008">
        <ele>935.02</ele>
        <time>2016-08-07T10:10:01Z</time>
      </trkpt>
      <trkpt lat="44.10157" lon="3.41013">
        <ele>935.98</ele>
        <time>2016-08-07T10:10:07Z</time>
      </trkpt>
      <trkpt lat="44.1016" lon="3.41014">
        <ele>935.5</ele>
        <time>2016-08-07T10:10:11Z</time>
      </trkpt>
      <trkpt lat="44.10164" lon="3.41018">
        <ele>935.98</ele>
        <time>2016-08-07T10:10:17Z</time>
      </trkpt>
      <trkpt lat="44.10167" lon="3.41022">
        <ele>935.5</ele>
        <time>2016-08-07T10:10:25Z</time>
      </trkpt>
      <trkpt lat="44.10169" lon="3.41024">
        <ele>934.54</ele>
        <time>2016-08-07T10:10:28Z</time>
      </trkpt>
      <trkpt lat="44.10173" lon="3.4103">
        <ele>933.1</ele>
        <time>2016-08-07T10:10:34Z</time>
      </trkpt>
      <trkpt lat="44.10176" lon="3.41036">
        <ele>934.54</ele>
        <time>2016-08-07T10:10:40Z</time>
      </trkpt>
      <trkpt lat="44.10178" lon="3.4104">
        <ele>935.98</ele>
        <time>2016-08-07T10:10:47Z</time>
      </trkpt>
      <trkpt lat="44.10184" lon="3.41045">
        <ele>937.42</ele>
        <time>2016-08-07T10:10:54Z</time>
      </trkpt>
      <trkpt lat="44.10188" lon="3.41049">
        <ele>938.38</ele>
        <time>2016-08-07T10:10:59Z</time>
      </trkpt>
      <trkpt lat="44.10194" lon="3.41049">
        <ele>939.83</ele>
        <time>2016-08-07T10:11:07Z</time>
      </trkpt>
      <trkpt lat="44.102" lon="3.4105">
        <ele>942.23</ele>
        <time>2016-08-07T10:11:14Z</time>
      </trkpt>
      <trkpt lat="44.10202" lon="3.41051">
        <ele>942.23</ele>
        <time>2016-08-07T10:11:16Z</time>
      </trkpt>
      <trkpt lat="44.10205" lon="3.41056">
        <ele>943.19</ele>
        <time>2016-08-07T10:11:23Z</time>
      </trkpt>
      <trkpt lat="44.10208" lon="3.41058">
        <ele>943.67</ele>
        <time>2016-08-07T10:11:29Z</time>
      </trkpt>
      <trkpt lat="44.1021" lon="3.41065">
        <ele>944.15</ele>
        <time>2016-08-07T10:11:35Z</time>
      </trkpt>
      <trkpt lat="44.10214" lon="3.41072">
        <ele>944.15</ele>
        <time>2016-08-07T10:11:42Z</time>
      </trkpt>
      <trkpt lat="44.10214" lon="3.41073">
        <ele>944.15</ele>
        <time>2016-08-07T10:11:43Z</time>
      </trkpt>
      <trkpt lat="44.10215" lon="3.41075">
        <ele>944.15</ele>
        <time>2016-08-07T10:11:45Z</time>
      </trkpt>
      <trkpt lat="44.10217" lon="3.41079">
        <ele>943.67</ele>
        <time>2016-08-07T10:11:50Z</time>
      </trkpt>
      <trkpt lat="44.1022" lon="3.41086">
        <ele>944.15</ele>
        <time>2016-08-07T10:11:58Z</time>
      </trkpt>
      <trkpt lat="44.10222" lon="3.41092">
        <ele>945.59</ele>
        <time>2016-08-07T10:12:05Z</time>
      </trkpt>
      <trkpt lat="44.10222" lon="3.41094">
        <ele>946.07</ele>
        <time>2016-08-07T10:12:08Z</time>
      </trkpt>
      <trkpt lat="44.10225" lon="3.41102">
        <ele>947.52</ele>
        <time>2016-08-07T10:12:14Z</time>
      </trkpt>
      <trkpt lat="44.10225" lon="3.4111">
        <ele>951.36</ele>
        <time>2016-08-07T10:12:23Z</time>
      </trkpt>
      <trkpt lat="44.10228" lon="3.41117">
        <ele>953.77</ele>
        <time>2016-08-07T10:12:30Z</time>
      </trkpt>
      <trkpt lat="44.10228" lon="3.4112">
        <ele>955.21</ele>
        <time>2016-08-07T10:12:35Z</time>
      </trkpt>
      <trkpt lat="44.10226" lon="3.41122">
        <ele>956.17</ele>
        <time>2016-08-07T10:12:39Z</time>
      </trkpt>
      <trkpt lat="44.10224" lon="3.41123">
        <ele>956.65</ele>
        <time>2016-08-07T10:12:42Z</time>
      </trkpt>
      <trkpt lat="44.10222" lon="3.41131">
        <ele>957.13</ele>
        <time>2016-08-07T10:12:49Z</time>
      </trkpt>
      <trkpt lat="44.10223" lon="3.4114">
        <ele>957.13</ele>
        <time>2016-08-07T10:12:56Z</time>
      </trkpt>
      <trkpt lat="44.10223" lon="3.41144">
        <ele>957.13</ele>
        <time>2016-08-07T10:12:59Z</time>
      </trkpt>
      <trkpt lat="44.10225" lon="3.41149">
        <ele>957.61</ele>
        <time>2016-08-07T10:13:03Z</time>
      </trkpt>
      <trkpt lat="44.10225" lon="3.41154">
        <ele>958.09</ele>
        <time>2016-08-07T10:13:10Z</time>
      </trkpt>
      <trkpt lat="44.10225" lon="3.41155">
        <ele>958.57</ele>
        <time>2016-08-07T10:13:23Z</time>
      </trkpt>
      <trkpt lat="44.10229" lon="3.41165">
        <ele>961.46</ele>
        <time>2016-08-07T10:13:32Z</time>
      </trkpt>
      <trkpt lat="44.10231" lon="3.41173">
        <ele>963.38</ele>
        <time>2016-08-07T10:13:39Z</time>
      </trkpt>
      <trkpt lat="44.10235" lon="3.41178">
        <ele>964.34</ele>
        <time>2016-08-07T10:13:43Z</time>
      </trkpt>
      <trkpt lat="44.10241" lon="3.41189">
        <ele>964.82</ele>
        <time>2016-08-07T10:13:53Z</time>
      </trkpt>
      <trkpt lat="44.10248" lon="3.41192">
        <ele>965.78</ele>
        <time>2016-08-07T10:13:59Z</time>
      </trkpt>
      <trkpt lat="44.10252" lon="3.41196">
        <ele>967.7</ele>
        <time>2016-08-07T10:14:06Z</time>
      </trkpt>
      <trkpt lat="44.10255" lon="3.41198">
        <ele>968.67</ele>
        <time>2016-08-07T10:14:13Z</time>
      </trkpt>
      <trkpt lat="44.10255" lon="3.412">
        <ele>968.67</ele>
        <time>2016-08-07T10:14:19Z</time>
      </trkpt>
      <trkpt lat="44.10256" lon="3.412">
        <ele>969.15</ele>
        <time>2016-08-07T10:14:27Z</time>
      </trkpt>
      <trkpt lat="44.1026" lon="3.41196">
        <ele>970.11</ele>
        <time>2016-08-07T10:14:33Z</time>
      </trkpt>
      <trkpt lat="44.10263" lon="3.41195">
        <ele>970.59</ele>
        <time>2016-08-07T10:14:40Z</time>
      </trkpt>
      <trkpt lat="44.10266" lon="3.41197">
        <ele>970.11</ele>
        <time>2016-08-07T10:14:47Z</time>
      </trkpt>
      <trkpt lat="44.10266" lon="3.41197">
        <ele>970.11</ele>
        <time>2016-08-07T10:14:53Z</time>
      </trkpt>
      <trkpt lat="44.10266" lon="3.41205">
        <ele>971.07</ele>
        <time>2016-08-07T10:15:01Z</time>
      </trkpt>
      <trkpt lat="44.10264" lon="3.41208">
        <ele>971.07</ele>
        <time>2016-08-07T10:15:04Z</time>
      </trkpt>
      <trkpt lat="44.10263" lon="3.41212">
        <ele>971.07</ele>
        <time>2016-08-07T10:15:11Z</time>
      </trkpt>
      <trkpt lat="44.10265" lon="3.41222">
        <ele>971.55</ele>
        <time>2016-08-07T10:15:19Z</time>
      </trkpt>
      <trkpt lat="44.10265" lon="3.41226">
        <ele>971.55</ele>
        <time>2016-08-07T10:15:22Z</time>
      </trkpt>
      <trkpt lat="44.10265" lon="3.41233">
        <ele>970.59</ele>
        <time>2016-08-07T10:15:27Z</time>
      </trkpt>
      <trkpt lat="44.10264" lon="3.41243">
        <ele>972.03</ele>
        <time>2016-08-07T10:15:33Z</time>
      </trkpt>
      <trkpt lat="44.10264" lon="3.4125">
        <ele>972.51</ele>
        <time>2016-08-07T10:15:39Z</time>
      </trkpt>
      <trkpt lat="44.10265" lon="3.41259">
        <ele>972.03</ele>
        <time>2016-08-07T10:15:46Z</time>
      </trkpt>
      <trkpt lat="44.10266" lon="3.41263">
        <ele>971.55</ele>
        <time>2016-08-07T10:15:54Z</time>
      </trkpt>
      <trkpt lat="44.10268" lon="3.41266">
        <ele>971.55</ele>
        <time>2016-08-07T10:16:02Z</time>
      </trkpt>
      <trkpt lat="44.1027" lon="3.41273">
        <ele>971.07</ele>
        <time>2016-08-07T10:16:09Z</time>
      </trkpt>
      <trkpt lat="44.10269" lon="3.41281">
        <ele>970.11</ele>
        <time>2016-08-07T10:16:15Z</time>
      </trkpt>
      <trkpt lat="44.10268" lon="3.41284">
        <ele>969.63</ele>
        <time>2016-08-07T10:16:17Z</time>
      </trkpt>
      <trkpt lat="44.10268" lon="3.41293">
        <ele>969.63</ele>
        <time>2016-08-07T10:16:24Z</time>
      </trkpt>
      <trkpt lat="44.10265" lon="3.41303">
        <ele>970.11</ele>
        <time>2016-08-07T10:16:32Z</time>
      </trkpt>
      <trkpt lat="44.10265" lon="3.41305">
        <ele>970.59</ele>
        <time>2016-08-07T10:16:34Z</time>
      </trkpt>
      <trkpt lat="44.10262" lon="3.41311">
        <ele>970.59</ele>
        <time>2016-08-07T10:16:39Z</time>
      </trkpt>
      <trkpt lat="44.10259" lon="3.41318">
        <ele>970.11</ele>
        <time>2016-08-07T10:16:46Z</time>
      </trkpt>
      <trkpt lat="44.10259" lon="3.41319">
        <ele>970.11</ele>
        <time>2016-08-07T10:16:50Z</time>
      </trkpt>
      <trkpt lat="44.10255" lon="3.41327">
        <ele>969.15</ele>
        <time>2016-08-07T10:16:56Z</time>
      </trkpt>
      <trkpt lat="44.10255" lon="3.41333">
        <ele>967.7</ele>
        <time>2016-08-07T10:17:04Z</time>
      </trkpt>
      <trkpt lat="44.10255" lon="3.41334">
        <ele>967.7</ele>
        <time>2016-08-07T10:17:05Z</time>
      </trkpt>
      <trkpt lat="44.10252" lon="3.41342">
        <ele>967.7</ele>
        <time>2016-08-07T10:17:11Z</time>
      </trkpt>
      <trkpt lat="44.10249" lon="3.41351">
        <ele>966.26</ele>
        <time>2016-08-07T10:17:17Z</time>
      </trkpt>
      <trkpt lat="44.10249" lon="3.41356">
        <ele>966.26</ele>
        <time>2016-08-07T10:17:20Z</time>
      </trkpt>
      <trkpt lat="44.10244" lon="3.41367">
        <ele>968.67</ele>
        <time>2016-08-07T10:17:28Z</time>
      </trkpt>
      <trkpt lat="44.10242" lon="3.41373">
        <ele>970.11</ele>
        <time>2016-08-07T10:17:33Z</time>
      </trkpt>
      <trkpt lat="44.1024" lon="3.41383">
        <ele>972.99</ele>
        <time>2016-08-07T10:17:40Z</time>
      </trkpt>
      <trkpt lat="44.10237" lon="3.41393">
        <ele>975.88</ele>
        <time>2016-08-07T10:17:48Z</time>
      </trkpt>
      <trkpt lat="44.10234" lon="3.41399">
        <ele>977.8</ele>
        <time>2016-08-07T10:17:55Z</time>
      </trkpt>
      <trkpt lat="44.10233" lon="3.41403">
        <ele>978.28</ele>
        <time>2016-08-07T10:17:58Z</time>
      </trkpt>
      <trkpt lat="44.10234" lon="3.41405">
        <ele>978.28</ele>
        <time>2016-08-07T10:18:00Z</time>
      </trkpt>
      <trkpt lat="44.10232" lon="3.41415">
        <ele>979.24</ele>
        <time>2016-08-07T10:18:08Z</time>
      </trkpt>
      <trkpt lat="44.10231" lon="3.41422">
        <ele>978.76</ele>
        <time>2016-08-07T10:18:15Z</time>
      </trkpt>
      <trkpt lat="44.10231" lon="3.41423">
        <ele>978.28</ele>
        <time>2016-08-07T10:18:16Z</time>
      </trkpt>
      <trkpt lat="44.1023" lon="3.41432">
        <ele>976.84</ele>
        <time>2016-08-07T10:18:23Z</time>
      </trkpt>
      <trkpt lat="44.10228" lon="3.41436">
        <ele>976.36</ele>
        <time>2016-08-07T10:18:29Z</time>
      </trkpt>
      <trkpt lat="44.10228" lon="3.41439">
        <ele>976.84</ele>
        <time>2016-08-07T10:18:31Z</time>
      </trkpt>
      <trkpt lat="44.10227" lon="3.41448">
        <ele>978.28</ele>
        <time>2016-08-07T10:18:39Z</time>
      </trkpt>
      <trkpt lat="44.10226" lon="3.41455">
        <ele>978.76</ele>
        <time>2016-08-07T10:18:45Z</time>
      </trkpt>
      <trkpt lat="44.10222" lon="3.41464">
        <ele>980.2</ele>
        <time>2016-08-07T10:18:52Z</time>
      </trkpt>
      <trkpt lat="44.10221" lon="3.41473">
        <ele>981.64</ele>
        <time>2016-08-07T10:18:59Z</time>
      </trkpt>
      <trkpt lat="44.10219" lon="3.41479">
        <ele>982.6</ele>
        <time>2016-08-07T10:19:05Z</time>
      </trkpt>
      <trkpt lat="44.10217" lon="3.41486">
        <ele>984.53</ele>
        <time>2016-08-07T10:19:11Z</time>
      </trkpt>
      <trkpt lat="44.10217" lon="3.41488">
        <ele>985.01</ele>
        <time>2016-08-07T10:19:13Z</time>
      </trkpt>
      <trkpt lat="44.10216" lon="3.41493">
        <ele>985.49</ele>
        <time>2016-08-07T10:19:19Z</time>
      </trkpt>
      <trkpt lat="44.10215" lon="3.41496">
        <ele>985.97</ele>
        <time>2016-08-07T10:19:23Z</time>
      </trkpt>
      <trkpt lat="44.10215" lon="3.41503">
        <ele>986.45</ele>
        <time>2016-08-07T10:19:28Z</time>
      </trkpt>
      <trkpt lat="44.10214" lon="3.41506">
        <ele>986.93</ele>
        <time>2016-08-07T10:19:30Z</time>
      </trkpt>
      <trkpt lat="44.10213" lon="3.41513">
        <ele>986.93</ele>
        <time>2016-08-07T10:19:37Z</time>
      </trkpt>
      <trkpt lat="44.10212" lon="3.41515">
        <ele>986.93</ele>
        <time>2016-08-07T10:19:39Z</time>
      </trkpt>
      <trkpt lat="44.10212" lon="3.41518">
        <ele>986.93</ele>
        <time>2016-08-07T10:19:45Z</time>
      </trkpt>
      <trkpt lat="44.10209" lon="3.41526">
        <ele>986.93</ele>
        <time>2016-08-07T10:19:53Z</time>
      </trkpt>
      <trkpt lat="44.10204" lon="3.41541">
        <ele>988.37</ele>
        <time>2016-08-07T10:20:01Z</time>
      </trkpt>
      <trkpt lat="44.10202" lon="3.41549">
        <ele>988.85</ele>
        <time>2016-08-07T10:20:07Z</time>
      </trkpt>
      <trkpt lat="44.10199" lon="3.41556">
        <ele>989.81</ele>
        <time>2016-08-07T10:20:13Z</time>
      </trkpt>
      <trkpt lat="44.10197" lon="3.41566">
        <ele>991.26</ele>
        <time>2016-08-07T10:20:20Z</time>
      </trkpt>
      <trkpt lat="44.10192" lon="3.41578">
        <ele>992.7</ele>
        <time>2016-08-07T10:20:29Z</time>
      </trkpt>
      <trkpt lat="44.10191" lon="3.41584">
        <ele>993.66</ele>
        <time>2016-08-07T10:20:35Z</time>
      </trkpt>
      <trkpt lat="44.10187" lon="3.41594">
        <ele>995.1</ele>
        <time>2016-08-07T10:20:44Z</time>
      </trkpt>
      <trkpt lat="44.10184" lon="3.41605">
        <ele>995.58</ele>
        <time>2016-08-07T10:20:52Z</time>
      </trkpt>
      <trkpt lat="44.10183" lon="3.41608">
        <ele>995.58</ele>
        <time>2016-08-07T10:20:58Z</time>
      </trkpt>
      <trkpt lat="44.10181" lon="3.41617">
        <ele>997.02</ele>
        <time>2016-08-07T10:21:04Z</time>
      </trkpt>
      <trkpt lat="44.10178" lon="3.4162">
        <ele>998.95</ele>
        <time>2016-08-07T10:21:09Z</time>
      </trkpt>
      <trkpt lat="44.10178" lon="3.41621">
        <ele>1000.87</ele>
        <time>2016-08-07T10:21:15Z</time>
      </trkpt>
      <trkpt lat="44.10178" lon="3.41621">
        <ele>1000.87</ele>
        <time>2016-08-07T10:21:27Z</time>
      </trkpt>
      <trkpt lat="44.10178" lon="3.41621">
        <ele>1000.87</ele>
        <time>2016-08-07T10:21:48Z</time>
      </trkpt>
      <trkpt lat="44.10178" lon="3.41622">
        <ele>1001.35</ele>
        <time>2016-08-07T10:21:54Z</time>
      </trkpt>
      <trkpt lat="44.10177" lon="3.41629">
        <ele>1001.35</ele>
        <time>2016-08-07T10:21:58Z</time>
      </trkpt>
      <trkpt lat="44.10176" lon="3.4164">
        <ele>999.91</ele>
        <time>2016-08-07T10:22:05Z</time>
      </trkpt>
      <trkpt lat="44.10176" lon="3.41651">
        <ele>997.51</ele>
        <time>2016-08-07T10:22:12Z</time>
      </trkpt>
      <trkpt lat="44.10176" lon="3.41655">
        <ele>997.51</ele>
        <time>2016-08-07T10:22:15Z</time>
      </trkpt>
      <trkpt lat="44.10178" lon="3.41667">
        <ele>997.51</ele>
        <time>2016-08-07T10:22:22Z</time>
      </trkpt>
      <trkpt lat="44.1018" lon="3.41675">
        <ele>998.95</ele>
        <time>2016-08-07T10:22:27Z</time>
      </trkpt>
      <trkpt lat="44.10183" lon="3.41682">
        <ele>999.43</ele>
        <time>2016-08-07T10:22:32Z</time>
      </trkpt>
      <trkpt lat="44.10183" lon="3.41694">
        <ele>1000.87</ele>
        <time>2016-08-07T10:22:40Z</time>
      </trkpt>
      <trkpt lat="44.10183" lon="3.41699">
        <ele>1001.35</ele>
        <time>2016-08-07T10:22:43Z</time>
      </trkpt>
      <trkpt lat="44.10185" lon="3.4171">
        <ele>1001.83</ele>
        <time>2016-08-07T10:22:49Z</time>
      </trkpt>
      <trkpt lat="44.10186" lon="3.41712">
        <ele>1002.31</ele>
        <time>2016-08-07T10:22:51Z</time>
      </trkpt>
      <trkpt lat="44.10186" lon="3.41724">
        <ele>1002.79</ele>
        <time>2016-08-07T10:22:59Z</time>
      </trkpt>
      <trkpt lat="44.10188" lon="3.41732">
        <ele>1002.79</ele>
        <time>2016-08-07T10:23:05Z</time>
      </trkpt>
      <trkpt lat="44.10188" lon="3.41745">
        <ele>1003.27</ele>
        <time>2016-08-07T10:23:12Z</time>
      </trkpt>
      <trkpt lat="44.10187" lon="3.41761">
        <ele>1005.2</ele>
        <time>2016-08-07T10:23:21Z</time>
      </trkpt>
      <trkpt lat="44.10188" lon="3.4177">
        <ele>1005.68</ele>
        <time>2016-08-07T10:23:28Z</time>
      </trkpt>
      <trkpt lat="44.10188" lon="3.41779">
        <ele>1006.64</ele>
        <time>2016-08-07T10:23:34Z</time>
      </trkpt>
      <trkpt lat="44.10188" lon="3.4179">
        <ele>1007.6</ele>
        <time>2016-08-07T10:23:40Z</time>
      </trkpt>
      <trkpt lat="44.10189" lon="3.41794">
        <ele>1007.6</ele>
        <time>2016-08-07T10:23:43Z</time>
      </trkpt>
      <trkpt lat="44.10185" lon="3.41801">
        <ele>1008.08</ele>
        <time>2016-08-07T10:23:48Z</time>
      </trkpt>
      <trkpt lat="44.10181" lon="3.41807">
        <ele>1009.52</ele>
        <time>2016-08-07T10:23:54Z</time>
      </trkpt>
      <trkpt lat="44.1018" lon="3.41814">
        <ele>1010.96</ele>
        <time>2016-08-07T10:24:01Z</time>
      </trkpt>
      <trkpt lat="44.1018" lon="3.41819">
        <ele>1012.41</ele>
        <time>2016-08-07T10:24:07Z</time>
      </trkpt>
      <trkpt lat="44.10179" lon="3.41826">
        <ele>1014.33</ele>
        <time>2016-08-07T10:24:15Z</time>
      </trkpt>
      <trkpt lat="44.10178" lon="3.41829">
        <ele>1014.81</ele>
        <time>2016-08-07T10:24:21Z</time>
      </trkpt>
      <trkpt lat="44.10177" lon="3.41835">
        <ele>1014.81</ele>
        <time>2016-08-07T10:24:29Z</time>
      </trkpt>
      <trkpt lat="44.10177" lon="3.41842">
        <ele>1014.81</ele>
        <time>2016-08-07T10:24:36Z</time>
      </trkpt>
      <trkpt lat="44.10175" lon="3.41859">
        <ele>1012.89</ele>
        <time>2016-08-07T10:24:51Z</time>
      </trkpt>
      <trkpt lat="44.10175" lon="3.41875">
        <ele>1011.93</ele>
        <time>2016-08-07T10:24:59Z</time>
      </trkpt>
      <trkpt lat="44.10174" lon="3.41883">
        <ele>1011.44</ele>
        <time>2016-08-07T10:25:04Z</time>
      </trkpt>
      <trkpt lat="44.10172" lon="3.41898">
        <ele>1015.77</ele>
        <time>2016-08-07T10:25:11Z</time>
      </trkpt>
      <trkpt lat="44.10172" lon="3.41904">
        <ele>1016.73</ele>
        <time>2016-08-07T10:25:16Z</time>
      </trkpt>
      <trkpt lat="44.10175" lon="3.41909">
        <ele>1019.13</ele>
        <time>2016-08-07T10:25:21Z</time>
      </trkpt>
      <trkpt lat="44.1018" lon="3.41918">
        <ele>1022.02</ele>
        <time>2016-08-07T10:25:29Z</time>
      </trkpt>
      <trkpt lat="44.10181" lon="3.4192">
        <ele>1022.98</ele>
        <time>2016-08-07T10:25:31Z</time>
      </trkpt>
      <trkpt lat="44.10185" lon="3.41922">
        <ele>1022.5</ele>
        <time>2016-08-07T10:25:38Z</time>
      </trkpt>
      <trkpt lat="44.10188" lon="3.41925">
        <ele>1022.5</ele>
        <time>2016-08-07T10:25:44Z</time>
      </trkpt>
      <trkpt lat="44.1019" lon="3.41926">
        <ele>1022.98</ele>
        <time>2016-08-07T10:25:49Z</time>
      </trkpt>
      <trkpt lat="44.10193" lon="3.41926">
        <ele>1023.94</ele>
        <time>2016-08-07T10:25:55Z</time>
      </trkpt>
      <trkpt lat="44.10193" lon="3.41929">
        <ele>1023.94</ele>
        <time>2016-08-07T10:26:03Z</time>
      </trkpt>
      <trkpt lat="44.10187" lon="3.41936">
        <ele>1028.75</ele>
        <time>2016-08-07T10:26:10Z</time>
      </trkpt>
      <trkpt lat="44.10183" lon="3.41939">
        <ele>1031.15</ele>
        <time>2016-08-07T10:26:18Z</time>
      </trkpt>
      <trkpt lat="44.10178" lon="3.41946">
        <ele>1034.52</ele>
        <time>2016-08-07T10:26:26Z</time>
      </trkpt>
      <trkpt lat="44.10176" lon="3.41949">
        <ele>1035.48</ele>
        <time>2016-08-07T10:26:29Z</time>
      </trkpt>
      <trkpt lat="44.1017" lon="3.41956">
        <ele>1034.52</ele>
        <time>2016-08-07T10:26:36Z</time>
      </trkpt>
      <trkpt lat="44.10167" lon="3.41961">
        <ele>1033.55</ele>
        <time>2016-08-07T10:26:42Z</time>
      </trkpt>
      <trkpt lat="44.1016" lon="3.41966">
        <ele>1034.52</ele>
        <time>2016-08-07T10:26:47Z</time>
      </trkpt>
      <trkpt lat="44.10158" lon="3.41974">
        <ele>1034.52</ele>
        <time>2016-08-07T10:26:54Z</time>
      </trkpt>
      <trkpt lat="44.10154" lon="3.41986">
        <ele>1035.96</ele>
        <time>2016-08-07T10:27:01Z</time>
      </trkpt>
      <trkpt lat="44.10152" lon="3.41997">
        <ele>1036.92</ele>
        <time>2016-08-07T10:27:09Z</time>
      </trkpt>
      <trkpt lat="44.10147" lon="3.42006">
        <ele>1037.4</ele>
        <time>2016-08-07T10:27:18Z</time>
      </trkpt>
      <trkpt lat="44.10145" lon="3.42009">
        <ele>1037.4</ele>
        <time>2016-08-07T10:27:24Z</time>
      </trkpt>
      <trkpt lat="44.10143" lon="3.42012">
        <ele>1037.4</ele>
        <time>2016-08-07T10:27:31Z</time>
      </trkpt>
      <trkpt lat="44.10142" lon="3.42016">
        <ele>1035.96</ele>
        <time>2016-08-07T10:27:38Z</time>
      </trkpt>
      <trkpt lat="44.10141" lon="3.42019">
        <ele>1035.48</ele>
        <time>2016-08-07T10:27:45Z</time>
      </trkpt>
      <trkpt lat="44.10139" lon="3.42024">
        <ele>1035</ele>
        <time>2016-08-07T10:27:52Z</time>
      </trkpt>
      <trkpt lat="44.10136" lon="3.42035">
        <ele>1034.52</ele>
        <time>2016-08-07T10:27:59Z</time>
      </trkpt>
      <trkpt lat="44.1013" lon="3.42045">
        <ele>1034.52</ele>
        <time>2016-08-07T10:28:07Z</time>
      </trkpt>
      <trkpt lat="44.10127" lon="3.42054">
        <ele>1034.52</ele>
        <time>2016-08-07T10:28:13Z</time>
      </trkpt>
      <trkpt lat="44.10122" lon="3.42065">
        <ele>1035.96</ele>
        <time>2016-08-07T10:28:20Z</time>
      </trkpt>
      <trkpt lat="44.10122" lon="3.42069">
        <ele>1035.48</ele>
        <time>2016-08-07T10:28:25Z</time>
      </trkpt>
      <trkpt lat="44.10119" lon="3.42074">
        <ele>1035.96</ele>
        <time>2016-08-07T10:28:33Z</time>
      </trkpt>
      <trkpt lat="44.10115" lon="3.42084">
        <ele>1036.92</ele>
        <time>2016-08-07T10:28:40Z</time>
      </trkpt>
      <trkpt lat="44.10112" lon="3.42087">
        <ele>1036.92</ele>
        <time>2016-08-07T10:28:45Z</time>
      </trkpt>
      <trkpt lat="44.10112" lon="3.42089">
        <ele>1037.4</ele>
        <time>2016-08-07T10:28:53Z</time>
      </trkpt>
      <trkpt lat="44.10111" lon="3.42092">
        <ele>1037.4</ele>
        <time>2016-08-07T10:28:57Z</time>
      </trkpt>
      <trkpt lat="44.10111" lon="3.42098">
        <ele>1037.4</ele>
        <time>2016-08-07T10:29:00Z</time>
      </trkpt>
      <trkpt lat="44.10113" lon="3.42102">
        <ele>1037.4</ele>
        <time>2016-08-07T10:29:07Z</time>
      </trkpt>
      <trkpt lat="44.10109" lon="3.42112">
        <ele>1037.4</ele>
        <time>2016-08-07T10:29:14Z</time>
      </trkpt>
      <trkpt lat="44.10105" lon="3.42125">
        <ele>1037.4</ele>
        <time>2016-08-07T10:29:20Z</time>
      </trkpt>
      <trkpt lat="44.101" lon="3.42136">
        <ele>1038.84</ele>
        <time>2016-08-07T10:29:27Z</time>
      </trkpt>
      <trkpt lat="44.10097" lon="3.42143">
        <ele>1039.8</ele>
        <time>2016-08-07T10:29:33Z</time>
      </trkpt>
      <trkpt lat="44.10096" lon="3.42148">
        <ele>1040.28</ele>
        <time>2016-08-07T10:29:42Z</time>
      </trkpt>
      <trkpt lat="44.10095" lon="3.42152">
        <ele>1040.76</ele>
        <time>2016-08-07T10:29:49Z</time>
      </trkpt>
      <trkpt lat="44.10093" lon="3.42158">
        <ele>1041.25</ele>
        <time>2016-08-07T10:29:54Z</time>
      </trkpt>
      <trkpt lat="44.10092" lon="3.42163">
        <ele>1040.76</ele>
        <time>2016-08-07T10:30:00Z</time>
      </trkpt>
      <trkpt lat="44.10088" lon="3.42171">
        <ele>1042.21</ele>
        <time>2016-08-07T10:30:05Z</time>
      </trkpt>
      <trkpt lat="44.10084" lon="3.42176">
        <ele>1042.69</ele>
        <time>2016-08-07T10:30:13Z</time>
      </trkpt>
      <trkpt lat="44.10082" lon="3.42177">
        <ele>1043.65</ele>
        <time>2016-08-07T10:30:19Z</time>
      </trkpt>
      <trkpt lat="44.10078" lon="3.42186">
        <ele>1044.13</ele>
        <time>2016-08-07T10:30:26Z</time>
      </trkpt>
      <trkpt lat="44.10074" lon="3.4219">
        <ele>1043.65</ele>
        <time>2016-08-07T10:30:32Z</time>
      </trkpt>
      <trkpt lat="44.10068" lon="3.42197">
        <ele>1044.61</ele>
        <time>2016-08-07T10:30:41Z</time>
      </trkpt>
      <trkpt lat="44.10063" lon="3.42203">
        <ele>1045.09</ele>
        <time>2016-08-07T10:30:48Z</time>
      </trkpt>
      <trkpt lat="44.10059" lon="3.4221">
        <ele>1047.01</ele>
        <time>2016-08-07T10:30:56Z</time>
      </trkpt>
      <trkpt lat="44.10058" lon="3.42213">
        <ele>1047.49</ele>
        <time>2016-08-07T10:31:02Z</time>
      </trkpt>
      <trkpt lat="44.10051" lon="3.42221">
        <ele>1050.38</ele>
        <time>2016-08-07T10:31:09Z</time>
      </trkpt>
      <trkpt lat="44.1005" lon="3.42222">
        <ele>1050.86</ele>
        <time>2016-08-07T10:31:10Z</time>
      </trkpt>
      <trkpt lat="44.10045" lon="3.42227">
        <ele>1051.34</ele>
        <time>2016-08-07T10:31:18Z</time>
      </trkpt>
      <trkpt lat="44.1004" lon="3.42238">
        <ele>1051.82</ele>
        <time>2016-08-07T10:31:26Z</time>
      </trkpt>
      <trkpt lat="44.10037" lon="3.42246">
        <ele>1052.3</ele>
        <time>2016-08-07T10:31:33Z</time>
      </trkpt>
      <trkpt lat="44.10031" lon="3.42257">
        <ele>1054.22</ele>
        <time>2016-08-07T10:31:39Z</time>
      </trkpt>
      <trkpt lat="44.10028" lon="3.42262">
        <ele>1054.7</ele>
        <time>2016-08-07T10:31:46Z</time>
      </trkpt>
      <trkpt lat="44.10026" lon="3.42266">
        <ele>1055.18</ele>
        <time>2016-08-07T10:31:54Z</time>
      </trkpt>
      <trkpt lat="44.10021" lon="3.42274">
        <ele>1055.67</ele>
        <time>2016-08-07T10:32:02Z</time>
      </trkpt>
      <trkpt lat="44.10017" lon="3.4228">
        <ele>1055.18</ele>
        <time>2016-08-07T10:32:11Z</time>
      </trkpt>
      <trkpt lat="44.10009" lon="3.42289">
        <ele>1057.11</ele>
        <time>2016-08-07T10:32:18Z</time>
      </trkpt>
      <trkpt lat="44.10004" lon="3.42297">
        <ele>1058.07</ele>
        <time>2016-08-07T10:32:26Z</time>
      </trkpt>
      <trkpt lat="44.1" lon="3.42302">
        <ele>1059.03</ele>
        <time>2016-08-07T10:32:34Z</time>
      </trkpt>
      <trkpt lat="44.09997" lon="3.42303">
        <ele>1059.03</ele>
        <time>2016-08-07T10:32:39Z</time>
      </trkpt>
      <trkpt lat="44.09989" lon="3.42313">
        <ele>1059.99</ele>
        <time>2016-08-07T10:32:48Z</time>
      </trkpt>
      <trkpt lat="44.09985" lon="3.4232">
        <ele>1060.47</ele>
        <time>2016-08-07T10:32:55Z</time>
      </trkpt>
      <trkpt lat="44.09982" lon="3.42325">
        <ele>1060.95</ele>
        <time>2016-08-07T10:33:01Z</time>
      </trkpt>
      <trkpt lat="44.09974" lon="3.42332">
        <ele>1062.39</ele>
        <time>2016-08-07T10:33:08Z</time>
      </trkpt>
      <trkpt lat="44.0997" lon="3.42335">
        <ele>1062.87</ele>
        <time>2016-08-07T10:33:11Z</time>
      </trkpt>
      <trkpt lat="44.09964" lon="3.42342">
        <ele>1064.32</ele>
        <time>2016-08-07T10:33:19Z</time>
      </trkpt>
      <trkpt lat="44.0996" lon="3.42346">
        <ele>1065.76</ele>
        <time>2016-08-07T10:33:24Z</time>
      </trkpt>
      <trkpt lat="44.09953" lon="3.42354">
        <ele>1067.68</ele>
        <time>2016-08-07T10:33:31Z</time>
      </trkpt>
      <trkpt lat="44.09952" lon="3.42357">
        <ele>1068.16</ele>
        <time>2016-08-07T10:33:37Z</time>
      </trkpt>
      <trkpt lat="44.09953" lon="3.42359">
        <ele>1068.16</ele>
        <time>2016-08-07T10:33:47Z</time>
      </trkpt>
      <trkpt lat="44.09948" lon="3.42362">
        <ele>1068.64</ele>
        <time>2016-08-07T10:33:54Z</time>
      </trkpt>
      <trkpt lat="44.09943" lon="3.42369">
        <ele>1068.64</ele>
        <time>2016-08-07T10:34:02Z</time>
      </trkpt>
      <trkpt lat="44.09937" lon="3.42387">
        <ele>1070.08</ele>
        <time>2016-08-07T10:34:09Z</time>
      </trkpt>
      <trkpt lat="44.0993" lon="3.42396">
        <ele>1071.05</ele>
        <time>2016-08-07T10:34:16Z</time>
      </trkpt>
      <trkpt lat="44.09926" lon="3.42403">
        <ele>1071.05</ele>
        <time>2016-08-07T10:34:24Z</time>
      </trkpt>
      <trkpt lat="44.0992" lon="3.42411">
        <ele>1072.01</ele>
        <time>2016-08-07T10:34:31Z</time>
      </trkpt>
      <trkpt lat="44.09918" lon="3.42417">
        <ele>1072.01</ele>
        <time>2016-08-07T10:34:34Z</time>
      </trkpt>
      <trkpt lat="44.09912" lon="3.42425">
        <ele>1072.01</ele>
        <time>2016-08-07T10:34:42Z</time>
      </trkpt>
      <trkpt lat="44.09908" lon="3.4243">
        <ele>1073.93</ele>
        <time>2016-08-07T10:34:47Z</time>
      </trkpt>
      <trkpt lat="44.09904" lon="3.42435">
        <ele>1074.89</ele>
        <time>2016-08-07T10:34:53Z</time>
      </trkpt>
      <trkpt lat="44.099" lon="3.42441">
        <ele>1075.37</ele>
        <time>2016-08-07T10:35:00Z</time>
      </trkpt>
      <trkpt lat="44.09896" lon="3.42447">
        <ele>1075.85</ele>
        <time>2016-08-07T10:35:08Z</time>
      </trkpt>
      <trkpt lat="44.0989" lon="3.42453">
        <ele>1077.29</ele>
        <time>2016-08-07T10:35:14Z</time>
      </trkpt>
      <trkpt lat="44.09887" lon="3.42456">
        <ele>1077.29</ele>
        <time>2016-08-07T10:35:22Z</time>
      </trkpt>
      <trkpt lat="44.09878" lon="3.42464">
        <ele>1078.26</ele>
        <time>2016-08-07T10:35:28Z</time>
      </trkpt>
      <trkpt lat="44.09875" lon="3.42466">
        <ele>1079.22</ele>
        <time>2016-08-07T10:35:31Z</time>
      </trkpt>
      <trkpt lat="44.09869" lon="3.42471">
        <ele>1079.7</ele>
        <time>2016-08-07T10:35:38Z</time>
      </trkpt>
      <trkpt lat="44.09857" lon="3.42478">
        <ele>1082.58</ele>
        <time>2016-08-07T10:35:45Z</time>
      </trkpt>
      <trkpt lat="44.09853" lon="3.42482">
        <ele>1083.54</ele>
        <time>2016-08-07T10:35:50Z</time>
      </trkpt>
      <trkpt lat="44.09848" lon="3.42485">
        <ele>1084.02</ele>
        <time>2016-08-07T10:35:56Z</time>
      </trkpt>
      <trkpt lat="44.09837" lon="3.42495">
        <ele>1085.95</ele>
        <time>2016-08-07T10:36:04Z</time>
      </trkpt>
      <trkpt lat="44.09835" lon="3.42496">
        <ele>1085.95</ele>
        <time>2016-08-07T10:36:06Z</time>
      </trkpt>
      <trkpt lat="44.09828" lon="3.42502">
        <ele>1086.43</ele>
        <time>2016-08-07T10:36:13Z</time>
      </trkpt>
      <trkpt lat="44.09823" lon="3.42509">
        <ele>1086.91</ele>
        <time>2016-08-07T10:36:20Z</time>
      </trkpt>
      <trkpt lat="44.09816" lon="3.42515">
        <ele>1087.87</ele>
        <time>2016-08-07T10:36:27Z</time>
      </trkpt>
      <trkpt lat="44.09809" lon="3.42523">
        <ele>1088.35</ele>
        <time>2016-08-07T10:36:36Z</time>
      </trkpt>
      <trkpt lat="44.09803" lon="3.4253">
        <ele>1090.27</ele>
        <time>2016-08-07T10:36:43Z</time>
      </trkpt>
      <trkpt lat="44.09796" lon="3.42541">
        <ele>1091.71</ele>
        <time>2016-08-07T10:36:50Z</time>
      </trkpt>
      <trkpt lat="44.09789" lon="3.42549">
        <ele>1092.68</ele>
        <time>2016-08-07T10:36:57Z</time>
      </trkpt>
      <trkpt lat="44.09782" lon="3.42558">
        <ele>1095.08</ele>
        <time>2016-08-07T10:37:02Z</time>
      </trkpt>
      <trkpt lat="44.09775" lon="3.42563">
        <ele>1097</ele>
        <time>2016-08-07T10:37:09Z</time>
      </trkpt>
      <trkpt lat="44.09774" lon="3.42564">
        <ele>1097</ele>
        <time>2016-08-07T10:37:10Z</time>
      </trkpt>
      <trkpt lat="44.09767" lon="3.42575">
        <ele>1098.44</ele>
        <time>2016-08-07T10:37:19Z</time>
      </trkpt>
      <trkpt lat="44.09762" lon="3.42583">
        <ele>1099.89</ele>
        <time>2016-08-07T10:37:27Z</time>
      </trkpt>
      <trkpt lat="44.09757" lon="3.42588">
        <ele>1101.33</ele>
        <time>2016-08-07T10:37:34Z</time>
      </trkpt>
      <trkpt lat="44.09751" lon="3.42594">
        <ele>1101.81</ele>
        <time>2016-08-07T10:37:41Z</time>
      </trkpt>
      <trkpt lat="44.09749" lon="3.42596">
        <ele>1102.29</ele>
        <time>2016-08-07T10:37:43Z</time>
      </trkpt>
      <trkpt lat="44.09742" lon="3.426">
        <ele>1105.17</ele>
        <time>2016-08-07T10:37:50Z</time>
      </trkpt>
      <trkpt lat="44.09738" lon="3.42604">
        <ele>1107.1</ele>
        <time>2016-08-07T10:37:56Z</time>
      </trkpt>
      <trkpt lat="44.09734" lon="3.42608">
        <ele>1108.06</ele>
        <time>2016-08-07T10:38:04Z</time>
      </trkpt>
      <trkpt lat="44.09728" lon="3.42613">
        <ele>1109.5</ele>
        <time>2016-08-07T10:38:09Z</time>
      </trkpt>
      <trkpt lat="44.09718" lon="3.42617">
        <ele>1111.42</ele>
        <time>2016-08-07T10:38:17Z</time>
      </trkpt>
      <trkpt lat="44.09714" lon="3.4262">
        <ele>1111.9</ele>
        <time>2016-08-07T10:38:22Z</time>
      </trkpt>
      <trkpt lat="44.09707" lon="3.42628">
        <ele>1112.38</ele>
        <time>2016-08-07T10:38:29Z</time>
      </trkpt>
      <trkpt lat="44.09699" lon="3.42636">
        <ele>1114.31</ele>
        <time>2016-08-07T10:38:36Z</time>
      </trkpt>
      <trkpt lat="44.0969" lon="3.4264">
        <ele>1113.82</ele>
        <time>2016-08-07T10:38:44Z</time>
      </trkpt>
      <trkpt lat="44.09681" lon="3.42645">
        <ele>1114.79</ele>
        <time>2016-08-07T10:38:53Z</time>
      </trkpt>
      <trkpt lat="44.09679" lon="3.42646">
        <ele>1115.75</ele>
        <time>2016-08-07T10:38:55Z</time>
      </trkpt>
      <trkpt lat="44.09675" lon="3.42648">
        <ele>1116.71</ele>
        <time>2016-08-07T10:38:58Z</time>
      </trkpt>
      <trkpt lat="44.09668" lon="3.42651">
        <ele>1118.15</ele>
        <time>2016-08-07T10:39:05Z</time>
      </trkpt>
      <trkpt lat="44.0966" lon="3.42655">
        <ele>1119.11</ele>
        <time>2016-08-07T10:39:12Z</time>
      </trkpt>
      <trkpt lat="44.09653" lon="3.42658">
        <ele>1119.59</ele>
        <time>2016-08-07T10:39:18Z</time>
      </trkpt>
      <trkpt lat="44.09645" lon="3.42664">
        <ele>1119.59</ele>
        <time>2016-08-07T10:39:27Z</time>
      </trkpt>
      <trkpt lat="44.0964" lon="3.42667">
        <ele>1119.59</ele>
        <time>2016-08-07T10:39:33Z</time>
      </trkpt>
      <trkpt lat="44.09634" lon="3.42672">
        <ele>1119.11</ele>
        <time>2016-08-07T10:39:41Z</time>
      </trkpt>
      <trkpt lat="44.09631" lon="3.42675">
        <ele>1119.11</ele>
        <time>2016-08-07T10:39:45Z</time>
      </trkpt>
      <trkpt lat="44.09623" lon="3.42677">
        <ele>1120.55</ele>
        <time>2016-08-07T10:39:52Z</time>
      </trkpt>
      <trkpt lat="44.0962" lon="3.4268">
        <ele>1121.03</ele>
        <time>2016-08-07T10:39:57Z</time>
      </trkpt>
      <trkpt lat="44.09616" lon="3.42684">
        <ele>1121.03</ele>
        <time>2016-08-07T10:40:02Z</time>
      </trkpt>
      <trkpt lat="44.09605" lon="3.42691">
        <ele>1122.48</ele>
        <time>2016-08-07T10:40:11Z</time>
      </trkpt>
      <trkpt lat="44.096" lon="3.42695">
        <ele>1122</ele>
        <time>2016-08-07T10:40:18Z</time>
      </trkpt>
      <trkpt lat="44.09596" lon="3.42698">
        <ele>1121.52</ele>
        <time>2016-08-07T10:40:22Z</time>
      </trkpt>
      <trkpt lat="44.09591" lon="3.42701">
        <ele>1119.11</ele>
        <time>2016-08-07T10:40:28Z</time>
      </trkpt>
      <trkpt lat="44.09584" lon="3.42705">
        <ele>1118.15</ele>
        <time>2016-08-07T10:40:35Z</time>
      </trkpt>
      <trkpt lat="44.09581" lon="3.42707">
        <ele>1116.71</ele>
        <time>2016-08-07T10:40:38Z</time>
      </trkpt>
      <trkpt lat="44.09578" lon="3.42712">
        <ele>1117.19</ele>
        <time>2016-08-07T10:40:41Z</time>
      </trkpt>
      <trkpt lat="44.09567" lon="3.42717">
        <ele>1120.07</ele>
        <time>2016-08-07T10:40:51Z</time>
      </trkpt>
      <trkpt lat="44.09564" lon="3.42723">
        <ele>1121.52</ele>
        <time>2016-08-07T10:40:57Z</time>
      </trkpt>
      <trkpt lat="44.09555" lon="3.42727">
        <ele>1122</ele>
        <time>2016-08-07T10:41:05Z</time>
      </trkpt>
      <trkpt lat="44.09551" lon="3.42728">
        <ele>1122</ele>
        <time>2016-08-07T10:41:12Z</time>
      </trkpt>
      <trkpt lat="44.09546" lon="3.4273">
        <ele>1122.96</ele>
        <time>2016-08-07T10:41:19Z</time>
      </trkpt>
      <trkpt lat="44.09544" lon="3.42731">
        <ele>1122.96</ele>
        <time>2016-08-07T10:41:26Z</time>
      </trkpt>
      <trkpt lat="44.09543" lon="3.42732">
        <ele>1123.44</ele>
        <time>2016-08-07T10:41:33Z</time>
      </trkpt>
      <trkpt lat="44.09537" lon="3.42732">
        <ele>1123.92</ele>
        <time>2016-08-07T10:41:41Z</time>
      </trkpt>
      <trkpt lat="44.09528" lon="3.42738">
        <ele>1125.36</ele>
        <time>2016-08-07T10:41:49Z</time>
      </trkpt>
      <trkpt lat="44.09523" lon="3.42742">
        <ele>1127.28</ele>
        <time>2016-08-07T10:41:55Z</time>
      </trkpt>
      <trkpt lat="44.09517" lon="3.42746">
        <ele>1129.21</ele>
        <time>2016-08-07T10:42:01Z</time>
      </trkpt>
      <trkpt lat="44.0951" lon="3.42749">
        <ele>1131.61</ele>
        <time>2016-08-07T10:42:08Z</time>
      </trkpt>
      <trkpt lat="44.09507" lon="3.4275">
        <ele>1132.09</ele>
        <time>2016-08-07T10:42:15Z</time>
      </trkpt>
      <trkpt lat="44.095" lon="3.42753">
        <ele>1131.61</ele>
        <time>2016-08-07T10:42:22Z</time>
      </trkpt>
      <trkpt lat="44.09494" lon="3.4276">
        <ele>1131.61</ele>
        <time>2016-08-07T10:42:29Z</time>
      </trkpt>
      <trkpt lat="44.09491" lon="3.42766">
        <ele>1130.17</ele>
        <time>2016-08-07T10:42:36Z</time>
      </trkpt>
      <trkpt lat="44.09488" lon="3.42774">
        <ele>1130.17</ele>
        <time>2016-08-07T10:42:45Z</time>
      </trkpt>
      <trkpt lat="44.09486" lon="3.4278">
        <ele>1130.65</ele>
        <time>2016-08-07T10:42:52Z</time>
      </trkpt>
      <trkpt lat="44.09481" lon="3.42786">
        <ele>1130.65</ele>
        <time>2016-08-07T10:42:59Z</time>
      </trkpt>
      <trkpt lat="44.09478" lon="3.42791">
        <ele>1131.61</ele>
        <time>2016-08-07T10:43:04Z</time>
      </trkpt>
      <trkpt lat="44.09474" lon="3.42796">
        <ele>1132.09</ele>
        <time>2016-08-07T10:43:10Z</time>
      </trkpt>
      <trkpt lat="44.0947" lon="3.428">
        <ele>1132.57</ele>
        <time>2016-08-07T10:43:15Z</time>
      </trkpt>
      <trkpt lat="44.09464" lon="3.4281">
        <ele>1133.53</ele>
        <time>2016-08-07T10:43:21Z</time>
      </trkpt>
      <trkpt lat="44.09458" lon="3.42819">
        <ele>1134.49</ele>
        <time>2016-08-07T10:43:28Z</time>
      </trkpt>
      <trkpt lat="44.09454" lon="3.42828">
        <ele>1134.97</ele>
        <time>2016-08-07T10:43:33Z</time>
      </trkpt>
      <trkpt lat="44.09452" lon="3.42833">
        <ele>1134.49</ele>
        <time>2016-08-07T10:43:39Z</time>
      </trkpt>
      <trkpt lat="44.09448" lon="3.42841">
        <ele>1134.97</ele>
        <time>2016-08-07T10:43:46Z</time>
      </trkpt>
      <trkpt lat="44.09443" lon="3.42848">
        <ele>1134.97</ele>
        <time>2016-08-07T10:43:53Z</time>
      </trkpt>
      <trkpt lat="44.09437" lon="3.42855">
        <ele>1135.45</ele>
        <time>2016-08-07T10:43:59Z</time>
      </trkpt>
      <trkpt lat="44.09433" lon="3.42864">
        <ele>1136.42</ele>
        <time>2016-08-07T10:44:03Z</time>
      </trkpt>
      <trkpt lat="44.09425" lon="3.42873">
        <ele>1135.94</ele>
        <time>2016-08-07T10:44:10Z</time>
      </trkpt>
      <trkpt lat="44.09418" lon="3.42883">
        <ele>1136.42</ele>
        <time>2016-08-07T10:44:18Z</time>
      </trkpt>
      <trkpt lat="44.09412" lon="3.42892">
        <ele>1136.42</ele>
        <time>2016-08-07T10:44:25Z</time>
      </trkpt>
      <trkpt lat="44.09406" lon="3.42904">
        <ele>1138.34</ele>
        <time>2016-08-07T10:44:33Z</time>
      </trkpt>
      <trkpt lat="44.09399" lon="3.42914">
        <ele>1138.34</ele>
        <time>2016-08-07T10:44:41Z</time>
      </trkpt>
      <trkpt lat="44.09395" lon="3.42921">
        <ele>1138.34</ele>
        <time>2016-08-07T10:44:47Z</time>
      </trkpt>
      <trkpt lat="44.09388" lon="3.42929">
        <ele>1138.34</ele>
        <time>2016-08-07T10:44:54Z</time>
      </trkpt>
      <trkpt lat="44.09383" lon="3.42932">
        <ele>1139.3</ele>
        <time>2016-08-07T10:44:59Z</time>
      </trkpt>
      <trkpt lat="44.09379" lon="3.42936">
        <ele>1140.74</ele>
        <time>2016-08-07T10:45:03Z</time>
      </trkpt>
      <trkpt lat="44.09377" lon="3.42938">
        <ele>1140.74</ele>
        <time>2016-08-07T10:45:05Z</time>
      </trkpt>
      <trkpt lat="44.09368" lon="3.42947">
        <ele>1141.22</ele>
        <time>2016-08-07T10:45:14Z</time>
      </trkpt>
      <trkpt lat="44.09363" lon="3.42952">
        <ele>1142.66</ele>
        <time>2016-08-07T10:45:21Z</time>
      </trkpt>
      <trkpt lat="44.09359" lon="3.42956">
        <ele>1143.14</ele>
        <time>2016-08-07T10:45:27Z</time>
      </trkpt>
      <trkpt lat="44.09356" lon="3.42958">
        <ele>1143.14</ele>
        <time>2016-08-07T10:45:32Z</time>
      </trkpt>
      <trkpt lat="44.09354" lon="3.42962">
        <ele>1143.14</ele>
        <time>2016-08-07T10:45:34Z</time>
      </trkpt>
      <trkpt lat="44.09345" lon="3.42974">
        <ele>1144.59</ele>
        <time>2016-08-07T10:45:42Z</time>
      </trkpt>
      <trkpt lat="44.09339" lon="3.42984">
        <ele>1145.55</ele>
        <time>2016-08-07T10:45:51Z</time>
      </trkpt>
      <trkpt lat="44.09335" lon="3.42992">
        <ele>1145.55</ele>
        <time>2016-08-07T10:45:58Z</time>
      </trkpt>
      <trkpt lat="44.09333" lon="3.42993">
        <ele>1145.55</ele>
        <time>2016-08-07T10:46:03Z</time>
      </trkpt>
      <trkpt lat="44.09328" lon="3.43002">
        <ele>1144.59</ele>
        <time>2016-08-07T10:46:10Z</time>
      </trkpt>
      <trkpt lat="44.09326" lon="3.43006">
        <ele>1144.59</ele>
        <time>2016-08-07T10:46:14Z</time>
      </trkpt>
      <trkpt lat="44.09319" lon="3.43015">
        <ele>1145.07</ele>
        <time>2016-08-07T10:46:23Z</time>
      </trkpt>
      <trkpt lat="44.09314" lon="3.43022">
        <ele>1145.55</ele>
        <time>2016-08-07T10:46:30Z</time>
      </trkpt>
      <trkpt lat="44.09309" lon="3.4303">
        <ele>1146.03</ele>
        <time>2016-08-07T10:46:36Z</time>
      </trkpt>
      <trkpt lat="44.09304" lon="3.43038">
        <ele>1145.07</ele>
        <time>2016-08-07T10:46:42Z</time>
      </trkpt>
      <trkpt lat="44.093" lon="3.43045">
        <ele>1145.07</ele>
        <time>2016-08-07T10:46:47Z</time>
      </trkpt>
      <trkpt lat="44.09297" lon="3.43052">
        <ele>1145.55</ele>
        <time>2016-08-07T10:46:55Z</time>
      </trkpt>
      <trkpt lat="44.09292" lon="3.43061">
        <ele>1146.99</ele>
        <time>2016-08-07T10:47:02Z</time>
      </trkpt>
      <trkpt lat="44.09286" lon="3.43069">
        <ele>1147.95</ele>
        <time>2016-08-07T10:47:10Z</time>
      </trkpt>
      <trkpt lat="44.09284" lon="3.43074">
        <ele>1148.43</ele>
        <time>2016-08-07T10:47:15Z</time>
      </trkpt>
      <trkpt lat="44.09278" lon="3.43082">
        <ele>1150.35</ele>
        <time>2016-08-07T10:47:22Z</time>
      </trkpt>
      <trkpt lat="44.09276" lon="3.43086">
        <ele>1151.8</ele>
        <time>2016-08-07T10:47:28Z</time>
      </trkpt>
      <trkpt lat="44.09277" lon="3.43096">
        <ele>1153.24</ele>
        <time>2016-08-07T10:47:35Z</time>
      </trkpt>
      <trkpt lat="44.09277" lon="3.43102">
        <ele>1153.72</ele>
        <time>2016-08-07T10:47:42Z</time>
      </trkpt>
      <trkpt lat="44.09277" lon="3.43112">
        <ele>1153.24</ele>
        <time>2016-08-07T10:47:50Z</time>
      </trkpt>
      <trkpt lat="44.09274" lon="3.43122">
        <ele>1152.76</ele>
        <time>2016-08-07T10:47:58Z</time>
      </trkpt>
      <trkpt lat="44.09272" lon="3.43133">
        <ele>1150.84</ele>
        <time>2016-08-07T10:48:06Z</time>
      </trkpt>
      <trkpt lat="44.09267" lon="3.4314">
        <ele>1151.32</ele>
        <time>2016-08-07T10:48:16Z</time>
      </trkpt>
      <trkpt lat="44.09264" lon="3.4314">
        <ele>1151.32</ele>
        <time>2016-08-07T10:48:23Z</time>
      </trkpt>
      <trkpt lat="44.09263" lon="3.43135">
        <ele>1151.32</ele>
        <time>2016-08-07T10:48:29Z</time>
      </trkpt>
      <trkpt lat="44.09261" lon="3.43128">
        <ele>1153.72</ele>
        <time>2016-08-07T10:48:36Z</time>
      </trkpt>
      <trkpt lat="44.09259" lon="3.43121">
        <ele>1158.05</ele>
        <time>2016-08-07T10:48:44Z</time>
      </trkpt>
      <trkpt lat="44.09257" lon="3.43115">
        <ele>1158.53</ele>
        <time>2016-08-07T10:48:51Z</time>
      </trkpt>
      <trkpt lat="44.09256" lon="3.43114">
        <ele>1159.01</ele>
        <time>2016-08-07T10:48:52Z</time>
      </trkpt>
      <trkpt lat="44.09253" lon="3.43108">
        <ele>1159.49</ele>
        <time>2016-08-07T10:48:58Z</time>
      </trkpt>
      <trkpt lat="44.09248" lon="3.43103">
        <ele>1159.97</ele>
        <time>2016-08-07T10:49:04Z</time>
      </trkpt>
      <trkpt lat="44.09246" lon="3.43101">
        <ele>1159.97</ele>
        <time>2016-08-07T10:49:06Z</time>
      </trkpt>
      <trkpt lat="44.0924" lon="3.43093">
        <ele>1160.93</ele>
        <time>2016-08-07T10:49:12Z</time>
      </trkpt>
      <trkpt lat="44.09236" lon="3.43093">
        <ele>1161.89</ele>
        <time>2016-08-07T10:49:18Z</time>
      </trkpt>
      <trkpt lat="44.09233" lon="3.43096">
        <ele>1162.37</ele>
        <time>2016-08-07T10:49:25Z</time>
      </trkpt>
      <trkpt lat="44.09229" lon="3.43097">
        <ele>1162.37</ele>
        <time>2016-08-07T10:49:32Z</time>
      </trkpt>
      <trkpt lat="44.09224" lon="3.43101">
        <ele>1163.81</ele>
        <time>2016-08-07T10:49:39Z</time>
      </trkpt>
      <trkpt lat="44.09219" lon="3.43107">
        <ele>1164.77</ele>
        <time>2016-08-07T10:49:45Z</time>
      </trkpt>
      <trkpt lat="44.09216" lon="3.43112">
        <ele>1165.26</ele>
        <time>2016-08-07T10:49:52Z</time>
      </trkpt>
      <trkpt lat="44.09213" lon="3.43121">
        <ele>1165.74</ele>
        <time>2016-08-07T10:49:59Z</time>
      </trkpt>
      <trkpt lat="44.09211" lon="3.43126">
        <ele>1165.74</ele>
        <time>2016-08-07T10:50:04Z</time>
      </trkpt>
      <trkpt lat="44.0921" lon="3.43134">
        <ele>1166.7</ele>
        <time>2016-08-07T10:50:10Z</time>
      </trkpt>
      <trkpt lat="44.09207" lon="3.43142">
        <ele>1167.18</ele>
        <time>2016-08-07T10:50:18Z</time>
      </trkpt>
      <trkpt lat="44.09202" lon="3.43146">
        <ele>1167.66</ele>
        <time>2016-08-07T10:50:24Z</time>
      </trkpt>
      <trkpt lat="44.09195" lon="3.43153">
        <ele>1169.1</ele>
        <time>2016-08-07T10:50:30Z</time>
      </trkpt>
      <trkpt lat="44.09188" lon="3.43159">
        <ele>1170.06</ele>
        <time>2016-08-07T10:50:37Z</time>
      </trkpt>
      <trkpt lat="44.09183" lon="3.43161">
        <ele>1171.02</ele>
        <time>2016-08-07T10:50:44Z</time>
      </trkpt>
      <trkpt lat="44.0918" lon="3.43165">
        <ele>1171.02</ele>
        <time>2016-08-07T10:50:49Z</time>
      </trkpt>
      <trkpt lat="44.09179" lon="3.4317">
        <ele>1171.5</ele>
        <time>2016-08-07T10:50:54Z</time>
      </trkpt>
      <trkpt lat="44.0918" lon="3.43173">
        <ele>1171.5</ele>
        <time>2016-08-07T10:51:00Z</time>
      </trkpt>
      <trkpt lat="44.09177" lon="3.43179">
        <ele>1171.98</ele>
        <time>2016-08-07T10:51:05Z</time>
      </trkpt>
      <trkpt lat="44.09172" lon="3.43182">
        <ele>1171.98</ele>
        <time>2016-08-07T10:51:11Z</time>
      </trkpt>
      <trkpt lat="44.09167" lon="3.43182">
        <ele>1172.95</ele>
        <time>2016-08-07T10:51:17Z</time>
      </trkpt>
      <trkpt lat="44.09158" lon="3.43179">
        <ele>1172.95</ele>
        <time>2016-08-07T10:51:23Z</time>
      </trkpt>
      <trkpt lat="44.09152" lon="3.4318">
        <ele>1172.95</ele>
        <time>2016-08-07T10:51:30Z</time>
      </trkpt>
      <trkpt lat="44.09151" lon="3.4318">
        <ele>1172.95</ele>
        <time>2016-08-07T10:51:31Z</time>
      </trkpt>
      <trkpt lat="44.09145" lon="3.4318">
        <ele>1172.95</ele>
        <time>2016-08-07T10:51:38Z</time>
      </trkpt>
      <trkpt lat="44.09141" lon="3.4318">
        <ele>1173.91</ele>
        <time>2016-08-07T10:51:43Z</time>
      </trkpt>
      <trkpt lat="44.09138" lon="3.43181">
        <ele>1174.87</ele>
        <time>2016-08-07T10:51:48Z</time>
      </trkpt>
      <trkpt lat="44.09132" lon="3.43186">
        <ele>1176.79</ele>
        <time>2016-08-07T10:51:55Z</time>
      </trkpt>
      <trkpt lat="44.09132" lon="3.43189">
        <ele>1176.79</ele>
        <time>2016-08-07T10:52:00Z</time>
      </trkpt>
      <trkpt lat="44.09131" lon="3.43193">
        <ele>1176.31</ele>
        <time>2016-08-07T10:52:02Z</time>
      </trkpt>
      <trkpt lat="44.09132" lon="3.43199">
        <ele>1177.75</ele>
        <time>2016-08-07T10:52:08Z</time>
      </trkpt>
      <trkpt lat="44.09132" lon="3.43199">
        <ele>1177.75</ele>
        <time>2016-08-07T10:52:09Z</time>
      </trkpt>
      <trkpt lat="44.09132" lon="3.43207">
        <ele>1179.19</ele>
        <time>2016-08-07T10:52:16Z</time>
      </trkpt>
      <trkpt lat="44.09131" lon="3.43212">
        <ele>1179.19</ele>
        <time>2016-08-07T10:52:23Z</time>
      </trkpt>
      <trkpt lat="44.09128" lon="3.43218">
        <ele>1179.19</ele>
        <time>2016-08-07T10:52:30Z</time>
      </trkpt>
      <trkpt lat="44.09122" lon="3.43228">
        <ele>1182.56</ele>
        <time>2016-08-07T10:52:36Z</time>
      </trkpt>
      <trkpt lat="44.0912" lon="3.4323">
        <ele>1183.52</ele>
        <time>2016-08-07T10:52:39Z</time>
      </trkpt>
      <trkpt lat="44.09117" lon="3.43234">
        <ele>1184.96</ele>
        <time>2016-08-07T10:52:44Z</time>
      </trkpt>
      <trkpt lat="44.09115" lon="3.43236">
        <ele>1185.44</ele>
        <time>2016-08-07T10:52:50Z</time>
      </trkpt>
      <trkpt lat="44.09109" lon="3.43241">
        <ele>1187.37</ele>
        <time>2016-08-07T10:52:57Z</time>
      </trkpt>
      <trkpt lat="44.09103" lon="3.43252">
        <ele>1188.81</ele>
        <time>2016-08-07T10:53:05Z</time>
      </trkpt>
      <trkpt lat="44.09102" lon="3.43258">
        <ele>1188.81</ele>
        <time>2016-08-07T10:53:13Z</time>
      </trkpt>
      <trkpt lat="44.09099" lon="3.43267">
        <ele>1189.29</ele>
        <time>2016-08-07T10:53:20Z</time>
      </trkpt>
      <trkpt lat="44.09095" lon="3.43275">
        <ele>1189.29</ele>
        <time>2016-08-07T10:53:26Z</time>
      </trkpt>
      <trkpt lat="44.0909" lon="3.43282">
        <ele>1191.69</ele>
        <time>2016-08-07T10:53:34Z</time>
      </trkpt>
      <trkpt lat="44.09089" lon="3.43289">
        <ele>1193.13</ele>
        <time>2016-08-07T10:53:41Z</time>
      </trkpt>
      <trkpt lat="44.09089" lon="3.43297">
        <ele>1194.09</ele>
        <time>2016-08-07T10:53:48Z</time>
      </trkpt>
      <trkpt lat="44.09088" lon="3.43302">
        <ele>1194.58</ele>
        <time>2016-08-07T10:53:52Z</time>
      </trkpt>
      <trkpt lat="44.09084" lon="3.43318">
        <ele>1197.46</ele>
        <time>2016-08-07T10:54:01Z</time>
      </trkpt>
      <trkpt lat="44.09082" lon="3.43328">
        <ele>1197.94</ele>
        <time>2016-08-07T10:54:08Z</time>
      </trkpt>
      <trkpt lat="44.09076" lon="3.43338">
        <ele>1199.38</ele>
        <time>2016-08-07T10:54:15Z</time>
      </trkpt>
      <trkpt lat="44.09071" lon="3.43342">
        <ele>1199.86</ele>
        <time>2016-08-07T10:54:22Z</time>
      </trkpt>
      <trkpt lat="44.09065" lon="3.43345">
        <ele>1200.82</ele>
        <time>2016-08-07T10:54:28Z</time>
      </trkpt>
      <trkpt lat="44.09063" lon="3.43345">
        <ele>1200.82</ele>
        <time>2016-08-07T10:54:30Z</time>
      </trkpt>
      <trkpt lat="44.09055" lon="3.43349">
        <ele>1201.79</ele>
        <time>2016-08-07T10:54:38Z</time>
      </trkpt>
      <trkpt lat="44.0905" lon="3.43353">
        <ele>1202.75</ele>
        <time>2016-08-07T10:54:45Z</time>
      </trkpt>
      <trkpt lat="44.09044" lon="3.43357">
        <ele>1203.23</ele>
        <time>2016-08-07T10:54:51Z</time>
      </trkpt>
      <trkpt lat="44.09037" lon="3.4336">
        <ele>1204.67</ele>
        <time>2016-08-07T10:54:57Z</time>
      </trkpt>
      <trkpt lat="44.09032" lon="3.43364">
        <ele>1204.67</ele>
        <time>2016-08-07T10:55:04Z</time>
      </trkpt>
      <trkpt lat="44.09029" lon="3.43367">
        <ele>1206.11</ele>
        <time>2016-08-07T10:55:11Z</time>
      </trkpt>
      <trkpt lat="44.09026" lon="3.4337">
        <ele>1206.59</ele>
        <time>2016-08-07T10:55:16Z</time>
      </trkpt>
      <trkpt lat="44.09019" lon="3.43373">
        <ele>1207.07</ele>
        <time>2016-08-07T10:55:22Z</time>
      </trkpt>
      <trkpt lat="44.09019" lon="3.43373">
        <ele>1207.07</ele>
        <time>2016-08-07T10:55:31Z</time>
      </trkpt>
      <trkpt lat="44.09019" lon="3.43373">
        <ele>1207.07</ele>
        <time>2016-08-07T10:55:43Z</time>
      </trkpt>
      <trkpt lat="44.09014" lon="3.43374">
        <ele>1206.59</ele>
        <time>2016-08-07T10:55:53Z</time>
      </trkpt>
      <trkpt lat="44.09011" lon="3.43376">
        <ele>1206.11</ele>
        <time>2016-08-07T10:55:58Z</time>
      </trkpt>
      <trkpt lat="44.09008" lon="3.43377">
        <ele>1206.59</ele>
        <time>2016-08-07T10:56:07Z</time>
      </trkpt>
      <trkpt lat="44.09003" lon="3.43377">
        <ele>1208.03</ele>
        <time>2016-08-07T10:56:13Z</time>
      </trkpt>
      <trkpt lat="44.08998" lon="3.43378">
        <ele>1209</ele>
        <time>2016-08-07T10:56:19Z</time>
      </trkpt>
      <trkpt lat="44.08987" lon="3.43383">
        <ele>1209.96</ele>
        <time>2016-08-07T10:56:26Z</time>
      </trkpt>
      <trkpt lat="44.08979" lon="3.43393">
        <ele>1209.96</ele>
        <time>2016-08-07T10:56:34Z</time>
      </trkpt>
      <trkpt lat="44.08978" lon="3.43403">
        <ele>1211.4</ele>
        <time>2016-08-07T10:56:42Z</time>
      </trkpt>
      <trkpt lat="44.08972" lon="3.43411">
        <ele>1211.88</ele>
        <time>2016-08-07T10:56:49Z</time>
      </trkpt>
      <trkpt lat="44.08966" lon="3.4342">
        <ele>1212.84</ele>
        <time>2016-08-07T10:56:56Z</time>
      </trkpt>
      <trkpt lat="44.08965" lon="3.43422">
        <ele>1213.32</ele>
        <time>2016-08-07T10:56:58Z</time>
      </trkpt>
      <trkpt lat="44.08957" lon="3.4343">
        <ele>1212.36</ele>
        <time>2016-08-07T10:57:06Z</time>
      </trkpt>
      <trkpt lat="44.08953" lon="3.43434">
        <ele>1213.8</ele>
        <time>2016-08-07T10:57:13Z</time>
      </trkpt>
      <trkpt lat="44.0895" lon="3.43444">
        <ele>1216.21</ele>
        <time>2016-08-07T10:57:20Z</time>
      </trkpt>
      <trkpt lat="44.08943" lon="3.43452">
        <ele>1216.69</ele>
        <time>2016-08-07T10:57:23Z</time>
      </trkpt>
      <trkpt lat="44.08938" lon="3.43457">
        <ele>1216.69</ele>
        <time>2016-08-07T10:57:30Z</time>
      </trkpt>
      <trkpt lat="44.08939" lon="3.43466">
        <ele>1217.65</ele>
        <time>2016-08-07T10:57:37Z</time>
      </trkpt>
      <trkpt lat="44.08938" lon="3.43473">
        <ele>1217.65</ele>
        <time>2016-08-07T10:57:43Z</time>
      </trkpt>
      <trkpt lat="44.08936" lon="3.43478">
        <ele>1219.09</ele>
        <time>2016-08-07T10:57:50Z</time>
      </trkpt>
      <trkpt lat="44.08936" lon="3.43479">
        <ele>1219.57</ele>
        <time>2016-08-07T10:57:51Z</time>
      </trkpt>
      <trkpt lat="44.08931" lon="3.43487">
        <ele>1220.05</ele>
        <time>2016-08-07T10:57:57Z</time>
      </trkpt>
      <trkpt lat="44.08928" lon="3.4349">
        <ele>1221.97</ele>
        <time>2016-08-07T10:58:04Z</time>
      </trkpt>
      <trkpt lat="44.08923" lon="3.43495">
        <ele>1222.93</ele>
        <time>2016-08-07T10:58:11Z</time>
      </trkpt>
      <trkpt lat="44.08918" lon="3.43502">
        <ele>1223.42</ele>
        <time>2016-08-07T10:58:18Z</time>
      </trkpt>
      <trkpt lat="44.08912" lon="3.43512">
        <ele>1224.38</ele>
        <time>2016-08-07T10:58:25Z</time>
      </trkpt>
      <trkpt lat="44.0891" lon="3.43516">
        <ele>1224.38</ele>
        <time>2016-08-07T10:58:32Z</time>
      </trkpt>
      <trkpt lat="44.08907" lon="3.4352">
        <ele>1223.9</ele>
        <time>2016-08-07T10:58:37Z</time>
      </trkpt>
      <trkpt lat="44.089" lon="3.43533">
        <ele>1223.42</ele>
        <time>2016-08-07T10:58:45Z</time>
      </trkpt>
      <trkpt lat="44.08898" lon="3.43535">
        <ele>1222.93</ele>
        <time>2016-08-07T10:58:46Z</time>
      </trkpt>
      <trkpt lat="44.08891" lon="3.43545">
        <ele>1224.38</ele>
        <time>2016-08-07T10:58:54Z</time>
      </trkpt>
      <trkpt lat="44.08882" lon="3.43555">
        <ele>1227.26</ele>
        <time>2016-08-07T10:59:02Z</time>
      </trkpt>
      <trkpt lat="44.08875" lon="3.43562">
        <ele>1233.03</ele>
        <time>2016-08-07T10:59:10Z</time>
      </trkpt>
      <trkpt lat="44.08868" lon="3.43566">
        <ele>1233.03</ele>
        <time>2016-08-07T10:59:17Z</time>
      </trkpt>
      <trkpt lat="44.08861" lon="3.4357">
        <ele>1236.39</ele>
        <time>2016-08-07T10:59:24Z</time>
      </trkpt>
      <trkpt lat="44.08856" lon="3.43572">
        <ele>1236.39</ele>
        <time>2016-08-07T10:59:30Z</time>
      </trkpt>
      <trkpt lat="44.0885" lon="3.43577">
        <ele>1237.35</ele>
        <time>2016-08-07T10:59:38Z</time>
      </trkpt>
      <trkpt lat="44.08846" lon="3.43583">
        <ele>1238.32</ele>
        <time>2016-08-07T10:59:44Z</time>
      </trkpt>
      <trkpt lat="44.08843" lon="3.43588">
        <ele>1239.28</ele>
        <time>2016-08-07T10:59:49Z</time>
      </trkpt>
      <trkpt lat="44.08837" lon="3.43592">
        <ele>1239.28</ele>
        <time>2016-08-07T10:59:55Z</time>
      </trkpt>
      <trkpt lat="44.08832" lon="3.43598">
        <ele>1238.8</ele>
        <time>2016-08-07T11:00:00Z</time>
      </trkpt>
      <trkpt lat="44.08829" lon="3.43603">
        <ele>1238.32</ele>
        <time>2016-08-07T11:00:07Z</time>
      </trkpt>
      <trkpt lat="44.08823" lon="3.43611">
        <ele>1239.28</ele>
        <time>2016-08-07T11:00:15Z</time>
      </trkpt>
      <trkpt lat="44.08813" lon="3.43622">
        <ele>1240.24</ele>
        <time>2016-08-07T11:00:22Z</time>
      </trkpt>
      <trkpt lat="44.08807" lon="3.43627">
        <ele>1240.72</ele>
        <time>2016-08-07T11:00:28Z</time>
      </trkpt>
      <trkpt lat="44.08803" lon="3.43629">
        <ele>1240.24</ele>
        <time>2016-08-07T11:00:35Z</time>
      </trkpt>
      <trkpt lat="44.08798" lon="3.43632">
        <ele>1239.76</ele>
        <time>2016-08-07T11:00:42Z</time>
      </trkpt>
      <trkpt lat="44.0879" lon="3.43638">
        <ele>1239.76</ele>
        <time>2016-08-07T11:00:48Z</time>
      </trkpt>
      <trkpt lat="44.08778" lon="3.43646">
        <ele>1239.28</ele>
        <time>2016-08-07T11:00:54Z</time>
      </trkpt>
      <trkpt lat="44.08769" lon="3.43654">
        <ele>1240.24</ele>
        <time>2016-08-07T11:01:01Z</time>
      </trkpt>
      <trkpt lat="44.08766" lon="3.43657">
        <ele>1240.72</ele>
        <time>2016-08-07T11:01:03Z</time>
      </trkpt>
      <trkpt lat="44.08762" lon="3.4366">
        <ele>1241.2</ele>
        <time>2016-08-07T11:01:06Z</time>
      </trkpt>
      <trkpt lat="44.08754" lon="3.43665">
        <ele>1241.2</ele>
        <time>2016-08-07T11:01:13Z</time>
      </trkpt>
      <trkpt lat="44.08749" lon="3.43668">
        <ele>1241.68</ele>
        <time>2016-08-07T11:01:17Z</time>
      </trkpt>
      <trkpt lat="44.08741" lon="3.43672">
        <ele>1242.16</ele>
        <time>2016-08-07T11:01:24Z</time>
      </trkpt>
      <trkpt lat="44.08734" lon="3.43677">
        <ele>1242.16</ele>
        <time>2016-08-07T11:01:32Z</time>
      </trkpt>
      <trkpt lat="44.08728" lon="3.43678">
        <ele>1241.68</ele>
        <time>2016-08-07T11:01:39Z</time>
      </trkpt>
      <trkpt lat="44.08719" lon="3.43689">
        <ele>1241.68</ele>
        <time>2016-08-07T11:01:47Z</time>
      </trkpt>
      <trkpt lat="44.08714" lon="3.43695">
        <ele>1242.64</ele>
        <time>2016-08-07T11:01:52Z</time>
      </trkpt>
      <trkpt lat="44.08705" lon="3.43703">
        <ele>1243.6</ele>
        <time>2016-08-07T11:02:01Z</time>
      </trkpt>
      <trkpt lat="44.08704" lon="3.43704">
        <ele>1243.12</ele>
        <time>2016-08-07T11:02:02Z</time>
      </trkpt>
      <trkpt lat="44.08693" lon="3.43709">
        <ele>1243.6</ele>
        <time>2016-08-07T11:02:11Z</time>
      </trkpt>
      <trkpt lat="44.08687" lon="3.43713">
        <ele>1245.04</ele>
        <time>2016-08-07T11:02:17Z</time>
      </trkpt>
      <trkpt lat="44.0868" lon="3.43716">
        <ele>1246.97</ele>
        <time>2016-08-07T11:02:25Z</time>
      </trkpt>
      <trkpt lat="44.08674" lon="3.43719">
        <ele>1247.45</ele>
        <time>2016-08-07T11:02:34Z</time>
      </trkpt>
      <trkpt lat="44.08669" lon="3.43723">
        <ele>1247.45</ele>
        <time>2016-08-07T11:02:40Z</time>
      </trkpt>
      <trkpt lat="44.08662" lon="3.43727">
        <ele>1248.41</ele>
        <time>2016-08-07T11:02:46Z</time>
      </trkpt>
      <trkpt lat="44.08653" lon="3.43734">
        <ele>1249.37</ele>
        <time>2016-08-07T11:02:54Z</time>
      </trkpt>
      <trkpt lat="44.08645" lon="3.43741">
        <ele>1248.89</ele>
        <time>2016-08-07T11:03:01Z</time>
      </trkpt>
      <trkpt lat="44.08641" lon="3.43743">
        <ele>1249.37</ele>
        <time>2016-08-07T11:03:08Z</time>
      </trkpt>
      <trkpt lat="44.08632" lon="3.43749">
        <ele>1249.85</ele>
        <time>2016-08-07T11:03:17Z</time>
      </trkpt>
      <trkpt lat="44.0862" lon="3.43755">
        <ele>1248.89</ele>
        <time>2016-08-07T11:03:24Z</time>
      </trkpt>
      <trkpt lat="44.08613" lon="3.43757">
        <ele>1249.37</ele>
        <time>2016-08-07T11:03:28Z</time>
      </trkpt>
      <trkpt lat="44.08604" lon="3.43758">
        <ele>1248.89</ele>
        <time>2016-08-07T11:03:36Z</time>
      </trkpt>
      <trkpt lat="44.08601" lon="3.43759">
        <ele>1248.41</ele>
        <time>2016-08-07T11:03:38Z</time>
      </trkpt>
      <trkpt lat="44.08592" lon="3.43763">
        <ele>1248.41</ele>
        <time>2016-08-07T11:03:45Z</time>
      </trkpt>
      <trkpt lat="44.0859" lon="3.43763">
        <ele>1248.41</ele>
        <time>2016-08-07T11:03:47Z</time>
      </trkpt>
      <trkpt lat="44.0858" lon="3.43766">
        <ele>1249.37</ele>
        <time>2016-08-07T11:03:55Z</time>
      </trkpt>
      <trkpt lat="44.0858" lon="3.43766">
        <ele>1249.37</ele>
        <time>2016-08-07T11:03:56Z</time>
      </trkpt>
      <trkpt lat="44.08569" lon="3.43769">
        <ele>1251.29</ele>
        <time>2016-08-07T11:04:05Z</time>
      </trkpt>
      <trkpt lat="44.0856" lon="3.43772">
        <ele>1249.85</ele>
        <time>2016-08-07T11:04:12Z</time>
      </trkpt>
      <trkpt lat="44.08553" lon="3.43774">
        <ele>1250.33</ele>
        <time>2016-08-07T11:04:19Z</time>
      </trkpt>
      <trkpt lat="44.08546" lon="3.43775">
        <ele>1251.29</ele>
        <time>2016-08-07T11:04:26Z</time>
      </trkpt>
      <trkpt lat="44.08538" lon="3.43779">
        <ele>1250.81</ele>
        <time>2016-08-07T11:04:33Z</time>
      </trkpt>
      <trkpt lat="44.08537" lon="3.43779">
        <ele>1250.81</ele>
        <time>2016-08-07T11:04:39Z</time>
      </trkpt>
      <trkpt lat="44.08532" lon="3.43779">
        <ele>1250.81</ele>
        <time>2016-08-07T11:04:47Z</time>
      </trkpt>
      <trkpt lat="44.08525" lon="3.43781">
        <ele>1251.29</ele>
        <time>2016-08-07T11:04:55Z</time>
      </trkpt>
      <trkpt lat="44.08516" lon="3.43786">
        <ele>1253.7</ele>
        <time>2016-08-07T11:05:03Z</time>
      </trkpt>
      <trkpt lat="44.08508" lon="3.43794">
        <ele>1256.1</ele>
        <time>2016-08-07T11:05:11Z</time>
      </trkpt>
      <trkpt lat="44.08504" lon="3.43798">
        <ele>1256.58</ele>
        <time>2016-08-07T11:05:14Z</time>
      </trkpt>
      <trkpt lat="44.08496" lon="3.43807">
        <ele>1257.06</ele>
        <time>2016-08-07T11:05:22Z</time>
      </trkpt>
      <trkpt lat="44.08492" lon="3.43814">
        <ele>1258.02</ele>
        <time>2016-08-07T11:05:30Z</time>
      </trkpt>
      <trkpt lat="44.08487" lon="3.43821">
        <ele>1258.5</ele>
        <time>2016-08-07T11:05:38Z</time>
      </trkpt>
      <trkpt lat="44.08479" lon="3.43831">
        <ele>1259.46</ele>
        <time>2016-08-07T11:05:47Z</time>
      </trkpt>
      <trkpt lat="44.0847" lon="3.43843">
        <ele>1260.91</ele>
        <time>2016-08-07T11:05:55Z</time>
      </trkpt>
      <trkpt lat="44.08461" lon="3.43853">
        <ele>1261.39</ele>
        <time>2016-08-07T11:06:01Z</time>
      </trkpt>
      <trkpt lat="44.0846" lon="3.43857">
        <ele>1261.87</ele>
        <time>2016-08-07T11:06:06Z</time>
      </trkpt>
      <trkpt lat="44.08454" lon="3.43866">
        <ele>1262.35</ele>
        <time>2016-08-07T11:06:14Z</time>
      </trkpt>
      <trkpt lat="44.08452" lon="3.43872">
        <ele>1262.83</ele>
        <time>2016-08-07T11:06:19Z</time>
      </trkpt>
      <trkpt lat="44.08441" lon="3.43884">
        <ele>1263.79</ele>
        <time>2016-08-07T11:06:27Z</time>
      </trkpt>
      <trkpt lat="44.08436" lon="3.43892">
        <ele>1260.91</ele>
        <time>2016-08-07T11:06:35Z</time>
      </trkpt>
      <trkpt lat="44.08433" lon="3.43899">
        <ele>1259.46</ele>
        <time>2016-08-07T11:06:43Z</time>
      </trkpt>
      <trkpt lat="44.08431" lon="3.43904">
        <ele>1260.43</ele>
        <time>2016-08-07T11:06:47Z</time>
      </trkpt>
      <trkpt lat="44.08425" lon="3.43919">
        <ele>1262.83</ele>
        <time>2016-08-07T11:06:56Z</time>
      </trkpt>
      <trkpt lat="44.08424" lon="3.43921">
        <ele>1262.83</ele>
        <time>2016-08-07T11:06:57Z</time>
      </trkpt>
      <trkpt lat="44.08423" lon="3.43931">
        <ele>1263.31</ele>
        <time>2016-08-07T11:07:05Z</time>
      </trkpt>
      <trkpt lat="44.0842" lon="3.43938">
        <ele>1261.87</ele>
        <time>2016-08-07T11:07:11Z</time>
      </trkpt>
      <trkpt lat="44.0842" lon="3.43942">
        <ele>1261.39</ele>
        <time>2016-08-07T11:07:14Z</time>
      </trkpt>
      <trkpt lat="44.08414" lon="3.43953">
        <ele>1262.83</ele>
        <time>2016-08-07T11:07:22Z</time>
      </trkpt>
      <trkpt lat="44.0841" lon="3.43961">
        <ele>1263.31</ele>
        <time>2016-08-07T11:07:28Z</time>
      </trkpt>
      <trkpt lat="44.08406" lon="3.43971">
        <ele>1262.83</ele>
        <time>2016-08-07T11:07:35Z</time>
      </trkpt>
      <trkpt lat="44.08404" lon="3.43976">
        <ele>1262.35</ele>
        <time>2016-08-07T11:07:41Z</time>
      </trkpt>
      <trkpt lat="44.084" lon="3.43984">
        <ele>1262.35</ele>
        <time>2016-08-07T11:07:48Z</time>
      </trkpt>
      <trkpt lat="44.08397" lon="3.43991">
        <ele>1264.27</ele>
        <time>2016-08-07T11:07:55Z</time>
      </trkpt>
      <trkpt lat="44.08394" lon="3.44">
        <ele>1265.71</ele>
        <time>2016-08-07T11:08:02Z</time>
      </trkpt>
      <trkpt lat="44.08393" lon="3.44008">
        <ele>1266.19</ele>
        <time>2016-08-07T11:08:09Z</time>
      </trkpt>
      <trkpt lat="44.08392" lon="3.44011">
        <ele>1266.19</ele>
        <time>2016-08-07T11:08:20Z</time>
      </trkpt>
      <trkpt lat="44.0839" lon="3.44017">
        <ele>1265.71</ele>
        <time>2016-08-07T11:08:29Z</time>
      </trkpt>
      <trkpt lat="44.08392" lon="3.44019">
        <ele>1265.71</ele>
        <time>2016-08-07T11:08:37Z</time>
      </trkpt>
      <trkpt lat="44.08394" lon="3.44024">
        <ele>1265.71</ele>
        <time>2016-08-07T11:08:47Z</time>
      </trkpt>
      <trkpt lat="44.08394" lon="3.44024">
        <ele>1265.71</ele>
        <time>2016-08-07T11:08:58Z</time>
      </trkpt>
      <trkpt lat="44.08395" lon="3.44028">
        <ele>1265.23</ele>
        <time>2016-08-07T11:09:06Z</time>
      </trkpt>
      <trkpt lat="44.08397" lon="3.44029">
        <ele>1265.23</ele>
        <time>2016-08-07T11:09:16Z</time>
      </trkpt>
      <trkpt lat="44.08398" lon="3.44031">
        <ele>1264.75</ele>
        <time>2016-08-07T11:09:25Z</time>
      </trkpt>
      <trkpt lat="44.08402" lon="3.44035">
        <ele>1264.27</ele>
        <time>2016-08-07T11:09:32Z</time>
      </trkpt>
      <trkpt lat="44.08404" lon="3.44035">
        <ele>1264.27</ele>
        <time>2016-08-07T11:09:40Z</time>
      </trkpt>
      <trkpt lat="44.08403" lon="3.44036">
        <ele>1264.75</ele>
        <time>2016-08-07T11:09:52Z</time>
      </trkpt>
      <trkpt lat="44.08402" lon="3.44037">
        <ele>1264.27</ele>
        <time>2016-08-07T11:10:02Z</time>
      </trkpt>
      <trkpt lat="44.08402" lon="3.44037">
        <ele>1264.27</ele>
        <time>2016-08-07T11:10:12Z</time>
      </trkpt>
      <trkpt lat="44.08402" lon="3.44037">
        <ele>1264.27</ele>
        <time>2016-08-07T11:10:21Z</time>
      </trkpt>
      <trkpt lat="44.08402" lon="3.44037">
        <ele>1264.27</ele>
        <time>2016-08-07T11:10:31Z</time>
      </trkpt>
      <trkpt lat="44.08402" lon="3.44037">
        <ele>1264.27</ele>
        <time>2016-08-07T11:10:45Z</time>
      </trkpt>
      <trkpt lat="44.08402" lon="3.44037">
        <ele>1264.27</ele>
        <time>2016-08-07T11:10:59Z</time>
      </trkpt>
      <trkpt lat="44.08402" lon="3.44037">
        <ele>1264.27</ele>
        <time>2016-08-07T11:11:14Z</time>
      </trkpt>
      <trkpt lat="44.08402" lon="3.44037">
        <ele>1264.27</ele>
        <time>2016-08-07T11:11:28Z</time>
      </trkpt>
      <trkpt lat="44.08402" lon="3.44037">
        <ele>1264.27</ele>
        <time>2016-08-07T11:11:46Z</time>
      </trkpt>
      <trkpt lat="44.08403" lon="3.44034">
        <ele>1264.75</ele>
        <time>2016-08-07T11:11:53Z</time>
      </trkpt>
      <trkpt lat="44.08406" lon="3.4403">
        <ele>1266.67</ele>
        <time>2016-08-07T11:12:01Z</time>
      </trkpt>
      <trkpt lat="44.0841" lon="3.44023">
        <ele>1267.16</ele>
        <time>2016-08-07T11:12:09Z</time>
      </trkpt>
      <trkpt lat="44.08415" lon="3.44022">
        <ele>1265.71</ele>
        <time>2016-08-07T11:12:16Z</time>
      </trkpt>
      <trkpt lat="44.08415" lon="3.44023">
        <ele>1265.23</ele>
        <time>2016-08-07T11:12:23Z</time>
      </trkpt>
      <trkpt lat="44.08415" lon="3.44023">
        <ele>1265.23</ele>
        <time>2016-08-07T11:12:34Z</time>
      </trkpt>
      <trkpt lat="44.08415" lon="3.44023">
        <ele>1265.23</ele>
        <time>2016-08-07T11:12:50Z</time>
      </trkpt>
      <trkpt lat="44.08416" lon="3.44023">
        <ele>1265.23</ele>
        <time>2016-08-07T11:13:06Z</time>
      </trkpt>
      <trkpt lat="44.08416" lon="3.44023">
        <ele>1265.23</ele>
        <time>2016-08-07T11:13:14Z</time>
      </trkpt>
      <trkpt lat="44.08415" lon="3.44023">
        <ele>1265.23</ele>
        <time>2016-08-07T11:13:23Z</time>
      </trkpt>
      <trkpt lat="44.08407" lon="3.44031">
        <ele>1263.79</ele>
        <time>2016-08-07T11:13:35Z</time>
      </trkpt>
      <trkpt lat="44.08402" lon="3.44039">
        <ele>1266.67</ele>
        <time>2016-08-07T11:13:44Z</time>
      </trkpt>
      <trkpt lat="44.08402" lon="3.44038">
        <ele>1267.16</ele>
        <time>2016-08-07T11:13:53Z</time>
      </trkpt>
      <trkpt lat="44.08402" lon="3.44038">
        <ele>1267.64</ele>
        <time>2016-08-07T11:14:07Z</time>
      </trkpt>
      <trkpt lat="44.08401" lon="3.44039">
        <ele>1267.64</ele>
        <time>2016-08-07T11:14:17Z</time>
      </trkpt>
      <trkpt lat="44.08402" lon="3.44037">
        <ele>1267.64</ele>
        <time>2016-08-07T11:14:24Z</time>
      </trkpt>
      <trkpt lat="44.08402" lon="3.44037">
        <ele>1268.6</ele>
        <time>2016-08-07T11:14:37Z</time>
      </trkpt>
      <trkpt lat="44.08402" lon="3.44037">
        <ele>1268.6</ele>
        <time>2016-08-07T11:14:49Z</time>
      </trkpt>
      <trkpt lat="44.08402" lon="3.44037">
        <ele>1268.6</ele>
        <time>2016-08-07T11:15:05Z</time>
      </trkpt>
      <trkpt lat="44.08402" lon="3.44039">
        <ele>1270.04</ele>
        <time>2016-08-07T11:15:26Z</time>
      </trkpt>
      <trkpt lat="44.08402" lon="3.44039">
        <ele>1270.04</ele>
        <time>2016-08-07T11:15:42Z</time>
      </trkpt>
      <trkpt lat="44.08402" lon="3.44039">
        <ele>1271.48</ele>
        <time>2016-08-07T11:15:56Z</time>
      </trkpt>
      <trkpt lat="44.08402" lon="3.44039">
        <ele>1271.48</ele>
        <time>2016-08-07T11:16:17Z</time>
      </trkpt>
      <trkpt lat="44.08403" lon="3.44039">
        <ele>1271</ele>
        <time>2016-08-07T11:16:39Z</time>
      </trkpt>
      <trkpt lat="44.08403" lon="3.44039">
        <ele>1271</ele>
        <time>2016-08-07T11:16:58Z</time>
      </trkpt>
      <trkpt lat="44.08402" lon="3.44039">
        <ele>1271</ele>
        <time>2016-08-07T11:17:19Z</time>
      </trkpt>
      <trkpt lat="44.08402" lon="3.44039">
        <ele>1271</ele>
        <time>2016-08-07T11:17:39Z</time>
      </trkpt>
      <trkpt lat="44.08403" lon="3.44039">
        <ele>1271.48</ele>
        <time>2016-08-07T11:18:00Z</time>
      </trkpt>
      <trkpt lat="44.08403" lon="3.44039">
        <ele>1271.48</ele>
        <time>2016-08-07T11:18:22Z</time>
      </trkpt>
      <trkpt lat="44.08403" lon="3.44039">
        <ele>1271.48</ele>
        <time>2016-08-07T11:18:46Z</time>
      </trkpt>
      <trkpt lat="44.08403" lon="3.44039">
        <ele>1271</ele>
        <time>2016-08-07T11:19:11Z</time>
      </trkpt>
      <trkpt lat="44.08403" lon="3.44039">
        <ele>1271</ele>
        <time>2016-08-07T11:19:36Z</time>
      </trkpt>
      <trkpt lat="44.08403" lon="3.44039">
        <ele>1271.48</ele>
        <time>2016-08-07T11:19:57Z</time>
      </trkpt>
      <trkpt lat="44.08403" lon="3.44039">
        <ele>1271</ele>
        <time>2016-08-07T11:20:18Z</time>
      </trkpt>
      <trkpt lat="44.08403" lon="3.44039">
        <ele>1271</ele>
        <time>2016-08-07T11:20:34Z</time>
      </trkpt>
      <trkpt lat="44.08403" lon="3.44039">
        <ele>1271</ele>
        <time>2016-08-07T11:20:50Z</time>
      </trkpt>
      <trkpt lat="44.08403" lon="3.44039">
        <ele>1271</ele>
        <time>2016-08-07T11:21:02Z</time>
      </trkpt>
      <trkpt lat="44.08403" lon="3.44039">
        <ele>1271</ele>
        <time>2016-08-07T11:21:22Z</time>
      </trkpt>
      <trkpt lat="44.08403" lon="3.44039">
        <ele>1271</ele>
        <time>2016-08-07T11:21:37Z</time>
      </trkpt>
      <trkpt lat="44.08403" lon="3.44039">
        <ele>1271</ele>
        <time>2016-08-07T11:21:53Z</time>
      </trkpt>
      <trkpt lat="44.08403" lon="3.44039">
        <ele>1271</ele>
        <time>2016-08-07T11:22:11Z</time>
      </trkpt>
      <trkpt lat="44.08403" lon="3.44039">
        <ele>1271</ele>
        <time>2016-08-07T11:22:28Z</time>
      </trkpt>
      <trkpt lat="44.08403" lon="3.44039">
        <ele>1271.48</ele>
        <time>2016-08-07T11:22:41Z</time>
      </trkpt>
      <trkpt lat="44.08403" lon="3.44039">
        <ele>1271.48</ele>
        <time>2016-08-07T11:23:01Z</time>
      </trkpt>
      <trkpt lat="44.08403" lon="3.44039">
        <ele>1271.96</ele>
        <time>2016-08-07T11:23:16Z</time>
      </trkpt>
      <trkpt lat="44.08403" lon="3.44039">
        <ele>1271.96</ele>
        <time>2016-08-07T11:23:36Z</time>
      </trkpt>
      <trkpt lat="44.08402" lon="3.4404">
        <ele>1272.44</ele>
        <time>2016-08-07T11:23:58Z</time>
      </trkpt>
      <trkpt lat="44.08402" lon="3.4404">
        <ele>1272.44</ele>
        <time>2016-08-07T11:24:20Z</time>
      </trkpt>
      <trkpt lat="44.08403" lon="3.4404">
        <ele>1272.44</ele>
        <time>2016-08-07T11:24:45Z</time>
      </trkpt>
      <trkpt lat="44.08403" lon="3.4404">
        <ele>1272.44</ele>
        <time>2016-08-07T11:25:08Z</time>
      </trkpt>
      <trkpt lat="44.08404" lon="3.44039">
        <ele>1271.96</ele>
        <time>2016-08-07T11:25:26Z</time>
      </trkpt>
      <trkpt lat="44.08404" lon="3.44039">
        <ele>1271.96</ele>
        <time>2016-08-07T11:25:48Z</time>
      </trkpt>
      <trkpt lat="44.08404" lon="3.44039">
        <ele>1271.96</ele>
        <time>2016-08-07T11:26:10Z</time>
      </trkpt>
      <trkpt lat="44.08404" lon="3.44039">
        <ele>1272.44</ele>
        <time>2016-08-07T11:26:29Z</time>
      </trkpt>
      <trkpt lat="44.08404" lon="3.44039">
        <ele>1272.44</ele>
        <time>2016-08-07T11:26:45Z</time>
      </trkpt>
      <trkpt lat="44.08404" lon="3.44039">
        <ele>1272.44</ele>
        <time>2016-08-07T11:27:04Z</time>
      </trkpt>
      <trkpt lat="44.08404" lon="3.44039">
        <ele>1272.44</ele>
        <time>2016-08-07T11:27:25Z</time>
      </trkpt>
      <trkpt lat="44.08405" lon="3.44039">
        <ele>1272.44</ele>
        <time>2016-08-07T11:27:35Z</time>
      </trkpt>
      <trkpt lat="44.08405" lon="3.44039">
        <ele>1272.44</ele>
        <time>2016-08-07T11:27:49Z</time>
      </trkpt>
      <trkpt lat="44.08405" lon="3.44039">
        <ele>1272.44</ele>
        <time>2016-08-07T11:28:06Z</time>
      </trkpt>
      <trkpt lat="44.08403" lon="3.44041">
        <ele>1273.4</ele>
        <time>2016-08-07T11:28:17Z</time>
      </trkpt>
      <trkpt lat="44.08403" lon="3.44041">
        <ele>1273.4</ele>
        <time>2016-08-07T11:28:33Z</time>
      </trkpt>
      <trkpt lat="44.08403" lon="3.44042">
        <ele>1273.88</ele>
        <time>2016-08-07T11:28:48Z</time>
      </trkpt>
      <trkpt lat="44.08403" lon="3.44042">
        <ele>1273.88</ele>
        <time>2016-08-07T11:29:02Z</time>
      </trkpt>
      <trkpt lat="44.08403" lon="3.44042">
        <ele>1273.88</ele>
        <time>2016-08-07T11:29:16Z</time>
      </trkpt>
      <trkpt lat="44.08404" lon="3.44042">
        <ele>1273.4</ele>
        <time>2016-08-07T11:29:31Z</time>
      </trkpt>
      <trkpt lat="44.08404" lon="3.44042">
        <ele>1273.4</ele>
        <time>2016-08-07T11:29:46Z</time>
      </trkpt>
      <trkpt lat="44.08404" lon="3.44042">
        <ele>1273.4</ele>
        <time>2016-08-07T11:30:00Z</time>
      </trkpt>
      <trkpt lat="44.08404" lon="3.44042">
        <ele>1274.36</ele>
        <time>2016-08-07T11:30:15Z</time>
      </trkpt>
      <trkpt lat="44.08404" lon="3.44042">
        <ele>1274.36</ele>
        <time>2016-08-07T11:30:29Z</time>
      </trkpt>
      <trkpt lat="44.08405" lon="3.44042">
        <ele>1274.85</ele>
        <time>2016-08-07T11:30:47Z</time>
      </trkpt>
      <trkpt lat="44.08405" lon="3.44042">
        <ele>1274.85</ele>
        <time>2016-08-07T11:31:10Z</time>
      </trkpt>
      <trkpt lat="44.08405" lon="3.44042">
        <ele>1275.33</ele>
        <time>2016-08-07T11:31:27Z</time>
      </trkpt>
      <trkpt lat="44.08405" lon="3.44042">
        <ele>1275.33</ele>
        <time>2016-08-07T11:31:45Z</time>
      </trkpt>
      <trkpt lat="44.08406" lon="3.44042">
        <ele>1275.81</ele>
        <time>2016-08-07T11:32:08Z</time>
      </trkpt>
      <trkpt lat="44.08406" lon="3.44042">
        <ele>1275.81</ele>
        <time>2016-08-07T11:32:27Z</time>
      </trkpt>
      <trkpt lat="44.08406" lon="3.44042">
        <ele>1275.81</ele>
        <time>2016-08-07T11:32:48Z</time>
      </trkpt>
      <trkpt lat="44.08406" lon="3.44042">
        <ele>1275.81</ele>
        <time>2016-08-07T11:33:10Z</time>
      </trkpt>
      <trkpt lat="44.08406" lon="3.44042">
        <ele>1275.81</ele>
        <time>2016-08-07T11:33:29Z</time>
      </trkpt>
      <trkpt lat="44.08406" lon="3.44042">
        <ele>1275.81</ele>
        <time>2016-08-07T11:33:47Z</time>
      </trkpt>
      <trkpt lat="44.08406" lon="3.44042">
        <ele>1275.81</ele>
        <time>2016-08-07T11:34:00Z</time>
      </trkpt>
      <trkpt lat="44.08406" lon="3.44042">
        <ele>1276.29</ele>
        <time>2016-08-07T11:34:15Z</time>
      </trkpt>
      <trkpt lat="44.08406" lon="3.44042">
        <ele>1276.29</ele>
        <time>2016-08-07T11:34:34Z</time>
      </trkpt>
      <trkpt lat="44.08406" lon="3.44042">
        <ele>1275.81</ele>
        <time>2016-08-07T11:34:56Z</time>
      </trkpt>
      <trkpt lat="44.08406" lon="3.44042">
        <ele>1275.81</ele>
        <time>2016-08-07T11:35:22Z</time>
      </trkpt>
      <trkpt lat="44.08406" lon="3.44041">
        <ele>1275.81</ele>
        <time>2016-08-07T11:35:37Z</time>
      </trkpt>
      <trkpt lat="44.08407" lon="3.44041">
        <ele>1276.29</ele>
        <time>2016-08-07T11:36:02Z</time>
      </trkpt>
      <trkpt lat="44.08406" lon="3.4404">
        <ele>1276.29</ele>
        <time>2016-08-07T11:36:19Z</time>
      </trkpt>
      <trkpt lat="44.08406" lon="3.4404">
        <ele>1276.29</ele>
        <time>2016-08-07T11:36:33Z</time>
      </trkpt>
      <trkpt lat="44.08406" lon="3.4404">
        <ele>1277.25</ele>
        <time>2016-08-07T11:36:49Z</time>
      </trkpt>
      <trkpt lat="44.08406" lon="3.4404">
        <ele>1277.25</ele>
        <time>2016-08-07T11:37:02Z</time>
      </trkpt>
      <trkpt lat="44.08406" lon="3.4404">
        <ele>1277.25</ele>
        <time>2016-08-07T11:37:24Z</time>
      </trkpt>
      <trkpt lat="44.08406" lon="3.4404">
        <ele>1277.73</ele>
        <time>2016-08-07T11:37:37Z</time>
      </trkpt>
      <trkpt lat="44.08407" lon="3.4404">
        <ele>1278.69</ele>
        <time>2016-08-07T11:37:47Z</time>
      </trkpt>
      <trkpt lat="44.08407" lon="3.4404">
        <ele>1278.69</ele>
        <time>2016-08-07T11:38:09Z</time>
      </trkpt>
      <trkpt lat="44.08407" lon="3.4404">
        <ele>1278.69</ele>
        <time>2016-08-07T11:38:27Z</time>
      </trkpt>
      <trkpt lat="44.08406" lon="3.4404">
        <ele>1278.69</ele>
        <time>2016-08-07T11:38:44Z</time>
      </trkpt>
      <trkpt lat="44.08406" lon="3.44039">
        <ele>1278.69</ele>
        <time>2016-08-07T11:38:53Z</time>
      </trkpt>
      <trkpt lat="44.08406" lon="3.4404">
        <ele>1278.69</ele>
        <time>2016-08-07T11:39:04Z</time>
      </trkpt>
      <trkpt lat="44.08406" lon="3.4404">
        <ele>1278.69</ele>
        <time>2016-08-07T11:39:19Z</time>
      </trkpt>
      <trkpt lat="44.08406" lon="3.4404">
        <ele>1278.69</ele>
        <time>2016-08-07T11:39:35Z</time>
      </trkpt>
      <trkpt lat="44.08406" lon="3.4404">
        <ele>1279.17</ele>
        <time>2016-08-07T11:39:47Z</time>
      </trkpt>
      <trkpt lat="44.08406" lon="3.4404">
        <ele>1279.17</ele>
        <time>2016-08-07T11:39:59Z</time>
      </trkpt>
      <trkpt lat="44.08406" lon="3.4404">
        <ele>1279.17</ele>
        <time>2016-08-07T11:40:15Z</time>
      </trkpt>
      <trkpt lat="44.08406" lon="3.4404">
        <ele>1279.17</ele>
        <time>2016-08-07T11:40:31Z</time>
      </trkpt>
      <trkpt lat="44.08406" lon="3.4404">
        <ele>1278.69</ele>
        <time>2016-08-07T11:40:51Z</time>
      </trkpt>
      <trkpt lat="44.08405" lon="3.44039">
        <ele>1278.69</ele>
        <time>2016-08-07T11:41:01Z</time>
      </trkpt>
      <trkpt lat="44.08405" lon="3.44039">
        <ele>1278.69</ele>
        <time>2016-08-07T11:41:18Z</time>
      </trkpt>
      <trkpt lat="44.08405" lon="3.4404">
        <ele>1278.69</ele>
        <time>2016-08-07T11:41:36Z</time>
      </trkpt>
      <trkpt lat="44.08406" lon="3.4404">
        <ele>1278.69</ele>
        <time>2016-08-07T11:41:46Z</time>
      </trkpt>
      <trkpt lat="44.08405" lon="3.4404">
        <ele>1278.69</ele>
        <time>2016-08-07T11:42:03Z</time>
      </trkpt>
      <trkpt lat="44.08405" lon="3.4404">
        <ele>1278.69</ele>
        <time>2016-08-07T11:42:13Z</time>
      </trkpt>
      <trkpt lat="44.08405" lon="3.4404">
        <ele>1278.69</ele>
        <time>2016-08-07T11:42:27Z</time>
      </trkpt>
      <trkpt lat="44.08405" lon="3.4404">
        <ele>1278.69</ele>
        <time>2016-08-07T11:42:35Z</time>
      </trkpt>
      <trkpt lat="44.08405" lon="3.44041">
        <ele>1278.69</ele>
        <time>2016-08-07T11:42:41Z</time>
      </trkpt>
      <trkpt lat="44.08405" lon="3.44041">
        <ele>1278.69</ele>
        <time>2016-08-07T11:42:53Z</time>
      </trkpt>
      <trkpt lat="44.08406" lon="3.44041">
        <ele>1278.69</ele>
        <time>2016-08-07T11:43:01Z</time>
      </trkpt>
      <trkpt lat="44.08406" lon="3.44041">
        <ele>1278.69</ele>
        <time>2016-08-07T11:43:09Z</time>
      </trkpt>
      <trkpt lat="44.08406" lon="3.44041">
        <ele>1278.69</ele>
        <time>2016-08-07T11:43:29Z</time>
      </trkpt>
      <trkpt lat="44.08405" lon="3.4404">
        <ele>1278.69</ele>
        <time>2016-08-07T11:43:44Z</time>
      </trkpt>
      <trkpt lat="44.08405" lon="3.4404">
        <ele>1278.69</ele>
        <time>2016-08-07T11:43:55Z</time>
      </trkpt>
      <trkpt lat="44.08405" lon="3.4404">
        <ele>1278.69</ele>
        <time>2016-08-07T11:44:13Z</time>
      </trkpt>
      <trkpt lat="44.08405" lon="3.4404">
        <ele>1279.17</ele>
        <time>2016-08-07T11:44:32Z</time>
      </trkpt>
      <trkpt lat="44.08405" lon="3.4404">
        <ele>1279.17</ele>
        <time>2016-08-07T11:44:52Z</time>
      </trkpt>
      <trkpt lat="44.08405" lon="3.4404">
        <ele>1279.65</ele>
        <time>2016-08-07T11:45:09Z</time>
      </trkpt>
      <trkpt lat="44.08405" lon="3.4404">
        <ele>1279.65</ele>
        <time>2016-08-07T11:45:27Z</time>
      </trkpt>
      <trkpt lat="44.08405" lon="3.4404">
        <ele>1279.65</ele>
        <time>2016-08-07T11:45:43Z</time>
      </trkpt>
      <trkpt lat="44.08405" lon="3.4404">
        <ele>1279.65</ele>
        <time>2016-08-07T11:45:59Z</time>
      </trkpt>
      <trkpt lat="44.08406" lon="3.4404">
        <ele>1280.13</ele>
        <time>2016-08-07T11:46:17Z</time>
      </trkpt>
      <trkpt lat="44.08406" lon="3.4404">
        <ele>1280.13</ele>
        <time>2016-08-07T11:46:32Z</time>
      </trkpt>
      <trkpt lat="44.08406" lon="3.4404">
        <ele>1280.13</ele>
        <time>2016-08-07T11:46:47Z</time>
      </trkpt>
      <trkpt lat="44.08406" lon="3.4404">
        <ele>1280.13</ele>
        <time>2016-08-07T11:47:02Z</time>
      </trkpt>
      <trkpt lat="44.08406" lon="3.4404">
        <ele>1280.13</ele>
        <time>2016-08-07T11:47:14Z</time>
      </trkpt>
      <trkpt lat="44.08406" lon="3.4404">
        <ele>1280.13</ele>
        <time>2016-08-07T11:47:29Z</time>
      </trkpt>
      <trkpt lat="44.08406" lon="3.4404">
        <ele>1280.13</ele>
        <time>2016-08-07T11:47:47Z</time>
      </trkpt>
      <trkpt lat="44.08406" lon="3.4404">
        <ele>1280.13</ele>
        <time>2016-08-07T11:48:03Z</time>
      </trkpt>
      <trkpt lat="44.08405" lon="3.4404">
        <ele>1280.13</ele>
        <time>2016-08-07T11:48:16Z</time>
      </trkpt>
      <trkpt lat="44.08405" lon="3.4404">
        <ele>1280.13</ele>
        <time>2016-08-07T11:48:34Z</time>
      </trkpt>
      <trkpt lat="44.08405" lon="3.4404">
        <ele>1280.13</ele>
        <time>2016-08-07T11:48:51Z</time>
      </trkpt>
      <trkpt lat="44.08405" lon="3.4404">
        <ele>1280.13</ele>
        <time>2016-08-07T11:49:16Z</time>
      </trkpt>
      <trkpt lat="44.08405" lon="3.4404">
        <ele>1280.13</ele>
        <time>2016-08-07T11:49:30Z</time>
      </trkpt>
      <trkpt lat="44.08405" lon="3.4404">
        <ele>1279.65</ele>
        <time>2016-08-07T11:49:42Z</time>
      </trkpt>
      <trkpt lat="44.08405" lon="3.4404">
        <ele>1279.65</ele>
        <time>2016-08-07T11:50:00Z</time>
      </trkpt>
      <trkpt lat="44.08406" lon="3.44038">
        <ele>1279.65</ele>
        <time>2016-08-07T11:50:15Z</time>
      </trkpt>
      <trkpt lat="44.08406" lon="3.44038">
        <ele>1279.65</ele>
        <time>2016-08-07T11:50:35Z</time>
      </trkpt>
      <trkpt lat="44.08406" lon="3.44038">
        <ele>1279.65</ele>
        <time>2016-08-07T11:50:46Z</time>
      </trkpt>
      <trkpt lat="44.08405" lon="3.44039">
        <ele>1280.13</ele>
        <time>2016-08-07T11:51:06Z</time>
      </trkpt>
      <trkpt lat="44.08405" lon="3.44039">
        <ele>1280.13</ele>
        <time>2016-08-07T11:51:24Z</time>
      </trkpt>
      <trkpt lat="44.08406" lon="3.44038">
        <ele>1279.65</ele>
        <time>2016-08-07T11:51:44Z</time>
      </trkpt>
      <trkpt lat="44.08406" lon="3.44038">
        <ele>1279.65</ele>
        <time>2016-08-07T11:52:05Z</time>
      </trkpt>
      <trkpt lat="44.08405" lon="3.44038">
        <ele>1279.65</ele>
        <time>2016-08-07T11:52:22Z</time>
      </trkpt>
      <trkpt lat="44.08405" lon="3.44038">
        <ele>1279.65</ele>
        <time>2016-08-07T11:52:33Z</time>
      </trkpt>
      <trkpt lat="44.08405" lon="3.44038">
        <ele>1279.65</ele>
        <time>2016-08-07T11:52:52Z</time>
      </trkpt>
      <trkpt lat="44.08405" lon="3.44038">
        <ele>1279.65</ele>
        <time>2016-08-07T11:53:08Z</time>
      </trkpt>
      <trkpt lat="44.08405" lon="3.44038">
        <ele>1279.65</ele>
        <time>2016-08-07T11:53:27Z</time>
      </trkpt>
      <trkpt lat="44.08405" lon="3.44038">
        <ele>1280.13</ele>
        <time>2016-08-07T11:53:41Z</time>
      </trkpt>
      <trkpt lat="44.08405" lon="3.44038">
        <ele>1280.13</ele>
        <time>2016-08-07T11:54:01Z</time>
      </trkpt>
      <trkpt lat="44.08405" lon="3.44037">
        <ele>1280.13</ele>
        <time>2016-08-07T11:54:21Z</time>
      </trkpt>
      <trkpt lat="44.08405" lon="3.44037">
        <ele>1280.13</ele>
        <time>2016-08-07T11:54:43Z</time>
      </trkpt>
      <trkpt lat="44.08405" lon="3.44038">
        <ele>1280.13</ele>
        <time>2016-08-07T11:54:58Z</time>
      </trkpt>
      <trkpt lat="44.08404" lon="3.44038">
        <ele>1280.13</ele>
        <time>2016-08-07T11:55:06Z</time>
      </trkpt>
      <trkpt lat="44.08404" lon="3.44038">
        <ele>1280.13</ele>
        <time>2016-08-07T11:55:24Z</time>
      </trkpt>
      <trkpt lat="44.08404" lon="3.44038">
        <ele>1280.13</ele>
        <time>2016-08-07T11:55:32Z</time>
      </trkpt>
      <trkpt lat="44.08404" lon="3.44038">
        <ele>1280.13</ele>
        <time>2016-08-07T11:55:43Z</time>
      </trkpt>
      <trkpt lat="44.08404" lon="3.44038">
        <ele>1280.13</ele>
        <time>2016-08-07T11:55:58Z</time>
      </trkpt>
      <trkpt lat="44.08403" lon="3.44038">
        <ele>1280.13</ele>
        <time>2016-08-07T11:56:13Z</time>
      </trkpt>
      <trkpt lat="44.08403" lon="3.44038">
        <ele>1280.13</ele>
        <time>2016-08-07T11:56:28Z</time>
      </trkpt>
      <trkpt lat="44.08403" lon="3.44038">
        <ele>1280.13</ele>
        <time>2016-08-07T11:56:45Z</time>
      </trkpt>
      <trkpt lat="44.08403" lon="3.44038">
        <ele>1280.13</ele>
        <time>2016-08-07T11:57:02Z</time>
      </trkpt>
      <trkpt lat="44.08403" lon="3.44038">
        <ele>1280.13</ele>
        <time>2016-08-07T11:57:14Z</time>
      </trkpt>
      <trkpt lat="44.08401" lon="3.44035">
        <ele>1279.17</ele>
        <time>2016-08-07T11:57:21Z</time>
      </trkpt>
      <trkpt lat="44.084" lon="3.44034">
        <ele>1278.69</ele>
        <time>2016-08-07T11:57:31Z</time>
      </trkpt>
      <trkpt lat="44.08397" lon="3.44033">
        <ele>1276.77</ele>
        <time>2016-08-07T11:57:39Z</time>
      </trkpt>
      <trkpt lat="44.08394" lon="3.44033">
        <ele>1275.81</ele>
        <time>2016-08-07T11:57:45Z</time>
      </trkpt>
      <trkpt lat="44.08386" lon="3.44034">
        <ele>1274.36</ele>
        <time>2016-08-07T11:57:54Z</time>
      </trkpt>
      <trkpt lat="44.0838" lon="3.44031">
        <ele>1276.77</ele>
        <time>2016-08-07T11:58:02Z</time>
      </trkpt>
      <trkpt lat="44.08381" lon="3.44031">
        <ele>1276.77</ele>
        <time>2016-08-07T11:58:15Z</time>
      </trkpt>
      <trkpt lat="44.08381" lon="3.44031">
        <ele>1276.77</ele>
        <time>2016-08-07T11:58:28Z</time>
      </trkpt>
      <trkpt lat="44.08381" lon="3.44031">
        <ele>1276.77</ele>
        <time>2016-08-07T11:58:39Z</time>
      </trkpt>
      <trkpt lat="44.08379" lon="3.44032">
        <ele>1276.77</ele>
        <time>2016-08-07T11:58:49Z</time>
      </trkpt>
      <trkpt lat="44.08373" lon="3.44035">
        <ele>1277.73</ele>
        <time>2016-08-07T11:58:57Z</time>
      </trkpt>
      <trkpt lat="44.08372" lon="3.44035">
        <ele>1277.73</ele>
        <time>2016-08-07T11:58:58Z</time>
      </trkpt>
      <trkpt lat="44.08368" lon="3.44035">
        <ele>1278.21</ele>
        <time>2016-08-07T11:59:04Z</time>
      </trkpt>
      <trkpt lat="44.08364" lon="3.44036">
        <ele>1278.69</ele>
        <time>2016-08-07T11:59:11Z</time>
      </trkpt>
      <trkpt lat="44.08358" lon="3.44038">
        <ele>1279.17</ele>
        <time>2016-08-07T11:59:18Z</time>
      </trkpt>
      <trkpt lat="44.08353" lon="3.44037">
        <ele>1279.17</ele>
        <time>2016-08-07T11:59:23Z</time>
      </trkpt>
      <trkpt lat="44.08345" lon="3.4404">
        <ele>1279.65</ele>
        <time>2016-08-07T11:59:31Z</time>
      </trkpt>
      <trkpt lat="44.08343" lon="3.44043">
        <ele>1279.17</ele>
        <time>2016-08-07T11:59:34Z</time>
      </trkpt>
      <trkpt lat="44.08342" lon="3.44044">
        <ele>1278.69</ele>
        <time>2016-08-07T11:59:36Z</time>
      </trkpt>
      <trkpt lat="44.08336" lon="3.44048">
        <ele>1279.65</ele>
        <time>2016-08-07T11:59:42Z</time>
      </trkpt>
      <trkpt lat="44.08329" lon="3.44052">
        <ele>1279.65</ele>
        <time>2016-08-07T11:59:50Z</time>
      </trkpt>
      <trkpt lat="44.08323" lon="3.44054">
        <ele>1279.17</ele>
        <time>2016-08-07T11:59:57Z</time>
      </trkpt>
      <trkpt lat="44.08321" lon="3.44054">
        <ele>1279.17</ele>
        <time>2016-08-07T11:59:59Z</time>
      </trkpt>
      <trkpt lat="44.0831" lon="3.4406">
        <ele>1280.13</ele>
        <time>2016-08-07T12:00:08Z</time>
      </trkpt>
      <trkpt lat="44.08308" lon="3.44061">
        <ele>1280.13</ele>
        <time>2016-08-07T12:00:10Z</time>
      </trkpt>
      <trkpt lat="44.083" lon="3.44068">
        <ele>1279.65</ele>
        <time>2016-08-07T12:00:18Z</time>
      </trkpt>
      <trkpt lat="44.08299" lon="3.44069">
        <ele>1279.65</ele>
        <time>2016-08-07T12:00:19Z</time>
      </trkpt>
      <trkpt lat="44.08293" lon="3.4407">
        <ele>1280.13</ele>
        <time>2016-08-07T12:00:24Z</time>
      </trkpt>
      <trkpt lat="44.08283" lon="3.4408">
        <ele>1283.5</ele>
        <time>2016-08-07T12:00:33Z</time>
      </trkpt>
      <trkpt lat="44.08281" lon="3.44081">
        <ele>1283.98</ele>
        <time>2016-08-07T12:00:35Z</time>
      </trkpt>
      <trkpt lat="44.08274" lon="3.4409">
        <ele>1283.98</ele>
        <time>2016-08-07T12:00:43Z</time>
      </trkpt>
      <trkpt lat="44.08269" lon="3.44097">
        <ele>1283.5</ele>
        <time>2016-08-07T12:00:49Z</time>
      </trkpt>
      <trkpt lat="44.08267" lon="3.441">
        <ele>1283.02</ele>
        <time>2016-08-07T12:00:52Z</time>
      </trkpt>
      <trkpt lat="44.08264" lon="3.44105">
        <ele>1283.5</ele>
        <time>2016-08-07T12:00:57Z</time>
      </trkpt>
      <trkpt lat="44.08259" lon="3.4411">
        <ele>1283.02</ele>
        <time>2016-08-07T12:01:04Z</time>
      </trkpt>
      <trkpt lat="44.08258" lon="3.44113">
        <ele>1282.54</ele>
        <time>2016-08-07T12:01:13Z</time>
      </trkpt>
      <trkpt lat="44.08258" lon="3.44113">
        <ele>1282.54</ele>
        <time>2016-08-07T12:01:20Z</time>
      </trkpt>
      <trkpt lat="44.08256" lon="3.44114">
        <ele>1282.06</ele>
        <time>2016-08-07T12:01:26Z</time>
      </trkpt>
      <trkpt lat="44.08255" lon="3.44116">
        <ele>1282.06</ele>
        <time>2016-08-07T12:01:28Z</time>
      </trkpt>
      <trkpt lat="44.08252" lon="3.44121">
        <ele>1282.06</ele>
        <time>2016-08-07T12:01:32Z</time>
      </trkpt>
      <trkpt lat="44.08245" lon="3.4413">
        <ele>1282.06</ele>
        <time>2016-08-07T12:01:41Z</time>
      </trkpt>
      <trkpt lat="44.08238" lon="3.44135">
        <ele>1282.06</ele>
        <time>2016-08-07T12:01:49Z</time>
      </trkpt>
      <trkpt lat="44.08237" lon="3.44135">
        <ele>1282.06</ele>
        <time>2016-08-07T12:01:50Z</time>
      </trkpt>
      <trkpt lat="44.08229" lon="3.44147">
        <ele>1281.09</ele>
        <time>2016-08-07T12:02:01Z</time>
      </trkpt>
      <trkpt lat="44.08229" lon="3.44148">
        <ele>1280.61</ele>
        <time>2016-08-07T12:02:02Z</time>
      </trkpt>
      <trkpt lat="44.08227" lon="3.4416">
        <ele>1278.69</ele>
        <time>2016-08-07T12:02:10Z</time>
      </trkpt>
      <trkpt lat="44.08228" lon="3.44171">
        <ele>1276.77</ele>
        <time>2016-08-07T12:02:18Z</time>
      </trkpt>
      <trkpt lat="44.08228" lon="3.44172">
        <ele>1276.77</ele>
        <time>2016-08-07T12:02:19Z</time>
      </trkpt>
      <trkpt lat="44.08229" lon="3.44177">
        <ele>1277.73</ele>
        <time>2016-08-07T12:02:23Z</time>
      </trkpt>
      <trkpt lat="44.08229" lon="3.44185">
        <ele>1277.73</ele>
        <time>2016-08-07T12:02:28Z</time>
      </trkpt>
      <trkpt lat="44.08232" lon="3.4419">
        <ele>1276.77</ele>
        <time>2016-08-07T12:02:32Z</time>
      </trkpt>
      <trkpt lat="44.08233" lon="3.44201">
        <ele>1275.33</ele>
        <time>2016-08-07T12:02:39Z</time>
      </trkpt>
      <trkpt lat="44.08233" lon="3.44205">
        <ele>1274.85</ele>
        <time>2016-08-07T12:02:47Z</time>
      </trkpt>
      <trkpt lat="44.08234" lon="3.44209">
        <ele>1274.85</ele>
        <time>2016-08-07T12:02:55Z</time>
      </trkpt>
      <trkpt lat="44.08235" lon="3.44218">
        <ele>1273.88</ele>
        <time>2016-08-07T12:03:04Z</time>
      </trkpt>
      <trkpt lat="44.08235" lon="3.4422">
        <ele>1273.4</ele>
        <time>2016-08-07T12:03:06Z</time>
      </trkpt>
      <trkpt lat="44.08239" lon="3.4423">
        <ele>1271</ele>
        <time>2016-08-07T12:03:15Z</time>
      </trkpt>
      <trkpt lat="44.0824" lon="3.44235">
        <ele>1269.56</ele>
        <time>2016-08-07T12:03:20Z</time>
      </trkpt>
      <trkpt lat="44.0824" lon="3.44242">
        <ele>1269.56</ele>
        <time>2016-08-07T12:03:25Z</time>
      </trkpt>
      <trkpt lat="44.08234" lon="3.44242">
        <ele>1269.08</ele>
        <time>2016-08-07T12:03:31Z</time>
      </trkpt>
      <trkpt lat="44.08232" lon="3.4424">
        <ele>1269.08</ele>
        <time>2016-08-07T12:03:33Z</time>
      </trkpt>
      <trkpt lat="44.08229" lon="3.44235">
        <ele>1268.12</ele>
        <time>2016-08-07T12:03:37Z</time>
      </trkpt>
      <trkpt lat="44.08225" lon="3.4423">
        <ele>1266.67</ele>
        <time>2016-08-07T12:03:44Z</time>
      </trkpt>
      <trkpt lat="44.0822" lon="3.44226">
        <ele>1265.71</ele>
        <time>2016-08-07T12:03:50Z</time>
      </trkpt>
      <trkpt lat="44.08217" lon="3.44223">
        <ele>1265.23</ele>
        <time>2016-08-07T12:03:55Z</time>
      </trkpt>
      <trkpt lat="44.08213" lon="3.44219">
        <ele>1264.75</ele>
        <time>2016-08-07T12:04:02Z</time>
      </trkpt>
      <trkpt lat="44.08212" lon="3.44218">
        <ele>1264.27</ele>
        <time>2016-08-07T12:04:04Z</time>
      </trkpt>
      <trkpt lat="44.0821" lon="3.44214">
        <ele>1264.27</ele>
        <time>2016-08-07T12:04:08Z</time>
      </trkpt>
      <trkpt lat="44.08204" lon="3.44209">
        <ele>1264.27</ele>
        <time>2016-08-07T12:04:14Z</time>
      </trkpt>
      <trkpt lat="44.08202" lon="3.44206">
        <ele>1263.31</ele>
        <time>2016-08-07T12:04:21Z</time>
      </trkpt>
      <trkpt lat="44.08197" lon="3.44208">
        <ele>1262.35</ele>
        <time>2016-08-07T12:04:28Z</time>
      </trkpt>
      <trkpt lat="44.08199" lon="3.44216">
        <ele>1259.46</ele>
        <time>2016-08-07T12:04:35Z</time>
      </trkpt>
      <trkpt lat="44.082" lon="3.44221">
        <ele>1257.54</ele>
        <time>2016-08-07T12:04:40Z</time>
      </trkpt>
      <trkpt lat="44.08201" lon="3.44228">
        <ele>1257.06</ele>
        <time>2016-08-07T12:04:46Z</time>
      </trkpt>
      <trkpt lat="44.08201" lon="3.44235">
        <ele>1256.58</ele>
        <time>2016-08-07T12:04:52Z</time>
      </trkpt>
      <trkpt lat="44.08202" lon="3.44238">
        <ele>1255.62</ele>
        <time>2016-08-07T12:04:55Z</time>
      </trkpt>
      <trkpt lat="44.08204" lon="3.44245">
        <ele>1254.18</ele>
        <time>2016-08-07T12:05:02Z</time>
      </trkpt>
      <trkpt lat="44.08206" lon="3.44254">
        <ele>1252.74</ele>
        <time>2016-08-07T12:05:09Z</time>
      </trkpt>
      <trkpt lat="44.08207" lon="3.44257">
        <ele>1252.74</ele>
        <time>2016-08-07T12:05:11Z</time>
      </trkpt>
      <trkpt lat="44.08208" lon="3.44261">
        <ele>1252.74</ele>
        <time>2016-08-07T12:05:14Z</time>
      </trkpt>
      <trkpt lat="44.08207" lon="3.44266">
        <ele>1252.74</ele>
        <time>2016-08-07T12:05:17Z</time>
      </trkpt>
      <trkpt lat="44.08208" lon="3.44268">
        <ele>1252.25</ele>
        <time>2016-08-07T12:05:19Z</time>
      </trkpt>
      <trkpt lat="44.08209" lon="3.44278">
        <ele>1248.41</ele>
        <time>2016-08-07T12:05:27Z</time>
      </trkpt>
      <trkpt lat="44.08209" lon="3.44281">
        <ele>1247.45</ele>
        <time>2016-08-07T12:05:30Z</time>
      </trkpt>
      <trkpt lat="44.08212" lon="3.44293">
        <ele>1245.53</ele>
        <time>2016-08-07T12:05:37Z</time>
      </trkpt>
      <trkpt lat="44.08212" lon="3.44296">
        <ele>1244.56</ele>
        <time>2016-08-07T12:05:39Z</time>
      </trkpt>
      <trkpt lat="44.08212" lon="3.44304">
        <ele>1243.12</ele>
        <time>2016-08-07T12:05:47Z</time>
      </trkpt>
      <trkpt lat="44.08213" lon="3.44313">
        <ele>1241.68</ele>
        <time>2016-08-07T12:05:53Z</time>
      </trkpt>
      <trkpt lat="44.08214" lon="3.44314">
        <ele>1241.68</ele>
        <time>2016-08-07T12:05:54Z</time>
      </trkpt>
      <trkpt lat="44.08212" lon="3.44326">
        <ele>1236.87</ele>
        <time>2016-08-07T12:06:03Z</time>
      </trkpt>
      <trkpt lat="44.08211" lon="3.44337">
        <ele>1235.43</ele>
        <time>2016-08-07T12:06:10Z</time>
      </trkpt>
      <trkpt lat="44.0821" lon="3.44349">
        <ele>1236.39</ele>
        <time>2016-08-07T12:06:18Z</time>
      </trkpt>
      <trkpt lat="44.08207" lon="3.44355">
        <ele>1234.95</ele>
        <time>2016-08-07T12:06:24Z</time>
      </trkpt>
      <trkpt lat="44.08205" lon="3.44369">
        <ele>1232.07</ele>
        <time>2016-08-07T12:06:33Z</time>
      </trkpt>
      <trkpt lat="44.08205" lon="3.44379">
        <ele>1230.14</ele>
        <time>2016-08-07T12:06:39Z</time>
      </trkpt>
      <trkpt lat="44.08203" lon="3.44389">
        <ele>1228.7</ele>
        <time>2016-08-07T12:06:46Z</time>
      </trkpt>
      <trkpt lat="44.08201" lon="3.44395">
        <ele>1228.22</ele>
        <time>2016-08-07T12:06:52Z</time>
      </trkpt>
      <trkpt lat="44.08201" lon="3.44398">
        <ele>1227.74</ele>
        <time>2016-08-07T12:06:54Z</time>
      </trkpt>
      <trkpt lat="44.08198" lon="3.44407">
        <ele>1227.74</ele>
        <time>2016-08-07T12:07:01Z</time>
      </trkpt>
      <trkpt lat="44.08198" lon="3.44409">
        <ele>1227.26</ele>
        <time>2016-08-07T12:07:03Z</time>
      </trkpt>
      <trkpt lat="44.08197" lon="3.44414">
        <ele>1227.74</ele>
        <time>2016-08-07T12:07:07Z</time>
      </trkpt>
      <trkpt lat="44.08195" lon="3.44415">
        <ele>1227.74</ele>
        <time>2016-08-07T12:07:09Z</time>
      </trkpt>
      <trkpt lat="44.08189" lon="3.44408">
        <ele>1226.3</ele>
        <time>2016-08-07T12:07:16Z</time>
      </trkpt>
      <trkpt lat="44.08186" lon="3.44398">
        <ele>1224.86</ele>
        <time>2016-08-07T12:07:23Z</time>
      </trkpt>
      <trkpt lat="44.08186" lon="3.44397">
        <ele>1224.86</ele>
        <time>2016-08-07T12:07:24Z</time>
      </trkpt>
      <trkpt lat="44.08182" lon="3.44389">
        <ele>1223.42</ele>
        <time>2016-08-07T12:07:30Z</time>
      </trkpt>
      <trkpt lat="44.08179" lon="3.44374">
        <ele>1221.01</ele>
        <time>2016-08-07T12:07:40Z</time>
      </trkpt>
      <trkpt lat="44.08176" lon="3.44364">
        <ele>1220.53</ele>
        <time>2016-08-07T12:07:47Z</time>
      </trkpt>
      <trkpt lat="44.08173" lon="3.44354">
        <ele>1220.05</ele>
        <time>2016-08-07T12:07:55Z</time>
      </trkpt>
      <trkpt lat="44.0817" lon="3.44353">
        <ele>1219.57</ele>
        <time>2016-08-07T12:07:59Z</time>
      </trkpt>
      <trkpt lat="44.08168" lon="3.44356">
        <ele>1218.13</ele>
        <time>2016-08-07T12:08:02Z</time>
      </trkpt>
      <trkpt lat="44.08168" lon="3.44363">
        <ele>1217.17</ele>
        <time>2016-08-07T12:08:06Z</time>
      </trkpt>
      <trkpt lat="44.08167" lon="3.44371">
        <ele>1216.69</ele>
        <time>2016-08-07T12:08:12Z</time>
      </trkpt>
      <trkpt lat="44.08163" lon="3.44382">
        <ele>1214.28</ele>
        <time>2016-08-07T12:08:20Z</time>
      </trkpt>
      <trkpt lat="44.08163" lon="3.44383">
        <ele>1213.8</ele>
        <time>2016-08-07T12:08:21Z</time>
      </trkpt>
      <trkpt lat="44.08162" lon="3.44387">
        <ele>1212.36</ele>
        <time>2016-08-07T12:08:24Z</time>
      </trkpt>
      <trkpt lat="44.08163" lon="3.44392">
        <ele>1211.88</ele>
        <time>2016-08-07T12:08:27Z</time>
      </trkpt>
      <trkpt lat="44.08163" lon="3.44395">
        <ele>1211.88</ele>
        <time>2016-08-07T12:08:29Z</time>
      </trkpt>
      <trkpt lat="44.08159" lon="3.44396">
        <ele>1211.4</ele>
        <time>2016-08-07T12:08:33Z</time>
      </trkpt>
      <trkpt lat="44.08155" lon="3.44394">
        <ele>1209.96</ele>
        <time>2016-08-07T12:08:37Z</time>
      </trkpt>
      <trkpt lat="44.08152" lon="3.44382">
        <ele>1207.07</ele>
        <time>2016-08-07T12:08:45Z</time>
      </trkpt>
      <trkpt lat="44.0815" lon="3.44376">
        <ele>1205.63</ele>
        <time>2016-08-07T12:08:51Z</time>
      </trkpt>
      <trkpt lat="44.08147" lon="3.44373">
        <ele>1205.63</ele>
        <time>2016-08-07T12:08:54Z</time>
      </trkpt>
      <trkpt lat="44.08142" lon="3.44363">
        <ele>1204.19</ele>
        <time>2016-08-07T12:09:02Z</time>
      </trkpt>
      <trkpt lat="44.08139" lon="3.44353">
        <ele>1203.71</ele>
        <time>2016-08-07T12:09:09Z</time>
      </trkpt>
      <trkpt lat="44.08135" lon="3.44347">
        <ele>1202.27</ele>
        <time>2016-08-07T12:09:15Z</time>
      </trkpt>
      <trkpt lat="44.08133" lon="3.44342">
        <ele>1201.79</ele>
        <time>2016-08-07T12:09:19Z</time>
      </trkpt>
      <trkpt lat="44.08128" lon="3.44336">
        <ele>1200.82</ele>
        <time>2016-08-07T12:09:25Z</time>
      </trkpt>
      <trkpt lat="44.08119" lon="3.44331">
        <ele>1200.34</ele>
        <time>2016-08-07T12:09:34Z</time>
      </trkpt>
      <trkpt lat="44.08114" lon="3.44327">
        <ele>1199.86</ele>
        <time>2016-08-07T12:09:40Z</time>
      </trkpt>
      <trkpt lat="44.08109" lon="3.44323">
        <ele>1198.42</ele>
        <time>2016-08-07T12:09:48Z</time>
      </trkpt>
      <trkpt lat="44.08106" lon="3.44324">
        <ele>1196.02</ele>
        <time>2016-08-07T12:09:54Z</time>
      </trkpt>
      <trkpt lat="44.08106" lon="3.44325">
        <ele>1196.02</ele>
        <time>2016-08-07T12:09:55Z</time>
      </trkpt>
      <trkpt lat="44.08107" lon="3.4433">
        <ele>1194.58</ele>
        <time>2016-08-07T12:09:58Z</time>
      </trkpt>
      <trkpt lat="44.08109" lon="3.44331">
        <ele>1194.09</ele>
        <time>2016-08-07T12:10:00Z</time>
      </trkpt>
      <trkpt lat="44.08109" lon="3.44336">
        <ele>1193.13</ele>
        <time>2016-08-07T12:10:03Z</time>
      </trkpt>
      <trkpt lat="44.08102" lon="3.44335">
        <ele>1191.69</ele>
        <time>2016-08-07T12:10:10Z</time>
      </trkpt>
      <trkpt lat="44.08101" lon="3.44334">
        <ele>1191.69</ele>
        <time>2016-08-07T12:10:11Z</time>
      </trkpt>
      <trkpt lat="44.08089" lon="3.44334">
        <ele>1192.17</ele>
        <time>2016-08-07T12:10:21Z</time>
      </trkpt>
      <trkpt lat="44.08088" lon="3.44334">
        <ele>1191.69</ele>
        <time>2016-08-07T12:10:23Z</time>
      </trkpt>
      <trkpt lat="44.08084" lon="3.44333">
        <ele>1190.73</ele>
        <time>2016-08-07T12:10:27Z</time>
      </trkpt>
      <trkpt lat="44.08078" lon="3.44336">
        <ele>1190.73</ele>
        <time>2016-08-07T12:10:33Z</time>
      </trkpt>
      <trkpt lat="44.08076" lon="3.44336">
        <ele>1190.25</ele>
        <time>2016-08-07T12:10:36Z</time>
      </trkpt>
      <trkpt lat="44.08073" lon="3.44336">
        <ele>1189.77</ele>
        <time>2016-08-07T12:10:39Z</time>
      </trkpt>
      <trkpt lat="44.08068" lon="3.44336">
        <ele>1187.85</ele>
        <time>2016-08-07T12:10:44Z</time>
      </trkpt>
      <trkpt lat="44.0806" lon="3.44337">
        <ele>1187.85</ele>
        <time>2016-08-07T12:10:52Z</time>
      </trkpt>
      <trkpt lat="44.08058" lon="3.44337">
        <ele>1187.85</ele>
        <time>2016-08-07T12:10:54Z</time>
      </trkpt>
      <trkpt lat="44.08054" lon="3.44337">
        <ele>1186.88</ele>
        <time>2016-08-07T12:11:00Z</time>
      </trkpt>
      <trkpt lat="44.08046" lon="3.44334">
        <ele>1184.96</ele>
        <time>2016-08-07T12:11:08Z</time>
      </trkpt>
      <trkpt lat="44.0804" lon="3.44333">
        <ele>1184.48</ele>
        <time>2016-08-07T12:11:14Z</time>
      </trkpt>
      <trkpt lat="44.08036" lon="3.44334">
        <ele>1182.56</ele>
        <time>2016-08-07T12:11:20Z</time>
      </trkpt>
      <trkpt lat="44.08044" lon="3.44345">
        <ele>1180.16</ele>
        <time>2016-08-07T12:11:28Z</time>
      </trkpt>
      <trkpt lat="44.08049" lon="3.44348">
        <ele>1179.67</ele>
        <time>2016-08-07T12:11:34Z</time>
      </trkpt>
      <trkpt lat="44.08053" lon="3.44354">
        <ele>1178.71</ele>
        <time>2016-08-07T12:11:40Z</time>
      </trkpt>
      <trkpt lat="44.08054" lon="3.44357">
        <ele>1178.23</ele>
        <time>2016-08-07T12:11:43Z</time>
      </trkpt>
      <trkpt lat="44.08058" lon="3.44363">
        <ele>1178.23</ele>
        <time>2016-08-07T12:11:50Z</time>
      </trkpt>
      <trkpt lat="44.08052" lon="3.44368">
        <ele>1177.75</ele>
        <time>2016-08-07T12:11:56Z</time>
      </trkpt>
      <trkpt lat="44.08047" lon="3.44363">
        <ele>1175.83</ele>
        <time>2016-08-07T12:12:03Z</time>
      </trkpt>
      <trkpt lat="44.08044" lon="3.44364">
        <ele>1174.87</ele>
        <time>2016-08-07T12:12:06Z</time>
      </trkpt>
      <trkpt lat="44.0804" lon="3.44362">
        <ele>1173.91</ele>
        <time>2016-08-07T12:12:12Z</time>
      </trkpt>
      <trkpt lat="44.08037" lon="3.44365">
        <ele>1172.95</ele>
        <time>2016-08-07T12:12:16Z</time>
      </trkpt>
      <trkpt lat="44.08036" lon="3.44371">
        <ele>1170.54</ele>
        <time>2016-08-07T12:12:23Z</time>
      </trkpt>
      <trkpt lat="44.08037" lon="3.44373">
        <ele>1170.06</ele>
        <time>2016-08-07T12:12:25Z</time>
      </trkpt>
      <trkpt lat="44.0804" lon="3.44373">
        <ele>1168.62</ele>
        <time>2016-08-07T12:12:28Z</time>
      </trkpt>
      <trkpt lat="44.08043" lon="3.44378">
        <ele>1167.66</ele>
        <time>2016-08-07T12:12:33Z</time>
      </trkpt>
      <trkpt lat="44.08048" lon="3.44385">
        <ele>1167.18</ele>
        <time>2016-08-07T12:12:40Z</time>
      </trkpt>
      <trkpt lat="44.08049" lon="3.44394">
        <ele>1165.26</ele>
        <time>2016-08-07T12:12:47Z</time>
      </trkpt>
      <trkpt lat="44.0805" lon="3.44399">
        <ele>1163.33</ele>
        <time>2016-08-07T12:12:53Z</time>
      </trkpt>
      <trkpt lat="44.08049" lon="3.44403">
        <ele>1162.37</ele>
        <time>2016-08-07T12:12:56Z</time>
      </trkpt>
      <trkpt lat="44.08045" lon="3.44402">
        <ele>1160.45</ele>
        <time>2016-08-07T12:13:02Z</time>
      </trkpt>
      <trkpt lat="44.08041" lon="3.44399">
        <ele>1159.01</ele>
        <time>2016-08-07T12:13:09Z</time>
      </trkpt>
      <trkpt lat="44.08038" lon="3.44399">
        <ele>1158.05</ele>
        <time>2016-08-07T12:13:14Z</time>
      </trkpt>
      <trkpt lat="44.08032" lon="3.44397">
        <ele>1156.6</ele>
        <time>2016-08-07T12:13:21Z</time>
      </trkpt>
      <trkpt lat="44.08031" lon="3.44397">
        <ele>1156.12</ele>
        <time>2016-08-07T12:13:22Z</time>
      </trkpt>
      <trkpt lat="44.08024" lon="3.44394">
        <ele>1156.6</ele>
        <time>2016-08-07T12:13:29Z</time>
      </trkpt>
      <trkpt lat="44.08015" lon="3.44394">
        <ele>1156.12</ele>
        <time>2016-08-07T12:13:36Z</time>
      </trkpt>
      <trkpt lat="44.08011" lon="3.44391">
        <ele>1154.68</ele>
        <time>2016-08-07T12:13:43Z</time>
      </trkpt>
      <trkpt lat="44.08007" lon="3.4439">
        <ele>1153.24</ele>
        <time>2016-08-07T12:13:49Z</time>
      </trkpt>
      <trkpt lat="44.08003" lon="3.44392">
        <ele>1152.28</ele>
        <time>2016-08-07T12:13:54Z</time>
      </trkpt>
      <trkpt lat="44.07999" lon="3.44391">
        <ele>1151.32</ele>
        <time>2016-08-07T12:13:58Z</time>
      </trkpt>
      <trkpt lat="44.07991" lon="3.44393">
        <ele>1150.35</ele>
        <time>2016-08-07T12:14:06Z</time>
      </trkpt>
      <trkpt lat="44.07986" lon="3.44399">
        <ele>1148.43</ele>
        <time>2016-08-07T12:14:14Z</time>
      </trkpt>
      <trkpt lat="44.07981" lon="3.444">
        <ele>1146.99</ele>
        <time>2016-08-07T12:14:21Z</time>
      </trkpt>
      <trkpt lat="44.07975" lon="3.44407">
        <ele>1145.55</ele>
        <time>2016-08-07T12:14:29Z</time>
      </trkpt>
      <trkpt lat="44.0797" lon="3.44412">
        <ele>1143.63</ele>
        <time>2016-08-07T12:14:36Z</time>
      </trkpt>
      <trkpt lat="44.07968" lon="3.44415">
        <ele>1143.63</ele>
        <time>2016-08-07T12:14:39Z</time>
      </trkpt>
      <trkpt lat="44.07965" lon="3.44421">
        <ele>1143.63</ele>
        <time>2016-08-07T12:14:44Z</time>
      </trkpt>
      <trkpt lat="44.0796" lon="3.44421">
        <ele>1144.59</ele>
        <time>2016-08-07T12:14:47Z</time>
      </trkpt>
      <trkpt lat="44.07953" lon="3.44416">
        <ele>1144.59</ele>
        <time>2016-08-07T12:14:55Z</time>
      </trkpt>
      <trkpt lat="44.07951" lon="3.44412">
        <ele>1144.11</ele>
        <time>2016-08-07T12:14:58Z</time>
      </trkpt>
      <trkpt lat="44.07948" lon="3.44403">
        <ele>1144.11</ele>
        <time>2016-08-07T12:15:05Z</time>
      </trkpt>
      <trkpt lat="44.07946" lon="3.444">
        <ele>1142.18</ele>
        <time>2016-08-07T12:15:11Z</time>
      </trkpt>
      <trkpt lat="44.07941" lon="3.44395">
        <ele>1138.34</ele>
        <time>2016-08-07T12:15:19Z</time>
      </trkpt>
      <trkpt lat="44.07939" lon="3.44394">
        <ele>1136.9</ele>
        <time>2016-08-07T12:15:25Z</time>
      </trkpt>
      <trkpt lat="44.07937" lon="3.44392">
        <ele>1136.42</ele>
        <time>2016-08-07T12:15:28Z</time>
      </trkpt>
      <trkpt lat="44.07927" lon="3.44389">
        <ele>1134.97</ele>
        <time>2016-08-07T12:15:35Z</time>
      </trkpt>
      <trkpt lat="44.07917" lon="3.44391">
        <ele>1133.53</ele>
        <time>2016-08-07T12:15:41Z</time>
      </trkpt>
      <trkpt lat="44.07909" lon="3.44391">
        <ele>1133.53</ele>
        <time>2016-08-07T12:15:48Z</time>
      </trkpt>
      <trkpt lat="44.079" lon="3.4439">
        <ele>1134.01</ele>
        <time>2016-08-07T12:15:55Z</time>
      </trkpt>
      <trkpt lat="44.07899" lon="3.4439">
        <ele>1133.53</ele>
        <time>2016-08-07T12:15:57Z</time>
      </trkpt>
      <trkpt lat="44.07888" lon="3.4439">
        <ele>1134.01</ele>
        <time>2016-08-07T12:16:05Z</time>
      </trkpt>
      <trkpt lat="44.07879" lon="3.44389">
        <ele>1134.97</ele>
        <time>2016-08-07T12:16:12Z</time>
      </trkpt>
      <trkpt lat="44.07876" lon="3.44389">
        <ele>1134.97</ele>
        <time>2016-08-07T12:16:14Z</time>
      </trkpt>
      <trkpt lat="44.07872" lon="3.44387">
        <ele>1134.49</ele>
        <time>2016-08-07T12:16:20Z</time>
      </trkpt>
      <trkpt lat="44.07869" lon="3.44387">
        <ele>1133.53</ele>
        <time>2016-08-07T12:16:23Z</time>
      </trkpt>
      <trkpt lat="44.07866" lon="3.44384">
        <ele>1132.57</ele>
        <time>2016-08-07T12:16:27Z</time>
      </trkpt>
      <trkpt lat="44.0786" lon="3.44383">
        <ele>1130.65</ele>
        <time>2016-08-07T12:16:33Z</time>
      </trkpt>
      <trkpt lat="44.07852" lon="3.44384">
        <ele>1128.24</ele>
        <time>2016-08-07T12:16:42Z</time>
      </trkpt>
      <trkpt lat="44.07851" lon="3.44383">
        <ele>1127.76</ele>
        <time>2016-08-07T12:16:44Z</time>
      </trkpt>
      <trkpt lat="44.07847" lon="3.44384">
        <ele>1126.32</ele>
        <time>2016-08-07T12:16:48Z</time>
      </trkpt>
      <trkpt lat="44.07837" lon="3.44385">
        <ele>1125.84</ele>
        <time>2016-08-07T12:16:55Z</time>
      </trkpt>
      <trkpt lat="44.0783" lon="3.44383">
        <ele>1125.36</ele>
        <time>2016-08-07T12:17:03Z</time>
      </trkpt>
      <trkpt lat="44.07826" lon="3.44384">
        <ele>1125.36</ele>
        <time>2016-08-07T12:17:06Z</time>
      </trkpt>
      <trkpt lat="44.07824" lon="3.44385">
        <ele>1125.36</ele>
        <time>2016-08-07T12:17:08Z</time>
      </trkpt>
      <trkpt lat="44.07818" lon="3.44383">
        <ele>1125.84</ele>
        <time>2016-08-07T12:17:13Z</time>
      </trkpt>
      <trkpt lat="44.07812" lon="3.44384">
        <ele>1126.32</ele>
        <time>2016-08-07T12:17:19Z</time>
      </trkpt>
      <trkpt lat="44.07805" lon="3.44385">
        <ele>1126.32</ele>
        <time>2016-08-07T12:17:25Z</time>
      </trkpt>
      <trkpt lat="44.07803" lon="3.44384">
        <ele>1125.84</ele>
        <time>2016-08-07T12:17:28Z</time>
      </trkpt>
      <trkpt lat="44.07796" lon="3.44386">
        <ele>1124.4</ele>
        <time>2016-08-07T12:17:34Z</time>
      </trkpt>
      <trkpt lat="44.07785" lon="3.44381">
        <ele>1122.96</ele>
        <time>2016-08-07T12:17:43Z</time>
      </trkpt>
      <trkpt lat="44.07785" lon="3.4438">
        <ele>1122.96</ele>
        <time>2016-08-07T12:17:44Z</time>
      </trkpt>
      <trkpt lat="44.07779" lon="3.44374">
        <ele>1122.48</ele>
        <time>2016-08-07T12:17:49Z</time>
      </trkpt>
      <trkpt lat="44.07774" lon="3.44371">
        <ele>1122</ele>
        <time>2016-08-07T12:17:55Z</time>
      </trkpt>
      <trkpt lat="44.07768" lon="3.44373">
        <ele>1121.52</ele>
        <time>2016-08-07T12:18:03Z</time>
      </trkpt>
      <trkpt lat="44.07765" lon="3.44373">
        <ele>1121.52</ele>
        <time>2016-08-07T12:18:10Z</time>
      </trkpt>
      <trkpt lat="44.07764" lon="3.44374">
        <ele>1121.52</ele>
        <time>2016-08-07T12:18:16Z</time>
      </trkpt>
      <trkpt lat="44.07758" lon="3.44374">
        <ele>1122.96</ele>
        <time>2016-08-07T12:18:20Z</time>
      </trkpt>
      <trkpt lat="44.07756" lon="3.44374">
        <ele>1123.44</ele>
        <time>2016-08-07T12:18:22Z</time>
      </trkpt>
      <trkpt lat="44.0775" lon="3.44375">
        <ele>1123.44</ele>
        <time>2016-08-07T12:18:26Z</time>
      </trkpt>
      <trkpt lat="44.07747" lon="3.44375">
        <ele>1122.96</ele>
        <time>2016-08-07T12:18:29Z</time>
      </trkpt>
      <trkpt lat="44.07741" lon="3.44378">
        <ele>1121.52</ele>
        <time>2016-08-07T12:18:35Z</time>
      </trkpt>
      <trkpt lat="44.07737" lon="3.44378">
        <ele>1121.52</ele>
        <time>2016-08-07T12:18:38Z</time>
      </trkpt>
      <trkpt lat="44.07731" lon="3.44376">
        <ele>1120.55</ele>
        <time>2016-08-07T12:18:44Z</time>
      </trkpt>
      <trkpt lat="44.07726" lon="3.44376">
        <ele>1121.03</ele>
        <time>2016-08-07T12:18:49Z</time>
      </trkpt>
      <trkpt lat="44.07724" lon="3.44375">
        <ele>1121.52</ele>
        <time>2016-08-07T12:18:51Z</time>
      </trkpt>
      <trkpt lat="44.07719" lon="3.44376">
        <ele>1121.52</ele>
        <time>2016-08-07T12:18:55Z</time>
      </trkpt>
      <trkpt lat="44.07711" lon="3.44371">
        <ele>1120.07</ele>
        <time>2016-08-07T12:19:04Z</time>
      </trkpt>
      <trkpt lat="44.07704" lon="3.4437">
        <ele>1119.11</ele>
        <time>2016-08-07T12:19:11Z</time>
      </trkpt>
      <trkpt lat="44.07698" lon="3.44369">
        <ele>1117.67</ele>
        <time>2016-08-07T12:19:18Z</time>
      </trkpt>
      <trkpt lat="44.07698" lon="3.44369">
        <ele>1117.19</ele>
        <time>2016-08-07T12:19:19Z</time>
      </trkpt>
      <trkpt lat="44.07691" lon="3.44364">
        <ele>1113.82</ele>
        <time>2016-08-07T12:19:27Z</time>
      </trkpt>
      <trkpt lat="44.0769" lon="3.44357">
        <ele>1112.86</ele>
        <time>2016-08-07T12:19:32Z</time>
      </trkpt>
      <trkpt lat="44.07689" lon="3.44353">
        <ele>1112.38</ele>
        <time>2016-08-07T12:19:35Z</time>
      </trkpt>
      <trkpt lat="44.07686" lon="3.44347">
        <ele>1110.46</ele>
        <time>2016-08-07T12:19:42Z</time>
      </trkpt>
      <trkpt lat="44.07686" lon="3.44346">
        <ele>1109.98</ele>
        <time>2016-08-07T12:19:43Z</time>
      </trkpt>
      <trkpt lat="44.07679" lon="3.44338">
        <ele>1107.58</ele>
        <time>2016-08-07T12:19:51Z</time>
      </trkpt>
      <trkpt lat="44.07676" lon="3.44335">
        <ele>1105.17</ele>
        <time>2016-08-07T12:19:56Z</time>
      </trkpt>
      <trkpt lat="44.07675" lon="3.44335">
        <ele>1103.73</ele>
        <time>2016-08-07T12:20:01Z</time>
      </trkpt>
      <trkpt lat="44.0767" lon="3.44335">
        <ele>1102.77</ele>
        <time>2016-08-07T12:20:05Z</time>
      </trkpt>
      <trkpt lat="44.07662" lon="3.44334">
        <ele>1101.81</ele>
        <time>2016-08-07T12:20:11Z</time>
      </trkpt>
      <trkpt lat="44.07661" lon="3.44334">
        <ele>1101.81</ele>
        <time>2016-08-07T12:20:12Z</time>
      </trkpt>
      <trkpt lat="44.07653" lon="3.44337">
        <ele>1102.29</ele>
        <time>2016-08-07T12:20:20Z</time>
      </trkpt>
      <trkpt lat="44.0765" lon="3.44338">
        <ele>1102.29</ele>
        <time>2016-08-07T12:20:22Z</time>
      </trkpt>
      <trkpt lat="44.07638" lon="3.44345">
        <ele>1102.29</ele>
        <time>2016-08-07T12:20:32Z</time>
      </trkpt>
      <trkpt lat="44.0763" lon="3.44351">
        <ele>1102.77</ele>
        <time>2016-08-07T12:20:40Z</time>
      </trkpt>
      <trkpt lat="44.07626" lon="3.44354">
        <ele>1102.77</ele>
        <time>2016-08-07T12:20:44Z</time>
      </trkpt>
      <trkpt lat="44.07622" lon="3.44354">
        <ele>1102.29</ele>
        <time>2016-08-07T12:20:48Z</time>
      </trkpt>
      <trkpt lat="44.07614" lon="3.44357">
        <ele>1103.25</ele>
        <time>2016-08-07T12:20:55Z</time>
      </trkpt>
      <trkpt lat="44.07611" lon="3.44355">
        <ele>1103.25</ele>
        <time>2016-08-07T12:20:58Z</time>
      </trkpt>
      <trkpt lat="44.07609" lon="3.44356">
        <ele>1102.77</ele>
        <time>2016-08-07T12:21:00Z</time>
      </trkpt>
      <trkpt lat="44.07602" lon="3.44362">
        <ele>1101.33</ele>
        <time>2016-08-07T12:21:07Z</time>
      </trkpt>
      <trkpt lat="44.07595" lon="3.44365">
        <ele>1099.89</ele>
        <time>2016-08-07T12:21:14Z</time>
      </trkpt>
      <trkpt lat="44.07592" lon="3.44365">
        <ele>1099.89</ele>
        <time>2016-08-07T12:21:17Z</time>
      </trkpt>
      <trkpt lat="44.07585" lon="3.44368">
        <ele>1099.89</ele>
        <time>2016-08-07T12:21:23Z</time>
      </trkpt>
      <trkpt lat="44.07579" lon="3.44368">
        <ele>1099.4</ele>
        <time>2016-08-07T12:21:29Z</time>
      </trkpt>
      <trkpt lat="44.07573" lon="3.44369">
        <ele>1098.92</ele>
        <time>2016-08-07T12:21:35Z</time>
      </trkpt>
      <trkpt lat="44.07568" lon="3.4437">
        <ele>1098.44</ele>
        <time>2016-08-07T12:21:40Z</time>
      </trkpt>
      <trkpt lat="44.07564" lon="3.44369">
        <ele>1097.96</ele>
        <time>2016-08-07T12:21:43Z</time>
      </trkpt>
      <trkpt lat="44.07562" lon="3.44369">
        <ele>1097.48</ele>
        <time>2016-08-07T12:21:45Z</time>
      </trkpt>
      <trkpt lat="44.07559" lon="3.44369">
        <ele>1097</ele>
        <time>2016-08-07T12:21:48Z</time>
      </trkpt>
      <trkpt lat="44.07554" lon="3.44369">
        <ele>1096.04</ele>
        <time>2016-08-07T12:21:52Z</time>
      </trkpt>
      <trkpt lat="44.07544" lon="3.4437">
        <ele>1096.04</ele>
        <time>2016-08-07T12:22:01Z</time>
      </trkpt>
      <trkpt lat="44.07538" lon="3.44369">
        <ele>1096.04</ele>
        <time>2016-08-07T12:22:07Z</time>
      </trkpt>
      <trkpt lat="44.07529" lon="3.44369">
        <ele>1094.12</ele>
        <time>2016-08-07T12:22:14Z</time>
      </trkpt>
      <trkpt lat="44.07528" lon="3.44369">
        <ele>1094.12</ele>
        <time>2016-08-07T12:22:17Z</time>
      </trkpt>
      <trkpt lat="44.07526" lon="3.44372">
        <ele>1093.64</ele>
        <time>2016-08-07T12:22:19Z</time>
      </trkpt>
      <trkpt lat="44.0752" lon="3.44372">
        <ele>1092.68</ele>
        <time>2016-08-07T12:22:25Z</time>
      </trkpt>
      <trkpt lat="44.07516" lon="3.44378">
        <ele>1091.71</ele>
        <time>2016-08-07T12:22:30Z</time>
      </trkpt>
      <trkpt lat="44.07514" lon="3.44378">
        <ele>1091.23</ele>
        <time>2016-08-07T12:22:32Z</time>
      </trkpt>
      <trkpt lat="44.07512" lon="3.44382">
        <ele>1090.75</ele>
        <time>2016-08-07T12:22:36Z</time>
      </trkpt>
      <trkpt lat="44.07506" lon="3.44383">
        <ele>1090.27</ele>
        <time>2016-08-07T12:22:42Z</time>
      </trkpt>
      <trkpt lat="44.07501" lon="3.44385">
        <ele>1089.31</ele>
        <time>2016-08-07T12:22:47Z</time>
      </trkpt>
      <trkpt lat="44.07499" lon="3.44385">
        <ele>1088.83</ele>
        <time>2016-08-07T12:22:49Z</time>
      </trkpt>
      <trkpt lat="44.07497" lon="3.44387">
        <ele>1087.87</ele>
        <time>2016-08-07T12:22:52Z</time>
      </trkpt>
      <trkpt lat="44.07492" lon="3.44394">
        <ele>1085.47</ele>
        <time>2016-08-07T12:23:00Z</time>
      </trkpt>
      <trkpt lat="44.07489" lon="3.44393">
        <ele>1085.47</ele>
        <time>2016-08-07T12:23:03Z</time>
      </trkpt>
      <trkpt lat="44.07483" lon="3.44395">
        <ele>1084.99</ele>
        <time>2016-08-07T12:23:10Z</time>
      </trkpt>
      <trkpt lat="44.07476" lon="3.44397">
        <ele>1083.54</ele>
        <time>2016-08-07T12:23:17Z</time>
      </trkpt>
      <trkpt lat="44.07469" lon="3.44399">
        <ele>1082.58</ele>
        <time>2016-08-07T12:23:25Z</time>
      </trkpt>
      <trkpt lat="44.07464" lon="3.44401">
        <ele>1081.14</ele>
        <time>2016-08-07T12:23:34Z</time>
      </trkpt>
      <trkpt lat="44.07459" lon="3.44404">
        <ele>1079.7</ele>
        <time>2016-08-07T12:23:40Z</time>
      </trkpt>
      <trkpt lat="44.07453" lon="3.44406">
        <ele>1078.74</ele>
        <time>2016-08-07T12:23:46Z</time>
      </trkpt>
      <trkpt lat="44.07452" lon="3.44406">
        <ele>1078.74</ele>
        <time>2016-08-07T12:23:47Z</time>
      </trkpt>
      <trkpt lat="44.07448" lon="3.44406">
        <ele>1078.26</ele>
        <time>2016-08-07T12:23:53Z</time>
      </trkpt>
      <trkpt lat="44.07441" lon="3.44409">
        <ele>1076.81</ele>
        <time>2016-08-07T12:24:01Z</time>
      </trkpt>
      <trkpt lat="44.0744" lon="3.44409">
        <ele>1076.33</ele>
        <time>2016-08-07T12:24:02Z</time>
      </trkpt>
      <trkpt lat="44.07438" lon="3.4441">
        <ele>1075.85</ele>
        <time>2016-08-07T12:24:04Z</time>
      </trkpt>
      <trkpt lat="44.07441" lon="3.44417">
        <ele>1073.93</ele>
        <time>2016-08-07T12:24:11Z</time>
      </trkpt>
      <trkpt lat="44.07441" lon="3.44419">
        <ele>1073.93</ele>
        <time>2016-08-07T12:24:12Z</time>
      </trkpt>
      <trkpt lat="44.07441" lon="3.44424">
        <ele>1073.45</ele>
        <time>2016-08-07T12:24:15Z</time>
      </trkpt>
      <trkpt lat="44.07443" lon="3.4443">
        <ele>1072.97</ele>
        <time>2016-08-07T12:24:20Z</time>
      </trkpt>
      <trkpt lat="44.07447" lon="3.44434">
        <ele>1072.49</ele>
        <time>2016-08-07T12:24:26Z</time>
      </trkpt>
      <trkpt lat="44.07446" lon="3.44438">
        <ele>1071.53</ele>
        <time>2016-08-07T12:24:31Z</time>
      </trkpt>
      <trkpt lat="44.07444" lon="3.44441">
        <ele>1070.57</ele>
        <time>2016-08-07T12:24:36Z</time>
      </trkpt>
      <trkpt lat="44.07443" lon="3.44441">
        <ele>1070.08</ele>
        <time>2016-08-07T12:24:37Z</time>
      </trkpt>
      <trkpt lat="44.07437" lon="3.44442">
        <ele>1070.08</ele>
        <time>2016-08-07T12:24:43Z</time>
      </trkpt>
      <trkpt lat="44.07435" lon="3.44441">
        <ele>1069.6</ele>
        <time>2016-08-07T12:24:45Z</time>
      </trkpt>
      <trkpt lat="44.07432" lon="3.44439">
        <ele>1069.6</ele>
        <time>2016-08-07T12:24:48Z</time>
      </trkpt>
      <trkpt lat="44.07427" lon="3.44439">
        <ele>1069.12</ele>
        <time>2016-08-07T12:24:53Z</time>
      </trkpt>
      <trkpt lat="44.07418" lon="3.44437">
        <ele>1068.16</ele>
        <time>2016-08-07T12:25:01Z</time>
      </trkpt>
      <trkpt lat="44.07416" lon="3.44433">
        <ele>1067.68</ele>
        <time>2016-08-07T12:25:05Z</time>
      </trkpt>
      <trkpt lat="44.07414" lon="3.4443">
        <ele>1066.72</ele>
        <time>2016-08-07T12:25:07Z</time>
      </trkpt>
      <trkpt lat="44.07409" lon="3.44425">
        <ele>1066.72</ele>
        <time>2016-08-07T12:25:13Z</time>
      </trkpt>
      <trkpt lat="44.07409" lon="3.44426">
        <ele>1066.72</ele>
        <time>2016-08-07T12:25:14Z</time>
      </trkpt>
      <trkpt lat="44.07403" lon="3.44425">
        <ele>1066.72</ele>
        <time>2016-08-07T12:25:19Z</time>
      </trkpt>
      <trkpt lat="44.074" lon="3.44421">
        <ele>1066.72</ele>
        <time>2016-08-07T12:25:23Z</time>
      </trkpt>
      <trkpt lat="44.07396" lon="3.44419">
        <ele>1067.2</ele>
        <time>2016-08-07T12:25:27Z</time>
      </trkpt>
      <trkpt lat="44.07393" lon="3.44416">
        <ele>1066.24</ele>
        <time>2016-08-07T12:25:32Z</time>
      </trkpt>
      <trkpt lat="44.07391" lon="3.44416">
        <ele>1065.76</ele>
        <time>2016-08-07T12:25:34Z</time>
      </trkpt>
      <trkpt lat="44.07383" lon="3.44409">
        <ele>1064.8</ele>
        <time>2016-08-07T12:25:41Z</time>
      </trkpt>
      <trkpt lat="44.07378" lon="3.44401">
        <ele>1062.87</ele>
        <time>2016-08-07T12:25:48Z</time>
      </trkpt>
      <trkpt lat="44.07373" lon="3.44398">
        <ele>1060.47</ele>
        <time>2016-08-07T12:25:54Z</time>
      </trkpt>
      <trkpt lat="44.07369" lon="3.44396">
        <ele>1059.51</ele>
        <time>2016-08-07T12:26:00Z</time>
      </trkpt>
      <trkpt lat="44.07368" lon="3.44395">
        <ele>1059.51</ele>
        <time>2016-08-07T12:26:01Z</time>
      </trkpt>
      <trkpt lat="44.07362" lon="3.4439">
        <ele>1057.11</ele>
        <time>2016-08-07T12:26:09Z</time>
      </trkpt>
      <trkpt lat="44.0736" lon="3.44388">
        <ele>1056.63</ele>
        <time>2016-08-07T12:26:12Z</time>
      </trkpt>
      <trkpt lat="44.07357" lon="3.44388">
        <ele>1056.15</ele>
        <time>2016-08-07T12:26:15Z</time>
      </trkpt>
      <trkpt lat="44.07352" lon="3.44385">
        <ele>1055.18</ele>
        <time>2016-08-07T12:26:20Z</time>
      </trkpt>
      <trkpt lat="44.07349" lon="3.44381">
        <ele>1056.63</ele>
        <time>2016-08-07T12:26:24Z</time>
      </trkpt>
      <trkpt lat="44.07345" lon="3.4438">
        <ele>1056.15</ele>
        <time>2016-08-07T12:26:28Z</time>
      </trkpt>
      <trkpt lat="44.07342" lon="3.44378">
        <ele>1055.67</ele>
        <time>2016-08-07T12:26:31Z</time>
      </trkpt>
      <trkpt lat="44.07334" lon="3.44378">
        <ele>1054.7</ele>
        <time>2016-08-07T12:26:39Z</time>
      </trkpt>
      <trkpt lat="44.07333" lon="3.44377">
        <ele>1054.7</ele>
        <time>2016-08-07T12:26:40Z</time>
      </trkpt>
      <trkpt lat="44.07328" lon="3.44376">
        <ele>1053.74</ele>
        <time>2016-08-07T12:26:46Z</time>
      </trkpt>
      <trkpt lat="44.07325" lon="3.44374">
        <ele>1052.78</ele>
        <time>2016-08-07T12:26:51Z</time>
      </trkpt>
      <trkpt lat="44.0732" lon="3.44372">
        <ele>1052.78</ele>
        <time>2016-08-07T12:26:56Z</time>
      </trkpt>
      <trkpt lat="44.07313" lon="3.44374">
        <ele>1053.26</ele>
        <time>2016-08-07T12:27:03Z</time>
      </trkpt>
      <trkpt lat="44.07307" lon="3.44374">
        <ele>1053.26</ele>
        <time>2016-08-07T12:27:09Z</time>
      </trkpt>
      <trkpt lat="44.07303" lon="3.4438">
        <ele>1052.3</ele>
        <time>2016-08-07T12:27:15Z</time>
      </trkpt>
      <trkpt lat="44.07298" lon="3.44379">
        <ele>1052.3</ele>
        <time>2016-08-07T12:27:21Z</time>
      </trkpt>
      <trkpt lat="44.07296" lon="3.44378">
        <ele>1051.82</ele>
        <time>2016-08-07T12:27:23Z</time>
      </trkpt>
      <trkpt lat="44.07294" lon="3.44383">
        <ele>1050.86</ele>
        <time>2016-08-07T12:27:30Z</time>
      </trkpt>
      <trkpt lat="44.07291" lon="3.44381">
        <ele>1049.9</ele>
        <time>2016-08-07T12:27:36Z</time>
      </trkpt>
      <trkpt lat="44.07291" lon="3.44381">
        <ele>1049.9</ele>
        <time>2016-08-07T12:27:39Z</time>
      </trkpt>
      <trkpt lat="44.07292" lon="3.44384">
        <ele>1049.9</ele>
        <time>2016-08-07T12:27:46Z</time>
      </trkpt>
      <trkpt lat="44.07291" lon="3.44382">
        <ele>1049.9</ele>
        <time>2016-08-07T12:27:49Z</time>
      </trkpt>
      <trkpt lat="44.07285" lon="3.44384">
        <ele>1048.94</ele>
        <time>2016-08-07T12:27:56Z</time>
      </trkpt>
      <trkpt lat="44.07277" lon="3.44386">
        <ele>1048.94</ele>
        <time>2016-08-07T12:28:02Z</time>
      </trkpt>
      <trkpt lat="44.07273" lon="3.44389">
        <ele>1047.97</ele>
        <time>2016-08-07T12:28:08Z</time>
      </trkpt>
      <trkpt lat="44.07271" lon="3.44393">
        <ele>1047.97</ele>
        <time>2016-08-07T12:28:11Z</time>
      </trkpt>
      <trkpt lat="44.07264" lon="3.44393">
        <ele>1047.97</ele>
        <time>2016-08-07T12:28:18Z</time>
      </trkpt>
      <trkpt lat="44.07263" lon="3.44394">
        <ele>1047.97</ele>
        <time>2016-08-07T12:28:19Z</time>
      </trkpt>
      <trkpt lat="44.07257" lon="3.44391">
        <ele>1046.05</ele>
        <time>2016-08-07T12:28:26Z</time>
      </trkpt>
      <trkpt lat="44.07252" lon="3.44391">
        <ele>1044.13</ele>
        <time>2016-08-07T12:28:32Z</time>
      </trkpt>
      <trkpt lat="44.07247" lon="3.44393">
        <ele>1042.69</ele>
        <time>2016-08-07T12:28:39Z</time>
      </trkpt>
      <trkpt lat="44.07247" lon="3.44393">
        <ele>1042.69</ele>
        <time>2016-08-07T12:28:40Z</time>
      </trkpt>
      <trkpt lat="44.07242" lon="3.44392">
        <ele>1041.25</ele>
        <time>2016-08-07T12:28:45Z</time>
      </trkpt>
      <trkpt lat="44.07239" lon="3.44392">
        <ele>1040.76</ele>
        <time>2016-08-07T12:28:48Z</time>
      </trkpt>
      <trkpt lat="44.07231" lon="3.4439">
        <ele>1039.32</ele>
        <time>2016-08-07T12:28:56Z</time>
      </trkpt>
      <trkpt lat="44.07227" lon="3.44386">
        <ele>1036.92</ele>
        <time>2016-08-07T12:29:02Z</time>
      </trkpt>
      <trkpt lat="44.0722" lon="3.44385">
        <ele>1035.48</ele>
        <time>2016-08-07T12:29:09Z</time>
      </trkpt>
      <trkpt lat="44.07219" lon="3.44385">
        <ele>1035.48</ele>
        <time>2016-08-07T12:29:10Z</time>
      </trkpt>
      <trkpt lat="44.07215" lon="3.44386">
        <ele>1035.96</ele>
        <time>2016-08-07T12:29:15Z</time>
      </trkpt>
      <trkpt lat="44.07211" lon="3.4439">
        <ele>1036.44</ele>
        <time>2016-08-07T12:29:19Z</time>
      </trkpt>
      <trkpt lat="44.07213" lon="3.44397">
        <ele>1031.63</ele>
        <time>2016-08-07T12:29:26Z</time>
      </trkpt>
      <trkpt lat="44.07213" lon="3.44402">
        <ele>1031.15</ele>
        <time>2016-08-07T12:29:30Z</time>
      </trkpt>
      <trkpt lat="44.07216" lon="3.44409">
        <ele>1031.63</ele>
        <time>2016-08-07T12:29:35Z</time>
      </trkpt>
      <trkpt lat="44.07216" lon="3.44416">
        <ele>1031.15</ele>
        <time>2016-08-07T12:29:40Z</time>
      </trkpt>
      <trkpt lat="44.07217" lon="3.44418">
        <ele>1030.67</ele>
        <time>2016-08-07T12:29:42Z</time>
      </trkpt>
      <trkpt lat="44.07217" lon="3.44421">
        <ele>1030.19</ele>
        <time>2016-08-07T12:29:45Z</time>
      </trkpt>
      <trkpt lat="44.07217" lon="3.44425">
        <ele>1030.19</ele>
        <time>2016-08-07T12:29:51Z</time>
      </trkpt>
      <trkpt lat="44.07215" lon="3.44425">
        <ele>1029.71</ele>
        <time>2016-08-07T12:29:53Z</time>
      </trkpt>
      <trkpt lat="44.0721" lon="3.44422">
        <ele>1028.27</ele>
        <time>2016-08-07T12:30:00Z</time>
      </trkpt>
      <trkpt lat="44.0721" lon="3.4442">
        <ele>1027.79</ele>
        <time>2016-08-07T12:30:01Z</time>
      </trkpt>
      <trkpt lat="44.07207" lon="3.44417">
        <ele>1027.79</ele>
        <time>2016-08-07T12:30:07Z</time>
      </trkpt>
      <trkpt lat="44.07206" lon="3.44417">
        <ele>1027.79</ele>
        <time>2016-08-07T12:30:08Z</time>
      </trkpt>
      <trkpt lat="44.07201" lon="3.44416">
        <ele>1026.83</ele>
        <time>2016-08-07T12:30:15Z</time>
      </trkpt>
      <trkpt lat="44.07199" lon="3.44422">
        <ele>1025.38</ele>
        <time>2016-08-07T12:30:21Z</time>
      </trkpt>
      <trkpt lat="44.07199" lon="3.44426">
        <ele>1023.94</ele>
        <time>2016-08-07T12:30:28Z</time>
      </trkpt>
      <trkpt lat="44.07199" lon="3.44428">
        <ele>1023.46</ele>
        <time>2016-08-07T12:30:30Z</time>
      </trkpt>
      <trkpt lat="44.07196" lon="3.44426">
        <ele>1022.02</ele>
        <time>2016-08-07T12:30:33Z</time>
      </trkpt>
      <trkpt lat="44.07196" lon="3.44424">
        <ele>1021.54</ele>
        <time>2016-08-07T12:30:35Z</time>
      </trkpt>
      <trkpt lat="44.07192" lon="3.44421">
        <ele>1020.58</ele>
        <time>2016-08-07T12:30:39Z</time>
      </trkpt>
      <trkpt lat="44.07184" lon="3.44417">
        <ele>1019.62</ele>
        <time>2016-08-07T12:30:46Z</time>
      </trkpt>
      <trkpt lat="44.07177" lon="3.44415">
        <ele>1019.62</ele>
        <time>2016-08-07T12:30:52Z</time>
      </trkpt>
      <trkpt lat="44.07169" lon="3.44415">
        <ele>1019.13</ele>
        <time>2016-08-07T12:30:58Z</time>
      </trkpt>
      <trkpt lat="44.07169" lon="3.44415">
        <ele>1019.13</ele>
        <time>2016-08-07T12:30:59Z</time>
      </trkpt>
      <trkpt lat="44.07162" lon="3.44413">
        <ele>1017.69</ele>
        <time>2016-08-07T12:31:07Z</time>
      </trkpt>
      <trkpt lat="44.07162" lon="3.44412">
        <ele>1017.69</ele>
        <time>2016-08-07T12:31:08Z</time>
      </trkpt>
      <trkpt lat="44.07159" lon="3.44413">
        <ele>1016.73</ele>
        <time>2016-08-07T12:31:12Z</time>
      </trkpt>
      <trkpt lat="44.07157" lon="3.44411">
        <ele>1015.77</ele>
        <time>2016-08-07T12:31:15Z</time>
      </trkpt>
      <trkpt lat="44.0715" lon="3.44409">
        <ele>1014.33</ele>
        <time>2016-08-07T12:31:22Z</time>
      </trkpt>
      <trkpt lat="44.07145" lon="3.44411">
        <ele>1013.37</ele>
        <time>2016-08-07T12:31:28Z</time>
      </trkpt>
      <trkpt lat="44.07143" lon="3.44409">
        <ele>1013.37</ele>
        <time>2016-08-07T12:31:30Z</time>
      </trkpt>
      <trkpt lat="44.07137" lon="3.44409">
        <ele>1011.93</ele>
        <time>2016-08-07T12:31:37Z</time>
      </trkpt>
      <trkpt lat="44.07135" lon="3.44409">
        <ele>1011.44</ele>
        <time>2016-08-07T12:31:39Z</time>
      </trkpt>
      <trkpt lat="44.07128" lon="3.44407">
        <ele>1010.48</ele>
        <time>2016-08-07T12:31:45Z</time>
      </trkpt>
      <trkpt lat="44.07121" lon="3.44406">
        <ele>1010.48</ele>
        <time>2016-08-07T12:31:51Z</time>
      </trkpt>
      <trkpt lat="44.07119" lon="3.44405">
        <ele>1010.48</ele>
        <time>2016-08-07T12:31:54Z</time>
      </trkpt>
      <trkpt lat="44.07116" lon="3.44397">
        <ele>1008.08</ele>
        <time>2016-08-07T12:32:01Z</time>
      </trkpt>
      <trkpt lat="44.07115" lon="3.44395">
        <ele>1007.12</ele>
        <time>2016-08-07T12:32:03Z</time>
      </trkpt>
      <trkpt lat="44.0711" lon="3.44392">
        <ele>1004.72</ele>
        <time>2016-08-07T12:32:09Z</time>
      </trkpt>
      <trkpt lat="44.07104" lon="3.4439">
        <ele>1003.75</ele>
        <time>2016-08-07T12:32:15Z</time>
      </trkpt>
      <trkpt lat="44.07097" lon="3.44391">
        <ele>1002.31</ele>
        <time>2016-08-07T12:32:22Z</time>
      </trkpt>
      <trkpt lat="44.07095" lon="3.44392">
        <ele>1001.83</ele>
        <time>2016-08-07T12:32:26Z</time>
      </trkpt>
      <trkpt lat="44.07089" lon="3.44392">
        <ele>1000.39</ele>
        <time>2016-08-07T12:32:33Z</time>
      </trkpt>
      <trkpt lat="44.07083" lon="3.44391">
        <ele>998.47</ele>
        <time>2016-08-07T12:32:40Z</time>
      </trkpt>
      <trkpt lat="44.07077" lon="3.4439">
        <ele>997.99</ele>
        <time>2016-08-07T12:32:46Z</time>
      </trkpt>
      <trkpt lat="44.07074" lon="3.44391">
        <ele>997.51</ele>
        <time>2016-08-07T12:32:49Z</time>
      </trkpt>
      <trkpt lat="44.07072" lon="3.44391">
        <ele>997.51</ele>
        <time>2016-08-07T12:32:51Z</time>
      </trkpt>
      <trkpt lat="44.07067" lon="3.4439">
        <ele>997.02</ele>
        <time>2016-08-07T12:32:56Z</time>
      </trkpt>
      <trkpt lat="44.07063" lon="3.44392">
        <ele>997.02</ele>
        <time>2016-08-07T12:32:59Z</time>
      </trkpt>
      <trkpt lat="44.07061" lon="3.44392">
        <ele>996.06</ele>
        <time>2016-08-07T12:33:02Z</time>
      </trkpt>
      <trkpt lat="44.07059" lon="3.4439">
        <ele>995.58</ele>
        <time>2016-08-07T12:33:04Z</time>
      </trkpt>
      <trkpt lat="44.07057" lon="3.4439">
        <ele>995.58</ele>
        <time>2016-08-07T12:33:06Z</time>
      </trkpt>
      <trkpt lat="44.07048" lon="3.44396">
        <ele>994.62</ele>
        <time>2016-08-07T12:33:15Z</time>
      </trkpt>
      <trkpt lat="44.07044" lon="3.44398">
        <ele>993.66</ele>
        <time>2016-08-07T12:33:21Z</time>
      </trkpt>
      <trkpt lat="44.07039" lon="3.44401">
        <ele>992.22</ele>
        <time>2016-08-07T12:33:28Z</time>
      </trkpt>
      <trkpt lat="44.07034" lon="3.44401">
        <ele>991.74</ele>
        <time>2016-08-07T12:33:32Z</time>
      </trkpt>
      <trkpt lat="44.07032" lon="3.44404">
        <ele>991.74</ele>
        <time>2016-08-07T12:33:35Z</time>
      </trkpt>
      <trkpt lat="44.07025" lon="3.44404">
        <ele>991.26</ele>
        <time>2016-08-07T12:33:43Z</time>
      </trkpt>
      <trkpt lat="44.07023" lon="3.44404">
        <ele>990.78</ele>
        <time>2016-08-07T12:33:46Z</time>
      </trkpt>
      <trkpt lat="44.07019" lon="3.44403">
        <ele>989.81</ele>
        <time>2016-08-07T12:33:50Z</time>
      </trkpt>
      <trkpt lat="44.07016" lon="3.44403">
        <ele>989.81</ele>
        <time>2016-08-07T12:33:53Z</time>
      </trkpt>
      <trkpt lat="44.07012" lon="3.44401">
        <ele>989.33</ele>
        <time>2016-08-07T12:33:58Z</time>
      </trkpt>
      <trkpt lat="44.07008" lon="3.44401">
        <ele>988.37</ele>
        <time>2016-08-07T12:34:02Z</time>
      </trkpt>
      <trkpt lat="44.07002" lon="3.44397">
        <ele>985.97</ele>
        <time>2016-08-07T12:34:10Z</time>
      </trkpt>
      <trkpt lat="44.07001" lon="3.44397">
        <ele>985.49</ele>
        <time>2016-08-07T12:34:11Z</time>
      </trkpt>
      <trkpt lat="44.06995" lon="3.44397">
        <ele>983.57</ele>
        <time>2016-08-07T12:34:19Z</time>
      </trkpt>
      <trkpt lat="44.06989" lon="3.44398">
        <ele>981.64</ele>
        <time>2016-08-07T12:34:26Z</time>
      </trkpt>
      <trkpt lat="44.06986" lon="3.444">
        <ele>980.68</ele>
        <time>2016-08-07T12:34:32Z</time>
      </trkpt>
      <trkpt lat="44.06982" lon="3.44399">
        <ele>979.72</ele>
        <time>2016-08-07T12:34:37Z</time>
      </trkpt>
      <trkpt lat="44.06976" lon="3.44401">
        <ele>978.28</ele>
        <time>2016-08-07T12:34:44Z</time>
      </trkpt>
      <trkpt lat="44.06972" lon="3.44399">
        <ele>976.84</ele>
        <time>2016-08-07T12:34:51Z</time>
      </trkpt>
      <trkpt lat="44.06971" lon="3.44399">
        <ele>976.84</ele>
        <time>2016-08-07T12:34:52Z</time>
      </trkpt>
      <trkpt lat="44.06966" lon="3.44399">
        <ele>975.88</ele>
        <time>2016-08-07T12:34:58Z</time>
      </trkpt>
      <trkpt lat="44.06963" lon="3.44399">
        <ele>974.91</ele>
        <time>2016-08-07T12:35:03Z</time>
      </trkpt>
      <trkpt lat="44.06957" lon="3.44397">
        <ele>973.47</ele>
        <time>2016-08-07T12:35:10Z</time>
      </trkpt>
      <trkpt lat="44.06951" lon="3.44396">
        <ele>972.03</ele>
        <time>2016-08-07T12:35:18Z</time>
      </trkpt>
      <trkpt lat="44.0695" lon="3.44396">
        <ele>972.03</ele>
        <time>2016-08-07T12:35:19Z</time>
      </trkpt>
      <trkpt lat="44.06948" lon="3.44396">
        <ele>971.55</ele>
        <time>2016-08-07T12:35:21Z</time>
      </trkpt>
      <trkpt lat="44.06946" lon="3.44395">
        <ele>970.59</ele>
        <time>2016-08-07T12:35:23Z</time>
      </trkpt>
      <trkpt lat="44.06941" lon="3.44388">
        <ele>970.11</ele>
        <time>2016-08-07T12:35:31Z</time>
      </trkpt>
      <trkpt lat="44.06939" lon="3.44386">
        <ele>969.63</ele>
        <time>2016-08-07T12:35:34Z</time>
      </trkpt>
      <trkpt lat="44.06938" lon="3.44381">
        <ele>969.15</ele>
        <time>2016-08-07T12:35:40Z</time>
      </trkpt>
      <trkpt lat="44.06937" lon="3.44379">
        <ele>969.15</ele>
        <time>2016-08-07T12:35:44Z</time>
      </trkpt>
      <trkpt lat="44.06936" lon="3.44379">
        <ele>968.67</ele>
        <time>2016-08-07T12:35:45Z</time>
      </trkpt>
      <trkpt lat="44.06931" lon="3.44381">
        <ele>968.18</ele>
        <time>2016-08-07T12:35:53Z</time>
      </trkpt>
      <trkpt lat="44.06931" lon="3.44383">
        <ele>968.18</ele>
        <time>2016-08-07T12:35:55Z</time>
      </trkpt>
      <trkpt lat="44.0693" lon="3.44389">
        <ele>967.22</ele>
        <time>2016-08-07T12:36:02Z</time>
      </trkpt>
      <trkpt lat="44.06929" lon="3.4439">
        <ele>967.22</ele>
        <time>2016-08-07T12:36:03Z</time>
      </trkpt>
      <trkpt lat="44.06924" lon="3.44392">
        <ele>966.26</ele>
        <time>2016-08-07T12:36:09Z</time>
      </trkpt>
      <trkpt lat="44.0692" lon="3.44393">
        <ele>966.26</ele>
        <time>2016-08-07T12:36:13Z</time>
      </trkpt>
      <trkpt lat="44.06911" lon="3.44391">
        <ele>964.34</ele>
        <time>2016-08-07T12:36:21Z</time>
      </trkpt>
      <trkpt lat="44.06907" lon="3.44393">
        <ele>962.42</ele>
        <time>2016-08-07T12:36:27Z</time>
      </trkpt>
      <trkpt lat="44.069" lon="3.4439">
        <ele>961.94</ele>
        <time>2016-08-07T12:36:33Z</time>
      </trkpt>
      <trkpt lat="44.06893" lon="3.44381">
        <ele>960.01</ele>
        <time>2016-08-07T12:36:42Z</time>
      </trkpt>
      <trkpt lat="44.0689" lon="3.44377">
        <ele>959.53</ele>
        <time>2016-08-07T12:36:46Z</time>
      </trkpt>
      <trkpt lat="44.06887" lon="3.44374">
        <ele>959.05</ele>
        <time>2016-08-07T12:36:49Z</time>
      </trkpt>
      <trkpt lat="44.06883" lon="3.44373">
        <ele>959.53</ele>
        <time>2016-08-07T12:36:53Z</time>
      </trkpt>
      <trkpt lat="44.0688" lon="3.44376">
        <ele>959.53</ele>
        <time>2016-08-07T12:36:57Z</time>
      </trkpt>
      <trkpt lat="44.06876" lon="3.44383">
        <ele>958.57</ele>
        <time>2016-08-07T12:37:04Z</time>
      </trkpt>
      <trkpt lat="44.06875" lon="3.44386">
        <ele>958.57</ele>
        <time>2016-08-07T12:37:06Z</time>
      </trkpt>
      <trkpt lat="44.06871" lon="3.44394">
        <ele>956.65</ele>
        <time>2016-08-07T12:37:14Z</time>
      </trkpt>
      <trkpt lat="44.0687" lon="3.44399">
        <ele>956.65</ele>
        <time>2016-08-07T12:37:18Z</time>
      </trkpt>
      <trkpt lat="44.06866" lon="3.44411">
        <ele>957.13</ele>
        <time>2016-08-07T12:37:26Z</time>
      </trkpt>
      <trkpt lat="44.06862" lon="3.44414">
        <ele>956.65</ele>
        <time>2016-08-07T12:37:32Z</time>
      </trkpt>
      <trkpt lat="44.0686" lon="3.44415">
        <ele>955.69</ele>
        <time>2016-08-07T12:37:35Z</time>
      </trkpt>
      <trkpt lat="44.06856" lon="3.4442">
        <ele>953.77</ele>
        <time>2016-08-07T12:37:41Z</time>
      </trkpt>
      <trkpt lat="44.06851" lon="3.4442">
        <ele>951.36</ele>
        <time>2016-08-07T12:37:47Z</time>
      </trkpt>
      <trkpt lat="44.06849" lon="3.44419">
        <ele>950.88</ele>
        <time>2016-08-07T12:37:49Z</time>
      </trkpt>
      <trkpt lat="44.06842" lon="3.44419">
        <ele>950.4</ele>
        <time>2016-08-07T12:37:58Z</time>
      </trkpt>
      <trkpt lat="44.06842" lon="3.4442">
        <ele>950.4</ele>
        <time>2016-08-07T12:37:59Z</time>
      </trkpt>
      <trkpt lat="44.06837" lon="3.44424">
        <ele>949.92</ele>
        <time>2016-08-07T12:38:06Z</time>
      </trkpt>
      <trkpt lat="44.06832" lon="3.44428">
        <ele>949.92</ele>
        <time>2016-08-07T12:38:14Z</time>
      </trkpt>
      <trkpt lat="44.06827" lon="3.44429">
        <ele>949.92</ele>
        <time>2016-08-07T12:38:22Z</time>
      </trkpt>
      <trkpt lat="44.06826" lon="3.4443">
        <ele>949.44</ele>
        <time>2016-08-07T12:38:28Z</time>
      </trkpt>
      <trkpt lat="44.06825" lon="3.44429">
        <ele>949.92</ele>
        <time>2016-08-07T12:38:40Z</time>
      </trkpt>
      <trkpt lat="44.06825" lon="3.4443">
        <ele>949.92</ele>
        <time>2016-08-07T12:38:41Z</time>
      </trkpt>
      <trkpt lat="44.0682" lon="3.44432">
        <ele>949.44</ele>
        <time>2016-08-07T12:38:47Z</time>
      </trkpt>
      <trkpt lat="44.06818" lon="3.44433">
        <ele>949.44</ele>
        <time>2016-08-07T12:38:52Z</time>
      </trkpt>
      <trkpt lat="44.06816" lon="3.44435">
        <ele>949.44</ele>
        <time>2016-08-07T12:38:58Z</time>
      </trkpt>
      <trkpt lat="44.06813" lon="3.44439">
        <ele>948.96</ele>
        <time>2016-08-07T12:39:03Z</time>
      </trkpt>
      <trkpt lat="44.06812" lon="3.44441">
        <ele>948.48</ele>
        <time>2016-08-07T12:39:06Z</time>
      </trkpt>
      <trkpt lat="44.0681" lon="3.44444">
        <ele>948</ele>
        <time>2016-08-07T12:39:09Z</time>
      </trkpt>
      <trkpt lat="44.06812" lon="3.44459">
        <ele>947.04</ele>
        <time>2016-08-07T12:39:18Z</time>
      </trkpt>
      <trkpt lat="44.06814" lon="3.44469">
        <ele>946.56</ele>
        <time>2016-08-07T12:39:25Z</time>
      </trkpt>
      <trkpt lat="44.06814" lon="3.44474">
        <ele>946.07</ele>
        <time>2016-08-07T12:39:28Z</time>
      </trkpt>
      <trkpt lat="44.06813" lon="3.44477">
        <ele>944.63</ele>
        <time>2016-08-07T12:39:31Z</time>
      </trkpt>
      <trkpt lat="44.06814" lon="3.44481">
        <ele>943.67</ele>
        <time>2016-08-07T12:39:34Z</time>
      </trkpt>
      <trkpt lat="44.06816" lon="3.44487">
        <ele>942.23</ele>
        <time>2016-08-07T12:39:39Z</time>
      </trkpt>
      <trkpt lat="44.06821" lon="3.44498">
        <ele>942.23</ele>
        <time>2016-08-07T12:39:46Z</time>
      </trkpt>
      <trkpt lat="44.06822" lon="3.44505">
        <ele>942.23</ele>
        <time>2016-08-07T12:39:52Z</time>
      </trkpt>
      <trkpt lat="44.06823" lon="3.44511">
        <ele>941.75</ele>
        <time>2016-08-07T12:39:58Z</time>
      </trkpt>
      <trkpt lat="44.0682" lon="3.44519">
        <ele>941.75</ele>
        <time>2016-08-07T12:40:05Z</time>
      </trkpt>
      <trkpt lat="44.06815" lon="3.44519">
        <ele>940.31</ele>
        <time>2016-08-07T12:40:12Z</time>
      </trkpt>
      <trkpt lat="44.06812" lon="3.44521">
        <ele>937.9</ele>
        <time>2016-08-07T12:40:20Z</time>
      </trkpt>
      <trkpt lat="44.06809" lon="3.4452">
        <ele>937.42</ele>
        <time>2016-08-07T12:40:27Z</time>
      </trkpt>
      <trkpt lat="44.06803" lon="3.44522">
        <ele>935.02</ele>
        <time>2016-08-07T12:40:33Z</time>
      </trkpt>
      <trkpt lat="44.06795" lon="3.44526">
        <ele>932.14</ele>
        <time>2016-08-07T12:40:41Z</time>
      </trkpt>
      <trkpt lat="44.06789" lon="3.44531">
        <ele>931.17</ele>
        <time>2016-08-07T12:40:48Z</time>
      </trkpt>
      <trkpt lat="44.06789" lon="3.44531">
        <ele>931.17</ele>
        <time>2016-08-07T12:40:49Z</time>
      </trkpt>
      <trkpt lat="44.06784" lon="3.44531">
        <ele>929.73</ele>
        <time>2016-08-07T12:40:54Z</time>
      </trkpt>
      <trkpt lat="44.0678" lon="3.44535">
        <ele>928.77</ele>
        <time>2016-08-07T12:40:59Z</time>
      </trkpt>
      <trkpt lat="44.06775" lon="3.44537">
        <ele>927.81</ele>
        <time>2016-08-07T12:41:06Z</time>
      </trkpt>
      <trkpt lat="44.06773" lon="3.44537">
        <ele>927.81</ele>
        <time>2016-08-07T12:41:08Z</time>
      </trkpt>
      <trkpt lat="44.0677" lon="3.44538">
        <ele>926.37</ele>
        <time>2016-08-07T12:41:13Z</time>
      </trkpt>
      <trkpt lat="44.06765" lon="3.4454">
        <ele>924.93</ele>
        <time>2016-08-07T12:41:19Z</time>
      </trkpt>
      <trkpt lat="44.06761" lon="3.44543">
        <ele>923.96</ele>
        <time>2016-08-07T12:41:26Z</time>
      </trkpt>
      <trkpt lat="44.06755" lon="3.44546">
        <ele>922.04</ele>
        <time>2016-08-07T12:41:32Z</time>
      </trkpt>
      <trkpt lat="44.06747" lon="3.44544">
        <ele>920.12</ele>
        <time>2016-08-07T12:41:39Z</time>
      </trkpt>
      <trkpt lat="44.06741" lon="3.44542">
        <ele>918.68</ele>
        <time>2016-08-07T12:41:45Z</time>
      </trkpt>
      <trkpt lat="44.06737" lon="3.4454">
        <ele>917.72</ele>
        <time>2016-08-07T12:41:49Z</time>
      </trkpt>
      <trkpt lat="44.06725" lon="3.4454">
        <ele>915.79</ele>
        <time>2016-08-07T12:41:59Z</time>
      </trkpt>
      <trkpt lat="44.06723" lon="3.44539">
        <ele>915.79</ele>
        <time>2016-08-07T12:42:03Z</time>
      </trkpt>
      <trkpt lat="44.0672" lon="3.44537">
        <ele>915.31</ele>
        <time>2016-08-07T12:42:06Z</time>
      </trkpt>
      <trkpt lat="44.06717" lon="3.44539">
        <ele>914.83</ele>
        <time>2016-08-07T12:42:09Z</time>
      </trkpt>
      <trkpt lat="44.06712" lon="3.44539">
        <ele>914.35</ele>
        <time>2016-08-07T12:42:14Z</time>
      </trkpt>
      <trkpt lat="44.06707" lon="3.44535">
        <ele>914.35</ele>
        <time>2016-08-07T12:42:19Z</time>
      </trkpt>
      <trkpt lat="44.067" lon="3.44538">
        <ele>914.83</ele>
        <time>2016-08-07T12:42:25Z</time>
      </trkpt>
      <trkpt lat="44.06694" lon="3.4454">
        <ele>915.31</ele>
        <time>2016-08-07T12:42:32Z</time>
      </trkpt>
      <trkpt lat="44.06687" lon="3.44534">
        <ele>915.79</ele>
        <time>2016-08-07T12:42:40Z</time>
      </trkpt>
      <trkpt lat="44.06678" lon="3.44532">
        <ele>915.79</ele>
        <time>2016-08-07T12:42:50Z</time>
      </trkpt>
      <trkpt lat="44.06677" lon="3.44532">
        <ele>915.31</ele>
        <time>2016-08-07T12:42:51Z</time>
      </trkpt>
      <trkpt lat="44.06671" lon="3.44533">
        <ele>913.39</ele>
        <time>2016-08-07T12:42:59Z</time>
      </trkpt>
      <trkpt lat="44.06667" lon="3.44534">
        <ele>913.39</ele>
        <time>2016-08-07T12:43:05Z</time>
      </trkpt>
      <trkpt lat="44.06661" lon="3.44537">
        <ele>912.91</ele>
        <time>2016-08-07T12:43:12Z</time>
      </trkpt>
      <trkpt lat="44.06656" lon="3.44537">
        <ele>911.95</ele>
        <time>2016-08-07T12:43:17Z</time>
      </trkpt>
      <trkpt lat="44.06654" lon="3.44537">
        <ele>911.47</ele>
        <time>2016-08-07T12:43:19Z</time>
      </trkpt>
      <trkpt lat="44.06649" lon="3.44545">
        <ele>912.43</ele>
        <time>2016-08-07T12:43:27Z</time>
      </trkpt>
      <trkpt lat="44.06646" lon="3.44545">
        <ele>912.43</ele>
        <time>2016-08-07T12:43:32Z</time>
      </trkpt>
      <trkpt lat="44.06638" lon="3.44549">
        <ele>911.47</ele>
        <time>2016-08-07T12:43:39Z</time>
      </trkpt>
      <trkpt lat="44.06635" lon="3.44552">
        <ele>910.51</ele>
        <time>2016-08-07T12:43:47Z</time>
      </trkpt>
      <trkpt lat="44.06633" lon="3.44553">
        <ele>910.51</ele>
        <time>2016-08-07T12:43:52Z</time>
      </trkpt>
      <trkpt lat="44.06628" lon="3.44557">
        <ele>910.03</ele>
        <time>2016-08-07T12:43:57Z</time>
      </trkpt>
      <trkpt lat="44.06622" lon="3.4456">
        <ele>908.58</ele>
        <time>2016-08-07T12:44:03Z</time>
      </trkpt>
      <trkpt lat="44.06618" lon="3.44564">
        <ele>908.1</ele>
        <time>2016-08-07T12:44:08Z</time>
      </trkpt>
      <trkpt lat="44.06609" lon="3.44568">
        <ele>907.14</ele>
        <time>2016-08-07T12:44:16Z</time>
      </trkpt>
      <trkpt lat="44.06606" lon="3.44571">
        <ele>907.14</ele>
        <time>2016-08-07T12:44:19Z</time>
      </trkpt>
      <trkpt lat="44.06601" lon="3.44571">
        <ele>905.7</ele>
        <time>2016-08-07T12:44:24Z</time>
      </trkpt>
      <trkpt lat="44.06595" lon="3.44574">
        <ele>904.26</ele>
        <time>2016-08-07T12:44:31Z</time>
      </trkpt>
      <trkpt lat="44.06593" lon="3.44575">
        <ele>903.78</ele>
        <time>2016-08-07T12:44:34Z</time>
      </trkpt>
      <trkpt lat="44.06591" lon="3.44579">
        <ele>902.82</ele>
        <time>2016-08-07T12:44:37Z</time>
      </trkpt>
      <trkpt lat="44.06588" lon="3.44581">
        <ele>900.41</ele>
        <time>2016-08-07T12:44:44Z</time>
      </trkpt>
      <trkpt lat="44.06588" lon="3.44581">
        <ele>900.41</ele>
        <time>2016-08-07T12:44:51Z</time>
      </trkpt>
      <trkpt lat="44.06583" lon="3.44588">
        <ele>899.45</ele>
        <time>2016-08-07T12:44:57Z</time>
      </trkpt>
      <trkpt lat="44.06578" lon="3.44598">
        <ele>898.97</ele>
        <time>2016-08-07T12:45:04Z</time>
      </trkpt>
      <trkpt lat="44.06577" lon="3.44601">
        <ele>898.49</ele>
        <time>2016-08-07T12:45:07Z</time>
      </trkpt>
      <trkpt lat="44.06575" lon="3.44604">
        <ele>898.01</ele>
        <time>2016-08-07T12:45:14Z</time>
      </trkpt>
      <trkpt lat="44.06571" lon="3.44614">
        <ele>899.93</ele>
        <time>2016-08-07T12:45:21Z</time>
      </trkpt>
      <trkpt lat="44.06567" lon="3.44618">
        <ele>901.37</ele>
        <time>2016-08-07T12:45:25Z</time>
      </trkpt>
      <trkpt lat="44.06561" lon="3.44623">
        <ele>900.89</ele>
        <time>2016-08-07T12:45:32Z</time>
      </trkpt>
      <trkpt lat="44.06559" lon="3.44624">
        <ele>899.93</ele>
        <time>2016-08-07T12:45:38Z</time>
      </trkpt>
      <trkpt lat="44.06558" lon="3.44625">
        <ele>899.93</ele>
        <time>2016-08-07T12:45:39Z</time>
      </trkpt>
      <trkpt lat="44.06551" lon="3.44627">
        <ele>899.93</ele>
        <time>2016-08-07T12:45:45Z</time>
      </trkpt>
      <trkpt lat="44.06551" lon="3.44628">
        <ele>899.93</ele>
        <time>2016-08-07T12:45:46Z</time>
      </trkpt>
      <trkpt lat="44.06541" lon="3.44632">
        <ele>898.01</ele>
        <time>2016-08-07T12:45:55Z</time>
      </trkpt>
      <trkpt lat="44.06532" lon="3.44633">
        <ele>898.01</ele>
        <time>2016-08-07T12:46:02Z</time>
      </trkpt>
      <trkpt lat="44.06529" lon="3.44634">
        <ele>898.01</ele>
        <time>2016-08-07T12:46:05Z</time>
      </trkpt>
      <trkpt lat="44.06524" lon="3.44633">
        <ele>897.53</ele>
        <time>2016-08-07T12:46:10Z</time>
      </trkpt>
      <trkpt lat="44.0652" lon="3.44633">
        <ele>897.05</ele>
        <time>2016-08-07T12:46:14Z</time>
      </trkpt>
      <trkpt lat="44.06515" lon="3.44632">
        <ele>896.57</ele>
        <time>2016-08-07T12:46:18Z</time>
      </trkpt>
      <trkpt lat="44.06507" lon="3.44629">
        <ele>897.05</ele>
        <time>2016-08-07T12:46:25Z</time>
      </trkpt>
      <trkpt lat="44.065" lon="3.44625">
        <ele>897.53</ele>
        <time>2016-08-07T12:46:31Z</time>
      </trkpt>
      <trkpt lat="44.06495" lon="3.4462">
        <ele>897.53</ele>
        <time>2016-08-07T12:46:38Z</time>
      </trkpt>
      <trkpt lat="44.06492" lon="3.44614">
        <ele>898.01</ele>
        <time>2016-08-07T12:46:44Z</time>
      </trkpt>
      <trkpt lat="44.06491" lon="3.44614">
        <ele>898.01</ele>
        <time>2016-08-07T12:46:45Z</time>
      </trkpt>
      <trkpt lat="44.06488" lon="3.44612">
        <ele>898.01</ele>
        <time>2016-08-07T12:46:49Z</time>
      </trkpt>
      <trkpt lat="44.06482" lon="3.44605">
        <ele>898.01</ele>
        <time>2016-08-07T12:46:56Z</time>
      </trkpt>
      <trkpt lat="44.06481" lon="3.44603">
        <ele>898.01</ele>
        <time>2016-08-07T12:46:58Z</time>
      </trkpt>
      <trkpt lat="44.06474" lon="3.44599">
        <ele>898.01</ele>
        <time>2016-08-07T12:47:05Z</time>
      </trkpt>
      <trkpt lat="44.06468" lon="3.44598">
        <ele>898.01</ele>
        <time>2016-08-07T12:47:11Z</time>
      </trkpt>
      <trkpt lat="44.06465" lon="3.44601">
        <ele>898.01</ele>
        <time>2016-08-07T12:47:18Z</time>
      </trkpt>
      <trkpt lat="44.06466" lon="3.446">
        <ele>897.53</ele>
        <time>2016-08-07T12:47:26Z</time>
      </trkpt>
      <trkpt lat="44.06464" lon="3.44607">
        <ele>897.53</ele>
        <time>2016-08-07T12:47:33Z</time>
      </trkpt>
      <trkpt lat="44.06464" lon="3.44606">
        <ele>898.49</ele>
        <time>2016-08-07T12:47:38Z</time>
      </trkpt>
      <trkpt lat="44.06464" lon="3.44605">
        <ele>898.97</ele>
        <time>2016-08-07T12:47:47Z</time>
      </trkpt>
      <trkpt lat="44.06464" lon="3.44606">
        <ele>899.45</ele>
        <time>2016-08-07T12:48:06Z</time>
      </trkpt>
      <trkpt lat="44.06462" lon="3.44612">
        <ele>899.93</ele>
        <time>2016-08-07T12:48:14Z</time>
      </trkpt>
      <trkpt lat="44.06458" lon="3.44615">
        <ele>898.49</ele>
        <time>2016-08-07T12:48:20Z</time>
      </trkpt>
      <trkpt lat="44.06455" lon="3.44617">
        <ele>897.53</ele>
        <time>2016-08-07T12:48:27Z</time>
      </trkpt>
      <trkpt lat="44.06451" lon="3.44623">
        <ele>896.57</ele>
        <time>2016-08-07T12:48:33Z</time>
      </trkpt>
      <trkpt lat="44.06451" lon="3.44623">
        <ele>896.09</ele>
        <time>2016-08-07T12:48:34Z</time>
      </trkpt>
      <trkpt lat="44.06444" lon="3.44625">
        <ele>894.16</ele>
        <time>2016-08-07T12:48:41Z</time>
      </trkpt>
      <trkpt lat="44.06441" lon="3.44624">
        <ele>892.72</ele>
        <time>2016-08-07T12:48:47Z</time>
      </trkpt>
      <trkpt lat="44.06437" lon="3.44625">
        <ele>890.32</ele>
        <time>2016-08-07T12:48:54Z</time>
      </trkpt>
      <trkpt lat="44.06434" lon="3.44627">
        <ele>887.91</ele>
        <time>2016-08-07T12:49:01Z</time>
      </trkpt>
      <trkpt lat="44.06434" lon="3.44628">
        <ele>886.95</ele>
        <time>2016-08-07T12:49:03Z</time>
      </trkpt>
      <trkpt lat="44.06434" lon="3.44633">
        <ele>885.99</ele>
        <time>2016-08-07T12:49:09Z</time>
      </trkpt>
      <trkpt lat="44.06435" lon="3.44633">
        <ele>885.51</ele>
        <time>2016-08-07T12:49:11Z</time>
      </trkpt>
      <trkpt lat="44.06438" lon="3.44634">
        <ele>885.03</ele>
        <time>2016-08-07T12:49:13Z</time>
      </trkpt>
      <trkpt lat="44.0644" lon="3.44632">
        <ele>883.59</ele>
        <time>2016-08-07T12:49:16Z</time>
      </trkpt>
      <trkpt lat="44.06443" lon="3.44634">
        <ele>881.19</ele>
        <time>2016-08-07T12:49:22Z</time>
      </trkpt>
      <trkpt lat="44.06443" lon="3.44634">
        <ele>880.71</ele>
        <time>2016-08-07T12:49:29Z</time>
      </trkpt>
      <trkpt lat="44.06444" lon="3.44633">
        <ele>879.74</ele>
        <time>2016-08-07T12:49:37Z</time>
      </trkpt>
      <trkpt lat="44.06443" lon="3.44633">
        <ele>879.74</ele>
        <time>2016-08-07T12:49:44Z</time>
      </trkpt>
      <trkpt lat="44.06444" lon="3.44633">
        <ele>878.78</ele>
        <time>2016-08-07T12:49:51Z</time>
      </trkpt>
      <trkpt lat="44.06444" lon="3.44633">
        <ele>878.78</ele>
        <time>2016-08-07T12:50:02Z</time>
      </trkpt>
      <trkpt lat="44.06444" lon="3.44633">
        <ele>880.22</ele>
        <time>2016-08-07T12:50:11Z</time>
      </trkpt>
      <trkpt lat="44.06444" lon="3.44633">
        <ele>880.22</ele>
        <time>2016-08-07T12:50:21Z</time>
      </trkpt>
      <trkpt lat="44.06444" lon="3.44633">
        <ele>880.22</ele>
        <time>2016-08-07T12:50:30Z</time>
      </trkpt>
      <trkpt lat="44.06444" lon="3.44633">
        <ele>880.22</ele>
        <time>2016-08-07T12:50:38Z</time>
      </trkpt>
      <trkpt lat="44.06444" lon="3.44633">
        <ele>880.22</ele>
        <time>2016-08-07T12:50:48Z</time>
      </trkpt>
      <trkpt lat="44.06443" lon="3.44634">
        <ele>881.19</ele>
        <time>2016-08-07T12:50:57Z</time>
      </trkpt>
      <trkpt lat="44.06444" lon="3.44635">
        <ele>882.15</ele>
        <time>2016-08-07T12:51:06Z</time>
      </trkpt>
      <trkpt lat="44.06444" lon="3.44635">
        <ele>882.63</ele>
        <time>2016-08-07T12:51:17Z</time>
      </trkpt>
      <trkpt lat="44.06444" lon="3.44636">
        <ele>883.59</ele>
        <time>2016-08-07T12:51:30Z</time>
      </trkpt>
      <trkpt lat="44.06444" lon="3.44638">
        <ele>884.55</ele>
        <time>2016-08-07T12:51:38Z</time>
      </trkpt>
      <trkpt lat="44.06444" lon="3.44638">
        <ele>885.51</ele>
        <time>2016-08-07T12:51:48Z</time>
      </trkpt>
      <trkpt lat="44.06444" lon="3.44637">
        <ele>885.99</ele>
        <time>2016-08-07T12:51:58Z</time>
      </trkpt>
      <trkpt lat="44.06444" lon="3.44637">
        <ele>885.99</ele>
        <time>2016-08-07T12:52:07Z</time>
      </trkpt>
      <trkpt lat="44.06443" lon="3.44637">
        <ele>886.47</ele>
        <time>2016-08-07T12:52:14Z</time>
      </trkpt>
      <trkpt lat="44.06443" lon="3.44635">
        <ele>886.47</ele>
        <time>2016-08-07T12:52:22Z</time>
      </trkpt>
      <trkpt lat="44.06443" lon="3.44635">
        <ele>886.95</ele>
        <time>2016-08-07T12:52:29Z</time>
      </trkpt>
      <trkpt lat="44.06443" lon="3.44635">
        <ele>886.95</ele>
        <time>2016-08-07T12:52:36Z</time>
      </trkpt>
      <trkpt lat="44.06443" lon="3.44635">
        <ele>887.43</ele>
        <time>2016-08-07T12:52:45Z</time>
      </trkpt>
      <trkpt lat="44.06443" lon="3.44636">
        <ele>888.4</ele>
        <time>2016-08-07T12:52:52Z</time>
      </trkpt>
      <trkpt lat="44.06443" lon="3.44636">
        <ele>888.4</ele>
        <time>2016-08-07T12:53:00Z</time>
      </trkpt>
      <trkpt lat="44.06443" lon="3.44636">
        <ele>888.4</ele>
        <time>2016-08-07T12:53:09Z</time>
      </trkpt>
      <trkpt lat="44.06443" lon="3.44636">
        <ele>888.88</ele>
        <time>2016-08-07T12:53:17Z</time>
      </trkpt>
      <trkpt lat="44.06443" lon="3.44636">
        <ele>888.88</ele>
        <time>2016-08-07T12:53:24Z</time>
      </trkpt>
      <trkpt lat="44.06443" lon="3.44636">
        <ele>888.88</ele>
        <time>2016-08-07T12:53:32Z</time>
      </trkpt>
      <trkpt lat="44.06442" lon="3.44635">
        <ele>889.36</ele>
        <time>2016-08-07T12:53:40Z</time>
      </trkpt>
      <trkpt lat="44.06442" lon="3.44636">
        <ele>889.36</ele>
        <time>2016-08-07T12:53:54Z</time>
      </trkpt>
      <trkpt lat="44.06442" lon="3.44636">
        <ele>889.36</ele>
        <time>2016-08-07T12:54:05Z</time>
      </trkpt>
      <trkpt lat="44.06442" lon="3.44638">
        <ele>889.36</ele>
        <time>2016-08-07T12:54:13Z</time>
      </trkpt>
      <trkpt lat="44.06443" lon="3.44639">
        <ele>889.36</ele>
        <time>2016-08-07T12:54:22Z</time>
      </trkpt>
      <trkpt lat="44.06442" lon="3.4464">
        <ele>889.84</ele>
        <time>2016-08-07T12:54:30Z</time>
      </trkpt>
      <trkpt lat="44.06443" lon="3.4464">
        <ele>890.32</ele>
        <time>2016-08-07T12:54:38Z</time>
      </trkpt>
      <trkpt lat="44.06443" lon="3.44639">
        <ele>890.32</ele>
        <time>2016-08-07T12:54:53Z</time>
      </trkpt>
      <trkpt lat="44.06442" lon="3.44639">
        <ele>890.8</ele>
        <time>2016-08-07T12:55:05Z</time>
      </trkpt>
      <trkpt lat="44.0644" lon="3.4464">
        <ele>890.8</ele>
        <time>2016-08-07T12:55:12Z</time>
      </trkpt>
      <trkpt lat="44.06437" lon="3.44639">
        <ele>889.84</ele>
        <time>2016-08-07T12:55:20Z</time>
      </trkpt>
      <trkpt lat="44.06436" lon="3.44637">
        <ele>887.91</ele>
        <time>2016-08-07T12:55:22Z</time>
      </trkpt>
      <trkpt lat="44.06431" lon="3.44636">
        <ele>886.47</ele>
        <time>2016-08-07T12:55:28Z</time>
      </trkpt>
      <trkpt lat="44.06429" lon="3.44635">
        <ele>886.95</ele>
        <time>2016-08-07T12:55:30Z</time>
      </trkpt>
      <trkpt lat="44.06424" lon="3.4463">
        <ele>888.4</ele>
        <time>2016-08-07T12:55:37Z</time>
      </trkpt>
      <trkpt lat="44.0642" lon="3.44624">
        <ele>888.88</ele>
        <time>2016-08-07T12:55:44Z</time>
      </trkpt>
      <trkpt lat="44.06419" lon="3.44615">
        <ele>890.8</ele>
        <time>2016-08-07T12:55:52Z</time>
      </trkpt>
      <trkpt lat="44.06419" lon="3.4461">
        <ele>890.8</ele>
        <time>2016-08-07T12:55:56Z</time>
      </trkpt>
      <trkpt lat="44.06423" lon="3.44596">
        <ele>891.76</ele>
        <time>2016-08-07T12:56:06Z</time>
      </trkpt>
      <trkpt lat="44.06426" lon="3.44586">
        <ele>891.76</ele>
        <time>2016-08-07T12:56:13Z</time>
      </trkpt>
      <trkpt lat="44.06426" lon="3.44581">
        <ele>891.76</ele>
        <time>2016-08-07T12:56:16Z</time>
      </trkpt>
      <trkpt lat="44.06427" lon="3.44572">
        <ele>892.72</ele>
        <time>2016-08-07T12:56:21Z</time>
      </trkpt>
      <trkpt lat="44.0643" lon="3.44565">
        <ele>892.72</ele>
        <time>2016-08-07T12:56:27Z</time>
      </trkpt>
      <trkpt lat="44.0643" lon="3.44555">
        <ele>892.24</ele>
        <time>2016-08-07T12:56:33Z</time>
      </trkpt>
      <trkpt lat="44.06434" lon="3.44544">
        <ele>892.72</ele>
        <time>2016-08-07T12:56:40Z</time>
      </trkpt>
      <trkpt lat="44.06437" lon="3.44534">
        <ele>892.24</ele>
        <time>2016-08-07T12:56:46Z</time>
      </trkpt>
      <trkpt lat="44.06437" lon="3.44532">
        <ele>892.24</ele>
        <time>2016-08-07T12:56:47Z</time>
      </trkpt>
      <trkpt lat="44.06437" lon="3.44526">
        <ele>892.24</ele>
        <time>2016-08-07T12:56:52Z</time>
      </trkpt>
      <trkpt lat="44.06441" lon="3.44519">
        <ele>892.72</ele>
        <time>2016-08-07T12:56:58Z</time>
      </trkpt>
      <trkpt lat="44.06443" lon="3.44505">
        <ele>892.72</ele>
        <time>2016-08-07T12:57:06Z</time>
      </trkpt>
      <trkpt lat="44.06448" lon="3.44494">
        <ele>892.24</ele>
        <time>2016-08-07T12:57:15Z</time>
      </trkpt>
      <trkpt lat="44.06448" lon="3.44492">
        <ele>892.24</ele>
        <time>2016-08-07T12:57:16Z</time>
      </trkpt>
      <trkpt lat="44.06451" lon="3.44483">
        <ele>891.76</ele>
        <time>2016-08-07T12:57:23Z</time>
      </trkpt>
      <trkpt lat="44.06454" lon="3.44481">
        <ele>891.76</ele>
        <time>2016-08-07T12:57:26Z</time>
      </trkpt>
      <trkpt lat="44.06463" lon="3.44476">
        <ele>893.2</ele>
        <time>2016-08-07T12:57:34Z</time>
      </trkpt>
      <trkpt lat="44.06468" lon="3.44471">
        <ele>895.12</ele>
        <time>2016-08-07T12:57:39Z</time>
      </trkpt>
      <trkpt lat="44.06479" lon="3.44467">
        <ele>895.12</ele>
        <time>2016-08-07T12:57:48Z</time>
      </trkpt>
      <trkpt lat="44.06486" lon="3.44465">
        <ele>894.64</ele>
        <time>2016-08-07T12:57:57Z</time>
      </trkpt>
      <trkpt lat="44.0649" lon="3.44465">
        <ele>894.16</ele>
        <time>2016-08-07T12:58:04Z</time>
      </trkpt>
      <trkpt lat="44.06492" lon="3.44464">
        <ele>894.64</ele>
        <time>2016-08-07T12:58:06Z</time>
      </trkpt>
      <trkpt lat="44.06503" lon="3.44466">
        <ele>896.57</ele>
        <time>2016-08-07T12:58:15Z</time>
      </trkpt>
      <trkpt lat="44.06509" lon="3.44464">
        <ele>897.05</ele>
        <time>2016-08-07T12:58:21Z</time>
      </trkpt>
      <trkpt lat="44.06519" lon="3.44466">
        <ele>894.16</ele>
        <time>2016-08-07T12:58:30Z</time>
      </trkpt>
      <trkpt lat="44.0652" lon="3.44466">
        <ele>894.16</ele>
        <time>2016-08-07T12:58:31Z</time>
      </trkpt>
      <trkpt lat="44.06526" lon="3.44465">
        <ele>893.68</ele>
        <time>2016-08-07T12:58:36Z</time>
      </trkpt>
      <trkpt lat="44.06534" lon="3.44462">
        <ele>892.24</ele>
        <time>2016-08-07T12:58:43Z</time>
      </trkpt>
      <trkpt lat="44.0654" lon="3.44459">
        <ele>892.24</ele>
        <time>2016-08-07T12:58:48Z</time>
      </trkpt>
      <trkpt lat="44.06547" lon="3.44457">
        <ele>892.24</ele>
        <time>2016-08-07T12:58:54Z</time>
      </trkpt>
      <trkpt lat="44.06555" lon="3.44445">
        <ele>892.24</ele>
        <time>2016-08-07T12:59:02Z</time>
      </trkpt>
      <trkpt lat="44.06555" lon="3.44444">
        <ele>892.24</ele>
        <time>2016-08-07T12:59:07Z</time>
      </trkpt>
      <trkpt lat="44.06557" lon="3.44437">
        <ele>892.24</ele>
        <time>2016-08-07T12:59:13Z</time>
      </trkpt>
      <trkpt lat="44.06558" lon="3.44434">
        <ele>892.24</ele>
        <time>2016-08-07T12:59:15Z</time>
      </trkpt>
      <trkpt lat="44.06562" lon="3.44424">
        <ele>892.24</ele>
        <time>2016-08-07T12:59:21Z</time>
      </trkpt>
      <trkpt lat="44.06562" lon="3.44413">
        <ele>891.76</ele>
        <time>2016-08-07T12:59:27Z</time>
      </trkpt>
      <trkpt lat="44.06564" lon="3.44404">
        <ele>891.76</ele>
        <time>2016-08-07T12:59:33Z</time>
      </trkpt>
      <trkpt lat="44.06565" lon="3.4439">
        <ele>890.32</ele>
        <time>2016-08-07T12:59:41Z</time>
      </trkpt>
      <trkpt lat="44.06568" lon="3.44381">
        <ele>889.36</ele>
        <time>2016-08-07T12:59:48Z</time>
      </trkpt>
      <trkpt lat="44.06569" lon="3.44378">
        <ele>888.88</ele>
        <time>2016-08-07T12:59:50Z</time>
      </trkpt>
      <trkpt lat="44.06571" lon="3.44366">
        <ele>888.4</ele>
        <time>2016-08-07T12:59:57Z</time>
      </trkpt>
      <trkpt lat="44.06574" lon="3.44358">
        <ele>887.91</ele>
        <time>2016-08-07T13:00:02Z</time>
      </trkpt>
      <trkpt lat="44.06574" lon="3.44352">
        <ele>886.95</ele>
        <time>2016-08-07T13:00:05Z</time>
      </trkpt>
      <trkpt lat="44.06576" lon="3.44341">
        <ele>886.47</ele>
        <time>2016-08-07T13:00:11Z</time>
      </trkpt>
      <trkpt lat="44.06579" lon="3.44332">
        <ele>885.99</ele>
        <time>2016-08-07T13:00:17Z</time>
      </trkpt>
      <trkpt lat="44.06581" lon="3.4432">
        <ele>886.95</ele>
        <time>2016-08-07T13:00:24Z</time>
      </trkpt>
      <trkpt lat="44.06582" lon="3.44312">
        <ele>886.95</ele>
        <time>2016-08-07T13:00:28Z</time>
      </trkpt>
      <trkpt lat="44.06582" lon="3.44304">
        <ele>885.99</ele>
        <time>2016-08-07T13:00:32Z</time>
      </trkpt>
      <trkpt lat="44.06584" lon="3.44296">
        <ele>885.99</ele>
        <time>2016-08-07T13:00:37Z</time>
      </trkpt>
      <trkpt lat="44.06584" lon="3.44285">
        <ele>885.99</ele>
        <time>2016-08-07T13:00:43Z</time>
      </trkpt>
      <trkpt lat="44.06586" lon="3.4428">
        <ele>886.47</ele>
        <time>2016-08-07T13:00:46Z</time>
      </trkpt>
      <trkpt lat="44.0659" lon="3.44267">
        <ele>885.99</ele>
        <time>2016-08-07T13:00:55Z</time>
      </trkpt>
      <trkpt lat="44.06591" lon="3.44254">
        <ele>885.99</ele>
        <time>2016-08-07T13:01:03Z</time>
      </trkpt>
      <trkpt lat="44.06591" lon="3.44243">
        <ele>885.99</ele>
        <time>2016-08-07T13:01:10Z</time>
      </trkpt>
      <trkpt lat="44.0659" lon="3.4423">
        <ele>885.99</ele>
        <time>2016-08-07T13:01:19Z</time>
      </trkpt>
      <trkpt lat="44.0659" lon="3.44229">
        <ele>885.99</ele>
        <time>2016-08-07T13:01:20Z</time>
      </trkpt>
      <trkpt lat="44.06581" lon="3.44221">
        <ele>885.99</ele>
        <time>2016-08-07T13:01:28Z</time>
      </trkpt>
      <trkpt lat="44.06577" lon="3.44216">
        <ele>885.51</ele>
        <time>2016-08-07T13:01:32Z</time>
      </trkpt>
      <trkpt lat="44.06575" lon="3.44208">
        <ele>885.51</ele>
        <time>2016-08-07T13:01:36Z</time>
      </trkpt>
      <trkpt lat="44.06573" lon="3.442">
        <ele>884.55</ele>
        <time>2016-08-07T13:01:41Z</time>
      </trkpt>
      <trkpt lat="44.06572" lon="3.44193">
        <ele>884.07</ele>
        <time>2016-08-07T13:01:45Z</time>
      </trkpt>
      <trkpt lat="44.0658" lon="3.44184">
        <ele>883.59</ele>
        <time>2016-08-07T13:01:53Z</time>
      </trkpt>
      <trkpt lat="44.06585" lon="3.44181">
        <ele>883.11</ele>
        <time>2016-08-07T13:01:58Z</time>
      </trkpt>
      <trkpt lat="44.06591" lon="3.44173">
        <ele>883.59</ele>
        <time>2016-08-07T13:02:05Z</time>
      </trkpt>
      <trkpt lat="44.06596" lon="3.44169">
        <ele>883.11</ele>
        <time>2016-08-07T13:02:11Z</time>
      </trkpt>
      <trkpt lat="44.06599" lon="3.44167">
        <ele>883.11</ele>
        <time>2016-08-07T13:02:13Z</time>
      </trkpt>
      <trkpt lat="44.06606" lon="3.4416">
        <ele>883.11</ele>
        <time>2016-08-07T13:02:19Z</time>
      </trkpt>
      <trkpt lat="44.06612" lon="3.44154">
        <ele>883.11</ele>
        <time>2016-08-07T13:02:25Z</time>
      </trkpt>
      <trkpt lat="44.0662" lon="3.44145">
        <ele>883.11</ele>
        <time>2016-08-07T13:02:32Z</time>
      </trkpt>
      <trkpt lat="44.06626" lon="3.4414">
        <ele>882.15</ele>
        <time>2016-08-07T13:02:39Z</time>
      </trkpt>
      <trkpt lat="44.06628" lon="3.44136">
        <ele>882.63</ele>
        <time>2016-08-07T13:02:45Z</time>
      </trkpt>
      <trkpt lat="44.06633" lon="3.44134">
        <ele>883.59</ele>
        <time>2016-08-07T13:02:49Z</time>
      </trkpt>
      <trkpt lat="44.06638" lon="3.44132">
        <ele>883.59</ele>
        <time>2016-08-07T13:02:53Z</time>
      </trkpt>
      <trkpt lat="44.06645" lon="3.4413">
        <ele>883.59</ele>
        <time>2016-08-07T13:03:01Z</time>
      </trkpt>
      <trkpt lat="44.06652" lon="3.44129">
        <ele>883.11</ele>
        <time>2016-08-07T13:03:08Z</time>
      </trkpt>
      <trkpt lat="44.06659" lon="3.44122">
        <ele>884.07</ele>
        <time>2016-08-07T13:03:14Z</time>
      </trkpt>
      <trkpt lat="44.06665" lon="3.44113">
        <ele>883.59</ele>
        <time>2016-08-07T13:03:21Z</time>
      </trkpt>
      <trkpt lat="44.06666" lon="3.44109">
        <ele>883.59</ele>
        <time>2016-08-07T13:03:24Z</time>
      </trkpt>
      <trkpt lat="44.06665" lon="3.44096">
        <ele>883.11</ele>
        <time>2016-08-07T13:03:32Z</time>
      </trkpt>
      <trkpt lat="44.06664" lon="3.44084">
        <ele>881.67</ele>
        <time>2016-08-07T13:03:39Z</time>
      </trkpt>
      <trkpt lat="44.06662" lon="3.44072">
        <ele>879.26</ele>
        <time>2016-08-07T13:03:47Z</time>
      </trkpt>
      <trkpt lat="44.06664" lon="3.4406">
        <ele>878.3</ele>
        <time>2016-08-07T13:03:53Z</time>
      </trkpt>
      <trkpt lat="44.06668" lon="3.44051">
        <ele>878.3</ele>
        <time>2016-08-07T13:04:00Z</time>
      </trkpt>
      <trkpt lat="44.0667" lon="3.44049">
        <ele>878.3</ele>
        <time>2016-08-07T13:04:02Z</time>
      </trkpt>
      <trkpt lat="44.06672" lon="3.44045">
        <ele>878.3</ele>
        <time>2016-08-07T13:04:05Z</time>
      </trkpt>
      <trkpt lat="44.06678" lon="3.44037">
        <ele>878.3</ele>
        <time>2016-08-07T13:04:12Z</time>
      </trkpt>
      <trkpt lat="44.06684" lon="3.4403">
        <ele>878.3</ele>
        <time>2016-08-07T13:04:18Z</time>
      </trkpt>
      <trkpt lat="44.0669" lon="3.44022">
        <ele>877.34</ele>
        <time>2016-08-07T13:04:25Z</time>
      </trkpt>
      <trkpt lat="44.06698" lon="3.44015">
        <ele>875.9</ele>
        <time>2016-08-07T13:04:33Z</time>
      </trkpt>
      <trkpt lat="44.06699" lon="3.44014">
        <ele>875.9</ele>
        <time>2016-08-07T13:04:35Z</time>
      </trkpt>
      <trkpt lat="44.06708" lon="3.4401">
        <ele>875.42</ele>
        <time>2016-08-07T13:04:43Z</time>
      </trkpt>
      <trkpt lat="44.06714" lon="3.44006">
        <ele>875.42</ele>
        <time>2016-08-07T13:04:48Z</time>
      </trkpt>
      <trkpt lat="44.06723" lon="3.43999">
        <ele>874.94</ele>
        <time>2016-08-07T13:04:56Z</time>
      </trkpt>
      <trkpt lat="44.06728" lon="3.43996">
        <ele>874.46</ele>
        <time>2016-08-07T13:05:00Z</time>
      </trkpt>
      <trkpt lat="44.06736" lon="3.43992">
        <ele>874.46</ele>
        <time>2016-08-07T13:05:07Z</time>
      </trkpt>
      <trkpt lat="44.06742" lon="3.43987">
        <ele>873.5</ele>
        <time>2016-08-07T13:05:13Z</time>
      </trkpt>
      <trkpt lat="44.06747" lon="3.43989">
        <ele>872.53</ele>
        <time>2016-08-07T13:05:17Z</time>
      </trkpt>
      <trkpt lat="44.06757" lon="3.43988">
        <ele>872.05</ele>
        <time>2016-08-07T13:05:24Z</time>
      </trkpt>
      <trkpt lat="44.06762" lon="3.43988">
        <ele>872.05</ele>
        <time>2016-08-07T13:05:29Z</time>
      </trkpt>
      <trkpt lat="44.06772" lon="3.43988">
        <ele>872.53</ele>
        <time>2016-08-07T13:05:37Z</time>
      </trkpt>
      <trkpt lat="44.06778" lon="3.43988">
        <ele>872.05</ele>
        <time>2016-08-07T13:05:43Z</time>
      </trkpt>
      <trkpt lat="44.06783" lon="3.43988">
        <ele>871.57</ele>
        <time>2016-08-07T13:05:47Z</time>
      </trkpt>
      <trkpt lat="44.06792" lon="3.43986">
        <ele>871.57</ele>
        <time>2016-08-07T13:05:54Z</time>
      </trkpt>
      <trkpt lat="44.068" lon="3.43985">
        <ele>872.05</ele>
        <time>2016-08-07T13:06:00Z</time>
      </trkpt>
      <trkpt lat="44.06806" lon="3.43982">
        <ele>872.05</ele>
        <time>2016-08-07T13:06:06Z</time>
      </trkpt>
      <trkpt lat="44.06809" lon="3.43982">
        <ele>872.05</ele>
        <time>2016-08-07T13:06:09Z</time>
      </trkpt>
      <trkpt lat="44.06819" lon="3.43982">
        <ele>872.05</ele>
        <time>2016-08-07T13:06:16Z</time>
      </trkpt>
      <trkpt lat="44.06826" lon="3.43982">
        <ele>871.57</ele>
        <time>2016-08-07T13:06:23Z</time>
      </trkpt>
      <trkpt lat="44.06837" lon="3.43982">
        <ele>871.09</ele>
        <time>2016-08-07T13:06:30Z</time>
      </trkpt>
      <trkpt lat="44.06843" lon="3.4398">
        <ele>871.09</ele>
        <time>2016-08-07T13:06:35Z</time>
      </trkpt>
      <trkpt lat="44.06849" lon="3.43975">
        <ele>870.61</ele>
        <time>2016-08-07T13:06:42Z</time>
      </trkpt>
      <trkpt lat="44.0685" lon="3.43967">
        <ele>870.61</ele>
        <time>2016-08-07T13:06:49Z</time>
      </trkpt>
      <trkpt lat="44.06847" lon="3.43956">
        <ele>870.61</ele>
        <time>2016-08-07T13:06:56Z</time>
      </trkpt>
      <trkpt lat="44.06843" lon="3.43948">
        <ele>870.61</ele>
        <time>2016-08-07T13:07:03Z</time>
      </trkpt>
      <trkpt lat="44.06839" lon="3.43941">
        <ele>870.61</ele>
        <time>2016-08-07T13:07:09Z</time>
      </trkpt>
      <trkpt lat="44.06825" lon="3.43922">
        <ele>870.61</ele>
        <time>2016-08-07T13:07:18Z</time>
      </trkpt>
      <trkpt lat="44.06817" lon="3.43912">
        <ele>870.61</ele>
        <time>2016-08-07T13:07:27Z</time>
      </trkpt>
      <trkpt lat="44.06815" lon="3.4391">
        <ele>870.13</ele>
        <time>2016-08-07T13:07:29Z</time>
      </trkpt>
      <trkpt lat="44.06812" lon="3.43902">
        <ele>869.65</ele>
        <time>2016-08-07T13:07:35Z</time>
      </trkpt>
      <trkpt lat="44.06809" lon="3.43893">
        <ele>869.65</ele>
        <time>2016-08-07T13:07:41Z</time>
      </trkpt>
      <trkpt lat="44.06803" lon="3.43882">
        <ele>870.13</ele>
        <time>2016-08-07T13:07:49Z</time>
      </trkpt>
      <trkpt lat="44.06802" lon="3.43878">
        <ele>870.13</ele>
        <time>2016-08-07T13:07:52Z</time>
      </trkpt>
      <trkpt lat="44.06792" lon="3.43858">
        <ele>869.65</ele>
        <time>2016-08-07T13:07:59Z</time>
      </trkpt>
      <trkpt lat="44.0679" lon="3.43851">
        <ele>870.13</ele>
        <time>2016-08-07T13:08:07Z</time>
      </trkpt>
      <trkpt lat="44.06785" lon="3.43841">
        <ele>869.65</ele>
        <time>2016-08-07T13:08:15Z</time>
      </trkpt>
      <trkpt lat="44.06784" lon="3.43836">
        <ele>869.17</ele>
        <time>2016-08-07T13:08:21Z</time>
      </trkpt>
      <trkpt lat="44.06784" lon="3.43828">
        <ele>867.25</ele>
        <time>2016-08-07T13:08:28Z</time>
      </trkpt>
      <trkpt lat="44.06786" lon="3.43813">
        <ele>866.29</ele>
        <time>2016-08-07T13:08:38Z</time>
      </trkpt>
      <trkpt lat="44.06786" lon="3.43807">
        <ele>864.84</ele>
        <time>2016-08-07T13:08:42Z</time>
      </trkpt>
      <trkpt lat="44.06789" lon="3.43793">
        <ele>864.84</ele>
        <time>2016-08-07T13:08:50Z</time>
      </trkpt>
      <trkpt lat="44.06791" lon="3.43782">
        <ele>863.88</ele>
        <time>2016-08-07T13:08:55Z</time>
      </trkpt>
      <trkpt lat="44.06794" lon="3.43771">
        <ele>863.88</ele>
        <time>2016-08-07T13:09:03Z</time>
      </trkpt>
      <trkpt lat="44.06795" lon="3.4377">
        <ele>864.84</ele>
        <time>2016-08-07T13:09:08Z</time>
      </trkpt>
      <trkpt lat="44.06795" lon="3.43769">
        <ele>864.84</ele>
        <time>2016-08-07T13:09:14Z</time>
      </trkpt>
      <trkpt lat="44.06789" lon="3.43769">
        <ele>865.32</ele>
        <time>2016-08-07T13:09:23Z</time>
      </trkpt>
      <trkpt lat="44.06787" lon="3.4377">
        <ele>864.36</ele>
        <time>2016-08-07T13:09:31Z</time>
      </trkpt>
      <trkpt lat="44.06784" lon="3.43772">
        <ele>866.29</ele>
        <time>2016-08-07T13:09:52Z</time>
      </trkpt>
      <trkpt lat="44.06784" lon="3.43772">
        <ele>865.8</ele>
        <time>2016-08-07T13:10:10Z</time>
      </trkpt>
      <trkpt lat="44.0679" lon="3.43771">
        <ele>865.32</ele>
        <time>2016-08-07T13:10:17Z</time>
      </trkpt>
      <trkpt lat="44.06794" lon="3.43771">
        <ele>864.84</ele>
        <time>2016-08-07T13:10:19Z</time>
      </trkpt>
      <trkpt lat="44.06804" lon="3.43771">
        <ele>862.44</ele>
        <time>2016-08-07T13:10:27Z</time>
      </trkpt>
      <trkpt lat="44.06812" lon="3.43766">
        <ele>861.96</ele>
        <time>2016-08-07T13:10:34Z</time>
      </trkpt>
      <trkpt lat="44.06816" lon="3.43764">
        <ele>862.44</ele>
        <time>2016-08-07T13:10:40Z</time>
      </trkpt>
      <trkpt lat="44.06825" lon="3.43758">
        <ele>861.96</ele>
        <time>2016-08-07T13:10:47Z</time>
      </trkpt>
      <trkpt lat="44.06834" lon="3.43754">
        <ele>861.48</ele>
        <time>2016-08-07T13:10:55Z</time>
      </trkpt>
      <trkpt lat="44.06842" lon="3.43749">
        <ele>860.52</ele>
        <time>2016-08-07T13:11:03Z</time>
      </trkpt>
      <trkpt lat="44.06847" lon="3.43744">
        <ele>859.56</ele>
        <time>2016-08-07T13:11:10Z</time>
      </trkpt>
      <trkpt lat="44.0686" lon="3.43739">
        <ele>859.08</ele>
        <time>2016-08-07T13:11:18Z</time>
      </trkpt>
      <trkpt lat="44.06868" lon="3.43737">
        <ele>859.56</ele>
        <time>2016-08-07T13:11:23Z</time>
      </trkpt>
      <trkpt lat="44.06873" lon="3.43733">
        <ele>859.08</ele>
        <time>2016-08-07T13:11:30Z</time>
      </trkpt>
      <trkpt lat="44.06883" lon="3.4373">
        <ele>858.11</ele>
        <time>2016-08-07T13:11:38Z</time>
      </trkpt>
      <trkpt lat="44.06889" lon="3.43724">
        <ele>857.63</ele>
        <time>2016-08-07T13:11:45Z</time>
      </trkpt>
      <trkpt lat="44.06898" lon="3.43721">
        <ele>856.19</ele>
        <time>2016-08-07T13:11:53Z</time>
      </trkpt>
      <trkpt lat="44.06899" lon="3.4372">
        <ele>856.19</ele>
        <time>2016-08-07T13:11:54Z</time>
      </trkpt>
      <trkpt lat="44.06917" lon="3.43714">
        <ele>855.71</ele>
        <time>2016-08-07T13:12:04Z</time>
      </trkpt>
      <trkpt lat="44.06924" lon="3.43708">
        <ele>855.23</ele>
        <time>2016-08-07T13:12:11Z</time>
      </trkpt>
      <trkpt lat="44.0693" lon="3.43706">
        <ele>854.75</ele>
        <time>2016-08-07T13:12:17Z</time>
      </trkpt>
      <trkpt lat="44.06939" lon="3.43701">
        <ele>854.75</ele>
        <time>2016-08-07T13:12:23Z</time>
      </trkpt>
      <trkpt lat="44.06947" lon="3.43698">
        <ele>854.27</ele>
        <time>2016-08-07T13:12:30Z</time>
      </trkpt>
      <trkpt lat="44.06952" lon="3.43693">
        <ele>854.75</ele>
        <time>2016-08-07T13:12:34Z</time>
      </trkpt>
      <trkpt lat="44.06959" lon="3.43684">
        <ele>854.75</ele>
        <time>2016-08-07T13:12:42Z</time>
      </trkpt>
      <trkpt lat="44.06972" lon="3.43675">
        <ele>854.75</ele>
        <time>2016-08-07T13:12:55Z</time>
      </trkpt>
      <trkpt lat="44.06979" lon="3.43651">
        <ele>856.19</ele>
        <time>2016-08-07T13:13:01Z</time>
      </trkpt>
      <trkpt lat="44.06981" lon="3.43643">
        <ele>856.67</ele>
        <time>2016-08-07T13:13:08Z</time>
      </trkpt>
      <trkpt lat="44.06981" lon="3.4364">
        <ele>856.67</ele>
        <time>2016-08-07T13:13:14Z</time>
      </trkpt>
      <trkpt lat="44.06981" lon="3.4364">
        <ele>856.67</ele>
        <time>2016-08-07T13:13:19Z</time>
      </trkpt>
      <trkpt lat="44.06976" lon="3.43634">
        <ele>856.67</ele>
        <time>2016-08-07T13:13:26Z</time>
      </trkpt>
      <trkpt lat="44.06976" lon="3.43634">
        <ele>856.67</ele>
        <time>2016-08-07T13:13:27Z</time>
      </trkpt>
      <trkpt lat="44.06968" lon="3.43633">
        <ele>855.71</ele>
        <time>2016-08-07T13:13:34Z</time>
      </trkpt>
      <trkpt lat="44.06957" lon="3.43634">
        <ele>855.71</ele>
        <time>2016-08-07T13:13:43Z</time>
      </trkpt>
      <trkpt lat="44.06941" lon="3.43637">
        <ele>855.23</ele>
        <time>2016-08-07T13:13:52Z</time>
      </trkpt>
      <trkpt lat="44.06933" lon="3.43639">
        <ele>855.23</ele>
        <time>2016-08-07T13:13:59Z</time>
      </trkpt>
      <trkpt lat="44.06931" lon="3.43638">
        <ele>855.23</ele>
        <time>2016-08-07T13:14:01Z</time>
      </trkpt>
      <trkpt lat="44.06925" lon="3.43636">
        <ele>855.23</ele>
        <time>2016-08-07T13:14:08Z</time>
      </trkpt>
      <trkpt lat="44.0692" lon="3.43633">
        <ele>855.71</ele>
        <time>2016-08-07T13:14:13Z</time>
      </trkpt>
      <trkpt lat="44.06917" lon="3.43632">
        <ele>855.71</ele>
        <time>2016-08-07T13:14:15Z</time>
      </trkpt>
      <trkpt lat="44.0691" lon="3.43631">
        <ele>855.23</ele>
        <time>2016-08-07T13:14:22Z</time>
      </trkpt>
      <trkpt lat="44.06904" lon="3.43628">
        <ele>855.23</ele>
        <time>2016-08-07T13:14:27Z</time>
      </trkpt>
      <trkpt lat="44.06892" lon="3.43628">
        <ele>854.75</ele>
        <time>2016-08-07T13:14:36Z</time>
      </trkpt>
      <trkpt lat="44.0689" lon="3.43627">
        <ele>854.75</ele>
        <time>2016-08-07T13:14:38Z</time>
      </trkpt>
      <trkpt lat="44.06881" lon="3.43627">
        <ele>854.27</ele>
        <time>2016-08-07T13:14:45Z</time>
      </trkpt>
      <trkpt lat="44.06877" lon="3.43627">
        <ele>854.27</ele>
        <time>2016-08-07T13:14:48Z</time>
      </trkpt>
      <trkpt lat="44.06869" lon="3.43629">
        <ele>854.27</ele>
        <time>2016-08-07T13:14:53Z</time>
      </trkpt>
      <trkpt lat="44.06867" lon="3.43629">
        <ele>854.27</ele>
        <time>2016-08-07T13:14:55Z</time>
      </trkpt>
      <trkpt lat="44.06859" lon="3.43627">
        <ele>854.27</ele>
        <time>2016-08-07T13:15:02Z</time>
      </trkpt>
      <trkpt lat="44.06852" lon="3.43625">
        <ele>853.79</ele>
        <time>2016-08-07T13:15:09Z</time>
      </trkpt>
      <trkpt lat="44.06849" lon="3.43623">
        <ele>853.79</ele>
        <time>2016-08-07T13:15:15Z</time>
      </trkpt>
      <trkpt lat="44.06843" lon="3.43616">
        <ele>857.15</ele>
        <time>2016-08-07T13:15:25Z</time>
      </trkpt>
      <trkpt lat="44.06839" lon="3.43624">
        <ele>860.52</ele>
        <time>2016-08-07T13:15:32Z</time>
      </trkpt>
      <trkpt lat="44.06829" lon="3.43623">
        <ele>860.52</ele>
        <time>2016-08-07T13:15:41Z</time>
      </trkpt>
      <trkpt lat="44.06828" lon="3.43623">
        <ele>860.04</ele>
        <time>2016-08-07T13:15:43Z</time>
      </trkpt>
      <trkpt lat="44.06821" lon="3.43621">
        <ele>859.56</ele>
        <time>2016-08-07T13:15:49Z</time>
      </trkpt>
      <trkpt lat="44.06818" lon="3.43619">
        <ele>859.56</ele>
        <time>2016-08-07T13:15:53Z</time>
      </trkpt>
      <trkpt lat="44.06813" lon="3.43612">
        <ele>858.59</ele>
        <time>2016-08-07T13:16:00Z</time>
      </trkpt>
      <trkpt lat="44.06811" lon="3.43608">
        <ele>857.63</ele>
        <time>2016-08-07T13:16:03Z</time>
      </trkpt>
      <trkpt lat="44.06806" lon="3.43598">
        <ele>857.15</ele>
        <time>2016-08-07T13:16:10Z</time>
      </trkpt>
      <trkpt lat="44.068" lon="3.43592">
        <ele>855.71</ele>
        <time>2016-08-07T13:16:18Z</time>
      </trkpt>
      <trkpt lat="44.06791" lon="3.43586">
        <ele>854.27</ele>
        <time>2016-08-07T13:16:26Z</time>
      </trkpt>
      <trkpt lat="44.06786" lon="3.43583">
        <ele>854.75</ele>
        <time>2016-08-07T13:16:31Z</time>
      </trkpt>
      <trkpt lat="44.06783" lon="3.43583">
        <ele>854.27</ele>
        <time>2016-08-07T13:16:33Z</time>
      </trkpt>
      <trkpt lat="44.06777" lon="3.4358">
        <ele>853.79</ele>
        <time>2016-08-07T13:16:38Z</time>
      </trkpt>
      <trkpt lat="44.06772" lon="3.43575">
        <ele>853.31</ele>
        <time>2016-08-07T13:16:44Z</time>
      </trkpt>
      <trkpt lat="44.06765" lon="3.4357">
        <ele>853.31</ele>
        <time>2016-08-07T13:16:51Z</time>
      </trkpt>
      <trkpt lat="44.06762" lon="3.43564">
        <ele>854.27</ele>
        <time>2016-08-07T13:16:55Z</time>
      </trkpt>
      <trkpt lat="44.0676" lon="3.4356">
        <ele>854.27</ele>
        <time>2016-08-07T13:16:58Z</time>
      </trkpt>
      <trkpt lat="44.06755" lon="3.43553">
        <ele>853.79</ele>
        <time>2016-08-07T13:17:04Z</time>
      </trkpt>
      <trkpt lat="44.06754" lon="3.43545">
        <ele>853.31</ele>
        <time>2016-08-07T13:17:10Z</time>
      </trkpt>
      <trkpt lat="44.06752" lon="3.43541">
        <ele>853.79</ele>
        <time>2016-08-07T13:17:12Z</time>
      </trkpt>
      <trkpt lat="44.0675" lon="3.43533">
        <ele>853.31</ele>
        <time>2016-08-07T13:17:17Z</time>
      </trkpt>
      <trkpt lat="44.06751" lon="3.43523">
        <ele>852.35</ele>
        <time>2016-08-07T13:17:23Z</time>
      </trkpt>
      <trkpt lat="44.06749" lon="3.43515">
        <ele>851.87</ele>
        <time>2016-08-07T13:17:29Z</time>
      </trkpt>
      <trkpt lat="44.06751" lon="3.4351">
        <ele>851.87</ele>
        <time>2016-08-07T13:17:33Z</time>
      </trkpt>
      <trkpt lat="44.06753" lon="3.43499">
        <ele>850.42</ele>
        <time>2016-08-07T13:17:40Z</time>
      </trkpt>
      <trkpt lat="44.06753" lon="3.43481">
        <ele>849.46</ele>
        <time>2016-08-07T13:17:48Z</time>
      </trkpt>
      <trkpt lat="44.06751" lon="3.43467">
        <ele>848.98</ele>
        <time>2016-08-07T13:17:56Z</time>
      </trkpt>
      <trkpt lat="44.06751" lon="3.43457">
        <ele>847.54</ele>
        <time>2016-08-07T13:18:03Z</time>
      </trkpt>
      <trkpt lat="44.0675" lon="3.43455">
        <ele>848.02</ele>
        <time>2016-08-07T13:18:04Z</time>
      </trkpt>
      <trkpt lat="44.06747" lon="3.43443">
        <ele>847.54</ele>
        <time>2016-08-07T13:18:11Z</time>
      </trkpt>
      <trkpt lat="44.06747" lon="3.43433">
        <ele>847.54</ele>
        <time>2016-08-07T13:18:18Z</time>
      </trkpt>
      <trkpt lat="44.06748" lon="3.43429">
        <ele>847.54</ele>
        <time>2016-08-07T13:18:21Z</time>
      </trkpt>
      <trkpt lat="44.06748" lon="3.43415">
        <ele>846.1</ele>
        <time>2016-08-07T13:18:29Z</time>
      </trkpt>
      <trkpt lat="44.06748" lon="3.4341">
        <ele>846.1</ele>
        <time>2016-08-07T13:18:32Z</time>
      </trkpt>
      <trkpt lat="44.06749" lon="3.43396">
        <ele>846.1</ele>
        <time>2016-08-07T13:18:40Z</time>
      </trkpt>
      <trkpt lat="44.0675" lon="3.43388">
        <ele>845.14</ele>
        <time>2016-08-07T13:18:45Z</time>
      </trkpt>
      <trkpt lat="44.06753" lon="3.43373">
        <ele>845.14</ele>
        <time>2016-08-07T13:18:53Z</time>
      </trkpt>
      <trkpt lat="44.06752" lon="3.43366">
        <ele>844.66</ele>
        <time>2016-08-07T13:18:56Z</time>
      </trkpt>
      <trkpt lat="44.06753" lon="3.43362">
        <ele>844.66</ele>
        <time>2016-08-07T13:18:58Z</time>
      </trkpt>
      <trkpt lat="44.06753" lon="3.43359">
        <ele>844.66</ele>
        <time>2016-08-07T13:19:00Z</time>
      </trkpt>
      <trkpt lat="44.06756" lon="3.4335">
        <ele>843.69</ele>
        <time>2016-08-07T13:19:07Z</time>
      </trkpt>
      <trkpt lat="44.06757" lon="3.43346">
        <ele>843.21</ele>
        <time>2016-08-07T13:19:10Z</time>
      </trkpt>
      <trkpt lat="44.06761" lon="3.43337">
        <ele>841.29</ele>
        <time>2016-08-07T13:19:17Z</time>
      </trkpt>
      <trkpt lat="44.06766" lon="3.43325">
        <ele>840.33</ele>
        <time>2016-08-07T13:19:26Z</time>
      </trkpt>
      <trkpt lat="44.06769" lon="3.43314">
        <ele>840.33</ele>
        <time>2016-08-07T13:19:33Z</time>
      </trkpt>
      <trkpt lat="44.0677" lon="3.43308">
        <ele>840.33</ele>
        <time>2016-08-07T13:19:37Z</time>
      </trkpt>
      <trkpt lat="44.06773" lon="3.433">
        <ele>840.81</ele>
        <time>2016-08-07T13:19:42Z</time>
      </trkpt>
      <trkpt lat="44.06775" lon="3.43285">
        <ele>839.85</ele>
        <time>2016-08-07T13:19:51Z</time>
      </trkpt>
      <trkpt lat="44.06776" lon="3.43277">
        <ele>839.85</ele>
        <time>2016-08-07T13:19:56Z</time>
      </trkpt>
      <trkpt lat="44.0678" lon="3.43269">
        <ele>840.33</ele>
        <time>2016-08-07T13:20:01Z</time>
      </trkpt>
      <trkpt lat="44.06782" lon="3.43262">
        <ele>840.33</ele>
        <time>2016-08-07T13:20:06Z</time>
      </trkpt>
      <trkpt lat="44.06785" lon="3.43255">
        <ele>840.33</ele>
        <time>2016-08-07T13:20:11Z</time>
      </trkpt>
      <trkpt lat="44.06788" lon="3.43253">
        <ele>840.81</ele>
        <time>2016-08-07T13:20:14Z</time>
      </trkpt>
      <trkpt lat="44.06791" lon="3.43243">
        <ele>840.33</ele>
        <time>2016-08-07T13:20:21Z</time>
      </trkpt>
      <trkpt lat="44.06796" lon="3.43236">
        <ele>839.85</ele>
        <time>2016-08-07T13:20:28Z</time>
      </trkpt>
      <trkpt lat="44.06802" lon="3.43228">
        <ele>839.37</ele>
        <time>2016-08-07T13:20:35Z</time>
      </trkpt>
      <trkpt lat="44.06804" lon="3.43224">
        <ele>839.37</ele>
        <time>2016-08-07T13:20:41Z</time>
      </trkpt>
      <trkpt lat="44.06807" lon="3.43223">
        <ele>839.37</ele>
        <time>2016-08-07T13:20:48Z</time>
      </trkpt>
      <trkpt lat="44.06807" lon="3.43217">
        <ele>839.37</ele>
        <time>2016-08-07T13:20:56Z</time>
      </trkpt>
      <trkpt lat="44.06807" lon="3.43209">
        <ele>839.85</ele>
        <time>2016-08-07T13:21:02Z</time>
      </trkpt>
      <trkpt lat="44.06805" lon="3.43202">
        <ele>839.85</ele>
        <time>2016-08-07T13:21:09Z</time>
      </trkpt>
      <trkpt lat="44.06804" lon="3.4319">
        <ele>840.33</ele>
        <time>2016-08-07T13:21:16Z</time>
      </trkpt>
      <trkpt lat="44.068" lon="3.43172">
        <ele>840.33</ele>
        <time>2016-08-07T13:21:21Z</time>
      </trkpt>
      <trkpt lat="44.06795" lon="3.43154">
        <ele>839.85</ele>
        <time>2016-08-07T13:21:28Z</time>
      </trkpt>
      <trkpt lat="44.06792" lon="3.43145">
        <ele>839.85</ele>
        <time>2016-08-07T13:21:32Z</time>
      </trkpt>
      <trkpt lat="44.06792" lon="3.4314">
        <ele>839.85</ele>
        <time>2016-08-07T13:21:34Z</time>
      </trkpt>
      <trkpt lat="44.06788" lon="3.4313">
        <ele>839.37</ele>
        <time>2016-08-07T13:21:41Z</time>
      </trkpt>
      <trkpt lat="44.06786" lon="3.43126">
        <ele>839.85</ele>
        <time>2016-08-07T13:21:46Z</time>
      </trkpt>
      <trkpt lat="44.0678" lon="3.43114">
        <ele>839.85</ele>
        <time>2016-08-07T13:21:52Z</time>
      </trkpt>
      <trkpt lat="44.06777" lon="3.43109">
        <ele>839.85</ele>
        <time>2016-08-07T13:21:57Z</time>
      </trkpt>
      <trkpt lat="44.06771" lon="3.43098">
        <ele>838.89</ele>
        <time>2016-08-07T13:22:04Z</time>
      </trkpt>
      <trkpt lat="44.06769" lon="3.43095">
        <ele>838.89</ele>
        <time>2016-08-07T13:22:06Z</time>
      </trkpt>
      <trkpt lat="44.06761" lon="3.43091">
        <ele>838.41</ele>
        <time>2016-08-07T13:22:13Z</time>
      </trkpt>
      <trkpt lat="44.06758" lon="3.43092">
        <ele>838.41</ele>
        <time>2016-08-07T13:22:15Z</time>
      </trkpt>
      <trkpt lat="44.06752" lon="3.43102">
        <ele>838.41</ele>
        <time>2016-08-07T13:22:23Z</time>
      </trkpt>
      <trkpt lat="44.06747" lon="3.43115">
        <ele>837.93</ele>
        <time>2016-08-07T13:22:31Z</time>
      </trkpt>
      <trkpt lat="44.06743" lon="3.43124">
        <ele>838.41</ele>
        <time>2016-08-07T13:22:38Z</time>
      </trkpt>
      <trkpt lat="44.0674" lon="3.43131">
        <ele>838.41</ele>
        <time>2016-08-07T13:22:43Z</time>
      </trkpt>
      <trkpt lat="44.06734" lon="3.43141">
        <ele>837.93</ele>
        <time>2016-08-07T13:22:50Z</time>
      </trkpt>
      <trkpt lat="44.06729" lon="3.43149">
        <ele>838.41</ele>
        <time>2016-08-07T13:22:56Z</time>
      </trkpt>
      <trkpt lat="44.06722" lon="3.43159">
        <ele>837.93</ele>
        <time>2016-08-07T13:23:03Z</time>
      </trkpt>
      <trkpt lat="44.06718" lon="3.43161">
        <ele>838.41</ele>
        <time>2016-08-07T13:23:07Z</time>
      </trkpt>
      <trkpt lat="44.06714" lon="3.43163">
        <ele>838.41</ele>
        <time>2016-08-07T13:23:10Z</time>
      </trkpt>
      <trkpt lat="44.06708" lon="3.43164">
        <ele>838.41</ele>
        <time>2016-08-07T13:23:17Z</time>
      </trkpt>
      <trkpt lat="44.06699" lon="3.43166">
        <ele>838.41</ele>
        <time>2016-08-07T13:23:24Z</time>
      </trkpt>
      <trkpt lat="44.06693" lon="3.43166">
        <ele>838.41</ele>
        <time>2016-08-07T13:23:30Z</time>
      </trkpt>
      <trkpt lat="44.06692" lon="3.43166">
        <ele>838.41</ele>
        <time>2016-08-07T13:23:31Z</time>
      </trkpt>
      <trkpt lat="44.06685" lon="3.43165">
        <ele>838.41</ele>
        <time>2016-08-07T13:23:36Z</time>
      </trkpt>
      <trkpt lat="44.0668" lon="3.4316">
        <ele>838.41</ele>
        <time>2016-08-07T13:23:42Z</time>
      </trkpt>
      <trkpt lat="44.06674" lon="3.43159">
        <ele>838.41</ele>
        <time>2016-08-07T13:23:48Z</time>
      </trkpt>
      <trkpt lat="44.06671" lon="3.43157">
        <ele>838.41</ele>
        <time>2016-08-07T13:23:51Z</time>
      </trkpt>
      <trkpt lat="44.06664" lon="3.43148">
        <ele>838.41</ele>
        <time>2016-08-07T13:23:59Z</time>
      </trkpt>
      <trkpt lat="44.06661" lon="3.4314">
        <ele>839.37</ele>
        <time>2016-08-07T13:24:06Z</time>
      </trkpt>
      <trkpt lat="44.06658" lon="3.43132">
        <ele>839.37</ele>
        <time>2016-08-07T13:24:12Z</time>
      </trkpt>
      <trkpt lat="44.06659" lon="3.4313">
        <ele>839.37</ele>
        <time>2016-08-07T13:24:24Z</time>
      </trkpt>
      <trkpt lat="44.06659" lon="3.4313">
        <ele>839.37</ele>
        <time>2016-08-07T13:24:25Z</time>
      </trkpt>
      <trkpt lat="44.06654" lon="3.4312">
        <ele>840.33</ele>
        <time>2016-08-07T13:24:32Z</time>
      </trkpt>
      <trkpt lat="44.06644" lon="3.43108">
        <ele>839.85</ele>
        <time>2016-08-07T13:24:40Z</time>
      </trkpt>
      <trkpt lat="44.06642" lon="3.43107">
        <ele>840.33</ele>
        <time>2016-08-07T13:24:44Z</time>
      </trkpt>
      <trkpt lat="44.06632" lon="3.43109">
        <ele>840.81</ele>
        <time>2016-08-07T13:24:52Z</time>
      </trkpt>
      <trkpt lat="44.0663" lon="3.4311">
        <ele>841.29</ele>
        <time>2016-08-07T13:24:55Z</time>
      </trkpt>
      <trkpt lat="44.0662" lon="3.43113">
        <ele>841.29</ele>
        <time>2016-08-07T13:25:03Z</time>
      </trkpt>
      <trkpt lat="44.06615" lon="3.43114">
        <ele>840.81</ele>
        <time>2016-08-07T13:25:08Z</time>
      </trkpt>
      <trkpt lat="44.06606" lon="3.43114">
        <ele>840.81</ele>
        <time>2016-08-07T13:25:15Z</time>
      </trkpt>
      <trkpt lat="44.066" lon="3.43114">
        <ele>840.81</ele>
        <time>2016-08-07T13:25:20Z</time>
      </trkpt>
      <trkpt lat="44.06597" lon="3.43115">
        <ele>840.33</ele>
        <time>2016-08-07T13:25:23Z</time>
      </trkpt>
      <trkpt lat="44.06588" lon="3.43113">
        <ele>841.29</ele>
        <time>2016-08-07T13:25:30Z</time>
      </trkpt>
      <trkpt lat="44.06582" lon="3.43111">
        <ele>840.81</ele>
        <time>2016-08-07T13:25:37Z</time>
      </trkpt>
      <trkpt lat="44.06579" lon="3.43111">
        <ele>840.81</ele>
        <time>2016-08-07T13:25:41Z</time>
      </trkpt>
      <trkpt lat="44.06574" lon="3.43108">
        <ele>840.81</ele>
        <time>2016-08-07T13:25:46Z</time>
      </trkpt>
      <trkpt lat="44.06565" lon="3.43101">
        <ele>840.81</ele>
        <time>2016-08-07T13:25:53Z</time>
      </trkpt>
      <trkpt lat="44.06564" lon="3.431">
        <ele>840.81</ele>
        <time>2016-08-07T13:25:55Z</time>
      </trkpt>
      <trkpt lat="44.06561" lon="3.43088">
        <ele>840.81</ele>
        <time>2016-08-07T13:26:02Z</time>
      </trkpt>
      <trkpt lat="44.0656" lon="3.43077">
        <ele>840.81</ele>
        <time>2016-08-07T13:26:10Z</time>
      </trkpt>
      <trkpt lat="44.06561" lon="3.4307">
        <ele>840.81</ele>
        <time>2016-08-07T13:26:15Z</time>
      </trkpt>
      <trkpt lat="44.06564" lon="3.43059">
        <ele>840.81</ele>
        <time>2016-08-07T13:26:22Z</time>
      </trkpt>
      <trkpt lat="44.06562" lon="3.43045">
        <ele>840.33</ele>
        <time>2016-08-07T13:26:29Z</time>
      </trkpt>
      <trkpt lat="44.06563" lon="3.43035">
        <ele>840.33</ele>
        <time>2016-08-07T13:26:35Z</time>
      </trkpt>
      <trkpt lat="44.06564" lon="3.43026">
        <ele>840.33</ele>
        <time>2016-08-07T13:26:42Z</time>
      </trkpt>
      <trkpt lat="44.06565" lon="3.43017">
        <ele>840.33</ele>
        <time>2016-08-07T13:26:47Z</time>
      </trkpt>
      <trkpt lat="44.06562" lon="3.43">
        <ele>842.25</ele>
        <time>2016-08-07T13:26:57Z</time>
      </trkpt>
      <trkpt lat="44.0656" lon="3.42993">
        <ele>842.25</ele>
        <time>2016-08-07T13:27:03Z</time>
      </trkpt>
      <trkpt lat="44.06558" lon="3.42988">
        <ele>842.25</ele>
        <time>2016-08-07T13:27:09Z</time>
      </trkpt>
      <trkpt lat="44.06556" lon="3.42982">
        <ele>842.73</ele>
        <time>2016-08-07T13:27:15Z</time>
      </trkpt>
      <trkpt lat="44.06554" lon="3.42975">
        <ele>842.73</ele>
        <time>2016-08-07T13:27:19Z</time>
      </trkpt>
      <trkpt lat="44.06554" lon="3.42972">
        <ele>842.73</ele>
        <time>2016-08-07T13:27:22Z</time>
      </trkpt>
      <trkpt lat="44.06551" lon="3.42959">
        <ele>842.73</ele>
        <time>2016-08-07T13:27:29Z</time>
      </trkpt>
      <trkpt lat="44.06549" lon="3.42944">
        <ele>843.21</ele>
        <time>2016-08-07T13:27:37Z</time>
      </trkpt>
      <trkpt lat="44.06548" lon="3.42936">
        <ele>843.69</ele>
        <time>2016-08-07T13:27:42Z</time>
      </trkpt>
      <trkpt lat="44.06548" lon="3.42926">
        <ele>844.18</ele>
        <time>2016-08-07T13:27:48Z</time>
      </trkpt>
      <trkpt lat="44.06546" lon="3.42908">
        <ele>848.5</ele>
        <time>2016-08-07T13:27:54Z</time>
      </trkpt>
      <trkpt lat="44.0655" lon="3.429">
        <ele>847.06</ele>
        <time>2016-08-07T13:28:02Z</time>
      </trkpt>
      <trkpt lat="44.06554" lon="3.42892">
        <ele>846.58</ele>
        <time>2016-08-07T13:28:09Z</time>
      </trkpt>
      <trkpt lat="44.06558" lon="3.42884">
        <ele>846.1</ele>
        <time>2016-08-07T13:28:16Z</time>
      </trkpt>
      <trkpt lat="44.06561" lon="3.42881">
        <ele>846.58</ele>
        <time>2016-08-07T13:28:19Z</time>
      </trkpt>
      <trkpt lat="44.06569" lon="3.42875">
        <ele>848.98</ele>
        <time>2016-08-07T13:28:27Z</time>
      </trkpt>
      <trkpt lat="44.06575" lon="3.42869">
        <ele>850.42</ele>
        <time>2016-08-07T13:28:34Z</time>
      </trkpt>
      <trkpt lat="44.06582" lon="3.42863">
        <ele>851.87</ele>
        <time>2016-08-07T13:28:40Z</time>
      </trkpt>
      <trkpt lat="44.06587" lon="3.42856">
        <ele>852.35</ele>
        <time>2016-08-07T13:28:46Z</time>
      </trkpt>
      <trkpt lat="44.0659" lon="3.42852">
        <ele>853.31</ele>
        <time>2016-08-07T13:28:50Z</time>
      </trkpt>
      <trkpt lat="44.06591" lon="3.42848">
        <ele>853.31</ele>
        <time>2016-08-07T13:28:52Z</time>
      </trkpt>
      <trkpt lat="44.06593" lon="3.42844">
        <ele>852.83</ele>
        <time>2016-08-07T13:28:54Z</time>
      </trkpt>
      <trkpt lat="44.06597" lon="3.42832">
        <ele>855.71</ele>
        <time>2016-08-07T13:29:02Z</time>
      </trkpt>
      <trkpt lat="44.06597" lon="3.42821">
        <ele>857.15</ele>
        <time>2016-08-07T13:29:09Z</time>
      </trkpt>
      <trkpt lat="44.06598" lon="3.42818">
        <ele>857.15</ele>
        <time>2016-08-07T13:29:12Z</time>
      </trkpt>
      <trkpt lat="44.06597" lon="3.42812">
        <ele>857.15</ele>
        <time>2016-08-07T13:29:15Z</time>
      </trkpt>
      <trkpt lat="44.06596" lon="3.42803">
        <ele>857.15</ele>
        <time>2016-08-07T13:29:20Z</time>
      </trkpt>
      <trkpt lat="44.06595" lon="3.42789">
        <ele>857.15</ele>
        <time>2016-08-07T13:29:29Z</time>
      </trkpt>
      <trkpt lat="44.06595" lon="3.4278">
        <ele>857.15</ele>
        <time>2016-08-07T13:29:36Z</time>
      </trkpt>
      <trkpt lat="44.06595" lon="3.42769">
        <ele>857.63</ele>
        <time>2016-08-07T13:29:42Z</time>
      </trkpt>
      <trkpt lat="44.06596" lon="3.42761">
        <ele>857.63</ele>
        <time>2016-08-07T13:29:48Z</time>
      </trkpt>
      <trkpt lat="44.06596" lon="3.42759">
        <ele>857.63</ele>
        <time>2016-08-07T13:29:49Z</time>
      </trkpt>
      <trkpt lat="44.06598" lon="3.42746">
        <ele>857.63</ele>
        <time>2016-08-07T13:29:57Z</time>
      </trkpt>
      <trkpt lat="44.06598" lon="3.4274">
        <ele>857.15</ele>
        <time>2016-08-07T13:30:02Z</time>
      </trkpt>
      <trkpt lat="44.06599" lon="3.42734">
        <ele>857.63</ele>
        <time>2016-08-07T13:30:07Z</time>
      </trkpt>
      <trkpt lat="44.06599" lon="3.42731">
        <ele>857.15</ele>
        <time>2016-08-07T13:30:09Z</time>
      </trkpt>
      <trkpt lat="44.06598" lon="3.4272">
        <ele>856.67</ele>
        <time>2016-08-07T13:30:15Z</time>
      </trkpt>
      <trkpt lat="44.06595" lon="3.42707">
        <ele>856.67</ele>
        <time>2016-08-07T13:30:23Z</time>
      </trkpt>
      <trkpt lat="44.06594" lon="3.42702">
        <ele>856.67</ele>
        <time>2016-08-07T13:30:28Z</time>
      </trkpt>
      <trkpt lat="44.06592" lon="3.4269">
        <ele>856.67</ele>
        <time>2016-08-07T13:30:34Z</time>
      </trkpt>
      <trkpt lat="44.06591" lon="3.42681">
        <ele>856.67</ele>
        <time>2016-08-07T13:30:39Z</time>
      </trkpt>
      <trkpt lat="44.06593" lon="3.42669">
        <ele>858.11</ele>
        <time>2016-08-07T13:30:45Z</time>
      </trkpt>
      <trkpt lat="44.06593" lon="3.42654">
        <ele>858.11</ele>
        <time>2016-08-07T13:30:53Z</time>
      </trkpt>
      <trkpt lat="44.06595" lon="3.42649">
        <ele>858.11</ele>
        <time>2016-08-07T13:30:56Z</time>
      </trkpt>
      <trkpt lat="44.06594" lon="3.42645">
        <ele>858.11</ele>
        <time>2016-08-07T13:30:58Z</time>
      </trkpt>
      <trkpt lat="44.06596" lon="3.42638">
        <ele>858.59</ele>
        <time>2016-08-07T13:31:05Z</time>
      </trkpt>
      <trkpt lat="44.06599" lon="3.4263">
        <ele>859.08</ele>
        <time>2016-08-07T13:31:11Z</time>
      </trkpt>
      <trkpt lat="44.06601" lon="3.42624">
        <ele>859.08</ele>
        <time>2016-08-07T13:31:15Z</time>
      </trkpt>
      <trkpt lat="44.06604" lon="3.42619">
        <ele>859.08</ele>
        <time>2016-08-07T13:31:19Z</time>
      </trkpt>
      <trkpt lat="44.06608" lon="3.42612">
        <ele>859.08</ele>
        <time>2016-08-07T13:31:24Z</time>
      </trkpt>
      <trkpt lat="44.06618" lon="3.42608">
        <ele>860.04</ele>
        <time>2016-08-07T13:31:32Z</time>
      </trkpt>
      <trkpt lat="44.06627" lon="3.42607">
        <ele>860.52</ele>
        <time>2016-08-07T13:31:39Z</time>
      </trkpt>
      <trkpt lat="44.06636" lon="3.42606">
        <ele>861</ele>
        <time>2016-08-07T13:31:46Z</time>
      </trkpt>
      <trkpt lat="44.06644" lon="3.42609">
        <ele>861</ele>
        <time>2016-08-07T13:31:53Z</time>
      </trkpt>
      <trkpt lat="44.06648" lon="3.42607">
        <ele>861</ele>
        <time>2016-08-07T13:31:56Z</time>
      </trkpt>
      <trkpt lat="44.06656" lon="3.42605">
        <ele>860.52</ele>
        <time>2016-08-07T13:32:02Z</time>
      </trkpt>
      <trkpt lat="44.06658" lon="3.42605">
        <ele>860.52</ele>
        <time>2016-08-07T13:32:04Z</time>
      </trkpt>
      <trkpt lat="44.06667" lon="3.42602">
        <ele>860.04</ele>
        <time>2016-08-07T13:32:12Z</time>
      </trkpt>
      <trkpt lat="44.06673" lon="3.42602">
        <ele>860.04</ele>
        <time>2016-08-07T13:32:19Z</time>
      </trkpt>
      <trkpt lat="44.06685" lon="3.42598">
        <ele>860.04</ele>
        <time>2016-08-07T13:32:28Z</time>
      </trkpt>
      <trkpt lat="44.06688" lon="3.42597">
        <ele>860.52</ele>
        <time>2016-08-07T13:32:30Z</time>
      </trkpt>
      <trkpt lat="44.06698" lon="3.42595">
        <ele>861</ele>
        <time>2016-08-07T13:32:38Z</time>
      </trkpt>
      <trkpt lat="44.06699" lon="3.42595">
        <ele>861.48</ele>
        <time>2016-08-07T13:32:39Z</time>
      </trkpt>
      <trkpt lat="44.06704" lon="3.42589">
        <ele>861.96</ele>
        <time>2016-08-07T13:32:45Z</time>
      </trkpt>
      <trkpt lat="44.06706" lon="3.42588">
        <ele>861.96</ele>
        <time>2016-08-07T13:32:47Z</time>
      </trkpt>
      <trkpt lat="44.06711" lon="3.42583">
        <ele>861.96</ele>
        <time>2016-08-07T13:32:54Z</time>
      </trkpt>
      <trkpt lat="44.06715" lon="3.4258">
        <ele>861.96</ele>
        <time>2016-08-07T13:32:58Z</time>
      </trkpt>
      <trkpt lat="44.06716" lon="3.42577">
        <ele>861.96</ele>
        <time>2016-08-07T13:33:01Z</time>
      </trkpt>
      <trkpt lat="44.06723" lon="3.42567">
        <ele>861.48</ele>
        <time>2016-08-07T13:33:09Z</time>
      </trkpt>
      <trkpt lat="44.06723" lon="3.42565">
        <ele>861.48</ele>
        <time>2016-08-07T13:33:11Z</time>
      </trkpt>
      <trkpt lat="44.06732" lon="3.4256">
        <ele>861.96</ele>
        <time>2016-08-07T13:33:17Z</time>
      </trkpt>
      <trkpt lat="44.06736" lon="3.42552">
        <ele>861.48</ele>
        <time>2016-08-07T13:33:23Z</time>
      </trkpt>
      <trkpt lat="44.06742" lon="3.42541">
        <ele>861.48</ele>
        <time>2016-08-07T13:33:31Z</time>
      </trkpt>
      <trkpt lat="44.06742" lon="3.42539">
        <ele>861.48</ele>
        <time>2016-08-07T13:33:32Z</time>
      </trkpt>
      <trkpt lat="44.06745" lon="3.42526">
        <ele>861.48</ele>
        <time>2016-08-07T13:33:40Z</time>
      </trkpt>
      <trkpt lat="44.06746" lon="3.42514">
        <ele>861.48</ele>
        <time>2016-08-07T13:33:46Z</time>
      </trkpt>
      <trkpt lat="44.06748" lon="3.42504">
        <ele>861.48</ele>
        <time>2016-08-07T13:33:52Z</time>
      </trkpt>
      <trkpt lat="44.06749" lon="3.4249">
        <ele>860.52</ele>
        <time>2016-08-07T13:34:00Z</time>
      </trkpt>
      <trkpt lat="44.06752" lon="3.42479">
        <ele>859.08</ele>
        <time>2016-08-07T13:34:08Z</time>
      </trkpt>
      <trkpt lat="44.06753" lon="3.42466">
        <ele>859.56</ele>
        <time>2016-08-07T13:34:15Z</time>
      </trkpt>
      <trkpt lat="44.06753" lon="3.42464">
        <ele>859.56</ele>
        <time>2016-08-07T13:34:16Z</time>
      </trkpt>
      <trkpt lat="44.06749" lon="3.4245">
        <ele>859.56</ele>
        <time>2016-08-07T13:34:25Z</time>
      </trkpt>
      <trkpt lat="44.06747" lon="3.42444">
        <ele>860.04</ele>
        <time>2016-08-07T13:34:29Z</time>
      </trkpt>
      <trkpt lat="44.06741" lon="3.42429">
        <ele>860.04</ele>
        <time>2016-08-07T13:34:38Z</time>
      </trkpt>
      <trkpt lat="44.06738" lon="3.4242">
        <ele>860.04</ele>
        <time>2016-08-07T13:34:44Z</time>
      </trkpt>
      <trkpt lat="44.06737" lon="3.42412">
        <ele>860.04</ele>
        <time>2016-08-07T13:34:50Z</time>
      </trkpt>
      <trkpt lat="44.06734" lon="3.42404">
        <ele>860.04</ele>
        <time>2016-08-07T13:34:56Z</time>
      </trkpt>
      <trkpt lat="44.0673" lon="3.42397">
        <ele>860.04</ele>
        <time>2016-08-07T13:35:00Z</time>
      </trkpt>
      <trkpt lat="44.06728" lon="3.42393">
        <ele>860.52</ele>
        <time>2016-08-07T13:35:03Z</time>
      </trkpt>
      <trkpt lat="44.06721" lon="3.42386">
        <ele>861</ele>
        <time>2016-08-07T13:35:10Z</time>
      </trkpt>
      <trkpt lat="44.06715" lon="3.4238">
        <ele>861</ele>
        <time>2016-08-07T13:35:16Z</time>
      </trkpt>
      <trkpt lat="44.0671" lon="3.42373">
        <ele>861.48</ele>
        <time>2016-08-07T13:35:23Z</time>
      </trkpt>
      <trkpt lat="44.06704" lon="3.4237">
        <ele>861.48</ele>
        <time>2016-08-07T13:35:28Z</time>
      </trkpt>
      <trkpt lat="44.06698" lon="3.42364">
        <ele>861.96</ele>
        <time>2016-08-07T13:35:34Z</time>
      </trkpt>
      <trkpt lat="44.06695" lon="3.4236">
        <ele>862.44</ele>
        <time>2016-08-07T13:35:39Z</time>
      </trkpt>
      <trkpt lat="44.0669" lon="3.42349">
        <ele>862.44</ele>
        <time>2016-08-07T13:35:46Z</time>
      </trkpt>
      <trkpt lat="44.06684" lon="3.42336">
        <ele>863.4</ele>
        <time>2016-08-07T13:35:55Z</time>
      </trkpt>
      <trkpt lat="44.06681" lon="3.4233">
        <ele>863.4</ele>
        <time>2016-08-07T13:36:00Z</time>
      </trkpt>
      <trkpt lat="44.06679" lon="3.42323">
        <ele>863.4</ele>
        <time>2016-08-07T13:36:06Z</time>
      </trkpt>
      <trkpt lat="44.06675" lon="3.42313">
        <ele>863.88</ele>
        <time>2016-08-07T13:36:13Z</time>
      </trkpt>
      <trkpt lat="44.06674" lon="3.4231">
        <ele>864.36</ele>
        <time>2016-08-07T13:36:15Z</time>
      </trkpt>
      <trkpt lat="44.06672" lon="3.42308">
        <ele>864.36</ele>
        <time>2016-08-07T13:36:18Z</time>
      </trkpt>
      <trkpt lat="44.06669" lon="3.42306">
        <ele>864.84</ele>
        <time>2016-08-07T13:36:25Z</time>
      </trkpt>
      <trkpt lat="44.06667" lon="3.42299">
        <ele>863.4</ele>
        <time>2016-08-07T13:36:33Z</time>
      </trkpt>
      <trkpt lat="44.06668" lon="3.42298">
        <ele>861.48</ele>
        <time>2016-08-07T13:36:49Z</time>
      </trkpt>
      <trkpt lat="44.06668" lon="3.42297">
        <ele>860.04</ele>
        <time>2016-08-07T13:37:05Z</time>
      </trkpt>
      <trkpt lat="44.06667" lon="3.42305">
        <ele>871.09</ele>
        <time>2016-08-07T13:37:14Z</time>
      </trkpt>
      <trkpt lat="44.06667" lon="3.42315">
        <ele>884.55</ele>
        <time>2016-08-07T13:37:27Z</time>
      </trkpt>
      <trkpt lat="44.06663" lon="3.42309">
        <ele>882.63</ele>
        <time>2016-08-07T13:37:36Z</time>
      </trkpt>
      <trkpt lat="44.06657" lon="3.42306">
        <ele>878.3</ele>
        <time>2016-08-07T13:37:43Z</time>
      </trkpt>
      <trkpt lat="44.06648" lon="3.42305">
        <ele>877.82</ele>
        <time>2016-08-07T13:37:51Z</time>
      </trkpt>
      <trkpt lat="44.06644" lon="3.42309">
        <ele>876.86</ele>
        <time>2016-08-07T13:37:55Z</time>
      </trkpt>
      <trkpt lat="44.06636" lon="3.42313">
        <ele>876.38</ele>
        <time>2016-08-07T13:38:02Z</time>
      </trkpt>
      <trkpt lat="44.06632" lon="3.42313">
        <ele>875.9</ele>
        <time>2016-08-07T13:38:06Z</time>
      </trkpt>
      <trkpt lat="44.06624" lon="3.42312">
        <ele>875.9</ele>
        <time>2016-08-07T13:38:13Z</time>
      </trkpt>
      <trkpt lat="44.06617" lon="3.42311">
        <ele>875.9</ele>
        <time>2016-08-07T13:38:19Z</time>
      </trkpt>
      <trkpt lat="44.06611" lon="3.4231">
        <ele>876.38</ele>
        <time>2016-08-07T13:38:26Z</time>
      </trkpt>
      <trkpt lat="44.06604" lon="3.42306">
        <ele>876.38</ele>
        <time>2016-08-07T13:38:32Z</time>
      </trkpt>
      <trkpt lat="44.06598" lon="3.42304">
        <ele>875.9</ele>
        <time>2016-08-07T13:38:37Z</time>
      </trkpt>
      <trkpt lat="44.06588" lon="3.42302">
        <ele>876.38</ele>
        <time>2016-08-07T13:38:45Z</time>
      </trkpt>
      <trkpt lat="44.06582" lon="3.423">
        <ele>876.86</ele>
        <time>2016-08-07T13:38:51Z</time>
      </trkpt>
      <trkpt lat="44.06575" lon="3.42296">
        <ele>876.86</ele>
        <time>2016-08-07T13:38:57Z</time>
      </trkpt>
      <trkpt lat="44.06572" lon="3.42295">
        <ele>876.86</ele>
        <time>2016-08-07T13:39:00Z</time>
      </trkpt>
      <trkpt lat="44.06569" lon="3.42291">
        <ele>876.86</ele>
        <time>2016-08-07T13:39:03Z</time>
      </trkpt>
      <trkpt lat="44.06563" lon="3.42286">
        <ele>877.34</ele>
        <time>2016-08-07T13:39:10Z</time>
      </trkpt>
      <trkpt lat="44.06558" lon="3.42283">
        <ele>877.34</ele>
        <time>2016-08-07T13:39:16Z</time>
      </trkpt>
      <trkpt lat="44.06556" lon="3.4228">
        <ele>877.34</ele>
        <time>2016-08-07T13:39:19Z</time>
      </trkpt>
      <trkpt lat="44.0655" lon="3.42273">
        <ele>877.82</ele>
        <time>2016-08-07T13:39:26Z</time>
      </trkpt>
      <trkpt lat="44.06546" lon="3.42268">
        <ele>877.82</ele>
        <time>2016-08-07T13:39:30Z</time>
      </trkpt>
      <trkpt lat="44.06544" lon="3.42263">
        <ele>878.3</ele>
        <time>2016-08-07T13:39:35Z</time>
      </trkpt>
      <trkpt lat="44.06542" lon="3.42261">
        <ele>877.82</ele>
        <time>2016-08-07T13:39:37Z</time>
      </trkpt>
      <trkpt lat="44.06537" lon="3.42251">
        <ele>877.82</ele>
        <time>2016-08-07T13:39:45Z</time>
      </trkpt>
      <trkpt lat="44.06533" lon="3.42245">
        <ele>877.82</ele>
        <time>2016-08-07T13:39:51Z</time>
      </trkpt>
      <trkpt lat="44.06529" lon="3.42236">
        <ele>877.82</ele>
        <time>2016-08-07T13:39:56Z</time>
      </trkpt>
      <trkpt lat="44.06525" lon="3.42232">
        <ele>877.82</ele>
        <time>2016-08-07T13:40:02Z</time>
      </trkpt>
      <trkpt lat="44.06525" lon="3.4223">
        <ele>877.82</ele>
        <time>2016-08-07T13:40:03Z</time>
      </trkpt>
      <trkpt lat="44.06517" lon="3.42219">
        <ele>878.3</ele>
        <time>2016-08-07T13:40:11Z</time>
      </trkpt>
      <trkpt lat="44.06512" lon="3.42209">
        <ele>877.82</ele>
        <time>2016-08-07T13:40:19Z</time>
      </trkpt>
      <trkpt lat="44.06511" lon="3.42207">
        <ele>877.82</ele>
        <time>2016-08-07T13:40:20Z</time>
      </trkpt>
      <trkpt lat="44.06508" lon="3.42196">
        <ele>877.82</ele>
        <time>2016-08-07T13:40:27Z</time>
      </trkpt>
      <trkpt lat="44.06506" lon="3.42189">
        <ele>877.34</ele>
        <time>2016-08-07T13:40:32Z</time>
      </trkpt>
      <trkpt lat="44.06505" lon="3.42186">
        <ele>876.86</ele>
        <time>2016-08-07T13:40:34Z</time>
      </trkpt>
      <trkpt lat="44.06503" lon="3.42179">
        <ele>876.38</ele>
        <time>2016-08-07T13:40:39Z</time>
      </trkpt>
      <trkpt lat="44.06503" lon="3.42175">
        <ele>875.9</ele>
        <time>2016-08-07T13:40:41Z</time>
      </trkpt>
      <trkpt lat="44.06503" lon="3.42168">
        <ele>874.94</ele>
        <time>2016-08-07T13:40:46Z</time>
      </trkpt>
      <trkpt lat="44.06503" lon="3.42159">
        <ele>874.94</ele>
        <time>2016-08-07T13:40:51Z</time>
      </trkpt>
      <trkpt lat="44.06506" lon="3.42148">
        <ele>874.94</ele>
        <time>2016-08-07T13:40:58Z</time>
      </trkpt>
      <trkpt lat="44.06509" lon="3.42142">
        <ele>874.46</ele>
        <time>2016-08-07T13:41:03Z</time>
      </trkpt>
      <trkpt lat="44.06509" lon="3.42135">
        <ele>874.94</ele>
        <time>2016-08-07T13:41:07Z</time>
      </trkpt>
      <trkpt lat="44.06513" lon="3.42124">
        <ele>874.94</ele>
        <time>2016-08-07T13:41:14Z</time>
      </trkpt>
      <trkpt lat="44.06515" lon="3.42119">
        <ele>874.46</ele>
        <time>2016-08-07T13:41:19Z</time>
      </trkpt>
      <trkpt lat="44.06519" lon="3.4211">
        <ele>874.94</ele>
        <time>2016-08-07T13:41:26Z</time>
      </trkpt>
      <trkpt lat="44.06522" lon="3.42098">
        <ele>875.9</ele>
        <time>2016-08-07T13:41:32Z</time>
      </trkpt>
      <trkpt lat="44.06526" lon="3.42088">
        <ele>875.9</ele>
        <time>2016-08-07T13:41:39Z</time>
      </trkpt>
      <trkpt lat="44.06527" lon="3.42085">
        <ele>875.9</ele>
        <time>2016-08-07T13:41:41Z</time>
      </trkpt>
      <trkpt lat="44.0653" lon="3.42079">
        <ele>875.42</ele>
        <time>2016-08-07T13:41:46Z</time>
      </trkpt>
      <trkpt lat="44.06532" lon="3.42074">
        <ele>875.42</ele>
        <time>2016-08-07T13:41:49Z</time>
      </trkpt>
      <trkpt lat="44.06533" lon="3.4207">
        <ele>875.9</ele>
        <time>2016-08-07T13:41:52Z</time>
      </trkpt>
      <trkpt lat="44.06535" lon="3.42058">
        <ele>875.9</ele>
        <time>2016-08-07T13:42:01Z</time>
      </trkpt>
      <trkpt lat="44.06536" lon="3.42055">
        <ele>875.9</ele>
        <time>2016-08-07T13:42:03Z</time>
      </trkpt>
      <trkpt lat="44.06538" lon="3.42043">
        <ele>875.9</ele>
        <time>2016-08-07T13:42:11Z</time>
      </trkpt>
      <trkpt lat="44.06542" lon="3.42034">
        <ele>875.42</ele>
        <time>2016-08-07T13:42:18Z</time>
      </trkpt>
      <trkpt lat="44.06543" lon="3.42029">
        <ele>874.46</ele>
        <time>2016-08-07T13:42:22Z</time>
      </trkpt>
      <trkpt lat="44.06547" lon="3.42017">
        <ele>874.46</ele>
        <time>2016-08-07T13:42:30Z</time>
      </trkpt>
      <trkpt lat="44.06549" lon="3.42009">
        <ele>874.46</ele>
        <time>2016-08-07T13:42:37Z</time>
      </trkpt>
      <trkpt lat="44.0655" lon="3.42002">
        <ele>873.98</ele>
        <time>2016-08-07T13:42:40Z</time>
      </trkpt>
      <trkpt lat="44.06551" lon="3.41992">
        <ele>874.46</ele>
        <time>2016-08-07T13:42:47Z</time>
      </trkpt>
      <trkpt lat="44.06555" lon="3.41985">
        <ele>873.5</ele>
        <time>2016-08-07T13:42:54Z</time>
      </trkpt>
      <trkpt lat="44.06557" lon="3.41978">
        <ele>873.5</ele>
        <time>2016-08-07T13:42:59Z</time>
      </trkpt>
      <trkpt lat="44.06559" lon="3.41964">
        <ele>873.98</ele>
        <time>2016-08-07T13:43:05Z</time>
      </trkpt>
      <trkpt lat="44.06561" lon="3.41951">
        <ele>873.98</ele>
        <time>2016-08-07T13:43:12Z</time>
      </trkpt>
      <trkpt lat="44.06562" lon="3.41948">
        <ele>873.98</ele>
        <time>2016-08-07T13:43:14Z</time>
      </trkpt>
      <trkpt lat="44.06563" lon="3.41944">
        <ele>873.98</ele>
        <time>2016-08-07T13:43:16Z</time>
      </trkpt>
      <trkpt lat="44.06565" lon="3.41939">
        <ele>873.5</ele>
        <time>2016-08-07T13:43:20Z</time>
      </trkpt>
      <trkpt lat="44.06566" lon="3.41927">
        <ele>873.5</ele>
        <time>2016-08-07T13:43:27Z</time>
      </trkpt>
      <trkpt lat="44.06567" lon="3.41918">
        <ele>873.01</ele>
        <time>2016-08-07T13:43:33Z</time>
      </trkpt>
      <trkpt lat="44.06568" lon="3.41907">
        <ele>873.01</ele>
        <time>2016-08-07T13:43:39Z</time>
      </trkpt>
      <trkpt lat="44.06569" lon="3.41902">
        <ele>873.5</ele>
        <time>2016-08-07T13:43:41Z</time>
      </trkpt>
      <trkpt lat="44.0657" lon="3.41898">
        <ele>873.5</ele>
        <time>2016-08-07T13:43:44Z</time>
      </trkpt>
      <trkpt lat="44.06571" lon="3.41887">
        <ele>873.01</ele>
        <time>2016-08-07T13:43:51Z</time>
      </trkpt>
      <trkpt lat="44.06574" lon="3.41872">
        <ele>873.5</ele>
        <time>2016-08-07T13:44:00Z</time>
      </trkpt>
      <trkpt lat="44.06574" lon="3.4187">
        <ele>873.5</ele>
        <time>2016-08-07T13:44:01Z</time>
      </trkpt>
      <trkpt lat="44.06575" lon="3.41867">
        <ele>873.5</ele>
        <time>2016-08-07T13:44:03Z</time>
      </trkpt>
      <trkpt lat="44.0658" lon="3.41856">
        <ele>873.5</ele>
        <time>2016-08-07T13:44:10Z</time>
      </trkpt>
      <trkpt lat="44.06583" lon="3.41849">
        <ele>874.46</ele>
        <time>2016-08-07T13:44:15Z</time>
      </trkpt>
      <trkpt lat="44.0659" lon="3.41837">
        <ele>873.98</ele>
        <time>2016-08-07T13:44:25Z</time>
      </trkpt>
      <trkpt lat="44.06593" lon="3.41831">
        <ele>874.94</ele>
        <time>2016-08-07T13:44:31Z</time>
      </trkpt>
      <trkpt lat="44.06597" lon="3.41825">
        <ele>874.94</ele>
        <time>2016-08-07T13:44:36Z</time>
      </trkpt>
      <trkpt lat="44.06606" lon="3.41819">
        <ele>874.94</ele>
        <time>2016-08-07T13:44:44Z</time>
      </trkpt>
      <trkpt lat="44.06607" lon="3.41818">
        <ele>875.42</ele>
        <time>2016-08-07T13:44:45Z</time>
      </trkpt>
      <trkpt lat="44.0662" lon="3.41811">
        <ele>874.94</ele>
        <time>2016-08-07T13:44:56Z</time>
      </trkpt>
      <trkpt lat="44.06621" lon="3.4181">
        <ele>874.94</ele>
        <time>2016-08-07T13:44:57Z</time>
      </trkpt>
      <trkpt lat="44.06632" lon="3.41811">
        <ele>875.42</ele>
        <time>2016-08-07T13:45:05Z</time>
      </trkpt>
      <trkpt lat="44.0664" lon="3.4181">
        <ele>876.38</ele>
        <time>2016-08-07T13:45:13Z</time>
      </trkpt>
      <trkpt lat="44.06643" lon="3.4181">
        <ele>876.38</ele>
        <time>2016-08-07T13:45:15Z</time>
      </trkpt>
      <trkpt lat="44.06645" lon="3.41811">
        <ele>876.38</ele>
        <time>2016-08-07T13:45:17Z</time>
      </trkpt>
      <trkpt lat="44.06652" lon="3.41809">
        <ele>876.38</ele>
        <time>2016-08-07T13:45:23Z</time>
      </trkpt>
      <trkpt lat="44.06661" lon="3.41807">
        <ele>876.86</ele>
        <time>2016-08-07T13:45:31Z</time>
      </trkpt>
      <trkpt lat="44.06661" lon="3.41807">
        <ele>876.86</ele>
        <time>2016-08-07T13:45:32Z</time>
      </trkpt>
      <trkpt lat="44.06668" lon="3.41805">
        <ele>876.38</ele>
        <time>2016-08-07T13:45:39Z</time>
      </trkpt>
      <trkpt lat="44.06677" lon="3.41805">
        <ele>876.38</ele>
        <time>2016-08-07T13:45:46Z</time>
      </trkpt>
      <trkpt lat="44.06683" lon="3.41802">
        <ele>876.86</ele>
        <time>2016-08-07T13:45:52Z</time>
      </trkpt>
      <trkpt lat="44.0669" lon="3.41795">
        <ele>876.38</ele>
        <time>2016-08-07T13:46:00Z</time>
      </trkpt>
      <trkpt lat="44.06696" lon="3.41789">
        <ele>875.9</ele>
        <time>2016-08-07T13:46:06Z</time>
      </trkpt>
      <trkpt lat="44.06699" lon="3.41786">
        <ele>875.9</ele>
        <time>2016-08-07T13:46:10Z</time>
      </trkpt>
      <trkpt lat="44.06709" lon="3.41781">
        <ele>875.9</ele>
        <time>2016-08-07T13:46:18Z</time>
      </trkpt>
      <trkpt lat="44.06714" lon="3.41776">
        <ele>875.9</ele>
        <time>2016-08-07T13:46:24Z</time>
      </trkpt>
      <trkpt lat="44.06719" lon="3.41773">
        <ele>875.9</ele>
        <time>2016-08-07T13:46:30Z</time>
      </trkpt>
      <trkpt lat="44.06721" lon="3.41771">
        <ele>875.9</ele>
        <time>2016-08-07T13:46:32Z</time>
      </trkpt>
      <trkpt lat="44.06728" lon="3.41771">
        <ele>875.42</ele>
        <time>2016-08-07T13:46:38Z</time>
      </trkpt>
      <trkpt lat="44.0673" lon="3.41771">
        <ele>875.42</ele>
        <time>2016-08-07T13:46:43Z</time>
      </trkpt>
      <trkpt lat="44.06735" lon="3.41766">
        <ele>875.42</ele>
        <time>2016-08-07T13:46:49Z</time>
      </trkpt>
      <trkpt lat="44.06736" lon="3.41762">
        <ele>875.42</ele>
        <time>2016-08-07T13:46:53Z</time>
      </trkpt>
      <trkpt lat="44.06741" lon="3.41748">
        <ele>874.94</ele>
        <time>2016-08-07T13:47:02Z</time>
      </trkpt>
      <trkpt lat="44.06743" lon="3.4174">
        <ele>874.46</ele>
        <time>2016-08-07T13:47:09Z</time>
      </trkpt>
      <trkpt lat="44.06744" lon="3.41734">
        <ele>874.94</ele>
        <time>2016-08-07T13:47:13Z</time>
      </trkpt>
      <trkpt lat="44.06744" lon="3.4173">
        <ele>874.94</ele>
        <time>2016-08-07T13:47:17Z</time>
      </trkpt>
      <trkpt lat="44.06745" lon="3.41723">
        <ele>874.94</ele>
        <time>2016-08-07T13:47:21Z</time>
      </trkpt>
      <trkpt lat="44.06751" lon="3.41707">
        <ele>874.94</ele>
        <time>2016-08-07T13:47:31Z</time>
      </trkpt>
      <trkpt lat="44.06752" lon="3.41701">
        <ele>874.94</ele>
        <time>2016-08-07T13:47:37Z</time>
      </trkpt>
      <trkpt lat="44.06754" lon="3.41697">
        <ele>875.42</ele>
        <time>2016-08-07T13:47:43Z</time>
      </trkpt>
      <trkpt lat="44.06754" lon="3.41691">
        <ele>876.86</ele>
        <time>2016-08-07T13:47:48Z</time>
      </trkpt>
      <trkpt lat="44.06749" lon="3.4168">
        <ele>877.82</ele>
        <time>2016-08-07T13:47:56Z</time>
      </trkpt>
      <trkpt lat="44.06749" lon="3.41671">
        <ele>879.26</ele>
        <time>2016-08-07T13:48:03Z</time>
      </trkpt>
      <trkpt lat="44.06749" lon="3.41666">
        <ele>879.26</ele>
        <time>2016-08-07T13:48:08Z</time>
      </trkpt>
      <trkpt lat="44.06751" lon="3.41659">
        <ele>879.74</ele>
        <time>2016-08-07T13:48:14Z</time>
      </trkpt>
      <trkpt lat="44.06751" lon="3.41655">
        <ele>879.74</ele>
        <time>2016-08-07T13:48:16Z</time>
      </trkpt>
      <trkpt lat="44.06749" lon="3.41643">
        <ele>880.22</ele>
        <time>2016-08-07T13:48:24Z</time>
      </trkpt>
      <trkpt lat="44.06751" lon="3.41631">
        <ele>879.74</ele>
        <time>2016-08-07T13:48:31Z</time>
      </trkpt>
      <trkpt lat="44.06751" lon="3.41629">
        <ele>879.74</ele>
        <time>2016-08-07T13:48:32Z</time>
      </trkpt>
      <trkpt lat="44.06754" lon="3.41624">
        <ele>879.26</ele>
        <time>2016-08-07T13:48:36Z</time>
      </trkpt>
      <trkpt lat="44.06757" lon="3.41621">
        <ele>879.26</ele>
        <time>2016-08-07T13:48:40Z</time>
      </trkpt>
      <trkpt lat="44.06762" lon="3.41613">
        <ele>879.74</ele>
        <time>2016-08-07T13:48:47Z</time>
      </trkpt>
      <trkpt lat="44.06763" lon="3.41609">
        <ele>879.74</ele>
        <time>2016-08-07T13:48:51Z</time>
      </trkpt>
      <trkpt lat="44.06768" lon="3.41601">
        <ele>879.26</ele>
        <time>2016-08-07T13:48:58Z</time>
      </trkpt>
      <trkpt lat="44.06769" lon="3.416">
        <ele>879.26</ele>
        <time>2016-08-07T13:48:59Z</time>
      </trkpt>
      <trkpt lat="44.0677" lon="3.4159">
        <ele>879.74</ele>
        <time>2016-08-07T13:49:06Z</time>
      </trkpt>
      <trkpt lat="44.06771" lon="3.41581">
        <ele>879.74</ele>
        <time>2016-08-07T13:49:13Z</time>
      </trkpt>
      <trkpt lat="44.06772" lon="3.41576">
        <ele>880.22</ele>
        <time>2016-08-07T13:49:21Z</time>
      </trkpt>
      <trkpt lat="44.06772" lon="3.4157">
        <ele>880.71</ele>
        <time>2016-08-07T13:49:25Z</time>
      </trkpt>
      <trkpt lat="44.06775" lon="3.41559">
        <ele>880.71</ele>
        <time>2016-08-07T13:49:33Z</time>
      </trkpt>
      <trkpt lat="44.06776" lon="3.41556">
        <ele>880.71</ele>
        <time>2016-08-07T13:49:35Z</time>
      </trkpt>
      <trkpt lat="44.06777" lon="3.41543">
        <ele>881.19</ele>
        <time>2016-08-07T13:49:43Z</time>
      </trkpt>
      <trkpt lat="44.0678" lon="3.41532">
        <ele>881.67</ele>
        <time>2016-08-07T13:49:50Z</time>
      </trkpt>
      <trkpt lat="44.06781" lon="3.41529">
        <ele>881.67</ele>
        <time>2016-08-07T13:49:53Z</time>
      </trkpt>
      <trkpt lat="44.06781" lon="3.41521">
        <ele>881.67</ele>
        <time>2016-08-07T13:49:58Z</time>
      </trkpt>
      <trkpt lat="44.06782" lon="3.41515">
        <ele>881.19</ele>
        <time>2016-08-07T13:50:02Z</time>
      </trkpt>
      <trkpt lat="44.06782" lon="3.41511">
        <ele>881.67</ele>
        <time>2016-08-07T13:50:06Z</time>
      </trkpt>
      <trkpt lat="44.06783" lon="3.41505">
        <ele>881.67</ele>
        <time>2016-08-07T13:50:10Z</time>
      </trkpt>
      <trkpt lat="44.06784" lon="3.41493">
        <ele>882.15</ele>
        <time>2016-08-07T13:50:19Z</time>
      </trkpt>
      <trkpt lat="44.06785" lon="3.41488">
        <ele>882.15</ele>
        <time>2016-08-07T13:50:22Z</time>
      </trkpt>
      <trkpt lat="44.06786" lon="3.41481">
        <ele>882.15</ele>
        <time>2016-08-07T13:50:26Z</time>
      </trkpt>
      <trkpt lat="44.06786" lon="3.41479">
        <ele>882.63</ele>
        <time>2016-08-07T13:50:28Z</time>
      </trkpt>
      <trkpt lat="44.06787" lon="3.41472">
        <ele>883.11</ele>
        <time>2016-08-07T13:50:33Z</time>
      </trkpt>
      <trkpt lat="44.06788" lon="3.41469">
        <ele>883.11</ele>
        <time>2016-08-07T13:50:36Z</time>
      </trkpt>
      <trkpt lat="44.06789" lon="3.41459">
        <ele>884.07</ele>
        <time>2016-08-07T13:50:43Z</time>
      </trkpt>
      <trkpt lat="44.06788" lon="3.41456">
        <ele>884.07</ele>
        <time>2016-08-07T13:50:45Z</time>
      </trkpt>
      <trkpt lat="44.06788" lon="3.4145">
        <ele>883.11</ele>
        <time>2016-08-07T13:50:49Z</time>
      </trkpt>
      <trkpt lat="44.06789" lon="3.41436">
        <ele>883.11</ele>
        <time>2016-08-07T13:50:59Z</time>
      </trkpt>
      <trkpt lat="44.06789" lon="3.41426">
        <ele>884.07</ele>
        <time>2016-08-07T13:51:06Z</time>
      </trkpt>
      <trkpt lat="44.0679" lon="3.4142">
        <ele>884.55</ele>
        <time>2016-08-07T13:51:10Z</time>
      </trkpt>
      <trkpt lat="44.06793" lon="3.41418">
        <ele>884.07</ele>
        <time>2016-08-07T13:51:14Z</time>
      </trkpt>
      <trkpt lat="44.06799" lon="3.41412">
        <ele>884.07</ele>
        <time>2016-08-07T13:51:21Z</time>
      </trkpt>
      <trkpt lat="44.06801" lon="3.41409">
        <ele>884.07</ele>
        <time>2016-08-07T13:51:25Z</time>
      </trkpt>
      <trkpt lat="44.06805" lon="3.41406">
        <ele>884.55</ele>
        <time>2016-08-07T13:51:30Z</time>
      </trkpt>
      <trkpt lat="44.06808" lon="3.41402">
        <ele>884.55</ele>
        <time>2016-08-07T13:51:34Z</time>
      </trkpt>
      <trkpt lat="44.06813" lon="3.41398">
        <ele>884.07</ele>
        <time>2016-08-07T13:51:41Z</time>
      </trkpt>
      <trkpt lat="44.06815" lon="3.41397">
        <ele>884.07</ele>
        <time>2016-08-07T13:51:43Z</time>
      </trkpt>
      <trkpt lat="44.06823" lon="3.41389">
        <ele>884.07</ele>
        <time>2016-08-07T13:51:52Z</time>
      </trkpt>
      <trkpt lat="44.06828" lon="3.41387">
        <ele>884.07</ele>
        <time>2016-08-07T13:51:57Z</time>
      </trkpt>
      <trkpt lat="44.06833" lon="3.41382">
        <ele>884.07</ele>
        <time>2016-08-07T13:52:04Z</time>
      </trkpt>
      <trkpt lat="44.06838" lon="3.41377">
        <ele>883.59</ele>
        <time>2016-08-07T13:52:11Z</time>
      </trkpt>
      <trkpt lat="44.06843" lon="3.41371">
        <ele>884.07</ele>
        <time>2016-08-07T13:52:18Z</time>
      </trkpt>
      <trkpt lat="44.06843" lon="3.4137">
        <ele>884.07</ele>
        <time>2016-08-07T13:52:19Z</time>
      </trkpt>
      <trkpt lat="44.06849" lon="3.41364">
        <ele>883.59</ele>
        <time>2016-08-07T13:52:26Z</time>
      </trkpt>
      <trkpt lat="44.06855" lon="3.41355">
        <ele>883.59</ele>
        <time>2016-08-07T13:52:34Z</time>
      </trkpt>
      <trkpt lat="44.06858" lon="3.41351">
        <ele>883.59</ele>
        <time>2016-08-07T13:52:38Z</time>
      </trkpt>
      <trkpt lat="44.06862" lon="3.41348">
        <ele>884.07</ele>
        <time>2016-08-07T13:52:46Z</time>
      </trkpt>
      <trkpt lat="44.06862" lon="3.41348">
        <ele>884.07</ele>
        <time>2016-08-07T13:52:57Z</time>
      </trkpt>
      <trkpt lat="44.06862" lon="3.41348">
        <ele>884.07</ele>
        <time>2016-08-07T13:53:12Z</time>
      </trkpt>
      <trkpt lat="44.06863" lon="3.41349">
        <ele>884.07</ele>
        <time>2016-08-07T13:53:28Z</time>
      </trkpt>
      <trkpt lat="44.06867" lon="3.41353">
        <ele>888.88</ele>
        <time>2016-08-07T13:53:36Z</time>
      </trkpt>
      <trkpt lat="44.06872" lon="3.41355">
        <ele>891.76</ele>
        <time>2016-08-07T13:53:44Z</time>
      </trkpt>
      <trkpt lat="44.06876" lon="3.41355">
        <ele>891.76</ele>
        <time>2016-08-07T13:53:52Z</time>
      </trkpt>
      <trkpt lat="44.06879" lon="3.41358">
        <ele>892.24</ele>
        <time>2016-08-07T13:53:56Z</time>
      </trkpt>
      <trkpt lat="44.06881" lon="3.41355">
        <ele>892.72</ele>
        <time>2016-08-07T13:54:02Z</time>
      </trkpt>
      <trkpt lat="44.06884" lon="3.41354">
        <ele>893.2</ele>
        <time>2016-08-07T13:54:08Z</time>
      </trkpt>
      <trkpt lat="44.06888" lon="3.4135">
        <ele>894.16</ele>
        <time>2016-08-07T13:54:15Z</time>
      </trkpt>
      <trkpt lat="44.06889" lon="3.41348">
        <ele>894.16</ele>
        <time>2016-08-07T13:54:23Z</time>
      </trkpt>
      <trkpt lat="44.06889" lon="3.41347">
        <ele>894.64</ele>
        <time>2016-08-07T13:54:30Z</time>
      </trkpt>
      <trkpt lat="44.06894" lon="3.41344">
        <ele>897.53</ele>
        <time>2016-08-07T13:54:36Z</time>
      </trkpt>
      <trkpt lat="44.06897" lon="3.41338">
        <ele>901.85</ele>
        <time>2016-08-07T13:54:45Z</time>
      </trkpt>
      <trkpt lat="44.069" lon="3.41334">
        <ele>904.26</ele>
        <time>2016-08-07T13:54:53Z</time>
      </trkpt>
      <trkpt lat="44.06902" lon="3.41333">
        <ele>904.26</ele>
        <time>2016-08-07T13:55:00Z</time>
      </trkpt>
      <trkpt lat="44.06904" lon="3.4133">
        <ele>905.22</ele>
        <time>2016-08-07T13:55:06Z</time>
      </trkpt>
      <trkpt lat="44.06907" lon="3.4133">
        <ele>905.7</ele>
        <time>2016-08-07T13:55:13Z</time>
      </trkpt>
      <trkpt lat="44.06912" lon="3.41327">
        <ele>905.7</ele>
        <time>2016-08-07T13:55:20Z</time>
      </trkpt>
      <trkpt lat="44.06916" lon="3.41325">
        <ele>907.14</ele>
        <time>2016-08-07T13:55:26Z</time>
      </trkpt>
      <trkpt lat="44.0692" lon="3.41324">
        <ele>908.58</ele>
        <time>2016-08-07T13:55:32Z</time>
      </trkpt>
      <trkpt lat="44.06924" lon="3.41322">
        <ele>908.1</ele>
        <time>2016-08-07T13:55:40Z</time>
      </trkpt>
      <trkpt lat="44.06929" lon="3.41322">
        <ele>909.54</ele>
        <time>2016-08-07T13:55:48Z</time>
      </trkpt>
      <trkpt lat="44.06932" lon="3.4132">
        <ele>911.47</ele>
        <time>2016-08-07T13:55:54Z</time>
      </trkpt>
      <trkpt lat="44.06936" lon="3.41317">
        <ele>912.43</ele>
        <time>2016-08-07T13:56:00Z</time>
      </trkpt>
      <trkpt lat="44.0694" lon="3.41311">
        <ele>912.91</ele>
        <time>2016-08-07T13:56:06Z</time>
      </trkpt>
      <trkpt lat="44.06941" lon="3.41311">
        <ele>912.91</ele>
        <time>2016-08-07T13:56:08Z</time>
      </trkpt>
      <trkpt lat="44.06945" lon="3.41306">
        <ele>913.87</ele>
        <time>2016-08-07T13:56:15Z</time>
      </trkpt>
      <trkpt lat="44.0695" lon="3.41303">
        <ele>914.35</ele>
        <time>2016-08-07T13:56:22Z</time>
      </trkpt>
      <trkpt lat="44.06952" lon="3.41301">
        <ele>914.83</ele>
        <time>2016-08-07T13:56:29Z</time>
      </trkpt>
      <trkpt lat="44.06956" lon="3.413">
        <ele>914.83</ele>
        <time>2016-08-07T13:56:35Z</time>
      </trkpt>
      <trkpt lat="44.06959" lon="3.413">
        <ele>914.83</ele>
        <time>2016-08-07T13:56:38Z</time>
      </trkpt>
      <trkpt lat="44.06965" lon="3.41299">
        <ele>915.79</ele>
        <time>2016-08-07T13:56:45Z</time>
      </trkpt>
      <trkpt lat="44.06971" lon="3.41298">
        <ele>918.2</ele>
        <time>2016-08-07T13:56:51Z</time>
      </trkpt>
      <trkpt lat="44.06976" lon="3.4129">
        <ele>916.27</ele>
        <time>2016-08-07T13:56:58Z</time>
      </trkpt>
      <trkpt lat="44.06976" lon="3.41291">
        <ele>914.35</ele>
        <time>2016-08-07T13:57:06Z</time>
      </trkpt>
      <trkpt lat="44.06978" lon="3.41289">
        <ele>914.35</ele>
        <time>2016-08-07T13:57:13Z</time>
      </trkpt>
      <trkpt lat="44.06981" lon="3.41287">
        <ele>916.27</ele>
        <time>2016-08-07T13:57:20Z</time>
      </trkpt>
      <trkpt lat="44.06985" lon="3.41286">
        <ele>918.2</ele>
        <time>2016-08-07T13:57:28Z</time>
      </trkpt>
      <trkpt lat="44.06987" lon="3.41282">
        <ele>921.56</ele>
        <time>2016-08-07T13:57:36Z</time>
      </trkpt>
      <trkpt lat="44.06988" lon="3.41279">
        <ele>923.96</ele>
        <time>2016-08-07T13:57:44Z</time>
      </trkpt>
      <trkpt lat="44.0699" lon="3.41276">
        <ele>924.45</ele>
        <time>2016-08-07T13:57:49Z</time>
      </trkpt>
      <trkpt lat="44.06993" lon="3.41274">
        <ele>924.93</ele>
        <time>2016-08-07T13:57:57Z</time>
      </trkpt>
      <trkpt lat="44.06996" lon="3.41277">
        <ele>926.85</ele>
        <time>2016-08-07T13:58:05Z</time>
      </trkpt>
      <trkpt lat="44.06995" lon="3.41277">
        <ele>926.85</ele>
        <time>2016-08-07T13:58:15Z</time>
      </trkpt>
      <trkpt lat="44.06995" lon="3.41277">
        <ele>926.85</ele>
        <time>2016-08-07T13:58:24Z</time>
      </trkpt>
      <trkpt lat="44.06995" lon="3.41277">
        <ele>926.85</ele>
        <time>2016-08-07T13:58:38Z</time>
      </trkpt>
      <trkpt lat="44.06996" lon="3.41276">
        <ele>926.85</ele>
        <time>2016-08-07T13:58:54Z</time>
      </trkpt>
      <trkpt lat="44.06996" lon="3.41276">
        <ele>927.33</ele>
        <time>2016-08-07T13:59:03Z</time>
      </trkpt>
      <trkpt lat="44.06996" lon="3.41276">
        <ele>927.33</ele>
        <time>2016-08-07T13:59:13Z</time>
      </trkpt>
      <trkpt lat="44.06996" lon="3.41276">
        <ele>927.33</ele>
        <time>2016-08-07T13:59:31Z</time>
      </trkpt>
      <trkpt lat="44.06997" lon="3.41276">
        <ele>927.81</ele>
        <time>2016-08-07T13:59:44Z</time>
      </trkpt>
      <trkpt lat="44.07002" lon="3.41275">
        <ele>929.73</ele>
        <time>2016-08-07T13:59:51Z</time>
      </trkpt>
      <trkpt lat="44.07008" lon="3.41276">
        <ele>930.69</ele>
        <time>2016-08-07T13:59:58Z</time>
      </trkpt>
      <trkpt lat="44.07016" lon="3.41281">
        <ele>933.1</ele>
        <time>2016-08-07T14:00:07Z</time>
      </trkpt>
      <trkpt lat="44.07019" lon="3.41277">
        <ele>934.06</ele>
        <time>2016-08-07T14:00:14Z</time>
      </trkpt>
      <trkpt lat="44.07019" lon="3.41277">
        <ele>934.54</ele>
        <time>2016-08-07T14:00:20Z</time>
      </trkpt>
      <trkpt lat="44.07019" lon="3.41277">
        <ele>934.54</ele>
        <time>2016-08-07T14:00:27Z</time>
      </trkpt>
      <trkpt lat="44.07022" lon="3.41274">
        <ele>936.94</ele>
        <time>2016-08-07T14:00:34Z</time>
      </trkpt>
      <trkpt lat="44.07023" lon="3.41274">
        <ele>938.86</ele>
        <time>2016-08-07T14:00:41Z</time>
      </trkpt>
      <trkpt lat="44.07025" lon="3.41272">
        <ele>939.83</ele>
        <time>2016-08-07T14:00:49Z</time>
      </trkpt>
      <trkpt lat="44.07029" lon="3.4127">
        <ele>942.23</ele>
        <time>2016-08-07T14:00:55Z</time>
      </trkpt>
      <trkpt lat="44.07031" lon="3.4127">
        <ele>942.71</ele>
        <time>2016-08-07T14:00:56Z</time>
      </trkpt>
      <trkpt lat="44.07032" lon="3.41267">
        <ele>944.15</ele>
        <time>2016-08-07T14:01:03Z</time>
      </trkpt>
      <trkpt lat="44.07035" lon="3.41265">
        <ele>945.59</ele>
        <time>2016-08-07T14:01:10Z</time>
      </trkpt>
      <trkpt lat="44.07037" lon="3.41265">
        <ele>946.07</ele>
        <time>2016-08-07T14:01:18Z</time>
      </trkpt>
      <trkpt lat="44.0704" lon="3.41263">
        <ele>946.56</ele>
        <time>2016-08-07T14:01:26Z</time>
      </trkpt>
      <trkpt lat="44.07042" lon="3.41264">
        <ele>946.56</ele>
        <time>2016-08-07T14:01:32Z</time>
      </trkpt>
      <trkpt lat="44.07047" lon="3.41261">
        <ele>948</ele>
        <time>2016-08-07T14:01:38Z</time>
      </trkpt>
      <trkpt lat="44.07051" lon="3.41261">
        <ele>948</ele>
        <time>2016-08-07T14:01:44Z</time>
      </trkpt>
      <trkpt lat="44.07053" lon="3.41261">
        <ele>947.52</ele>
        <time>2016-08-07T14:01:50Z</time>
      </trkpt>
      <trkpt lat="44.07055" lon="3.41258">
        <ele>947.04</ele>
        <time>2016-08-07T14:01:59Z</time>
      </trkpt>
      <trkpt lat="44.07055" lon="3.41258">
        <ele>947.04</ele>
        <time>2016-08-07T14:02:07Z</time>
      </trkpt>
      <trkpt lat="44.07059" lon="3.41257">
        <ele>947.52</ele>
        <time>2016-08-07T14:02:14Z</time>
      </trkpt>
      <trkpt lat="44.07063" lon="3.41253">
        <ele>949.92</ele>
        <time>2016-08-07T14:02:21Z</time>
      </trkpt>
      <trkpt lat="44.07068" lon="3.41251">
        <ele>952.8</ele>
        <time>2016-08-07T14:02:27Z</time>
      </trkpt>
      <trkpt lat="44.07072" lon="3.41252">
        <ele>955.69</ele>
        <time>2016-08-07T14:02:36Z</time>
      </trkpt>
      <trkpt lat="44.07073" lon="3.41252">
        <ele>956.65</ele>
        <time>2016-08-07T14:02:42Z</time>
      </trkpt>
      <trkpt lat="44.07075" lon="3.41251">
        <ele>957.13</ele>
        <time>2016-08-07T14:02:49Z</time>
      </trkpt>
      <trkpt lat="44.07077" lon="3.41253">
        <ele>958.57</ele>
        <time>2016-08-07T14:02:55Z</time>
      </trkpt>
      <trkpt lat="44.07079" lon="3.41256">
        <ele>959.05</ele>
        <time>2016-08-07T14:03:01Z</time>
      </trkpt>
      <trkpt lat="44.07082" lon="3.41258">
        <ele>960.01</ele>
        <time>2016-08-07T14:03:07Z</time>
      </trkpt>
      <trkpt lat="44.07083" lon="3.41256">
        <ele>962.42</ele>
        <time>2016-08-07T14:03:13Z</time>
      </trkpt>
      <trkpt lat="44.07086" lon="3.41254">
        <ele>966.26</ele>
        <time>2016-08-07T14:03:19Z</time>
      </trkpt>
      <trkpt lat="44.07088" lon="3.4125">
        <ele>968.18</ele>
        <time>2016-08-07T14:03:26Z</time>
      </trkpt>
      <trkpt lat="44.07089" lon="3.4125">
        <ele>968.18</ele>
        <time>2016-08-07T14:03:37Z</time>
      </trkpt>
      <trkpt lat="44.07089" lon="3.4125">
        <ele>968.18</ele>
        <time>2016-08-07T14:03:46Z</time>
      </trkpt>
      <trkpt lat="44.07088" lon="3.4125">
        <ele>968.18</ele>
        <time>2016-08-07T14:03:57Z</time>
      </trkpt>
      <trkpt lat="44.07088" lon="3.4125">
        <ele>968.18</ele>
        <time>2016-08-07T14:04:12Z</time>
      </trkpt>
      <trkpt lat="44.07088" lon="3.4125">
        <ele>968.18</ele>
        <time>2016-08-07T14:04:29Z</time>
      </trkpt>
      <trkpt lat="44.07088" lon="3.41249">
        <ele>968.18</ele>
        <time>2016-08-07T14:04:41Z</time>
      </trkpt>
      <trkpt lat="44.0709" lon="3.41244">
        <ele>968.18</ele>
        <time>2016-08-07T14:04:46Z</time>
      </trkpt>
      <trkpt lat="44.07092" lon="3.4124">
        <ele>968.67</ele>
        <time>2016-08-07T14:04:52Z</time>
      </trkpt>
      <trkpt lat="44.07092" lon="3.41238">
        <ele>969.15</ele>
        <time>2016-08-07T14:05:01Z</time>
      </trkpt>
      <trkpt lat="44.07095" lon="3.41231">
        <ele>970.59</ele>
        <time>2016-08-07T14:05:08Z</time>
      </trkpt>
      <trkpt lat="44.07095" lon="3.41222">
        <ele>971.07</ele>
        <time>2016-08-07T14:05:12Z</time>
      </trkpt>
      <trkpt lat="44.07093" lon="3.41214">
        <ele>971.07</ele>
        <time>2016-08-07T14:05:19Z</time>
      </trkpt>
      <trkpt lat="44.07091" lon="3.4121">
        <ele>971.07</ele>
        <time>2016-08-07T14:05:23Z</time>
      </trkpt>
      <trkpt lat="44.07086" lon="3.41202">
        <ele>972.03</ele>
        <time>2016-08-07T14:05:31Z</time>
      </trkpt>
      <trkpt lat="44.07085" lon="3.41196">
        <ele>972.51</ele>
        <time>2016-08-07T14:05:38Z</time>
      </trkpt>
      <trkpt lat="44.07085" lon="3.41193">
        <ele>973.95</ele>
        <time>2016-08-07T14:05:46Z</time>
      </trkpt>
      <trkpt lat="44.07084" lon="3.4119">
        <ele>975.39</ele>
        <time>2016-08-07T14:05:53Z</time>
      </trkpt>
      <trkpt lat="44.07083" lon="3.41186">
        <ele>976.36</ele>
        <time>2016-08-07T14:05:59Z</time>
      </trkpt>
      <trkpt lat="44.07082" lon="3.41183">
        <ele>977.32</ele>
        <time>2016-08-07T14:06:04Z</time>
      </trkpt>
      <trkpt lat="44.07081" lon="3.4118">
        <ele>979.24</ele>
        <time>2016-08-07T14:06:10Z</time>
      </trkpt>
      <trkpt lat="44.07081" lon="3.41178">
        <ele>980.2</ele>
        <time>2016-08-07T14:06:16Z</time>
      </trkpt>
      <trkpt lat="44.0708" lon="3.41175">
        <ele>981.16</ele>
        <time>2016-08-07T14:06:24Z</time>
      </trkpt>
      <trkpt lat="44.07078" lon="3.41169">
        <ele>983.09</ele>
        <time>2016-08-07T14:06:31Z</time>
      </trkpt>
      <trkpt lat="44.07082" lon="3.41167">
        <ele>985.01</ele>
        <time>2016-08-07T14:06:38Z</time>
      </trkpt>
      <trkpt lat="44.07087" lon="3.41165">
        <ele>985.01</ele>
        <time>2016-08-07T14:06:47Z</time>
      </trkpt>
      <trkpt lat="44.07089" lon="3.41162">
        <ele>985.49</ele>
        <time>2016-08-07T14:06:53Z</time>
      </trkpt>
      <trkpt lat="44.07093" lon="3.41162">
        <ele>985.49</ele>
        <time>2016-08-07T14:07:00Z</time>
      </trkpt>
      <trkpt lat="44.07097" lon="3.4116">
        <ele>987.89</ele>
        <time>2016-08-07T14:07:06Z</time>
      </trkpt>
      <trkpt lat="44.071" lon="3.41157">
        <ele>988.37</ele>
        <time>2016-08-07T14:07:13Z</time>
      </trkpt>
      <trkpt lat="44.07102" lon="3.41158">
        <ele>989.81</ele>
        <time>2016-08-07T14:07:18Z</time>
      </trkpt>
      <trkpt lat="44.07105" lon="3.41155">
        <ele>991.74</ele>
        <time>2016-08-07T14:07:26Z</time>
      </trkpt>
      <trkpt lat="44.07107" lon="3.41156">
        <ele>992.22</ele>
        <time>2016-08-07T14:07:32Z</time>
      </trkpt>
      <trkpt lat="44.07112" lon="3.41154">
        <ele>993.66</ele>
        <time>2016-08-07T14:07:39Z</time>
      </trkpt>
      <trkpt lat="44.07114" lon="3.41155">
        <ele>994.62</ele>
        <time>2016-08-07T14:07:46Z</time>
      </trkpt>
      <trkpt lat="44.07116" lon="3.41154">
        <ele>995.1</ele>
        <time>2016-08-07T14:07:51Z</time>
      </trkpt>
      <trkpt lat="44.07121" lon="3.41153">
        <ele>995.58</ele>
        <time>2016-08-07T14:07:58Z</time>
      </trkpt>
      <trkpt lat="44.07126" lon="3.41151">
        <ele>996.06</ele>
        <time>2016-08-07T14:08:05Z</time>
      </trkpt>
      <trkpt lat="44.07129" lon="3.41152">
        <ele>997.51</ele>
        <time>2016-08-07T14:08:13Z</time>
      </trkpt>
      <trkpt lat="44.07132" lon="3.41151">
        <ele>998.95</ele>
        <time>2016-08-07T14:08:20Z</time>
      </trkpt>
      <trkpt lat="44.07135" lon="3.41149">
        <ele>999.43</ele>
        <time>2016-08-07T14:08:26Z</time>
      </trkpt>
      <trkpt lat="44.07138" lon="3.41146">
        <ele>1000.39</ele>
        <time>2016-08-07T14:08:33Z</time>
      </trkpt>
      <trkpt lat="44.07137" lon="3.41145">
        <ele>1001.35</ele>
        <time>2016-08-07T14:08:40Z</time>
      </trkpt>
      <trkpt lat="44.07137" lon="3.41145">
        <ele>1001.35</ele>
        <time>2016-08-07T14:08:50Z</time>
      </trkpt>
      <trkpt lat="44.07137" lon="3.41145">
        <ele>1001.35</ele>
        <time>2016-08-07T14:09:00Z</time>
      </trkpt>
      <trkpt lat="44.07137" lon="3.41145">
        <ele>1001.83</ele>
        <time>2016-08-07T14:09:17Z</time>
      </trkpt>
      <trkpt lat="44.07137" lon="3.41145">
        <ele>1001.83</ele>
        <time>2016-08-07T14:09:32Z</time>
      </trkpt>
      <trkpt lat="44.07134" lon="3.41143">
        <ele>1001.35</ele>
        <time>2016-08-07T14:09:44Z</time>
      </trkpt>
      <trkpt lat="44.07132" lon="3.41137">
        <ele>1000.39</ele>
        <time>2016-08-07T14:09:51Z</time>
      </trkpt>
      <trkpt lat="44.07129" lon="3.41134">
        <ele>1001.35</ele>
        <time>2016-08-07T14:09:56Z</time>
      </trkpt>
      <trkpt lat="44.07129" lon="3.41128">
        <ele>1004.72</ele>
        <time>2016-08-07T14:10:03Z</time>
      </trkpt>
      <trkpt lat="44.0713" lon="3.41126">
        <ele>1006.16</ele>
        <time>2016-08-07T14:10:09Z</time>
      </trkpt>
      <trkpt lat="44.07134" lon="3.41123">
        <ele>1006.64</ele>
        <time>2016-08-07T14:10:17Z</time>
      </trkpt>
      <trkpt lat="44.07137" lon="3.4112">
        <ele>1008.56</ele>
        <time>2016-08-07T14:10:24Z</time>
      </trkpt>
      <trkpt lat="44.0714" lon="3.41118">
        <ele>1009.52</ele>
        <time>2016-08-07T14:10:31Z</time>
      </trkpt>
      <trkpt lat="44.07143" lon="3.41116">
        <ele>1010.48</ele>
        <time>2016-08-07T14:10:38Z</time>
      </trkpt>
      <trkpt lat="44.07148" lon="3.41116">
        <ele>1010.48</ele>
        <time>2016-08-07T14:10:45Z</time>
      </trkpt>
      <trkpt lat="44.07152" lon="3.41113">
        <ele>1012.41</ele>
        <time>2016-08-07T14:10:52Z</time>
      </trkpt>
      <trkpt lat="44.07158" lon="3.4111">
        <ele>1013.37</ele>
        <time>2016-08-07T14:10:59Z</time>
      </trkpt>
      <trkpt lat="44.07162" lon="3.41109">
        <ele>1016.25</ele>
        <time>2016-08-07T14:11:05Z</time>
      </trkpt>
      <trkpt lat="44.07165" lon="3.41109">
        <ele>1015.77</ele>
        <time>2016-08-07T14:11:09Z</time>
      </trkpt>
      <trkpt lat="44.07168" lon="3.41112">
        <ele>1016.25</ele>
        <time>2016-08-07T14:11:15Z</time>
      </trkpt>
      <trkpt lat="44.07172" lon="3.41114">
        <ele>1015.77</ele>
        <time>2016-08-07T14:11:22Z</time>
      </trkpt>
      <trkpt lat="44.07178" lon="3.41113">
        <ele>1016.25</ele>
        <time>2016-08-07T14:11:30Z</time>
      </trkpt>
      <trkpt lat="44.07181" lon="3.41107">
        <ele>1016.73</ele>
        <time>2016-08-07T14:11:39Z</time>
      </trkpt>
      <trkpt lat="44.07184" lon="3.41097">
        <ele>1017.21</ele>
        <time>2016-08-07T14:11:49Z</time>
      </trkpt>
      <trkpt lat="44.07188" lon="3.41092">
        <ele>1017.21</ele>
        <time>2016-08-07T14:11:59Z</time>
      </trkpt>
      <trkpt lat="44.07188" lon="3.41092">
        <ele>1017.21</ele>
        <time>2016-08-07T14:12:14Z</time>
      </trkpt>
      <trkpt lat="44.07189" lon="3.41091">
        <ele>1017.21</ele>
        <time>2016-08-07T14:12:25Z</time>
      </trkpt>
      <trkpt lat="44.07194" lon="3.41087">
        <ele>1018.17</ele>
        <time>2016-08-07T14:12:33Z</time>
      </trkpt>
      <trkpt lat="44.07197" lon="3.41086">
        <ele>1018.65</ele>
        <time>2016-08-07T14:12:40Z</time>
      </trkpt>
      <trkpt lat="44.07198" lon="3.41086">
        <ele>1018.17</ele>
        <time>2016-08-07T14:12:48Z</time>
      </trkpt>
      <trkpt lat="44.07198" lon="3.41086">
        <ele>1018.17</ele>
        <time>2016-08-07T14:12:57Z</time>
      </trkpt>
      <trkpt lat="44.07198" lon="3.41086">
        <ele>1018.17</ele>
        <time>2016-08-07T14:13:07Z</time>
      </trkpt>
      <trkpt lat="44.07198" lon="3.41086">
        <ele>1018.17</ele>
        <time>2016-08-07T14:13:17Z</time>
      </trkpt>
      <trkpt lat="44.07198" lon="3.41086">
        <ele>1018.65</ele>
        <time>2016-08-07T14:13:30Z</time>
      </trkpt>
      <trkpt lat="44.07198" lon="3.41086">
        <ele>1018.65</ele>
        <time>2016-08-07T14:13:47Z</time>
      </trkpt>
      <trkpt lat="44.07198" lon="3.41086">
        <ele>1018.65</ele>
        <time>2016-08-07T14:14:02Z</time>
      </trkpt>
      <trkpt lat="44.07198" lon="3.41086">
        <ele>1018.65</ele>
        <time>2016-08-07T14:14:21Z</time>
      </trkpt>
      <trkpt lat="44.07198" lon="3.41086">
        <ele>1018.65</ele>
        <time>2016-08-07T14:14:37Z</time>
      </trkpt>
      <trkpt lat="44.07198" lon="3.41086">
        <ele>1018.65</ele>
        <time>2016-08-07T14:14:51Z</time>
      </trkpt>
      <trkpt lat="44.07198" lon="3.41086">
        <ele>1018.65</ele>
        <time>2016-08-07T14:15:10Z</time>
      </trkpt>
      <trkpt lat="44.07198" lon="3.41086">
        <ele>1018.65</ele>
        <time>2016-08-07T14:15:28Z</time>
      </trkpt>
      <trkpt lat="44.07198" lon="3.41086">
        <ele>1018.65</ele>
        <time>2016-08-07T14:15:43Z</time>
      </trkpt>
      <trkpt lat="44.07197" lon="3.41086">
        <ele>1019.13</ele>
        <time>2016-08-07T14:15:55Z</time>
      </trkpt>
      <trkpt lat="44.07197" lon="3.41086">
        <ele>1019.13</ele>
        <time>2016-08-07T14:16:10Z</time>
      </trkpt>
      <trkpt lat="44.07197" lon="3.41086">
        <ele>1019.13</ele>
        <time>2016-08-07T14:16:29Z</time>
      </trkpt>
      <trkpt lat="44.07197" lon="3.41086">
        <ele>1019.13</ele>
        <time>2016-08-07T14:16:48Z</time>
      </trkpt>
      <trkpt lat="44.07197" lon="3.41086">
        <ele>1019.13</ele>
        <time>2016-08-07T14:17:11Z</time>
      </trkpt>
      <trkpt lat="44.07197" lon="3.41086">
        <ele>1019.13</ele>
        <time>2016-08-07T14:17:25Z</time>
      </trkpt>
      <trkpt lat="44.07197" lon="3.41086">
        <ele>1019.13</ele>
        <time>2016-08-07T14:17:45Z</time>
      </trkpt>
      <trkpt lat="44.07197" lon="3.41086">
        <ele>1019.13</ele>
        <time>2016-08-07T14:18:04Z</time>
      </trkpt>
      <trkpt lat="44.07197" lon="3.41086">
        <ele>1019.13</ele>
        <time>2016-08-07T14:18:16Z</time>
      </trkpt>
      <trkpt lat="44.07198" lon="3.41086">
        <ele>1019.13</ele>
        <time>2016-08-07T14:18:26Z</time>
      </trkpt>
      <trkpt lat="44.07198" lon="3.41086">
        <ele>1019.13</ele>
        <time>2016-08-07T14:18:34Z</time>
      </trkpt>
      <trkpt lat="44.07198" lon="3.41086">
        <ele>1018.65</ele>
        <time>2016-08-07T14:18:46Z</time>
      </trkpt>
      <trkpt lat="44.07204" lon="3.41086">
        <ele>1016.25</ele>
        <time>2016-08-07T14:18:51Z</time>
      </trkpt>
      <trkpt lat="44.07212" lon="3.41087">
        <ele>1016.25</ele>
        <time>2016-08-07T14:18:59Z</time>
      </trkpt>
      <trkpt lat="44.07219" lon="3.41086">
        <ele>1014.81</ele>
        <time>2016-08-07T14:19:05Z</time>
      </trkpt>
      <trkpt lat="44.07225" lon="3.41085">
        <ele>1013.37</ele>
        <time>2016-08-07T14:19:13Z</time>
      </trkpt>
      <trkpt lat="44.07229" lon="3.41082">
        <ele>1013.37</ele>
        <time>2016-08-07T14:19:19Z</time>
      </trkpt>
      <trkpt lat="44.0723" lon="3.4108">
        <ele>1011.44</ele>
        <time>2016-08-07T14:19:24Z</time>
      </trkpt>
      <trkpt lat="44.07233" lon="3.41079">
        <ele>1009.52</ele>
        <time>2016-08-07T14:19:31Z</time>
      </trkpt>
      <trkpt lat="44.07235" lon="3.4108">
        <ele>1007.6</ele>
        <time>2016-08-07T14:19:36Z</time>
      </trkpt>
      <trkpt lat="44.0724" lon="3.41076">
        <ele>1008.08</ele>
        <time>2016-08-07T14:19:42Z</time>
      </trkpt>
      <trkpt lat="44.07243" lon="3.41073">
        <ele>1008.08</ele>
        <time>2016-08-07T14:19:48Z</time>
      </trkpt>
      <trkpt lat="44.07246" lon="3.41073">
        <ele>1007.6</ele>
        <time>2016-08-07T14:19:56Z</time>
      </trkpt>
      <trkpt lat="44.07251" lon="3.41068">
        <ele>1005.68</ele>
        <time>2016-08-07T14:20:02Z</time>
      </trkpt>
      <trkpt lat="44.07254" lon="3.41064">
        <ele>1002.79</ele>
        <time>2016-08-07T14:20:10Z</time>
      </trkpt>
      <trkpt lat="44.07261" lon="3.41057">
        <ele>1000.87</ele>
        <time>2016-08-07T14:20:18Z</time>
      </trkpt>
      <trkpt lat="44.07264" lon="3.41054">
        <ele>1000.39</ele>
        <time>2016-08-07T14:20:25Z</time>
      </trkpt>
      <trkpt lat="44.07266" lon="3.41049">
        <ele>999.43</ele>
        <time>2016-08-07T14:20:32Z</time>
      </trkpt>
      <trkpt lat="44.07273" lon="3.41042">
        <ele>998.47</ele>
        <time>2016-08-07T14:20:39Z</time>
      </trkpt>
      <trkpt lat="44.07277" lon="3.41037">
        <ele>997.99</ele>
        <time>2016-08-07T14:20:47Z</time>
      </trkpt>
      <trkpt lat="44.07282" lon="3.41032">
        <ele>995.58</ele>
        <time>2016-08-07T14:20:54Z</time>
      </trkpt>
      <trkpt lat="44.07286" lon="3.41031">
        <ele>993.66</ele>
        <time>2016-08-07T14:21:01Z</time>
      </trkpt>
      <trkpt lat="44.07295" lon="3.41027">
        <ele>992.22</ele>
        <time>2016-08-07T14:21:09Z</time>
      </trkpt>
      <trkpt lat="44.07303" lon="3.41024">
        <ele>991.74</ele>
        <time>2016-08-07T14:21:17Z</time>
      </trkpt>
      <trkpt lat="44.07307" lon="3.41017">
        <ele>988.85</ele>
        <time>2016-08-07T14:21:24Z</time>
      </trkpt>
      <trkpt lat="44.07311" lon="3.4101">
        <ele>986.93</ele>
        <time>2016-08-07T14:21:31Z</time>
      </trkpt>
      <trkpt lat="44.07315" lon="3.41002">
        <ele>986.45</ele>
        <time>2016-08-07T14:21:40Z</time>
      </trkpt>
      <trkpt lat="44.0732" lon="3.40993">
        <ele>985.49</ele>
        <time>2016-08-07T14:21:48Z</time>
      </trkpt>
      <trkpt lat="44.07323" lon="3.40987">
        <ele>984.05</ele>
        <time>2016-08-07T14:21:54Z</time>
      </trkpt>
      <trkpt lat="44.07326" lon="3.4098">
        <ele>983.57</ele>
        <time>2016-08-07T14:22:01Z</time>
      </trkpt>
      <trkpt lat="44.07328" lon="3.40975">
        <ele>982.12</ele>
        <time>2016-08-07T14:22:09Z</time>
      </trkpt>
      <trkpt lat="44.0733" lon="3.40967">
        <ele>979.24</ele>
        <time>2016-08-07T14:22:15Z</time>
      </trkpt>
      <trkpt lat="44.07332" lon="3.40961">
        <ele>975.88</ele>
        <time>2016-08-07T14:22:22Z</time>
      </trkpt>
      <trkpt lat="44.07337" lon="3.40957">
        <ele>971.55</ele>
        <time>2016-08-07T14:22:29Z</time>
      </trkpt>
      <trkpt lat="44.07341" lon="3.40952">
        <ele>969.63</ele>
        <time>2016-08-07T14:22:36Z</time>
      </trkpt>
      <trkpt lat="44.07343" lon="3.40941">
        <ele>968.18</ele>
        <time>2016-08-07T14:22:44Z</time>
      </trkpt>
      <trkpt lat="44.07347" lon="3.40935">
        <ele>967.7</ele>
        <time>2016-08-07T14:22:51Z</time>
      </trkpt>
      <trkpt lat="44.07346" lon="3.40919">
        <ele>969.15</ele>
        <time>2016-08-07T14:22:59Z</time>
      </trkpt>
      <trkpt lat="44.07346" lon="3.40919">
        <ele>969.15</ele>
        <time>2016-08-07T14:23:01Z</time>
      </trkpt>
      <trkpt lat="44.07347" lon="3.40902">
        <ele>968.18</ele>
        <time>2016-08-07T14:23:10Z</time>
      </trkpt>
      <trkpt lat="44.07348" lon="3.40897">
        <ele>966.74</ele>
        <time>2016-08-07T14:23:16Z</time>
      </trkpt>
      <trkpt lat="44.07348" lon="3.40897">
        <ele>966.74</ele>
        <time>2016-08-07T14:23:24Z</time>
      </trkpt>
      <trkpt lat="44.07348" lon="3.40892">
        <ele>968.18</ele>
        <time>2016-08-07T14:23:31Z</time>
      </trkpt>
      <trkpt lat="44.07348" lon="3.40891">
        <ele>968.67</ele>
        <time>2016-08-07T14:23:32Z</time>
      </trkpt>
      <trkpt lat="44.0735" lon="3.40885">
        <ele>970.59</ele>
        <time>2016-08-07T14:23:39Z</time>
      </trkpt>
      <trkpt lat="44.07351" lon="3.40881">
        <ele>972.03</ele>
        <time>2016-08-07T14:23:47Z</time>
      </trkpt>
      <trkpt lat="44.07353" lon="3.40877">
        <ele>972.51</ele>
        <time>2016-08-07T14:23:56Z</time>
      </trkpt>
      <trkpt lat="44.07354" lon="3.40873">
        <ele>972.51</ele>
        <time>2016-08-07T14:24:03Z</time>
      </trkpt>
      <trkpt lat="44.07355" lon="3.4087">
        <ele>973.47</ele>
        <time>2016-08-07T14:24:11Z</time>
      </trkpt>
      <trkpt lat="44.07356" lon="3.40864">
        <ele>973.95</ele>
        <time>2016-08-07T14:24:18Z</time>
      </trkpt>
      <trkpt lat="44.07358" lon="3.40857">
        <ele>973.95</ele>
        <time>2016-08-07T14:24:25Z</time>
      </trkpt>
      <trkpt lat="44.07358" lon="3.40855">
        <ele>973.47</ele>
        <time>2016-08-07T14:24:33Z</time>
      </trkpt>
      <trkpt lat="44.07357" lon="3.40858">
        <ele>972.99</ele>
        <time>2016-08-07T14:24:40Z</time>
      </trkpt>
      <trkpt lat="44.07352" lon="3.40861">
        <ele>972.03</ele>
        <time>2016-08-07T14:24:50Z</time>
      </trkpt>
      <trkpt lat="44.07348" lon="3.40856">
        <ele>971.55</ele>
        <time>2016-08-07T14:24:58Z</time>
      </trkpt>
      <trkpt lat="44.07348" lon="3.40856">
        <ele>971.55</ele>
        <time>2016-08-07T14:25:10Z</time>
      </trkpt>
      <trkpt lat="44.07348" lon="3.40857">
        <ele>970.59</ele>
        <time>2016-08-07T14:25:19Z</time>
      </trkpt>
      <trkpt lat="44.07348" lon="3.40856">
        <ele>970.11</ele>
        <time>2016-08-07T14:25:26Z</time>
      </trkpt>
      <trkpt lat="44.07347" lon="3.40857">
        <ele>969.63</ele>
        <time>2016-08-07T14:25:33Z</time>
      </trkpt>
      <trkpt lat="44.07347" lon="3.40856">
        <ele>969.63</ele>
        <time>2016-08-07T14:25:41Z</time>
      </trkpt>
      <trkpt lat="44.07348" lon="3.40853">
        <ele>970.11</ele>
        <time>2016-08-07T14:25:47Z</time>
      </trkpt>
      <trkpt lat="44.07348" lon="3.40853">
        <ele>970.11</ele>
        <time>2016-08-07T14:26:00Z</time>
      </trkpt>
      <trkpt lat="44.07348" lon="3.40853">
        <ele>970.11</ele>
        <time>2016-08-07T14:26:16Z</time>
      </trkpt>
      <trkpt lat="44.07348" lon="3.40853">
        <ele>970.11</ele>
        <time>2016-08-07T14:26:33Z</time>
      </trkpt>
      <trkpt lat="44.07348" lon="3.40853">
        <ele>970.11</ele>
        <time>2016-08-07T14:26:52Z</time>
      </trkpt>
      <trkpt lat="44.07348" lon="3.40853">
        <ele>970.11</ele>
        <time>2016-08-07T14:27:11Z</time>
      </trkpt>
      <trkpt lat="44.07348" lon="3.40853">
        <ele>970.11</ele>
        <time>2016-08-07T14:27:28Z</time>
      </trkpt>
      <trkpt lat="44.07346" lon="3.40857">
        <ele>971.55</ele>
        <time>2016-08-07T14:27:34Z</time>
      </trkpt>
      <trkpt lat="44.07346" lon="3.40856">
        <ele>971.55</ele>
        <time>2016-08-07T14:27:40Z</time>
      </trkpt>
      <trkpt lat="44.07349" lon="3.40855">
        <ele>970.59</ele>
        <time>2016-08-07T14:27:46Z</time>
      </trkpt>
      <trkpt lat="44.07349" lon="3.40855">
        <ele>970.11</ele>
        <time>2016-08-07T14:27:53Z</time>
      </trkpt>
      <trkpt lat="44.07349" lon="3.40855">
        <ele>970.11</ele>
        <time>2016-08-07T14:28:06Z</time>
      </trkpt>
      <trkpt lat="44.07349" lon="3.40855">
        <ele>970.11</ele>
        <time>2016-08-07T14:28:24Z</time>
      </trkpt>
      <trkpt lat="44.07349" lon="3.40855">
        <ele>970.11</ele>
        <time>2016-08-07T14:28:37Z</time>
      </trkpt>
      <trkpt lat="44.07349" lon="3.40855">
        <ele>970.11</ele>
        <time>2016-08-07T14:28:53Z</time>
      </trkpt>
      <trkpt lat="44.07348" lon="3.40854">
        <ele>970.11</ele>
        <time>2016-08-07T14:29:10Z</time>
      </trkpt>
      <trkpt lat="44.07348" lon="3.40854">
        <ele>970.11</ele>
        <time>2016-08-07T14:29:24Z</time>
      </trkpt>
      <trkpt lat="44.07348" lon="3.40854">
        <ele>970.11</ele>
        <time>2016-08-07T14:29:37Z</time>
      </trkpt>
      <trkpt lat="44.07348" lon="3.40854">
        <ele>970.11</ele>
        <time>2016-08-07T14:29:49Z</time>
      </trkpt>
      <trkpt lat="44.07348" lon="3.40854">
        <ele>970.11</ele>
        <time>2016-08-07T14:30:04Z</time>
      </trkpt>
      <trkpt lat="44.07348" lon="3.40854">
        <ele>970.11</ele>
        <time>2016-08-07T14:30:18Z</time>
      </trkpt>
      <trkpt lat="44.07348" lon="3.40854">
        <ele>970.11</ele>
        <time>2016-08-07T14:30:32Z</time>
      </trkpt>
      <trkpt lat="44.07348" lon="3.40854">
        <ele>970.11</ele>
        <time>2016-08-07T14:30:45Z</time>
      </trkpt>
      <trkpt lat="44.07346" lon="3.40855">
        <ele>970.11</ele>
        <time>2016-08-07T14:30:58Z</time>
      </trkpt>
      <trkpt lat="44.07346" lon="3.40855">
        <ele>970.11</ele>
        <time>2016-08-07T14:31:11Z</time>
      </trkpt>
      <trkpt lat="44.07346" lon="3.40855">
        <ele>970.11</ele>
        <time>2016-08-07T14:31:27Z</time>
      </trkpt>
      <trkpt lat="44.07351" lon="3.40861">
        <ele>970.11</ele>
        <time>2016-08-07T14:31:41Z</time>
      </trkpt>
      <trkpt lat="44.07353" lon="3.40857">
        <ele>970.59</ele>
        <time>2016-08-07T14:31:52Z</time>
      </trkpt>
      <trkpt lat="44.07354" lon="3.40856">
        <ele>970.59</ele>
        <time>2016-08-07T14:32:04Z</time>
      </trkpt>
      <trkpt lat="44.07354" lon="3.40856">
        <ele>970.59</ele>
        <time>2016-08-07T14:32:18Z</time>
      </trkpt>
      <trkpt lat="44.07354" lon="3.40856">
        <ele>970.59</ele>
        <time>2016-08-07T14:32:34Z</time>
      </trkpt>
      <trkpt lat="44.07349" lon="3.40863">
        <ele>970.11</ele>
        <time>2016-08-07T14:32:47Z</time>
      </trkpt>
      <trkpt lat="44.07343" lon="3.40872">
        <ele>970.59</ele>
        <time>2016-08-07T14:33:03Z</time>
      </trkpt>
      <trkpt lat="44.07343" lon="3.40873">
        <ele>970.59</ele>
        <time>2016-08-07T14:33:17Z</time>
      </trkpt>
      <trkpt lat="44.07346" lon="3.40865">
        <ele>971.07</ele>
        <time>2016-08-07T14:33:28Z</time>
      </trkpt>
      <trkpt lat="44.07349" lon="3.40861">
        <ele>971.07</ele>
        <time>2016-08-07T14:33:40Z</time>
      </trkpt>
      <trkpt lat="44.07349" lon="3.40861">
        <ele>971.07</ele>
        <time>2016-08-07T14:33:58Z</time>
      </trkpt>
      <trkpt lat="44.07349" lon="3.40855">
        <ele>971.55</ele>
        <time>2016-08-07T14:34:11Z</time>
      </trkpt>
      <trkpt lat="44.07357" lon="3.40847">
        <ele>970.59</ele>
        <time>2016-08-07T14:34:20Z</time>
      </trkpt>
      <trkpt lat="44.07356" lon="3.40847">
        <ele>970.11</ele>
        <time>2016-08-07T14:34:32Z</time>
      </trkpt>
      <trkpt lat="44.07352" lon="3.40848">
        <ele>970.11</ele>
        <time>2016-08-07T14:34:43Z</time>
      </trkpt>
      <trkpt lat="44.07351" lon="3.40854">
        <ele>972.51</ele>
        <time>2016-08-07T14:34:55Z</time>
      </trkpt>
      <trkpt lat="44.07352" lon="3.40856">
        <ele>970.11</ele>
        <time>2016-08-07T14:35:06Z</time>
      </trkpt>
      <trkpt lat="44.07355" lon="3.40855">
        <ele>970.11</ele>
        <time>2016-08-07T14:35:16Z</time>
      </trkpt>
      <trkpt lat="44.07355" lon="3.40855">
        <ele>970.11</ele>
        <time>2016-08-07T14:35:30Z</time>
      </trkpt>
      <trkpt lat="44.07352" lon="3.40854">
        <ele>969.63</ele>
        <time>2016-08-07T14:35:41Z</time>
      </trkpt>
      <trkpt lat="44.07347" lon="3.40855">
        <ele>969.15</ele>
        <time>2016-08-07T14:35:53Z</time>
      </trkpt>
      <trkpt lat="44.07347" lon="3.40855">
        <ele>969.15</ele>
        <time>2016-08-07T14:36:06Z</time>
      </trkpt>
      <trkpt lat="44.07347" lon="3.40855">
        <ele>969.15</ele>
        <time>2016-08-07T14:36:18Z</time>
      </trkpt>
      <trkpt lat="44.07351" lon="3.40853">
        <ele>970.59</ele>
        <time>2016-08-07T14:36:29Z</time>
      </trkpt>
      <trkpt lat="44.07351" lon="3.40853">
        <ele>970.59</ele>
        <time>2016-08-07T14:36:40Z</time>
      </trkpt>
      <trkpt lat="44.07351" lon="3.40853">
        <ele>970.59</ele>
        <time>2016-08-07T14:36:51Z</time>
      </trkpt>
      <trkpt lat="44.07351" lon="3.40853">
        <ele>970.59</ele>
        <time>2016-08-07T14:36:57Z</time>
      </trkpt>
      <trkpt lat="44.07351" lon="3.40853">
        <ele>970.59</ele>
        <time>2016-08-07T14:37:05Z</time>
      </trkpt>
      <trkpt lat="44.07352" lon="3.40855">
        <ele>971.07</ele>
        <time>2016-08-07T14:37:13Z</time>
      </trkpt>
      <trkpt lat="44.07352" lon="3.40855">
        <ele>971.07</ele>
        <time>2016-08-07T14:37:23Z</time>
      </trkpt>
      <trkpt lat="44.07352" lon="3.40855">
        <ele>971.07</ele>
        <time>2016-08-07T14:37:37Z</time>
      </trkpt>
      <trkpt lat="44.07356" lon="3.40854">
        <ele>972.99</ele>
        <time>2016-08-07T14:38:00Z</time>
      </trkpt>
      <trkpt lat="44.07356" lon="3.40854">
        <ele>972.99</ele>
        <time>2016-08-07T14:38:10Z</time>
      </trkpt>
      <trkpt lat="44.07357" lon="3.40859">
        <ele>972.51</ele>
        <time>2016-08-07T14:38:16Z</time>
      </trkpt>
      <trkpt lat="44.07354" lon="3.40866">
        <ele>971.07</ele>
        <time>2016-08-07T14:38:23Z</time>
      </trkpt>
      <trkpt lat="44.07353" lon="3.40878">
        <ele>970.59</ele>
        <time>2016-08-07T14:38:31Z</time>
      </trkpt>
      <trkpt lat="44.07354" lon="3.40885">
        <ele>970.11</ele>
        <time>2016-08-07T14:38:37Z</time>
      </trkpt>
      <trkpt lat="44.07353" lon="3.40886">
        <ele>970.11</ele>
        <time>2016-08-07T14:38:46Z</time>
      </trkpt>
      <trkpt lat="44.07353" lon="3.40887">
        <ele>970.11</ele>
        <time>2016-08-07T14:38:53Z</time>
      </trkpt>
      <trkpt lat="44.07353" lon="3.40887">
        <ele>970.11</ele>
        <time>2016-08-07T14:38:59Z</time>
      </trkpt>
      <trkpt lat="44.07355" lon="3.40886">
        <ele>967.22</ele>
        <time>2016-08-07T14:39:08Z</time>
      </trkpt>
      <trkpt lat="44.07362" lon="3.40886">
        <ele>964.34</ele>
        <time>2016-08-07T14:39:13Z</time>
      </trkpt>
      <trkpt lat="44.07369" lon="3.40883">
        <ele>963.38</ele>
        <time>2016-08-07T14:39:20Z</time>
      </trkpt>
      <trkpt lat="44.0737" lon="3.40882">
        <ele>961.94</ele>
        <time>2016-08-07T14:39:27Z</time>
      </trkpt>
      <trkpt lat="44.07373" lon="3.40879">
        <ele>959.05</ele>
        <time>2016-08-07T14:39:34Z</time>
      </trkpt>
      <trkpt lat="44.07381" lon="3.40875">
        <ele>955.21</ele>
        <time>2016-08-07T14:39:40Z</time>
      </trkpt>
      <trkpt lat="44.07389" lon="3.40872">
        <ele>952.8</ele>
        <time>2016-08-07T14:39:47Z</time>
      </trkpt>
      <trkpt lat="44.0739" lon="3.40871">
        <ele>952.32</ele>
        <time>2016-08-07T14:39:55Z</time>
      </trkpt>
      <trkpt lat="44.07405" lon="3.40861">
        <ele>949.92</ele>
        <time>2016-08-07T14:40:04Z</time>
      </trkpt>
      <trkpt lat="44.07416" lon="3.40853">
        <ele>948.48</ele>
        <time>2016-08-07T14:40:11Z</time>
      </trkpt>
      <trkpt lat="44.07423" lon="3.40848">
        <ele>948</ele>
        <time>2016-08-07T14:40:19Z</time>
      </trkpt>
      <trkpt lat="44.07427" lon="3.40844">
        <ele>946.07</ele>
        <time>2016-08-07T14:40:27Z</time>
      </trkpt>
      <trkpt lat="44.07428" lon="3.40842">
        <ele>945.11</ele>
        <time>2016-08-07T14:40:32Z</time>
      </trkpt>
      <trkpt lat="44.07433" lon="3.40837">
        <ele>942.71</ele>
        <time>2016-08-07T14:40:40Z</time>
      </trkpt>
      <trkpt lat="44.07438" lon="3.40833">
        <ele>940.79</ele>
        <time>2016-08-07T14:40:49Z</time>
      </trkpt>
      <trkpt lat="44.07442" lon="3.4083">
        <ele>940.31</ele>
        <time>2016-08-07T14:40:56Z</time>
      </trkpt>
      <trkpt lat="44.07447" lon="3.40825">
        <ele>939.83</ele>
        <time>2016-08-07T14:41:02Z</time>
      </trkpt>
      <trkpt lat="44.07455" lon="3.40822">
        <ele>939.83</ele>
        <time>2016-08-07T14:41:09Z</time>
      </trkpt>
      <trkpt lat="44.07461" lon="3.40817">
        <ele>938.86</ele>
        <time>2016-08-07T14:41:15Z</time>
      </trkpt>
      <trkpt lat="44.07468" lon="3.4081">
        <ele>937.9</ele>
        <time>2016-08-07T14:41:22Z</time>
      </trkpt>
      <trkpt lat="44.07473" lon="3.40803">
        <ele>935.98</ele>
        <time>2016-08-07T14:41:27Z</time>
      </trkpt>
      <trkpt lat="44.07478" lon="3.40792">
        <ele>934.54</ele>
        <time>2016-08-07T14:41:33Z</time>
      </trkpt>
      <trkpt lat="44.07483" lon="3.40784">
        <ele>932.62</ele>
        <time>2016-08-07T14:41:39Z</time>
      </trkpt>
      <trkpt lat="44.07487" lon="3.40778">
        <ele>930.21</ele>
        <time>2016-08-07T14:41:46Z</time>
      </trkpt>
      <trkpt lat="44.07489" lon="3.40773">
        <ele>928.77</ele>
        <time>2016-08-07T14:41:53Z</time>
      </trkpt>
      <trkpt lat="44.07492" lon="3.40768">
        <ele>927.33</ele>
        <time>2016-08-07T14:42:00Z</time>
      </trkpt>
      <trkpt lat="44.07495" lon="3.40758">
        <ele>927.33</ele>
        <time>2016-08-07T14:42:06Z</time>
      </trkpt>
      <trkpt lat="44.07497" lon="3.4075">
        <ele>927.81</ele>
        <time>2016-08-07T14:42:13Z</time>
      </trkpt>
      <trkpt lat="44.07501" lon="3.40747">
        <ele>926.37</ele>
        <time>2016-08-07T14:42:20Z</time>
      </trkpt>
      <trkpt lat="44.07503" lon="3.40741">
        <ele>926.37</ele>
        <time>2016-08-07T14:42:26Z</time>
      </trkpt>
      <trkpt lat="44.07509" lon="3.40737">
        <ele>924.45</ele>
        <time>2016-08-07T14:42:33Z</time>
      </trkpt>
      <trkpt lat="44.07515" lon="3.40733">
        <ele>923</ele>
        <time>2016-08-07T14:42:40Z</time>
      </trkpt>
      <trkpt lat="44.0752" lon="3.40729">
        <ele>921.08</ele>
        <time>2016-08-07T14:42:48Z</time>
      </trkpt>
      <trkpt lat="44.07521" lon="3.40726">
        <ele>918.2</ele>
        <time>2016-08-07T14:42:55Z</time>
      </trkpt>
      <trkpt lat="44.07523" lon="3.40724">
        <ele>917.72</ele>
        <time>2016-08-07T14:43:03Z</time>
      </trkpt>
      <trkpt lat="44.07523" lon="3.40724">
        <ele>916.75</ele>
        <time>2016-08-07T14:43:13Z</time>
      </trkpt>
      <trkpt lat="44.07524" lon="3.4072">
        <ele>915.31</ele>
        <time>2016-08-07T14:43:20Z</time>
      </trkpt>
      <trkpt lat="44.07529" lon="3.40715">
        <ele>912.43</ele>
        <time>2016-08-07T14:43:27Z</time>
      </trkpt>
      <trkpt lat="44.07531" lon="3.40705">
        <ele>909.54</ele>
        <time>2016-08-07T14:43:36Z</time>
      </trkpt>
      <trkpt lat="44.07533" lon="3.40697">
        <ele>908.1</ele>
        <time>2016-08-07T14:43:43Z</time>
      </trkpt>
      <trkpt lat="44.07537" lon="3.40683">
        <ele>906.66</ele>
        <time>2016-08-07T14:43:51Z</time>
      </trkpt>
      <trkpt lat="44.07536" lon="3.40663">
        <ele>908.58</ele>
        <time>2016-08-07T14:44:00Z</time>
      </trkpt>
      <trkpt lat="44.07534" lon="3.40653">
        <ele>907.62</ele>
        <time>2016-08-07T14:44:07Z</time>
      </trkpt>
      <trkpt lat="44.07535" lon="3.4065">
        <ele>906.66</ele>
        <time>2016-08-07T14:44:14Z</time>
      </trkpt>
      <trkpt lat="44.07536" lon="3.4064">
        <ele>902.82</ele>
        <time>2016-08-07T14:44:23Z</time>
      </trkpt>
      <trkpt lat="44.07537" lon="3.40639">
        <ele>901.37</ele>
        <time>2016-08-07T14:44:29Z</time>
      </trkpt>
      <trkpt lat="44.07539" lon="3.40636">
        <ele>901.37</ele>
        <time>2016-08-07T14:44:34Z</time>
      </trkpt>
      <trkpt lat="44.07541" lon="3.4063">
        <ele>900.41</ele>
        <time>2016-08-07T14:44:41Z</time>
      </trkpt>
      <trkpt lat="44.07542" lon="3.40629">
        <ele>899.93</ele>
        <time>2016-08-07T14:44:48Z</time>
      </trkpt>
      <trkpt lat="44.0755" lon="3.40621">
        <ele>898.01</ele>
        <time>2016-08-07T14:44:55Z</time>
      </trkpt>
      <trkpt lat="44.07554" lon="3.40619">
        <ele>898.01</ele>
        <time>2016-08-07T14:45:03Z</time>
      </trkpt>
      <trkpt lat="44.07554" lon="3.40619">
        <ele>898.01</ele>
        <time>2016-08-07T14:45:12Z</time>
      </trkpt>
      <trkpt lat="44.07554" lon="3.40619">
        <ele>898.01</ele>
        <time>2016-08-07T14:45:21Z</time>
      </trkpt>
      <trkpt lat="44.07554" lon="3.40619">
        <ele>898.49</ele>
        <time>2016-08-07T14:45:28Z</time>
      </trkpt>
      <trkpt lat="44.07555" lon="3.40619">
        <ele>898.49</ele>
        <time>2016-08-07T14:45:41Z</time>
      </trkpt>
      <trkpt lat="44.07555" lon="3.40619">
        <ele>898.49</ele>
        <time>2016-08-07T14:45:57Z</time>
      </trkpt>
      <trkpt lat="44.07555" lon="3.40618">
        <ele>898.49</ele>
        <time>2016-08-07T14:46:11Z</time>
      </trkpt>
      <trkpt lat="44.07555" lon="3.40618">
        <ele>898.49</ele>
        <time>2016-08-07T14:46:24Z</time>
      </trkpt>
      <trkpt lat="44.07555" lon="3.40618">
        <ele>898.49</ele>
        <time>2016-08-07T14:46:41Z</time>
      </trkpt>
      <trkpt lat="44.07555" lon="3.40618">
        <ele>898.49</ele>
        <time>2016-08-07T14:46:51Z</time>
      </trkpt>
      <trkpt lat="44.07555" lon="3.40618">
        <ele>898.49</ele>
        <time>2016-08-07T14:47:06Z</time>
      </trkpt>
      <trkpt lat="44.07555" lon="3.40619">
        <ele>898.49</ele>
        <time>2016-08-07T14:47:20Z</time>
      </trkpt>
      <trkpt lat="44.07555" lon="3.40618">
        <ele>898.49</ele>
        <time>2016-08-07T14:47:35Z</time>
      </trkpt>
      <trkpt lat="44.07555" lon="3.40618">
        <ele>898.49</ele>
        <time>2016-08-07T14:47:51Z</time>
      </trkpt>
      <trkpt lat="44.07555" lon="3.40618">
        <ele>898.49</ele>
        <time>2016-08-07T14:48:08Z</time>
      </trkpt>
      <trkpt lat="44.07555" lon="3.40618">
        <ele>898.49</ele>
        <time>2016-08-07T14:48:26Z</time>
      </trkpt>
      <trkpt lat="44.07555" lon="3.40618">
        <ele>898.49</ele>
        <time>2016-08-07T14:48:40Z</time>
      </trkpt>
      <trkpt lat="44.07555" lon="3.40618">
        <ele>898.49</ele>
        <time>2016-08-07T14:48:53Z</time>
      </trkpt>
      <trkpt lat="44.07555" lon="3.40618">
        <ele>898.49</ele>
        <time>2016-08-07T14:49:08Z</time>
      </trkpt>
      <trkpt lat="44.07555" lon="3.40618">
        <ele>898.49</ele>
        <time>2016-08-07T14:49:19Z</time>
      </trkpt>
      <trkpt lat="44.07556" lon="3.40618">
        <ele>898.49</ele>
        <time>2016-08-07T14:49:38Z</time>
      </trkpt>
      <trkpt lat="44.07556" lon="3.40618">
        <ele>898.49</ele>
        <time>2016-08-07T14:49:57Z</time>
      </trkpt>
      <trkpt lat="44.07556" lon="3.40618">
        <ele>898.49</ele>
        <time>2016-08-07T14:50:14Z</time>
      </trkpt>
      <trkpt lat="44.07556" lon="3.40618">
        <ele>898.49</ele>
        <time>2016-08-07T14:50:30Z</time>
      </trkpt>
      <trkpt lat="44.07556" lon="3.40618">
        <ele>898.49</ele>
        <time>2016-08-07T14:50:49Z</time>
      </trkpt>
      <trkpt lat="44.07556" lon="3.40618">
        <ele>898.49</ele>
        <time>2016-08-07T14:51:03Z</time>
      </trkpt>
      <trkpt lat="44.07556" lon="3.40618">
        <ele>898.49</ele>
        <time>2016-08-07T14:51:17Z</time>
      </trkpt>
      <trkpt lat="44.07556" lon="3.40617">
        <ele>898.49</ele>
        <time>2016-08-07T14:51:32Z</time>
      </trkpt>
      <trkpt lat="44.07556" lon="3.40617">
        <ele>898.49</ele>
        <time>2016-08-07T14:51:49Z</time>
      </trkpt>
      <trkpt lat="44.07556" lon="3.40617">
        <ele>898.49</ele>
        <time>2016-08-07T14:52:06Z</time>
      </trkpt>
      <trkpt lat="44.07556" lon="3.40617">
        <ele>898.97</ele>
        <time>2016-08-07T14:52:18Z</time>
      </trkpt>
      <trkpt lat="44.07556" lon="3.40617">
        <ele>898.97</ele>
        <time>2016-08-07T14:52:32Z</time>
      </trkpt>
      <trkpt lat="44.07556" lon="3.40617">
        <ele>898.97</ele>
        <time>2016-08-07T14:52:47Z</time>
      </trkpt>
      <trkpt lat="44.07556" lon="3.40617">
        <ele>898.97</ele>
        <time>2016-08-07T14:53:01Z</time>
      </trkpt>
      <trkpt lat="44.07556" lon="3.40617">
        <ele>898.97</ele>
        <time>2016-08-07T14:53:13Z</time>
      </trkpt>
      <trkpt lat="44.07556" lon="3.40617">
        <ele>898.97</ele>
        <time>2016-08-07T14:53:27Z</time>
      </trkpt>
      <trkpt lat="44.07556" lon="3.40616">
        <ele>898.97</ele>
        <time>2016-08-07T14:53:40Z</time>
      </trkpt>
      <trkpt lat="44.07556" lon="3.40616">
        <ele>898.97</ele>
        <time>2016-08-07T14:53:55Z</time>
      </trkpt>
      <trkpt lat="44.07556" lon="3.40616">
        <ele>899.45</ele>
        <time>2016-08-07T14:54:13Z</time>
      </trkpt>
      <trkpt lat="44.07556" lon="3.40616">
        <ele>899.45</ele>
        <time>2016-08-07T14:54:26Z</time>
      </trkpt>
      <trkpt lat="44.07555" lon="3.40616">
        <ele>899.45</ele>
        <time>2016-08-07T14:54:39Z</time>
      </trkpt>
      <trkpt lat="44.07556" lon="3.40616">
        <ele>899.45</ele>
        <time>2016-08-07T14:54:50Z</time>
      </trkpt>
      <trkpt lat="44.07555" lon="3.40615">
        <ele>899.93</ele>
        <time>2016-08-07T14:55:00Z</time>
      </trkpt>
      <trkpt lat="44.07554" lon="3.40611">
        <ele>898.97</ele>
        <time>2016-08-07T14:55:06Z</time>
      </trkpt>
      <trkpt lat="44.07553" lon="3.40603">
        <ele>897.53</ele>
        <time>2016-08-07T14:55:13Z</time>
      </trkpt>
      <trkpt lat="44.07553" lon="3.40602">
        <ele>898.01</ele>
        <time>2016-08-07T14:55:14Z</time>
      </trkpt>
      <trkpt lat="44.07552" lon="3.40594">
        <ele>900.41</ele>
        <time>2016-08-07T14:55:20Z</time>
      </trkpt>
      <trkpt lat="44.0755" lon="3.40584">
        <ele>901.85</ele>
        <time>2016-08-07T14:55:27Z</time>
      </trkpt>
      <trkpt lat="44.07552" lon="3.40579">
        <ele>901.85</ele>
        <time>2016-08-07T14:55:32Z</time>
      </trkpt>
      <trkpt lat="44.07552" lon="3.40574">
        <ele>900.41</ele>
        <time>2016-08-07T14:55:36Z</time>
      </trkpt>
      <trkpt lat="44.07553" lon="3.40559">
        <ele>899.45</ele>
        <time>2016-08-07T14:55:44Z</time>
      </trkpt>
      <trkpt lat="44.07551" lon="3.40543">
        <ele>897.53</ele>
        <time>2016-08-07T14:55:50Z</time>
      </trkpt>
      <trkpt lat="44.07545" lon="3.40527">
        <ele>898.49</ele>
        <time>2016-08-07T14:55:58Z</time>
      </trkpt>
      <trkpt lat="44.07544" lon="3.40524">
        <ele>898.97</ele>
        <time>2016-08-07T14:56:00Z</time>
      </trkpt>
      <trkpt lat="44.07543" lon="3.4051">
        <ele>900.89</ele>
        <time>2016-08-07T14:56:08Z</time>
      </trkpt>
      <trkpt lat="44.07542" lon="3.40503">
        <ele>901.37</ele>
        <time>2016-08-07T14:56:13Z</time>
      </trkpt>
      <trkpt lat="44.0754" lon="3.40485">
        <ele>904.26</ele>
        <time>2016-08-07T14:56:20Z</time>
      </trkpt>
      <trkpt lat="44.07539" lon="3.40472">
        <ele>903.78</ele>
        <time>2016-08-07T14:56:27Z</time>
      </trkpt>
      <trkpt lat="44.0754" lon="3.40462">
        <ele>902.33</ele>
        <time>2016-08-07T14:56:33Z</time>
      </trkpt>
      <trkpt lat="44.0754" lon="3.4046">
        <ele>902.33</ele>
        <time>2016-08-07T14:56:34Z</time>
      </trkpt>
      <trkpt lat="44.07538" lon="3.40448">
        <ele>903.78</ele>
        <time>2016-08-07T14:56:41Z</time>
      </trkpt>
      <trkpt lat="44.07537" lon="3.4044">
        <ele>903.3</ele>
        <time>2016-08-07T14:56:48Z</time>
      </trkpt>
      <trkpt lat="44.07537" lon="3.40435">
        <ele>901.85</ele>
        <time>2016-08-07T14:56:55Z</time>
      </trkpt>
      <trkpt lat="44.07537" lon="3.40434">
        <ele>901.85</ele>
        <time>2016-08-07T14:56:56Z</time>
      </trkpt>
      <trkpt lat="44.07537" lon="3.4043">
        <ele>901.85</ele>
        <time>2016-08-07T14:56:58Z</time>
      </trkpt>
      <trkpt lat="44.07529" lon="3.40416">
        <ele>901.85</ele>
        <time>2016-08-07T14:57:09Z</time>
      </trkpt>
      <trkpt lat="44.07519" lon="3.40407">
        <ele>902.82</ele>
        <time>2016-08-07T14:57:18Z</time>
      </trkpt>
      <trkpt lat="44.07512" lon="3.40406">
        <ele>902.33</ele>
        <time>2016-08-07T14:57:26Z</time>
      </trkpt>
      <trkpt lat="44.07511" lon="3.40404">
        <ele>902.82</ele>
        <time>2016-08-07T14:57:34Z</time>
      </trkpt>
      <trkpt lat="44.07511" lon="3.40404">
        <ele>902.82</ele>
        <time>2016-08-07T14:57:42Z</time>
      </trkpt>
      <trkpt lat="44.07512" lon="3.40403">
        <ele>902.82</ele>
        <time>2016-08-07T14:57:50Z</time>
      </trkpt>
      <trkpt lat="44.07517" lon="3.40396">
        <ele>903.78</ele>
        <time>2016-08-07T14:57:57Z</time>
      </trkpt>
      <trkpt lat="44.07526" lon="3.40388">
        <ele>906.18</ele>
        <time>2016-08-07T14:58:07Z</time>
      </trkpt>
      <trkpt lat="44.07526" lon="3.40388">
        <ele>906.18</ele>
        <time>2016-08-07T14:58:15Z</time>
      </trkpt>
      <trkpt lat="44.07525" lon="3.40388">
        <ele>906.18</ele>
        <time>2016-08-07T14:58:20Z</time>
      </trkpt>
      <trkpt lat="44.07519" lon="3.40392">
        <ele>906.66</ele>
        <time>2016-08-07T14:58:29Z</time>
      </trkpt>
      <trkpt lat="44.07512" lon="3.404">
        <ele>907.62</ele>
        <time>2016-08-07T14:58:40Z</time>
      </trkpt>
      <trkpt lat="44.07503" lon="3.40407">
        <ele>907.62</ele>
        <time>2016-08-07T14:58:48Z</time>
      </trkpt>
      <trkpt lat="44.07496" lon="3.40415">
        <ele>907.62</ele>
        <time>2016-08-07T14:58:57Z</time>
      </trkpt>
      <trkpt lat="44.07497" lon="3.40411">
        <ele>906.66</ele>
        <time>2016-08-07T14:59:05Z</time>
      </trkpt>
      <trkpt lat="44.07499" lon="3.40409">
        <ele>906.66</ele>
        <time>2016-08-07T14:59:12Z</time>
      </trkpt>
      <trkpt lat="44.07502" lon="3.40403">
        <ele>906.66</ele>
        <time>2016-08-07T14:59:20Z</time>
      </trkpt>
      <trkpt lat="44.07502" lon="3.40403">
        <ele>906.66</ele>
        <time>2016-08-07T14:59:29Z</time>
      </trkpt>
      <trkpt lat="44.07502" lon="3.40403">
        <ele>906.66</ele>
        <time>2016-08-07T14:59:38Z</time>
      </trkpt>
      <trkpt lat="44.07502" lon="3.40403">
        <ele>906.66</ele>
        <time>2016-08-07T14:59:48Z</time>
      </trkpt>
      <trkpt lat="44.07504" lon="3.40402">
        <ele>906.18</ele>
        <time>2016-08-07T14:59:57Z</time>
      </trkpt>
      <trkpt lat="44.0751" lon="3.40403">
        <ele>904.74</ele>
        <time>2016-08-07T15:00:03Z</time>
      </trkpt>
      <trkpt lat="44.0751" lon="3.40404">
        <ele>904.74</ele>
        <time>2016-08-07T15:00:11Z</time>
      </trkpt>
      <trkpt lat="44.0751" lon="3.40403">
        <ele>904.74</ele>
        <time>2016-08-07T15:00:22Z</time>
      </trkpt>
      <trkpt lat="44.07504" lon="3.40401">
        <ele>904.26</ele>
        <time>2016-08-07T15:00:32Z</time>
      </trkpt>
      <trkpt lat="44.07501" lon="3.40398">
        <ele>903.78</ele>
        <time>2016-08-07T15:00:43Z</time>
      </trkpt>
      <trkpt lat="44.075" lon="3.40397">
        <ele>903.3</ele>
        <time>2016-08-07T15:00:52Z</time>
      </trkpt>
      <trkpt lat="44.075" lon="3.40397">
        <ele>903.3</ele>
        <time>2016-08-07T15:00:59Z</time>
      </trkpt>
      <trkpt lat="44.07496" lon="3.40394">
        <ele>900.41</ele>
        <time>2016-08-07T15:01:05Z</time>
      </trkpt>
      <trkpt lat="44.07496" lon="3.40394">
        <ele>900.41</ele>
        <time>2016-08-07T15:01:13Z</time>
      </trkpt>
      <trkpt lat="44.07494" lon="3.40393">
        <ele>898.97</ele>
        <time>2016-08-07T15:01:19Z</time>
      </trkpt>
      <trkpt lat="44.0749" lon="3.40388">
        <ele>895.61</ele>
        <time>2016-08-07T15:01:26Z</time>
      </trkpt>
      <trkpt lat="44.0749" lon="3.40387">
        <ele>895.12</ele>
        <time>2016-08-07T15:01:33Z</time>
      </trkpt>
      <trkpt lat="44.07488" lon="3.40383">
        <ele>893.68</ele>
        <time>2016-08-07T15:01:40Z</time>
      </trkpt>
      <trkpt lat="44.07484" lon="3.40378">
        <ele>891.28</ele>
        <time>2016-08-07T15:01:46Z</time>
      </trkpt>
      <trkpt lat="44.07484" lon="3.40378">
        <ele>890.8</ele>
        <time>2016-08-07T15:01:48Z</time>
      </trkpt>
      <trkpt lat="44.07483" lon="3.40366">
        <ele>887.91</ele>
        <time>2016-08-07T15:01:56Z</time>
      </trkpt>
      <trkpt lat="44.07482" lon="3.40365">
        <ele>887.43</ele>
        <time>2016-08-07T15:01:57Z</time>
      </trkpt>
      <trkpt lat="44.0748" lon="3.40356">
        <ele>885.03</ele>
        <time>2016-08-07T15:02:03Z</time>
      </trkpt>
      <trkpt lat="44.07474" lon="3.4034">
        <ele>881.67</ele>
        <time>2016-08-07T15:02:09Z</time>
      </trkpt>
      <trkpt lat="44.07471" lon="3.40335">
        <ele>881.67</ele>
        <time>2016-08-07T15:02:11Z</time>
      </trkpt>
      <trkpt lat="44.07467" lon="3.4033">
        <ele>881.67</ele>
        <time>2016-08-07T15:02:14Z</time>
      </trkpt>
      <trkpt lat="44.07464" lon="3.40321">
        <ele>881.19</ele>
        <time>2016-08-07T15:02:21Z</time>
      </trkpt>
      <trkpt lat="44.07459" lon="3.40309">
        <ele>881.67</ele>
        <time>2016-08-07T15:02:28Z</time>
      </trkpt>
      <trkpt lat="44.07456" lon="3.40304">
        <ele>881.19</ele>
        <time>2016-08-07T15:02:34Z</time>
      </trkpt>
      <trkpt lat="44.07455" lon="3.40298">
        <ele>879.26</ele>
        <time>2016-08-07T15:02:41Z</time>
      </trkpt>
      <trkpt lat="44.07452" lon="3.40295">
        <ele>877.82</ele>
        <time>2016-08-07T15:02:48Z</time>
      </trkpt>
      <trkpt lat="44.07448" lon="3.40288">
        <ele>874.94</ele>
        <time>2016-08-07T15:02:55Z</time>
      </trkpt>
      <trkpt lat="44.07446" lon="3.40282">
        <ele>875.42</ele>
        <time>2016-08-07T15:03:00Z</time>
      </trkpt>
      <trkpt lat="44.07442" lon="3.40276">
        <ele>874.46</ele>
        <time>2016-08-07T15:03:08Z</time>
      </trkpt>
      <trkpt lat="44.07436" lon="3.40271">
        <ele>872.53</ele>
        <time>2016-08-07T15:03:15Z</time>
      </trkpt>
      <trkpt lat="44.07434" lon="3.40267">
        <ele>871.09</ele>
        <time>2016-08-07T15:03:23Z</time>
      </trkpt>
      <trkpt lat="44.07429" lon="3.40258">
        <ele>867.25</ele>
        <time>2016-08-07T15:03:31Z</time>
      </trkpt>
      <trkpt lat="44.07423" lon="3.40251">
        <ele>861.96</ele>
        <time>2016-08-07T15:03:39Z</time>
      </trkpt>
      <trkpt lat="44.07418" lon="3.40242">
        <ele>861</ele>
        <time>2016-08-07T15:03:48Z</time>
      </trkpt>
      <trkpt lat="44.07414" lon="3.40237">
        <ele>861</ele>
        <time>2016-08-07T15:03:54Z</time>
      </trkpt>
      <trkpt lat="44.0741" lon="3.40232">
        <ele>860.52</ele>
        <time>2016-08-07T15:04:00Z</time>
      </trkpt>
      <trkpt lat="44.07408" lon="3.40229">
        <ele>858.11</ele>
        <time>2016-08-07T15:04:07Z</time>
      </trkpt>
      <trkpt lat="44.07405" lon="3.40223">
        <ele>856.19</ele>
        <time>2016-08-07T15:04:13Z</time>
      </trkpt>
      <trkpt lat="44.07398" lon="3.4022">
        <ele>854.75</ele>
        <time>2016-08-07T15:04:21Z</time>
      </trkpt>
      <trkpt lat="44.07393" lon="3.40217">
        <ele>853.31</ele>
        <time>2016-08-07T15:04:28Z</time>
      </trkpt>
      <trkpt lat="44.07389" lon="3.40213">
        <ele>852.35</ele>
        <time>2016-08-07T15:04:35Z</time>
      </trkpt>
      <trkpt lat="44.07385" lon="3.40207">
        <ele>851.38</ele>
        <time>2016-08-07T15:04:42Z</time>
      </trkpt>
      <trkpt lat="44.07382" lon="3.40201">
        <ele>848.02</ele>
        <time>2016-08-07T15:04:49Z</time>
      </trkpt>
      <trkpt lat="44.07377" lon="3.40193">
        <ele>845.14</ele>
        <time>2016-08-07T15:04:56Z</time>
      </trkpt>
      <trkpt lat="44.07373" lon="3.40186">
        <ele>842.73</ele>
        <time>2016-08-07T15:05:04Z</time>
      </trkpt>
      <trkpt lat="44.0737" lon="3.40183">
        <ele>839.37</ele>
        <time>2016-08-07T15:05:13Z</time>
      </trkpt>
      <trkpt lat="44.07366" lon="3.40175">
        <ele>836.48</ele>
        <time>2016-08-07T15:05:20Z</time>
      </trkpt>
      <trkpt lat="44.07361" lon="3.40169">
        <ele>833.6</ele>
        <time>2016-08-07T15:05:27Z</time>
      </trkpt>
      <trkpt lat="44.07354" lon="3.40157">
        <ele>831.68</ele>
        <time>2016-08-07T15:05:36Z</time>
      </trkpt>
      <trkpt lat="44.07351" lon="3.40147">
        <ele>830.24</ele>
        <time>2016-08-07T15:05:45Z</time>
      </trkpt>
      <trkpt lat="44.07347" lon="3.40139">
        <ele>828.79</ele>
        <time>2016-08-07T15:05:52Z</time>
      </trkpt>
      <trkpt lat="44.07346" lon="3.4013">
        <ele>828.79</ele>
        <time>2016-08-07T15:05:56Z</time>
      </trkpt>
      <trkpt lat="44.07341" lon="3.40114">
        <ele>828.31</ele>
        <time>2016-08-07T15:06:05Z</time>
      </trkpt>
      <trkpt lat="44.07338" lon="3.40104">
        <ele>827.35</ele>
        <time>2016-08-07T15:06:12Z</time>
      </trkpt>
      <trkpt lat="44.07338" lon="3.40096">
        <ele>825.91</ele>
        <time>2016-08-07T15:06:19Z</time>
      </trkpt>
      <trkpt lat="44.07338" lon="3.40094">
        <ele>825.43</ele>
        <time>2016-08-07T15:06:26Z</time>
      </trkpt>
      <trkpt lat="44.07341" lon="3.40085">
        <ele>820.62</ele>
        <time>2016-08-07T15:06:33Z</time>
      </trkpt>
      <trkpt lat="44.07346" lon="3.40077">
        <ele>811.97</ele>
        <time>2016-08-07T15:06:41Z</time>
      </trkpt>
      <trkpt lat="44.07352" lon="3.40069">
        <ele>803.8</ele>
        <time>2016-08-07T15:06:50Z</time>
      </trkpt>
      <trkpt lat="44.07354" lon="3.40067">
        <ele>801.4</ele>
        <time>2016-08-07T15:06:59Z</time>
      </trkpt>
      <trkpt lat="44.07353" lon="3.40066">
        <ele>800.92</ele>
        <time>2016-08-07T15:07:06Z</time>
      </trkpt>
      <trkpt lat="44.07348" lon="3.40066">
        <ele>798.03</ele>
        <time>2016-08-07T15:07:14Z</time>
      </trkpt>
      <trkpt lat="44.07343" lon="3.40068">
        <ele>797.07</ele>
        <time>2016-08-07T15:07:21Z</time>
      </trkpt>
      <trkpt lat="44.07342" lon="3.40069">
        <ele>797.07</ele>
        <time>2016-08-07T15:07:22Z</time>
      </trkpt>
      <trkpt lat="44.07335" lon="3.40068">
        <ele>795.63</ele>
        <time>2016-08-07T15:07:29Z</time>
      </trkpt>
      <trkpt lat="44.07335" lon="3.40064">
        <ele>795.15</ele>
        <time>2016-08-07T15:07:32Z</time>
      </trkpt>
      <trkpt lat="44.07336" lon="3.40059">
        <ele>794.19</ele>
        <time>2016-08-07T15:07:39Z</time>
      </trkpt>
      <trkpt lat="44.07336" lon="3.40056">
        <ele>793.71</ele>
        <time>2016-08-07T15:07:47Z</time>
      </trkpt>
      <trkpt lat="44.07337" lon="3.40046">
        <ele>791.78</ele>
        <time>2016-08-07T15:07:53Z</time>
      </trkpt>
      <trkpt lat="44.07336" lon="3.40035">
        <ele>793.22</ele>
        <time>2016-08-07T15:07:59Z</time>
      </trkpt>
      <trkpt lat="44.07338" lon="3.40026">
        <ele>792.26</ele>
        <time>2016-08-07T15:08:05Z</time>
      </trkpt>
      <trkpt lat="44.07341" lon="3.40013">
        <ele>788.9</ele>
        <time>2016-08-07T15:08:13Z</time>
      </trkpt>
      <trkpt lat="44.07341" lon="3.40013">
        <ele>788.9</ele>
        <time>2016-08-07T15:08:20Z</time>
      </trkpt>
      <trkpt lat="44.07341" lon="3.40013">
        <ele>788.9</ele>
        <time>2016-08-07T15:08:29Z</time>
      </trkpt>
      <trkpt lat="44.07341" lon="3.40013">
        <ele>788.9</ele>
        <time>2016-08-07T15:08:36Z</time>
      </trkpt>
      <trkpt lat="44.0734" lon="3.40011">
        <ele>788.42</ele>
        <time>2016-08-07T15:08:44Z</time>
      </trkpt>
      <trkpt lat="44.07335" lon="3.40008">
        <ele>787.46</ele>
        <time>2016-08-07T15:08:50Z</time>
      </trkpt>
      <trkpt lat="44.07333" lon="3.40008">
        <ele>786.5</ele>
        <time>2016-08-07T15:08:56Z</time>
      </trkpt>
      <trkpt lat="44.07333" lon="3.40008">
        <ele>786.5</ele>
        <time>2016-08-07T15:09:03Z</time>
      </trkpt>
      <trkpt lat="44.07333" lon="3.40007">
        <ele>786.5</ele>
        <time>2016-08-07T15:09:11Z</time>
      </trkpt>
      <trkpt lat="44.07335" lon="3.39997">
        <ele>783.61</ele>
        <time>2016-08-07T15:09:18Z</time>
      </trkpt>
      <trkpt lat="44.07335" lon="3.39988">
        <ele>784.09</ele>
        <time>2016-08-07T15:09:26Z</time>
      </trkpt>
      <trkpt lat="44.07338" lon="3.39981">
        <ele>782.65</ele>
        <time>2016-08-07T15:09:33Z</time>
      </trkpt>
      <trkpt lat="44.07339" lon="3.39964">
        <ele>782.17</ele>
        <time>2016-08-07T15:09:40Z</time>
      </trkpt>
      <trkpt lat="44.07341" lon="3.3995">
        <ele>780.25</ele>
        <time>2016-08-07T15:09:46Z</time>
      </trkpt>
      <trkpt lat="44.07341" lon="3.39936">
        <ele>781.69</ele>
        <time>2016-08-07T15:09:52Z</time>
      </trkpt>
      <trkpt lat="44.07344" lon="3.39922">
        <ele>780.73</ele>
        <time>2016-08-07T15:10:02Z</time>
      </trkpt>
      <trkpt lat="44.07346" lon="3.39918">
        <ele>779.77</ele>
        <time>2016-08-07T15:10:09Z</time>
      </trkpt>
      <trkpt lat="44.07348" lon="3.39914">
        <ele>778.32</ele>
        <time>2016-08-07T15:10:17Z</time>
      </trkpt>
      <trkpt lat="44.07349" lon="3.39911">
        <ele>777.84</ele>
        <time>2016-08-07T15:10:24Z</time>
      </trkpt>
      <trkpt lat="44.07351" lon="3.39903">
        <ele>777.36</ele>
        <time>2016-08-07T15:10:29Z</time>
      </trkpt>
      <trkpt lat="44.07355" lon="3.39897">
        <ele>777.36</ele>
        <time>2016-08-07T15:10:36Z</time>
      </trkpt>
      <trkpt lat="44.0736" lon="3.39881">
        <ele>777.36</ele>
        <time>2016-08-07T15:10:42Z</time>
      </trkpt>
      <trkpt lat="44.07364" lon="3.39869">
        <ele>776.4</ele>
        <time>2016-08-07T15:10:49Z</time>
      </trkpt>
      <trkpt lat="44.07364" lon="3.39869">
        <ele>776.4</ele>
        <time>2016-08-07T15:10:51Z</time>
      </trkpt>
      <trkpt lat="44.07368" lon="3.39855">
        <ele>775.44</ele>
        <time>2016-08-07T15:10:59Z</time>
      </trkpt>
      <trkpt lat="44.0737" lon="3.39846">
        <ele>774.48</ele>
        <time>2016-08-07T15:11:05Z</time>
      </trkpt>
      <trkpt lat="44.07372" lon="3.39833">
        <ele>772.56</ele>
        <time>2016-08-07T15:11:13Z</time>
      </trkpt>
      <trkpt lat="44.07373" lon="3.39828">
        <ele>772.08</ele>
        <time>2016-08-07T15:11:20Z</time>
      </trkpt>
      <trkpt lat="44.07373" lon="3.39824">
        <ele>771.6</ele>
        <time>2016-08-07T15:11:25Z</time>
      </trkpt>
      <trkpt lat="44.07375" lon="3.39816">
        <ele>770.63</ele>
        <time>2016-08-07T15:11:31Z</time>
      </trkpt>
      <trkpt lat="44.07377" lon="3.39812">
        <ele>770.15</ele>
        <time>2016-08-07T15:11:38Z</time>
      </trkpt>
      <trkpt lat="44.07378" lon="3.39799">
        <ele>769.19</ele>
        <time>2016-08-07T15:11:47Z</time>
      </trkpt>
      <trkpt lat="44.07382" lon="3.39787">
        <ele>767.27</ele>
        <time>2016-08-07T15:11:53Z</time>
      </trkpt>
      <trkpt lat="44.07387" lon="3.39778">
        <ele>766.31</ele>
        <time>2016-08-07T15:12:00Z</time>
      </trkpt>
      <trkpt lat="44.07391" lon="3.39769">
        <ele>764.39</ele>
        <time>2016-08-07T15:12:07Z</time>
      </trkpt>
      <trkpt lat="44.07393" lon="3.39763">
        <ele>761.5</ele>
        <time>2016-08-07T15:12:12Z</time>
      </trkpt>
      <trkpt lat="44.07395" lon="3.39751">
        <ele>760.06</ele>
        <time>2016-08-07T15:12:20Z</time>
      </trkpt>
      <trkpt lat="44.07396" lon="3.39742">
        <ele>759.58</ele>
        <time>2016-08-07T15:12:28Z</time>
      </trkpt>
      <trkpt lat="44.07396" lon="3.39736">
        <ele>758.62</ele>
        <time>2016-08-07T15:12:34Z</time>
      </trkpt>
      <trkpt lat="44.07401" lon="3.39728">
        <ele>756.21</ele>
        <time>2016-08-07T15:12:41Z</time>
      </trkpt>
      <trkpt lat="44.07404" lon="3.39721">
        <ele>753.81</ele>
        <time>2016-08-07T15:12:49Z</time>
      </trkpt>
      <trkpt lat="44.07407" lon="3.39709">
        <ele>753.33</ele>
        <time>2016-08-07T15:12:56Z</time>
      </trkpt>
      <trkpt lat="44.0741" lon="3.39703">
        <ele>751.89</ele>
        <time>2016-08-07T15:13:03Z</time>
      </trkpt>
      <trkpt lat="44.07411" lon="3.397">
        <ele>751.89</ele>
        <time>2016-08-07T15:13:05Z</time>
      </trkpt>
      <trkpt lat="44.07415" lon="3.39691">
        <ele>749</ele>
        <time>2016-08-07T15:13:13Z</time>
      </trkpt>
      <trkpt lat="44.07416" lon="3.39685">
        <ele>747.56</ele>
        <time>2016-08-07T15:13:19Z</time>
      </trkpt>
      <trkpt lat="44.07418" lon="3.39676">
        <ele>746.6</ele>
        <time>2016-08-07T15:13:27Z</time>
      </trkpt>
      <trkpt lat="44.07421" lon="3.39667">
        <ele>744.68</ele>
        <time>2016-08-07T15:13:34Z</time>
      </trkpt>
      <trkpt lat="44.07425" lon="3.39661">
        <ele>743.24</ele>
        <time>2016-08-07T15:13:41Z</time>
      </trkpt>
      <trkpt lat="44.07426" lon="3.39653">
        <ele>741.79</ele>
        <time>2016-08-07T15:13:48Z</time>
      </trkpt>
      <trkpt lat="44.07427" lon="3.39646">
        <ele>740.35</ele>
        <time>2016-08-07T15:13:55Z</time>
      </trkpt>
      <trkpt lat="44.07427" lon="3.39635">
        <ele>740.35</ele>
        <time>2016-08-07T15:14:03Z</time>
      </trkpt>
      <trkpt lat="44.07428" lon="3.39629">
        <ele>739.39</ele>
        <time>2016-08-07T15:14:11Z</time>
      </trkpt>
      <trkpt lat="44.07431" lon="3.3962">
        <ele>737.47</ele>
        <time>2016-08-07T15:14:20Z</time>
      </trkpt>
      <trkpt lat="44.07433" lon="3.39612">
        <ele>736.03</ele>
        <time>2016-08-07T15:14:28Z</time>
      </trkpt>
      <trkpt lat="44.07435" lon="3.39603">
        <ele>734.1</ele>
        <time>2016-08-07T15:14:38Z</time>
      </trkpt>
      <trkpt lat="44.07437" lon="3.39594">
        <ele>733.14</ele>
        <time>2016-08-07T15:14:47Z</time>
      </trkpt>
      <trkpt lat="44.07439" lon="3.39589">
        <ele>730.26</ele>
        <time>2016-08-07T15:14:54Z</time>
      </trkpt>
      <trkpt lat="44.07435" lon="3.39589">
        <ele>730.26</ele>
        <time>2016-08-07T15:15:01Z</time>
      </trkpt>
      <trkpt lat="44.07433" lon="3.39588">
        <ele>730.26</ele>
        <time>2016-08-07T15:15:04Z</time>
      </trkpt>
      <trkpt lat="44.07428" lon="3.39586">
        <ele>727.86</ele>
        <time>2016-08-07T15:15:10Z</time>
      </trkpt>
      <trkpt lat="44.07421" lon="3.39589">
        <ele>725.93</ele>
        <time>2016-08-07T15:15:18Z</time>
      </trkpt>
      <trkpt lat="44.07417" lon="3.39593">
        <ele>723.05</ele>
        <time>2016-08-07T15:15:25Z</time>
      </trkpt>
      <trkpt lat="44.07413" lon="3.39593">
        <ele>720.65</ele>
        <time>2016-08-07T15:15:33Z</time>
      </trkpt>
      <trkpt lat="44.0741" lon="3.39592">
        <ele>720.16</ele>
        <time>2016-08-07T15:15:37Z</time>
      </trkpt>
      <trkpt lat="44.07406" lon="3.39591">
        <ele>719.2</ele>
        <time>2016-08-07T15:15:41Z</time>
      </trkpt>
      <trkpt lat="44.07398" lon="3.39591">
        <ele>716.32</ele>
        <time>2016-08-07T15:15:50Z</time>
      </trkpt>
      <trkpt lat="44.07394" lon="3.39591">
        <ele>713.44</ele>
        <time>2016-08-07T15:15:57Z</time>
      </trkpt>
      <trkpt lat="44.07394" lon="3.39586">
        <ele>709.59</ele>
        <time>2016-08-07T15:16:03Z</time>
      </trkpt>
      <trkpt lat="44.07396" lon="3.39579">
        <ele>704.78</ele>
        <time>2016-08-07T15:16:10Z</time>
      </trkpt>
      <trkpt lat="44.07398" lon="3.39568">
        <ele>703.34</ele>
        <time>2016-08-07T15:16:18Z</time>
      </trkpt>
      <trkpt lat="44.07401" lon="3.39557">
        <ele>702.38</ele>
        <time>2016-08-07T15:16:25Z</time>
      </trkpt>
      <trkpt lat="44.074" lon="3.39547">
        <ele>702.38</ele>
        <time>2016-08-07T15:16:32Z</time>
      </trkpt>
      <trkpt lat="44.07396" lon="3.3954">
        <ele>701.42</ele>
        <time>2016-08-07T15:16:38Z</time>
      </trkpt>
      <trkpt lat="44.07397" lon="3.39531">
        <ele>700.46</ele>
        <time>2016-08-07T15:16:43Z</time>
      </trkpt>
      <trkpt lat="44.07398" lon="3.39524">
        <ele>699.98</ele>
        <time>2016-08-07T15:16:49Z</time>
      </trkpt>
      <trkpt lat="44.074" lon="3.39518">
        <ele>699.5</ele>
        <time>2016-08-07T15:16:53Z</time>
      </trkpt>
      <trkpt lat="44.07403" lon="3.39514">
        <ele>698.53</ele>
        <time>2016-08-07T15:16:57Z</time>
      </trkpt>
      <trkpt lat="44.07406" lon="3.39509">
        <ele>697.57</ele>
        <time>2016-08-07T15:17:01Z</time>
      </trkpt>
      <trkpt lat="44.07411" lon="3.39501">
        <ele>697.09</ele>
        <time>2016-08-07T15:17:09Z</time>
      </trkpt>
      <trkpt lat="44.07414" lon="3.39492">
        <ele>696.13</ele>
        <time>2016-08-07T15:17:17Z</time>
      </trkpt>
      <trkpt lat="44.07416" lon="3.39489">
        <ele>695.65</ele>
        <time>2016-08-07T15:17:20Z</time>
      </trkpt>
      <trkpt lat="44.07419" lon="3.3948">
        <ele>695.17</ele>
        <time>2016-08-07T15:17:27Z</time>
      </trkpt>
      <trkpt lat="44.07422" lon="3.39475">
        <ele>694.69</ele>
        <time>2016-08-07T15:17:32Z</time>
      </trkpt>
      <trkpt lat="44.07427" lon="3.39469">
        <ele>693.73</ele>
        <time>2016-08-07T15:17:39Z</time>
      </trkpt>
      <trkpt lat="44.07435" lon="3.39469">
        <ele>692.29</ele>
        <time>2016-08-07T15:17:47Z</time>
      </trkpt>
      <trkpt lat="44.07439" lon="3.39462">
        <ele>690.84</ele>
        <time>2016-08-07T15:17:54Z</time>
      </trkpt>
      <trkpt lat="44.0744" lon="3.39459">
        <ele>690.36</ele>
        <time>2016-08-07T15:17:56Z</time>
      </trkpt>
      <trkpt lat="44.07444" lon="3.3945">
        <ele>689.4</ele>
        <time>2016-08-07T15:18:04Z</time>
      </trkpt>
      <trkpt lat="44.07447" lon="3.39436">
        <ele>687.48</ele>
        <time>2016-08-07T15:18:14Z</time>
      </trkpt>
      <trkpt lat="44.07447" lon="3.39428">
        <ele>686.52</ele>
        <time>2016-08-07T15:18:21Z</time>
      </trkpt>
      <trkpt lat="44.07449" lon="3.39418">
        <ele>685.56</ele>
        <time>2016-08-07T15:18:29Z</time>
      </trkpt>
      <trkpt lat="44.07451" lon="3.39409">
        <ele>684.12</ele>
        <time>2016-08-07T15:18:37Z</time>
      </trkpt>
      <trkpt lat="44.07453" lon="3.39402">
        <ele>682.67</ele>
        <time>2016-08-07T15:18:44Z</time>
      </trkpt>
      <trkpt lat="44.07456" lon="3.39393">
        <ele>681.23</ele>
        <time>2016-08-07T15:18:51Z</time>
      </trkpt>
      <trkpt lat="44.07457" lon="3.3939">
        <ele>680.75</ele>
        <time>2016-08-07T15:18:53Z</time>
      </trkpt>
      <trkpt lat="44.07459" lon="3.39378">
        <ele>680.75</ele>
        <time>2016-08-07T15:19:01Z</time>
      </trkpt>
      <trkpt lat="44.07462" lon="3.39369">
        <ele>679.31</ele>
        <time>2016-08-07T15:19:07Z</time>
      </trkpt>
      <trkpt lat="44.07464" lon="3.39367">
        <ele>678.35</ele>
        <time>2016-08-07T15:19:09Z</time>
      </trkpt>
      <trkpt lat="44.07468" lon="3.39358">
        <ele>675.94</ele>
        <time>2016-08-07T15:19:17Z</time>
      </trkpt>
      <trkpt lat="44.0747" lon="3.3935">
        <ele>674.5</ele>
        <time>2016-08-07T15:19:23Z</time>
      </trkpt>
      <trkpt lat="44.07472" lon="3.3934">
        <ele>672.1</ele>
        <time>2016-08-07T15:19:31Z</time>
      </trkpt>
      <trkpt lat="44.07472" lon="3.39332">
        <ele>670.66</ele>
        <time>2016-08-07T15:19:38Z</time>
      </trkpt>
      <trkpt lat="44.07473" lon="3.39323">
        <ele>670.66</ele>
        <time>2016-08-07T15:19:45Z</time>
      </trkpt>
      <trkpt lat="44.07473" lon="3.39314">
        <ele>670.18</ele>
        <time>2016-08-07T15:19:53Z</time>
      </trkpt>
      <trkpt lat="44.07475" lon="3.39305">
        <ele>666.81</ele>
        <time>2016-08-07T15:20:01Z</time>
      </trkpt>
      <trkpt lat="44.07476" lon="3.39301">
        <ele>665.37</ele>
        <time>2016-08-07T15:20:04Z</time>
      </trkpt>
      <trkpt lat="44.0748" lon="3.39294">
        <ele>665.37</ele>
        <time>2016-08-07T15:20:10Z</time>
      </trkpt>
      <trkpt lat="44.07489" lon="3.39289">
        <ele>663.93</ele>
        <time>2016-08-07T15:20:18Z</time>
      </trkpt>
      <trkpt lat="44.07494" lon="3.39285">
        <ele>661.52</ele>
        <time>2016-08-07T15:20:26Z</time>
      </trkpt>
      <trkpt lat="44.07497" lon="3.39279">
        <ele>662.49</ele>
        <time>2016-08-07T15:20:32Z</time>
      </trkpt>
      <trkpt lat="44.07502" lon="3.39272">
        <ele>662.01</ele>
        <time>2016-08-07T15:20:39Z</time>
      </trkpt>
      <trkpt lat="44.07508" lon="3.39268">
        <ele>661.52</ele>
        <time>2016-08-07T15:20:47Z</time>
      </trkpt>
      <trkpt lat="44.07513" lon="3.39263">
        <ele>660.08</ele>
        <time>2016-08-07T15:20:54Z</time>
      </trkpt>
      <trkpt lat="44.0752" lon="3.39258">
        <ele>659.12</ele>
        <time>2016-08-07T15:21:01Z</time>
      </trkpt>
      <trkpt lat="44.07528" lon="3.39253">
        <ele>657.68</ele>
        <time>2016-08-07T15:21:09Z</time>
      </trkpt>
      <trkpt lat="44.07531" lon="3.39251">
        <ele>656.24</ele>
        <time>2016-08-07T15:21:17Z</time>
      </trkpt>
      <trkpt lat="44.0754" lon="3.39249">
        <ele>654.31</ele>
        <time>2016-08-07T15:21:24Z</time>
      </trkpt>
      <trkpt lat="44.07545" lon="3.39245">
        <ele>652.87</ele>
        <time>2016-08-07T15:21:30Z</time>
      </trkpt>
      <trkpt lat="44.0755" lon="3.39238">
        <ele>651.91</ele>
        <time>2016-08-07T15:21:37Z</time>
      </trkpt>
      <trkpt lat="44.07553" lon="3.39233">
        <ele>650.95</ele>
        <time>2016-08-07T15:21:45Z</time>
      </trkpt>
      <trkpt lat="44.07556" lon="3.39231">
        <ele>649.99</ele>
        <time>2016-08-07T15:21:52Z</time>
      </trkpt>
      <trkpt lat="44.0756" lon="3.39225">
        <ele>648.55</ele>
        <time>2016-08-07T15:21:59Z</time>
      </trkpt>
      <trkpt lat="44.07565" lon="3.3922">
        <ele>648.07</ele>
        <time>2016-08-07T15:22:06Z</time>
      </trkpt>
      <trkpt lat="44.07567" lon="3.39219">
        <ele>647.59</ele>
        <time>2016-08-07T15:22:12Z</time>
      </trkpt>
      <trkpt lat="44.07573" lon="3.39213">
        <ele>647.1</ele>
        <time>2016-08-07T15:22:19Z</time>
      </trkpt>
      <trkpt lat="44.07578" lon="3.39207">
        <ele>646.14</ele>
        <time>2016-08-07T15:22:26Z</time>
      </trkpt>
      <trkpt lat="44.07582" lon="3.39203">
        <ele>644.7</ele>
        <time>2016-08-07T15:22:34Z</time>
      </trkpt>
      <trkpt lat="44.07586" lon="3.39193">
        <ele>643.26</ele>
        <time>2016-08-07T15:22:43Z</time>
      </trkpt>
      <trkpt lat="44.07586" lon="3.39186">
        <ele>642.3</ele>
        <time>2016-08-07T15:22:47Z</time>
      </trkpt>
      <trkpt lat="44.07586" lon="3.39179">
        <ele>641.82</ele>
        <time>2016-08-07T15:22:54Z</time>
      </trkpt>
      <trkpt lat="44.07583" lon="3.39169">
        <ele>639.41</ele>
        <time>2016-08-07T15:23:03Z</time>
      </trkpt>
      <trkpt lat="44.07582" lon="3.39162">
        <ele>639.41</ele>
        <time>2016-08-07T15:23:11Z</time>
      </trkpt>
      <trkpt lat="44.07584" lon="3.39159">
        <ele>637.97</ele>
        <time>2016-08-07T15:23:19Z</time>
      </trkpt>
      <trkpt lat="44.07584" lon="3.39156">
        <ele>636.05</ele>
        <time>2016-08-07T15:23:27Z</time>
      </trkpt>
      <trkpt lat="44.07583" lon="3.39154">
        <ele>633.65</ele>
        <time>2016-08-07T15:23:35Z</time>
      </trkpt>
      <trkpt lat="44.07584" lon="3.39153">
        <ele>633.17</ele>
        <time>2016-08-07T15:23:42Z</time>
      </trkpt>
      <trkpt lat="44.07588" lon="3.39148">
        <ele>632.2</ele>
        <time>2016-08-07T15:23:48Z</time>
      </trkpt>
      <trkpt lat="44.0759" lon="3.39148">
        <ele>631.24</ele>
        <time>2016-08-07T15:23:55Z</time>
      </trkpt>
      <trkpt lat="44.07594" lon="3.39148">
        <ele>628.84</ele>
        <time>2016-08-07T15:24:01Z</time>
      </trkpt>
      <trkpt lat="44.07597" lon="3.39146">
        <ele>627.88</ele>
        <time>2016-08-07T15:24:09Z</time>
      </trkpt>
      <trkpt lat="44.07601" lon="3.39142">
        <ele>625.96</ele>
        <time>2016-08-07T15:24:16Z</time>
      </trkpt>
      <trkpt lat="44.07604" lon="3.39139">
        <ele>624.51</ele>
        <time>2016-08-07T15:24:24Z</time>
      </trkpt>
      <trkpt lat="44.07612" lon="3.3913">
        <ele>622.11</ele>
        <time>2016-08-07T15:24:32Z</time>
      </trkpt>
      <trkpt lat="44.07617" lon="3.39125">
        <ele>619.71</ele>
        <time>2016-08-07T15:24:40Z</time>
      </trkpt>
      <trkpt lat="44.07617" lon="3.39124">
        <ele>619.23</ele>
        <time>2016-08-07T15:24:44Z</time>
      </trkpt>
      <trkpt lat="44.07622" lon="3.39119">
        <ele>617.3</ele>
        <time>2016-08-07T15:24:51Z</time>
      </trkpt>
      <trkpt lat="44.07624" lon="3.39115">
        <ele>615.38</ele>
        <time>2016-08-07T15:24:58Z</time>
      </trkpt>
      <trkpt lat="44.07626" lon="3.39114">
        <ele>613.94</ele>
        <time>2016-08-07T15:25:04Z</time>
      </trkpt>
      <trkpt lat="44.07631" lon="3.39107">
        <ele>611.06</ele>
        <time>2016-08-07T15:25:12Z</time>
      </trkpt>
      <trkpt lat="44.07634" lon="3.39105">
        <ele>609.61</ele>
        <time>2016-08-07T15:25:18Z</time>
      </trkpt>
      <trkpt lat="44.07636" lon="3.39105">
        <ele>607.69</ele>
        <time>2016-08-07T15:25:24Z</time>
      </trkpt>
      <trkpt lat="44.07639" lon="3.391">
        <ele>606.25</ele>
        <time>2016-08-07T15:25:31Z</time>
      </trkpt>
      <trkpt lat="44.07642" lon="3.391">
        <ele>604.81</ele>
        <time>2016-08-07T15:25:37Z</time>
      </trkpt>
      <trkpt lat="44.07644" lon="3.39099">
        <ele>602.88</ele>
        <time>2016-08-07T15:25:44Z</time>
      </trkpt>
      <trkpt lat="44.07645" lon="3.39099">
        <ele>602.4</ele>
        <time>2016-08-07T15:25:45Z</time>
      </trkpt>
      <trkpt lat="44.07648" lon="3.39098">
        <ele>602.4</ele>
        <time>2016-08-07T15:25:51Z</time>
      </trkpt>
      <trkpt lat="44.07648" lon="3.39098">
        <ele>602.4</ele>
        <time>2016-08-07T15:25:57Z</time>
      </trkpt>
      <trkpt lat="44.0765" lon="3.39099">
        <ele>599.52</ele>
        <time>2016-08-07T15:26:03Z</time>
      </trkpt>
      <trkpt lat="44.07653" lon="3.39098">
        <ele>600</ele>
        <time>2016-08-07T15:26:11Z</time>
      </trkpt>
      <trkpt lat="44.07653" lon="3.39098">
        <ele>600</ele>
        <time>2016-08-07T15:26:23Z</time>
      </trkpt>
      <trkpt lat="44.07653" lon="3.39098">
        <ele>600</ele>
        <time>2016-08-07T15:26:35Z</time>
      </trkpt>
      <trkpt lat="44.07657" lon="3.39098">
        <ele>600.48</ele>
        <time>2016-08-07T15:26:46Z</time>
      </trkpt>
      <trkpt lat="44.07661" lon="3.39097">
        <ele>600.48</ele>
        <time>2016-08-07T15:26:54Z</time>
      </trkpt>
      <trkpt lat="44.07661" lon="3.39097">
        <ele>600.48</ele>
        <time>2016-08-07T15:27:01Z</time>
      </trkpt>
      <trkpt lat="44.07664" lon="3.39093">
        <ele>599.04</ele>
        <time>2016-08-07T15:27:09Z</time>
      </trkpt>
      <trkpt lat="44.07666" lon="3.39087">
        <ele>596.64</ele>
        <time>2016-08-07T15:27:15Z</time>
      </trkpt>
      <trkpt lat="44.07666" lon="3.39084">
        <ele>595.67</ele>
        <time>2016-08-07T15:27:21Z</time>
      </trkpt>
      <trkpt lat="44.07663" lon="3.39077">
        <ele>593.75</ele>
        <time>2016-08-07T15:27:28Z</time>
      </trkpt>
      <trkpt lat="44.07663" lon="3.39075">
        <ele>591.35</ele>
        <time>2016-08-07T15:27:34Z</time>
      </trkpt>
      <trkpt lat="44.07663" lon="3.39075">
        <ele>591.35</ele>
        <time>2016-08-07T15:27:42Z</time>
      </trkpt>
      <trkpt lat="44.0766" lon="3.39069">
        <ele>590.39</ele>
        <time>2016-08-07T15:27:50Z</time>
      </trkpt>
      <trkpt lat="44.07661" lon="3.39068">
        <ele>590.39</ele>
        <time>2016-08-07T15:27:56Z</time>
      </trkpt>
      <trkpt lat="44.0766" lon="3.39068">
        <ele>590.39</ele>
        <time>2016-08-07T15:28:01Z</time>
      </trkpt>
      <trkpt lat="44.07666" lon="3.39072">
        <ele>587.02</ele>
        <time>2016-08-07T15:28:06Z</time>
      </trkpt>
      <trkpt lat="44.07676" lon="3.39081">
        <ele>584.62</ele>
        <time>2016-08-07T15:28:15Z</time>
      </trkpt>
      <trkpt lat="44.07679" lon="3.39088">
        <ele>583.66</ele>
        <time>2016-08-07T15:28:22Z</time>
      </trkpt>
      <trkpt lat="44.07684" lon="3.39091">
        <ele>581.25</ele>
        <time>2016-08-07T15:28:30Z</time>
      </trkpt>
      <trkpt lat="44.07689" lon="3.39095">
        <ele>581.25</ele>
        <time>2016-08-07T15:28:38Z</time>
      </trkpt>
      <trkpt lat="44.07692" lon="3.39103">
        <ele>581.73</ele>
        <time>2016-08-07T15:28:45Z</time>
      </trkpt>
      <trkpt lat="44.07692" lon="3.39113">
        <ele>581.25</ele>
        <time>2016-08-07T15:28:53Z</time>
      </trkpt>
      <trkpt lat="44.07694" lon="3.39121">
        <ele>580.77</ele>
        <time>2016-08-07T15:28:59Z</time>
      </trkpt>
      <trkpt lat="44.07694" lon="3.39122">
        <ele>580.77</ele>
        <time>2016-08-07T15:29:00Z</time>
      </trkpt>
      <trkpt lat="44.07693" lon="3.39131">
        <ele>581.73</ele>
        <time>2016-08-07T15:29:07Z</time>
      </trkpt>
      <trkpt lat="44.07693" lon="3.39141">
        <ele>581.73</ele>
        <time>2016-08-07T15:29:14Z</time>
      </trkpt>
      <trkpt lat="44.07694" lon="3.39143">
        <ele>581.25</ele>
        <time>2016-08-07T15:29:16Z</time>
      </trkpt>
      <trkpt lat="44.077" lon="3.39152">
        <ele>581.73</ele>
        <time>2016-08-07T15:29:23Z</time>
      </trkpt>
      <trkpt lat="44.07705" lon="3.39152">
        <ele>581.73</ele>
        <time>2016-08-07T15:29:28Z</time>
      </trkpt>
      <trkpt lat="44.07713" lon="3.39153">
        <ele>582.22</ele>
        <time>2016-08-07T15:29:35Z</time>
      </trkpt>
      <trkpt lat="44.07719" lon="3.39154">
        <ele>583.18</ele>
        <time>2016-08-07T15:29:41Z</time>
      </trkpt>
      <trkpt lat="44.07723" lon="3.39157">
        <ele>583.18</ele>
        <time>2016-08-07T15:29:45Z</time>
      </trkpt>
      <trkpt lat="44.07735" lon="3.39161">
        <ele>586.06</ele>
        <time>2016-08-07T15:29:55Z</time>
      </trkpt>
      <trkpt lat="44.07742" lon="3.39166">
        <ele>587.02</ele>
        <time>2016-08-07T15:30:03Z</time>
      </trkpt>
      <trkpt lat="44.07745" lon="3.39168">
        <ele>587.5</ele>
        <time>2016-08-07T15:30:06Z</time>
      </trkpt>
      <trkpt lat="44.07752" lon="3.39172">
        <ele>587.98</ele>
        <time>2016-08-07T15:30:13Z</time>
      </trkpt>
      <trkpt lat="44.07753" lon="3.39172">
        <ele>587.98</ele>
        <time>2016-08-07T15:30:14Z</time>
      </trkpt>
      <trkpt lat="44.0776" lon="3.39176">
        <ele>586.54</ele>
        <time>2016-08-07T15:30:21Z</time>
      </trkpt>
      <trkpt lat="44.07761" lon="3.39177">
        <ele>585.58</ele>
        <time>2016-08-07T15:30:24Z</time>
      </trkpt>
      <trkpt lat="44.07766" lon="3.39181">
        <ele>584.14</ele>
        <time>2016-08-07T15:30:29Z</time>
      </trkpt>
      <trkpt lat="44.07769" lon="3.39185">
        <ele>583.66</ele>
        <time>2016-08-07T15:30:33Z</time>
      </trkpt>
      <trkpt lat="44.07772" lon="3.39189">
        <ele>582.22</ele>
        <time>2016-08-07T15:30:37Z</time>
      </trkpt>
      <trkpt lat="44.07779" lon="3.392">
        <ele>579.81</ele>
        <time>2016-08-07T15:30:47Z</time>
      </trkpt>
      <trkpt lat="44.07781" lon="3.39207">
        <ele>582.22</ele>
        <time>2016-08-07T15:30:53Z</time>
      </trkpt>
      <trkpt lat="44.07783" lon="3.39212">
        <ele>583.66</ele>
        <time>2016-08-07T15:30:56Z</time>
      </trkpt>
      <trkpt lat="44.07785" lon="3.39222">
        <ele>584.14</ele>
        <time>2016-08-07T15:31:04Z</time>
      </trkpt>
      <trkpt lat="44.07787" lon="3.39226">
        <ele>583.66</ele>
        <time>2016-08-07T15:31:08Z</time>
      </trkpt>
      <trkpt lat="44.07791" lon="3.39234">
        <ele>582.7</ele>
        <time>2016-08-07T15:31:15Z</time>
      </trkpt>
      <trkpt lat="44.07798" lon="3.39239">
        <ele>582.7</ele>
        <time>2016-08-07T15:31:23Z</time>
      </trkpt>
      <trkpt lat="44.07808" lon="3.39237">
        <ele>586.54</ele>
        <time>2016-08-07T15:31:31Z</time>
      </trkpt>
      <trkpt lat="44.07811" lon="3.39235">
        <ele>587.98</ele>
        <time>2016-08-07T15:31:36Z</time>
      </trkpt>
      <trkpt lat="44.0782" lon="3.39232">
        <ele>589.43</ele>
        <time>2016-08-07T15:31:44Z</time>
      </trkpt>
      <trkpt lat="44.07827" lon="3.39232">
        <ele>591.35</ele>
        <time>2016-08-07T15:31:51Z</time>
      </trkpt>
      <trkpt lat="44.07836" lon="3.39235">
        <ele>594.23</ele>
        <time>2016-08-07T15:32:01Z</time>
      </trkpt>
      <trkpt lat="44.07843" lon="3.3924">
        <ele>595.19</ele>
        <time>2016-08-07T15:32:09Z</time>
      </trkpt>
      <trkpt lat="44.07845" lon="3.39242">
        <ele>596.15</ele>
        <time>2016-08-07T15:32:12Z</time>
      </trkpt>
      <trkpt lat="44.07848" lon="3.39248">
        <ele>597.12</ele>
        <time>2016-08-07T15:32:20Z</time>
      </trkpt>
      <trkpt lat="44.0785" lon="3.39251">
        <ele>597.12</ele>
        <time>2016-08-07T15:32:24Z</time>
      </trkpt>
      <trkpt lat="44.07851" lon="3.39252">
        <ele>597.12</ele>
        <time>2016-08-07T15:32:26Z</time>
      </trkpt>
      <trkpt lat="44.07853" lon="3.39261">
        <ele>594.71</ele>
        <time>2016-08-07T15:32:34Z</time>
      </trkpt>
      <trkpt lat="44.07857" lon="3.3927">
        <ele>593.75</ele>
        <time>2016-08-07T15:32:42Z</time>
      </trkpt>
      <trkpt lat="44.07862" lon="3.39276">
        <ele>595.19</ele>
        <time>2016-08-07T15:32:49Z</time>
      </trkpt>
      <trkpt lat="44.07866" lon="3.39283">
        <ele>594.71</ele>
        <time>2016-08-07T15:32:56Z</time>
      </trkpt>
      <trkpt lat="44.0787" lon="3.39288">
        <ele>595.19</ele>
        <time>2016-08-07T15:33:01Z</time>
      </trkpt>
      <trkpt lat="44.07873" lon="3.39296">
        <ele>596.64</ele>
        <time>2016-08-07T15:33:08Z</time>
      </trkpt>
      <trkpt lat="44.07873" lon="3.39301">
        <ele>599.04</ele>
        <time>2016-08-07T15:33:11Z</time>
      </trkpt>
      <trkpt lat="44.07872" lon="3.39305">
        <ele>600.96</ele>
        <time>2016-08-07T15:33:14Z</time>
      </trkpt>
      <trkpt lat="44.07865" lon="3.39316">
        <ele>608.65</ele>
        <time>2016-08-07T15:33:24Z</time>
      </trkpt>
      <trkpt lat="44.0786" lon="3.39322">
        <ele>610.57</ele>
        <time>2016-08-07T15:33:30Z</time>
      </trkpt>
      <trkpt lat="44.07853" lon="3.39329">
        <ele>612.5</ele>
        <time>2016-08-07T15:33:38Z</time>
      </trkpt>
      <trkpt lat="44.07849" lon="3.39334">
        <ele>613.94</ele>
        <time>2016-08-07T15:33:45Z</time>
      </trkpt>
      <trkpt lat="44.07845" lon="3.39342">
        <ele>616.82</ele>
        <time>2016-08-07T15:33:52Z</time>
      </trkpt>
      <trkpt lat="44.0784" lon="3.39343">
        <ele>618.75</ele>
        <time>2016-08-07T15:33:58Z</time>
      </trkpt>
      <trkpt lat="44.07835" lon="3.39337">
        <ele>619.23</ele>
        <time>2016-08-07T15:34:06Z</time>
      </trkpt>
      <trkpt lat="44.07832" lon="3.3933">
        <ele>619.71</ele>
        <time>2016-08-07T15:34:14Z</time>
      </trkpt>
      <trkpt lat="44.07824" lon="3.39326">
        <ele>621.15</ele>
        <time>2016-08-07T15:34:23Z</time>
      </trkpt>
      <trkpt lat="44.07816" lon="3.39327">
        <ele>624.03</ele>
        <time>2016-08-07T15:34:31Z</time>
      </trkpt>
      <trkpt lat="44.07816" lon="3.39326">
        <ele>624.03</ele>
        <time>2016-08-07T15:34:32Z</time>
      </trkpt>
      <trkpt lat="44.07811" lon="3.39324">
        <ele>625.47</ele>
        <time>2016-08-07T15:34:38Z</time>
      </trkpt>
      <trkpt lat="44.07808" lon="3.39324">
        <ele>625.96</ele>
        <time>2016-08-07T15:34:44Z</time>
      </trkpt>
      <trkpt lat="44.078" lon="3.39327">
        <ele>626.92</ele>
        <time>2016-08-07T15:34:53Z</time>
      </trkpt>
      <trkpt lat="44.07798" lon="3.39332">
        <ele>628.36</ele>
        <time>2016-08-07T15:34:59Z</time>
      </trkpt>
      <trkpt lat="44.07798" lon="3.39337">
        <ele>628.84</ele>
        <time>2016-08-07T15:35:05Z</time>
      </trkpt>
      <trkpt lat="44.078" lon="3.39338">
        <ele>629.32</ele>
        <time>2016-08-07T15:35:10Z</time>
      </trkpt>
      <trkpt lat="44.07801" lon="3.39338">
        <ele>629.32</ele>
        <time>2016-08-07T15:35:16Z</time>
      </trkpt>
      <trkpt lat="44.07801" lon="3.39338">
        <ele>629.32</ele>
        <time>2016-08-07T15:35:24Z</time>
      </trkpt>
      <trkpt lat="44.078" lon="3.39338">
        <ele>629.8</ele>
        <time>2016-08-07T15:35:30Z</time>
      </trkpt>
      <trkpt lat="44.07801" lon="3.39338">
        <ele>629.8</ele>
        <time>2016-08-07T15:35:37Z</time>
      </trkpt>
      <trkpt lat="44.078" lon="3.39334">
        <ele>629.32</ele>
        <time>2016-08-07T15:35:42Z</time>
      </trkpt>
      <trkpt lat="44.078" lon="3.3933">
        <ele>628.84</ele>
        <time>2016-08-07T15:35:49Z</time>
      </trkpt>
      <trkpt lat="44.078" lon="3.3933">
        <ele>628.84</ele>
        <time>2016-08-07T15:35:58Z</time>
      </trkpt>
      <trkpt lat="44.078" lon="3.3933">
        <ele>628.84</ele>
        <time>2016-08-07T15:36:09Z</time>
      </trkpt>
      <trkpt lat="44.078" lon="3.39331">
        <ele>628.84</ele>
        <time>2016-08-07T15:36:17Z</time>
      </trkpt>
      <trkpt lat="44.078" lon="3.39331">
        <ele>628.84</ele>
        <time>2016-08-07T15:36:27Z</time>
      </trkpt>
      <trkpt lat="44.078" lon="3.39331">
        <ele>628.84</ele>
        <time>2016-08-07T15:36:39Z</time>
      </trkpt>
      <trkpt lat="44.078" lon="3.39331">
        <ele>628.84</ele>
        <time>2016-08-07T15:36:45Z</time>
      </trkpt>
      <trkpt lat="44.078" lon="3.39331">
        <ele>628.84</ele>
        <time>2016-08-07T15:36:53Z</time>
      </trkpt>
      <trkpt lat="44.078" lon="3.39331">
        <ele>628.84</ele>
        <time>2016-08-07T15:37:10Z</time>
      </trkpt>
      <trkpt lat="44.078" lon="3.39332">
        <ele>628.84</ele>
        <time>2016-08-07T15:37:22Z</time>
      </trkpt>
      <trkpt lat="44.078" lon="3.39332">
        <ele>628.84</ele>
        <time>2016-08-07T15:37:28Z</time>
      </trkpt>
      <trkpt lat="44.07801" lon="3.39332">
        <ele>628.84</ele>
        <time>2016-08-07T15:37:37Z</time>
      </trkpt>
      <trkpt lat="44.078" lon="3.39332">
        <ele>628.84</ele>
        <time>2016-08-07T15:37:51Z</time>
      </trkpt>
      <trkpt lat="44.078" lon="3.39331">
        <ele>628.84</ele>
        <time>2016-08-07T15:38:06Z</time>
      </trkpt>
    </trkseg>
  </trk>
</gpx>